<?xml version="1.0" encoding="UTF-8" standalone="no" ?>
<gpx xmlns="http://www.topografix.com/GPX/1/1" xmlns:xsi="http://www.w3.org/2001/XMLSchema-instance" xsi:schemaLocation="http://www.topografix.com/GPX/1/1 http://www.topografix.com/GPX/1/1/gpx.xsd" version="1.1" creator="VisuGPX - https://www.visugpx.com">
  <metadata>
    <name>Rodez Olemps Calzins 11-05-11</name>
    <desc><![CDATA[Rodez Olemps Calzins 11-05-11]]></desc>
  </metadata>
  <trk>
    <name><![CDATA[RODEZ_OLEMPS_CALZINS_2011-05-11]]></name>
    <trkseg>
      <trkpt lat="44.3571" lon="2.55676">
        <ele>576.1</ele>
        <time>2011-05-11T15:56:22Z</time>
      </trkpt>
      <trkpt lat="44.35707" lon="2.55679">
        <ele>576.3</ele>
        <time>2011-05-11T15:57:18Z</time>
      </trkpt>
      <trkpt lat="44.35706" lon="2.55679">
        <ele>576.4</ele>
        <time>2011-05-11T15:57:19Z</time>
      </trkpt>
      <trkpt lat="44.35699" lon="2.55676">
        <ele>577.2</ele>
        <time>2011-05-11T15:57:24Z</time>
      </trkpt>
      <trkpt lat="44.35695" lon="2.55674">
        <ele>577.5</ele>
        <time>2011-05-11T15:57:26Z</time>
      </trkpt>
      <trkpt lat="44.35692" lon="2.55674">
        <ele>577.7</ele>
        <time>2011-05-11T15:57:27Z</time>
      </trkpt>
      <trkpt lat="44.3569" lon="2.55673">
        <ele>578</ele>
        <time>2011-05-11T15:57:28Z</time>
      </trkpt>
      <trkpt lat="44.35688" lon="2.55672">
        <ele>578.2</ele>
        <time>2011-05-11T15:57:29Z</time>
      </trkpt>
      <trkpt lat="44.35686" lon="2.55671">
        <ele>578.4</ele>
        <time>2011-05-11T15:57:30Z</time>
      </trkpt>
      <trkpt lat="44.35683" lon="2.55671">
        <ele>578.5</ele>
        <time>2011-05-11T15:57:31Z</time>
      </trkpt>
      <trkpt lat="44.35681" lon="2.5567">
        <ele>578.7</ele>
        <time>2011-05-11T15:57:32Z</time>
      </trkpt>
      <trkpt lat="44.35677" lon="2.5567">
        <ele>579</ele>
        <time>2011-05-11T15:57:34Z</time>
      </trkpt>
      <trkpt lat="44.35674" lon="2.55669">
        <ele>579.4</ele>
        <time>2011-05-11T15:57:36Z</time>
      </trkpt>
      <trkpt lat="44.35671" lon="2.55667">
        <ele>579.5</ele>
        <time>2011-05-11T15:57:38Z</time>
      </trkpt>
      <trkpt lat="44.35668" lon="2.55667">
        <ele>579.7</ele>
        <time>2011-05-11T15:57:39Z</time>
      </trkpt>
      <trkpt lat="44.35666" lon="2.55667">
        <ele>579.9</ele>
        <time>2011-05-11T15:57:40Z</time>
      </trkpt>
      <trkpt lat="44.35663" lon="2.55665">
        <ele>580</ele>
        <time>2011-05-11T15:57:41Z</time>
      </trkpt>
      <trkpt lat="44.3566" lon="2.55663">
        <ele>580.2</ele>
        <time>2011-05-11T15:57:43Z</time>
      </trkpt>
      <trkpt lat="44.35657" lon="2.55661">
        <ele>580.4</ele>
        <time>2011-05-11T15:57:44Z</time>
      </trkpt>
      <trkpt lat="44.35653" lon="2.55659">
        <ele>580.7</ele>
        <time>2011-05-11T15:57:46Z</time>
      </trkpt>
      <trkpt lat="44.35649" lon="2.55657">
        <ele>580.9</ele>
        <time>2011-05-11T15:57:48Z</time>
      </trkpt>
      <trkpt lat="44.35647" lon="2.55656">
        <ele>581</ele>
        <time>2011-05-11T15:57:49Z</time>
      </trkpt>
      <trkpt lat="44.35645" lon="2.55655">
        <ele>581</ele>
        <time>2011-05-11T15:57:50Z</time>
      </trkpt>
      <trkpt lat="44.35642" lon="2.55655">
        <ele>581.2</ele>
        <time>2011-05-11T15:57:51Z</time>
      </trkpt>
      <trkpt lat="44.3564" lon="2.55654">
        <ele>581.2</ele>
        <time>2011-05-11T15:57:52Z</time>
      </trkpt>
      <trkpt lat="44.35637" lon="2.55652">
        <ele>581.2</ele>
        <time>2011-05-11T15:57:53Z</time>
      </trkpt>
      <trkpt lat="44.35635" lon="2.55651">
        <ele>581.4</ele>
        <time>2011-05-11T15:57:54Z</time>
      </trkpt>
      <trkpt lat="44.35632" lon="2.55649">
        <ele>581.2</ele>
        <time>2011-05-11T15:57:55Z</time>
      </trkpt>
      <trkpt lat="44.3563" lon="2.55647">
        <ele>581.2</ele>
        <time>2011-05-11T15:57:56Z</time>
      </trkpt>
      <trkpt lat="44.35627" lon="2.55646">
        <ele>581.2</ele>
        <time>2011-05-11T15:57:57Z</time>
      </trkpt>
      <trkpt lat="44.35624" lon="2.55644">
        <ele>581.2</ele>
        <time>2011-05-11T15:57:58Z</time>
      </trkpt>
      <trkpt lat="44.35621" lon="2.55641">
        <ele>581</ele>
        <time>2011-05-11T15:57:59Z</time>
      </trkpt>
      <trkpt lat="44.35618" lon="2.55639">
        <ele>581</ele>
        <time>2011-05-11T15:58:00Z</time>
      </trkpt>
      <trkpt lat="44.35615" lon="2.55637">
        <ele>580.9</ele>
        <time>2011-05-11T15:58:01Z</time>
      </trkpt>
      <trkpt lat="44.35611" lon="2.55634">
        <ele>580.7</ele>
        <time>2011-05-11T15:58:02Z</time>
      </trkpt>
      <trkpt lat="44.35608" lon="2.55631">
        <ele>580.5</ele>
        <time>2011-05-11T15:58:03Z</time>
      </trkpt>
      <trkpt lat="44.35604" lon="2.55628">
        <ele>580.2</ele>
        <time>2011-05-11T15:58:04Z</time>
      </trkpt>
      <trkpt lat="44.35601" lon="2.55625">
        <ele>580</ele>
        <time>2011-05-11T15:58:05Z</time>
      </trkpt>
      <trkpt lat="44.35597" lon="2.55621">
        <ele>579.7</ele>
        <time>2011-05-11T15:58:06Z</time>
      </trkpt>
      <trkpt lat="44.35593" lon="2.55618">
        <ele>578.5</ele>
        <time>2011-05-11T15:58:07Z</time>
      </trkpt>
      <trkpt lat="44.35589" lon="2.55614">
        <ele>578.2</ele>
        <time>2011-05-11T15:58:08Z</time>
      </trkpt>
      <trkpt lat="44.35584" lon="2.5561">
        <ele>577.9</ele>
        <time>2011-05-11T15:58:09Z</time>
      </trkpt>
      <trkpt lat="44.3558" lon="2.55606">
        <ele>577.5</ele>
        <time>2011-05-11T15:58:10Z</time>
      </trkpt>
      <trkpt lat="44.35576" lon="2.55602">
        <ele>577.2</ele>
        <time>2011-05-11T15:58:11Z</time>
      </trkpt>
      <trkpt lat="44.35572" lon="2.55598">
        <ele>576.7</ele>
        <time>2011-05-11T15:58:12Z</time>
      </trkpt>
      <trkpt lat="44.35569" lon="2.55594">
        <ele>576.2</ele>
        <time>2011-05-11T15:58:13Z</time>
      </trkpt>
      <trkpt lat="44.35566" lon="2.55591">
        <ele>575.7</ele>
        <time>2011-05-11T15:58:14Z</time>
      </trkpt>
      <trkpt lat="44.35563" lon="2.55589">
        <ele>575.2</ele>
        <time>2011-05-11T15:58:15Z</time>
      </trkpt>
      <trkpt lat="44.35559" lon="2.55589">
        <ele>575</ele>
        <time>2011-05-11T15:58:16Z</time>
      </trkpt>
      <trkpt lat="44.35557" lon="2.55589">
        <ele>574.7</ele>
        <time>2011-05-11T15:58:17Z</time>
      </trkpt>
      <trkpt lat="44.35554" lon="2.5559">
        <ele>574.5</ele>
        <time>2011-05-11T15:58:18Z</time>
      </trkpt>
      <trkpt lat="44.35552" lon="2.5559">
        <ele>574.2</ele>
        <time>2011-05-11T15:58:19Z</time>
      </trkpt>
      <trkpt lat="44.35549" lon="2.55589">
        <ele>573.7</ele>
        <time>2011-05-11T15:58:20Z</time>
      </trkpt>
      <trkpt lat="44.35546" lon="2.55586">
        <ele>573.4</ele>
        <time>2011-05-11T15:58:21Z</time>
      </trkpt>
      <trkpt lat="44.35544" lon="2.55582">
        <ele>573</ele>
        <time>2011-05-11T15:58:22Z</time>
      </trkpt>
      <trkpt lat="44.35542" lon="2.55577">
        <ele>572.4</ele>
        <time>2011-05-11T15:58:23Z</time>
      </trkpt>
      <trkpt lat="44.35539" lon="2.55572">
        <ele>571.7</ele>
        <time>2011-05-11T15:58:24Z</time>
      </trkpt>
      <trkpt lat="44.35536" lon="2.55567">
        <ele>571.2</ele>
        <time>2011-05-11T15:58:25Z</time>
      </trkpt>
      <trkpt lat="44.35531" lon="2.55563">
        <ele>570.4</ele>
        <time>2011-05-11T15:58:26Z</time>
      </trkpt>
      <trkpt lat="44.35526" lon="2.55558">
        <ele>569.7</ele>
        <time>2011-05-11T15:58:27Z</time>
      </trkpt>
      <trkpt lat="44.3552" lon="2.55554">
        <ele>569</ele>
        <time>2011-05-11T15:58:28Z</time>
      </trkpt>
      <trkpt lat="44.35514" lon="2.55549">
        <ele>568.4</ele>
        <time>2011-05-11T15:58:29Z</time>
      </trkpt>
      <trkpt lat="44.35507" lon="2.55545">
        <ele>567.5</ele>
        <time>2011-05-11T15:58:30Z</time>
      </trkpt>
      <trkpt lat="44.35499" lon="2.5554">
        <ele>566.7</ele>
        <time>2011-05-11T15:58:31Z</time>
      </trkpt>
      <trkpt lat="44.35491" lon="2.55537">
        <ele>566</ele>
        <time>2011-05-11T15:58:32Z</time>
      </trkpt>
      <trkpt lat="44.35482" lon="2.55534">
        <ele>564.7</ele>
        <time>2011-05-11T15:58:33Z</time>
      </trkpt>
      <trkpt lat="44.35473" lon="2.55532">
        <ele>564</ele>
        <time>2011-05-11T15:58:34Z</time>
      </trkpt>
      <trkpt lat="44.35463" lon="2.55532">
        <ele>562.4</ele>
        <time>2011-05-11T15:58:35Z</time>
      </trkpt>
      <trkpt lat="44.35452" lon="2.55533">
        <ele>561</ele>
        <time>2011-05-11T15:58:36Z</time>
      </trkpt>
      <trkpt lat="44.35441" lon="2.55535">
        <ele>559.4</ele>
        <time>2011-05-11T15:58:37Z</time>
      </trkpt>
      <trkpt lat="44.3543" lon="2.55538">
        <ele>558</ele>
        <time>2011-05-11T15:58:38Z</time>
      </trkpt>
      <trkpt lat="44.35418" lon="2.55542">
        <ele>556.2</ele>
        <time>2011-05-11T15:58:39Z</time>
      </trkpt>
      <trkpt lat="44.35406" lon="2.55545">
        <ele>554.5</ele>
        <time>2011-05-11T15:58:40Z</time>
      </trkpt>
      <trkpt lat="44.35394" lon="2.55548">
        <ele>552.9</ele>
        <time>2011-05-11T15:58:41Z</time>
      </trkpt>
      <trkpt lat="44.35384" lon="2.55548">
        <ele>551.2</ele>
        <time>2011-05-11T15:58:42Z</time>
      </trkpt>
      <trkpt lat="44.35374" lon="2.55548">
        <ele>549.7</ele>
        <time>2011-05-11T15:58:43Z</time>
      </trkpt>
      <trkpt lat="44.35364" lon="2.55548">
        <ele>548.5</ele>
        <time>2011-05-11T15:58:44Z</time>
      </trkpt>
      <trkpt lat="44.35355" lon="2.55549">
        <ele>547.2</ele>
        <time>2011-05-11T15:58:45Z</time>
      </trkpt>
      <trkpt lat="44.35347" lon="2.55549">
        <ele>546</ele>
        <time>2011-05-11T15:58:46Z</time>
      </trkpt>
      <trkpt lat="44.3534" lon="2.55549">
        <ele>544.7</ele>
        <time>2011-05-11T15:58:47Z</time>
      </trkpt>
      <trkpt lat="44.35332" lon="2.55547">
        <ele>543.7</ele>
        <time>2011-05-11T15:58:48Z</time>
      </trkpt>
      <trkpt lat="44.35325" lon="2.55544">
        <ele>542.2</ele>
        <time>2011-05-11T15:58:49Z</time>
      </trkpt>
      <trkpt lat="44.35318" lon="2.55541">
        <ele>541.2</ele>
        <time>2011-05-11T15:58:50Z</time>
      </trkpt>
      <trkpt lat="44.35312" lon="2.55537">
        <ele>540</ele>
        <time>2011-05-11T15:58:51Z</time>
      </trkpt>
      <trkpt lat="44.35308" lon="2.55532">
        <ele>539.2</ele>
        <time>2011-05-11T15:58:52Z</time>
      </trkpt>
      <trkpt lat="44.35304" lon="2.55525">
        <ele>538.2</ele>
        <time>2011-05-11T15:58:53Z</time>
      </trkpt>
      <trkpt lat="44.35302" lon="2.55517">
        <ele>536.9</ele>
        <time>2011-05-11T15:58:54Z</time>
      </trkpt>
      <trkpt lat="44.35301" lon="2.55508">
        <ele>536</ele>
        <time>2011-05-11T15:58:55Z</time>
      </trkpt>
      <trkpt lat="44.353" lon="2.55499">
        <ele>535.2</ele>
        <time>2011-05-11T15:58:56Z</time>
      </trkpt>
      <trkpt lat="44.35301" lon="2.5549">
        <ele>534.4</ele>
        <time>2011-05-11T15:58:57Z</time>
      </trkpt>
      <trkpt lat="44.35303" lon="2.55482">
        <ele>534</ele>
        <time>2011-05-11T15:58:58Z</time>
      </trkpt>
      <trkpt lat="44.35305" lon="2.55474">
        <ele>533.2</ele>
        <time>2011-05-11T15:58:59Z</time>
      </trkpt>
      <trkpt lat="44.35309" lon="2.55467">
        <ele>532.5</ele>
        <time>2011-05-11T15:59:00Z</time>
      </trkpt>
      <trkpt lat="44.35314" lon="2.55461">
        <ele>531.7</ele>
        <time>2011-05-11T15:59:01Z</time>
      </trkpt>
      <trkpt lat="44.35319" lon="2.55455">
        <ele>530.7</ele>
        <time>2011-05-11T15:59:02Z</time>
      </trkpt>
      <trkpt lat="44.35323" lon="2.5545">
        <ele>529.7</ele>
        <time>2011-05-11T15:59:03Z</time>
      </trkpt>
      <trkpt lat="44.35328" lon="2.55444">
        <ele>529</ele>
        <time>2011-05-11T15:59:04Z</time>
      </trkpt>
      <trkpt lat="44.35331" lon="2.55439">
        <ele>528</ele>
        <time>2011-05-11T15:59:05Z</time>
      </trkpt>
      <trkpt lat="44.35334" lon="2.55437">
        <ele>527.2</ele>
        <time>2011-05-11T15:59:06Z</time>
      </trkpt>
      <trkpt lat="44.35337" lon="2.55436">
        <ele>526.5</ele>
        <time>2011-05-11T15:59:07Z</time>
      </trkpt>
      <trkpt lat="44.35341" lon="2.55435">
        <ele>525.5</ele>
        <time>2011-05-11T15:59:09Z</time>
      </trkpt>
      <trkpt lat="44.35343" lon="2.55436">
        <ele>525.2</ele>
        <time>2011-05-11T15:59:10Z</time>
      </trkpt>
      <trkpt lat="44.35346" lon="2.55437">
        <ele>525</ele>
        <time>2011-05-11T15:59:11Z</time>
      </trkpt>
      <trkpt lat="44.35348" lon="2.55437">
        <ele>525</ele>
        <time>2011-05-11T15:59:12Z</time>
      </trkpt>
      <trkpt lat="44.35351" lon="2.55435">
        <ele>524.9</ele>
        <time>2011-05-11T15:59:13Z</time>
      </trkpt>
      <trkpt lat="44.35353" lon="2.55432">
        <ele>524.7</ele>
        <time>2011-05-11T15:59:14Z</time>
      </trkpt>
      <trkpt lat="44.35355" lon="2.55429">
        <ele>524.2</ele>
        <time>2011-05-11T15:59:15Z</time>
      </trkpt>
      <trkpt lat="44.35357" lon="2.55425">
        <ele>523.5</ele>
        <time>2011-05-11T15:59:16Z</time>
      </trkpt>
      <trkpt lat="44.3536" lon="2.55421">
        <ele>523</ele>
        <time>2011-05-11T15:59:17Z</time>
      </trkpt>
      <trkpt lat="44.35361" lon="2.55416">
        <ele>522.4</ele>
        <time>2011-05-11T15:59:18Z</time>
      </trkpt>
      <trkpt lat="44.35363" lon="2.5541">
        <ele>522</ele>
        <time>2011-05-11T15:59:19Z</time>
      </trkpt>
      <trkpt lat="44.35363" lon="2.55404">
        <ele>521.5</ele>
        <time>2011-05-11T15:59:20Z</time>
      </trkpt>
      <trkpt lat="44.35364" lon="2.55397">
        <ele>520.9</ele>
        <time>2011-05-11T15:59:21Z</time>
      </trkpt>
      <trkpt lat="44.35364" lon="2.55391">
        <ele>520.4</ele>
        <time>2011-05-11T15:59:22Z</time>
      </trkpt>
      <trkpt lat="44.35363" lon="2.55386">
        <ele>519.9</ele>
        <time>2011-05-11T15:59:23Z</time>
      </trkpt>
      <trkpt lat="44.35363" lon="2.55382">
        <ele>519.4</ele>
        <time>2011-05-11T15:59:24Z</time>
      </trkpt>
      <trkpt lat="44.35362" lon="2.55379">
        <ele>519</ele>
        <time>2011-05-11T15:59:25Z</time>
      </trkpt>
      <trkpt lat="44.35362" lon="2.55375">
        <ele>518.7</ele>
        <time>2011-05-11T15:59:26Z</time>
      </trkpt>
      <trkpt lat="44.35361" lon="2.55372">
        <ele>518.5</ele>
        <time>2011-05-11T15:59:27Z</time>
      </trkpt>
      <trkpt lat="44.35359" lon="2.5537">
        <ele>518.2</ele>
        <time>2011-05-11T15:59:28Z</time>
      </trkpt>
      <trkpt lat="44.35356" lon="2.55366">
        <ele>518</ele>
        <time>2011-05-11T15:59:29Z</time>
      </trkpt>
      <trkpt lat="44.35352" lon="2.55364">
        <ele>517.5</ele>
        <time>2011-05-11T15:59:30Z</time>
      </trkpt>
      <trkpt lat="44.35347" lon="2.55363">
        <ele>517.5</ele>
        <time>2011-05-11T15:59:31Z</time>
      </trkpt>
      <trkpt lat="44.35342" lon="2.55363">
        <ele>517.4</ele>
        <time>2011-05-11T15:59:32Z</time>
      </trkpt>
      <trkpt lat="44.35336" lon="2.55363">
        <ele>517.2</ele>
        <time>2011-05-11T15:59:33Z</time>
      </trkpt>
      <trkpt lat="44.3533" lon="2.55363">
        <ele>517</ele>
        <time>2011-05-11T15:59:34Z</time>
      </trkpt>
      <trkpt lat="44.35324" lon="2.55363">
        <ele>517</ele>
        <time>2011-05-11T15:59:35Z</time>
      </trkpt>
      <trkpt lat="44.35317" lon="2.55363">
        <ele>516.7</ele>
        <time>2011-05-11T15:59:36Z</time>
      </trkpt>
      <trkpt lat="44.35311" lon="2.55362">
        <ele>516.7</ele>
        <time>2011-05-11T15:59:37Z</time>
      </trkpt>
      <trkpt lat="44.35305" lon="2.55362">
        <ele>516.5</ele>
        <time>2011-05-11T15:59:38Z</time>
      </trkpt>
      <trkpt lat="44.35298" lon="2.55361">
        <ele>516.5</ele>
        <time>2011-05-11T15:59:39Z</time>
      </trkpt>
      <trkpt lat="44.35292" lon="2.55359">
        <ele>516.2</ele>
        <time>2011-05-11T15:59:40Z</time>
      </trkpt>
      <trkpt lat="44.35285" lon="2.55359">
        <ele>516</ele>
        <time>2011-05-11T15:59:41Z</time>
      </trkpt>
      <trkpt lat="44.35278" lon="2.55358">
        <ele>515.7</ele>
        <time>2011-05-11T15:59:42Z</time>
      </trkpt>
      <trkpt lat="44.35272" lon="2.55357">
        <ele>515.5</ele>
        <time>2011-05-11T15:59:43Z</time>
      </trkpt>
      <trkpt lat="44.35265" lon="2.55357">
        <ele>515.5</ele>
        <time>2011-05-11T15:59:44Z</time>
      </trkpt>
      <trkpt lat="44.35258" lon="2.55356">
        <ele>515.2</ele>
        <time>2011-05-11T15:59:45Z</time>
      </trkpt>
      <trkpt lat="44.35251" lon="2.55356">
        <ele>515</ele>
        <time>2011-05-11T15:59:46Z</time>
      </trkpt>
      <trkpt lat="44.35245" lon="2.55356">
        <ele>514.9</ele>
        <time>2011-05-11T15:59:47Z</time>
      </trkpt>
      <trkpt lat="44.35238" lon="2.55356">
        <ele>514.7</ele>
        <time>2011-05-11T15:59:48Z</time>
      </trkpt>
      <trkpt lat="44.35231" lon="2.55356">
        <ele>514.5</ele>
        <time>2011-05-11T15:59:49Z</time>
      </trkpt>
      <trkpt lat="44.35224" lon="2.55356">
        <ele>514.5</ele>
        <time>2011-05-11T15:59:50Z</time>
      </trkpt>
      <trkpt lat="44.35218" lon="2.55356">
        <ele>514.2</ele>
        <time>2011-05-11T15:59:51Z</time>
      </trkpt>
      <trkpt lat="44.35211" lon="2.55357">
        <ele>514.2</ele>
        <time>2011-05-11T15:59:52Z</time>
      </trkpt>
      <trkpt lat="44.35205" lon="2.55359">
        <ele>514</ele>
        <time>2011-05-11T15:59:53Z</time>
      </trkpt>
      <trkpt lat="44.35199" lon="2.55362">
        <ele>513.7</ele>
        <time>2011-05-11T15:59:54Z</time>
      </trkpt>
      <trkpt lat="44.35193" lon="2.55366">
        <ele>513.7</ele>
        <time>2011-05-11T15:59:55Z</time>
      </trkpt>
      <trkpt lat="44.35188" lon="2.55371">
        <ele>513.5</ele>
        <time>2011-05-11T15:59:56Z</time>
      </trkpt>
      <trkpt lat="44.35183" lon="2.55375">
        <ele>513.5</ele>
        <time>2011-05-11T15:59:57Z</time>
      </trkpt>
      <trkpt lat="44.35179" lon="2.55379">
        <ele>513.4</ele>
        <time>2011-05-11T15:59:58Z</time>
      </trkpt>
      <trkpt lat="44.35175" lon="2.55382">
        <ele>513.4</ele>
        <time>2011-05-11T15:59:59Z</time>
      </trkpt>
      <trkpt lat="44.35171" lon="2.55384">
        <ele>514.2</ele>
        <time>2011-05-11T16:00:06Z</time>
      </trkpt>
      <trkpt lat="44.35168" lon="2.55383">
        <ele>514</ele>
        <time>2011-05-11T16:00:13Z</time>
      </trkpt>
      <trkpt lat="44.35166" lon="2.55381">
        <ele>513.7</ele>
        <time>2011-05-11T16:00:14Z</time>
      </trkpt>
      <trkpt lat="44.35165" lon="2.55379">
        <ele>513.7</ele>
        <time>2011-05-11T16:00:15Z</time>
      </trkpt>
      <trkpt lat="44.35163" lon="2.55377">
        <ele>513.4</ele>
        <time>2011-05-11T16:00:16Z</time>
      </trkpt>
      <trkpt lat="44.35161" lon="2.55376">
        <ele>513.2</ele>
        <time>2011-05-11T16:00:17Z</time>
      </trkpt>
      <trkpt lat="44.35158" lon="2.55374">
        <ele>512.9</ele>
        <time>2011-05-11T16:00:18Z</time>
      </trkpt>
      <trkpt lat="44.35156" lon="2.55372">
        <ele>512.7</ele>
        <time>2011-05-11T16:00:19Z</time>
      </trkpt>
      <trkpt lat="44.35154" lon="2.5537">
        <ele>512.4</ele>
        <time>2011-05-11T16:00:20Z</time>
      </trkpt>
      <trkpt lat="44.35152" lon="2.55368">
        <ele>512.2</ele>
        <time>2011-05-11T16:00:21Z</time>
      </trkpt>
      <trkpt lat="44.3515" lon="2.55366">
        <ele>512.2</ele>
        <time>2011-05-11T16:00:22Z</time>
      </trkpt>
      <trkpt lat="44.35148" lon="2.55365">
        <ele>512.2</ele>
        <time>2011-05-11T16:00:23Z</time>
      </trkpt>
      <trkpt lat="44.35145" lon="2.55364">
        <ele>512.4</ele>
        <time>2011-05-11T16:00:24Z</time>
      </trkpt>
      <trkpt lat="44.35143" lon="2.55364">
        <ele>512.5</ele>
        <time>2011-05-11T16:00:25Z</time>
      </trkpt>
      <trkpt lat="44.3514" lon="2.55365">
        <ele>512.5</ele>
        <time>2011-05-11T16:00:26Z</time>
      </trkpt>
      <trkpt lat="44.35138" lon="2.55367">
        <ele>512.7</ele>
        <time>2011-05-11T16:00:27Z</time>
      </trkpt>
      <trkpt lat="44.35136" lon="2.55369">
        <ele>512.7</ele>
        <time>2011-05-11T16:00:28Z</time>
      </trkpt>
      <trkpt lat="44.35134" lon="2.55371">
        <ele>512.7</ele>
        <time>2011-05-11T16:00:29Z</time>
      </trkpt>
      <trkpt lat="44.35131" lon="2.55374">
        <ele>512.7</ele>
        <time>2011-05-11T16:00:30Z</time>
      </trkpt>
      <trkpt lat="44.35129" lon="2.55377">
        <ele>512.5</ele>
        <time>2011-05-11T16:00:31Z</time>
      </trkpt>
      <trkpt lat="44.35126" lon="2.5538">
        <ele>512.5</ele>
        <time>2011-05-11T16:00:32Z</time>
      </trkpt>
      <trkpt lat="44.35123" lon="2.55384">
        <ele>512.5</ele>
        <time>2011-05-11T16:00:33Z</time>
      </trkpt>
      <trkpt lat="44.3512" lon="2.55387">
        <ele>512.5</ele>
        <time>2011-05-11T16:00:34Z</time>
      </trkpt>
      <trkpt lat="44.35117" lon="2.55389">
        <ele>512.5</ele>
        <time>2011-05-11T16:00:35Z</time>
      </trkpt>
      <trkpt lat="44.35115" lon="2.55391">
        <ele>512.2</ele>
        <time>2011-05-11T16:00:36Z</time>
      </trkpt>
      <trkpt lat="44.35112" lon="2.55392">
        <ele>511.7</ele>
        <time>2011-05-11T16:00:37Z</time>
      </trkpt>
      <trkpt lat="44.35109" lon="2.55392">
        <ele>511.2</ele>
        <time>2011-05-11T16:00:38Z</time>
      </trkpt>
      <trkpt lat="44.35106" lon="2.55393">
        <ele>510.7</ele>
        <time>2011-05-11T16:00:39Z</time>
      </trkpt>
      <trkpt lat="44.35103" lon="2.55394">
        <ele>510.2</ele>
        <time>2011-05-11T16:00:40Z</time>
      </trkpt>
      <trkpt lat="44.351" lon="2.55395">
        <ele>509.8</ele>
        <time>2011-05-11T16:00:41Z</time>
      </trkpt>
      <trkpt lat="44.35096" lon="2.55396">
        <ele>509.7</ele>
        <time>2011-05-11T16:00:42Z</time>
      </trkpt>
      <trkpt lat="44.35093" lon="2.55398">
        <ele>509.5</ele>
        <time>2011-05-11T16:00:43Z</time>
      </trkpt>
      <trkpt lat="44.3509" lon="2.55399">
        <ele>509.2</ele>
        <time>2011-05-11T16:00:44Z</time>
      </trkpt>
      <trkpt lat="44.35086" lon="2.554">
        <ele>508.7</ele>
        <time>2011-05-11T16:00:45Z</time>
      </trkpt>
      <trkpt lat="44.35083" lon="2.55402">
        <ele>508.5</ele>
        <time>2011-05-11T16:00:46Z</time>
      </trkpt>
      <trkpt lat="44.35079" lon="2.55403">
        <ele>508.1</ele>
        <time>2011-05-11T16:00:47Z</time>
      </trkpt>
      <trkpt lat="44.35075" lon="2.55404">
        <ele>507.7</ele>
        <time>2011-05-11T16:00:48Z</time>
      </trkpt>
      <trkpt lat="44.35071" lon="2.55405">
        <ele>507.6</ele>
        <time>2011-05-11T16:00:49Z</time>
      </trkpt>
      <trkpt lat="44.35067" lon="2.55407">
        <ele>507.5</ele>
        <time>2011-05-11T16:00:50Z</time>
      </trkpt>
      <trkpt lat="44.35063" lon="2.55408">
        <ele>507.5</ele>
        <time>2011-05-11T16:00:51Z</time>
      </trkpt>
      <trkpt lat="44.3506" lon="2.55409">
        <ele>507.6</ele>
        <time>2011-05-11T16:00:52Z</time>
      </trkpt>
      <trkpt lat="44.35056" lon="2.55411">
        <ele>507.7</ele>
        <time>2011-05-11T16:00:53Z</time>
      </trkpt>
      <trkpt lat="44.35052" lon="2.55413">
        <ele>508.1</ele>
        <time>2011-05-11T16:00:54Z</time>
      </trkpt>
      <trkpt lat="44.35049" lon="2.55415">
        <ele>508.5</ele>
        <time>2011-05-11T16:00:55Z</time>
      </trkpt>
      <trkpt lat="44.35046" lon="2.55417">
        <ele>508.8</ele>
        <time>2011-05-11T16:00:56Z</time>
      </trkpt>
      <trkpt lat="44.35042" lon="2.55418">
        <ele>509.2</ele>
        <time>2011-05-11T16:00:57Z</time>
      </trkpt>
      <trkpt lat="44.35039" lon="2.5542">
        <ele>509.7</ele>
        <time>2011-05-11T16:00:58Z</time>
      </trkpt>
      <trkpt lat="44.35036" lon="2.55421">
        <ele>510.2</ele>
        <time>2011-05-11T16:00:59Z</time>
      </trkpt>
      <trkpt lat="44.35034" lon="2.55423">
        <ele>510.7</ele>
        <time>2011-05-11T16:01:00Z</time>
      </trkpt>
      <trkpt lat="44.35031" lon="2.55425">
        <ele>511.2</ele>
        <time>2011-05-11T16:01:01Z</time>
      </trkpt>
      <trkpt lat="44.35028" lon="2.55426">
        <ele>511.7</ele>
        <time>2011-05-11T16:01:02Z</time>
      </trkpt>
      <trkpt lat="44.35026" lon="2.55427">
        <ele>512.2</ele>
        <time>2011-05-11T16:01:03Z</time>
      </trkpt>
      <trkpt lat="44.35023" lon="2.55429">
        <ele>512.7</ele>
        <time>2011-05-11T16:01:04Z</time>
      </trkpt>
      <trkpt lat="44.35021" lon="2.55431">
        <ele>513.2</ele>
        <time>2011-05-11T16:01:05Z</time>
      </trkpt>
      <trkpt lat="44.35019" lon="2.55433">
        <ele>513.5</ele>
        <time>2011-05-11T16:01:06Z</time>
      </trkpt>
      <trkpt lat="44.35017" lon="2.55435">
        <ele>513.7</ele>
        <time>2011-05-11T16:01:07Z</time>
      </trkpt>
      <trkpt lat="44.35014" lon="2.55438">
        <ele>514</ele>
        <time>2011-05-11T16:01:08Z</time>
      </trkpt>
      <trkpt lat="44.35011" lon="2.55442">
        <ele>514</ele>
        <time>2011-05-11T16:01:09Z</time>
      </trkpt>
      <trkpt lat="44.35008" lon="2.55446">
        <ele>513.9</ele>
        <time>2011-05-11T16:01:10Z</time>
      </trkpt>
      <trkpt lat="44.35004" lon="2.5545">
        <ele>513.9</ele>
        <time>2011-05-11T16:01:11Z</time>
      </trkpt>
      <trkpt lat="44.35001" lon="2.55454">
        <ele>513.7</ele>
        <time>2011-05-11T16:01:12Z</time>
      </trkpt>
      <trkpt lat="44.34998" lon="2.55458">
        <ele>513.9</ele>
        <time>2011-05-11T16:01:13Z</time>
      </trkpt>
      <trkpt lat="44.34994" lon="2.55462">
        <ele>513.9</ele>
        <time>2011-05-11T16:01:14Z</time>
      </trkpt>
      <trkpt lat="44.34991" lon="2.55465">
        <ele>514</ele>
        <time>2011-05-11T16:01:15Z</time>
      </trkpt>
      <trkpt lat="44.34988" lon="2.55468">
        <ele>514.2</ele>
        <time>2011-05-11T16:01:16Z</time>
      </trkpt>
      <trkpt lat="44.34984" lon="2.55471">
        <ele>514.4</ele>
        <time>2011-05-11T16:01:17Z</time>
      </trkpt>
      <trkpt lat="44.34981" lon="2.55474">
        <ele>514.5</ele>
        <time>2011-05-11T16:01:18Z</time>
      </trkpt>
      <trkpt lat="44.34977" lon="2.55477">
        <ele>514.9</ele>
        <time>2011-05-11T16:01:19Z</time>
      </trkpt>
      <trkpt lat="44.34974" lon="2.5548">
        <ele>515</ele>
        <time>2011-05-11T16:01:20Z</time>
      </trkpt>
      <trkpt lat="44.3497" lon="2.55483">
        <ele>515</ele>
        <time>2011-05-11T16:01:21Z</time>
      </trkpt>
      <trkpt lat="44.34967" lon="2.55485">
        <ele>515.2</ele>
        <time>2011-05-11T16:01:22Z</time>
      </trkpt>
      <trkpt lat="44.34963" lon="2.55487">
        <ele>515.4</ele>
        <time>2011-05-11T16:01:23Z</time>
      </trkpt>
      <trkpt lat="44.34959" lon="2.55488">
        <ele>515.5</ele>
        <time>2011-05-11T16:01:24Z</time>
      </trkpt>
      <trkpt lat="44.34955" lon="2.5549">
        <ele>515.7</ele>
        <time>2011-05-11T16:01:25Z</time>
      </trkpt>
      <trkpt lat="44.34952" lon="2.55492">
        <ele>515.9</ele>
        <time>2011-05-11T16:01:26Z</time>
      </trkpt>
      <trkpt lat="44.34948" lon="2.55493">
        <ele>516</ele>
        <time>2011-05-11T16:01:27Z</time>
      </trkpt>
      <trkpt lat="44.34944" lon="2.55495">
        <ele>516</ele>
        <time>2011-05-11T16:01:28Z</time>
      </trkpt>
      <trkpt lat="44.34941" lon="2.55497">
        <ele>516.2</ele>
        <time>2011-05-11T16:01:29Z</time>
      </trkpt>
      <trkpt lat="44.34938" lon="2.55498">
        <ele>516.5</ele>
        <time>2011-05-11T16:01:30Z</time>
      </trkpt>
      <trkpt lat="44.34934" lon="2.55501">
        <ele>516.7</ele>
        <time>2011-05-11T16:01:31Z</time>
      </trkpt>
      <trkpt lat="44.34932" lon="2.55503">
        <ele>517</ele>
        <time>2011-05-11T16:01:32Z</time>
      </trkpt>
      <trkpt lat="44.34929" lon="2.55505">
        <ele>517.4</ele>
        <time>2011-05-11T16:01:33Z</time>
      </trkpt>
      <trkpt lat="44.34926" lon="2.55508">
        <ele>517.7</ele>
        <time>2011-05-11T16:01:34Z</time>
      </trkpt>
      <trkpt lat="44.34923" lon="2.55511">
        <ele>518</ele>
        <time>2011-05-11T16:01:35Z</time>
      </trkpt>
      <trkpt lat="44.34921" lon="2.55514">
        <ele>518.4</ele>
        <time>2011-05-11T16:01:36Z</time>
      </trkpt>
      <trkpt lat="44.34918" lon="2.55517">
        <ele>518.7</ele>
        <time>2011-05-11T16:01:37Z</time>
      </trkpt>
      <trkpt lat="44.34916" lon="2.5552">
        <ele>519</ele>
        <time>2011-05-11T16:01:38Z</time>
      </trkpt>
      <trkpt lat="44.34913" lon="2.55523">
        <ele>519.4</ele>
        <time>2011-05-11T16:01:39Z</time>
      </trkpt>
      <trkpt lat="44.34911" lon="2.55527">
        <ele>519.7</ele>
        <time>2011-05-11T16:01:40Z</time>
      </trkpt>
      <trkpt lat="44.34909" lon="2.5553">
        <ele>520</ele>
        <time>2011-05-11T16:01:41Z</time>
      </trkpt>
      <trkpt lat="44.34906" lon="2.55533">
        <ele>520.4</ele>
        <time>2011-05-11T16:01:42Z</time>
      </trkpt>
      <trkpt lat="44.34904" lon="2.55536">
        <ele>520.7</ele>
        <time>2011-05-11T16:01:43Z</time>
      </trkpt>
      <trkpt lat="44.34902" lon="2.55539">
        <ele>520.9</ele>
        <time>2011-05-11T16:01:44Z</time>
      </trkpt>
      <trkpt lat="44.34899" lon="2.55542">
        <ele>521</ele>
        <time>2011-05-11T16:01:45Z</time>
      </trkpt>
      <trkpt lat="44.34897" lon="2.55545">
        <ele>521</ele>
        <time>2011-05-11T16:01:46Z</time>
      </trkpt>
      <trkpt lat="44.34894" lon="2.55548">
        <ele>521.2</ele>
        <time>2011-05-11T16:01:47Z</time>
      </trkpt>
      <trkpt lat="44.34891" lon="2.55551">
        <ele>521.2</ele>
        <time>2011-05-11T16:01:48Z</time>
      </trkpt>
      <trkpt lat="44.34888" lon="2.55553">
        <ele>521.2</ele>
        <time>2011-05-11T16:01:49Z</time>
      </trkpt>
      <trkpt lat="44.34885" lon="2.55556">
        <ele>521.2</ele>
        <time>2011-05-11T16:01:50Z</time>
      </trkpt>
      <trkpt lat="44.34882" lon="2.55559">
        <ele>521.2</ele>
        <time>2011-05-11T16:01:51Z</time>
      </trkpt>
      <trkpt lat="44.3488" lon="2.55563">
        <ele>521.2</ele>
        <time>2011-05-11T16:01:52Z</time>
      </trkpt>
      <trkpt lat="44.34877" lon="2.55566">
        <ele>521.2</ele>
        <time>2011-05-11T16:01:53Z</time>
      </trkpt>
      <trkpt lat="44.34874" lon="2.55569">
        <ele>521.2</ele>
        <time>2011-05-11T16:01:54Z</time>
      </trkpt>
      <trkpt lat="44.34872" lon="2.55573">
        <ele>521.2</ele>
        <time>2011-05-11T16:01:55Z</time>
      </trkpt>
      <trkpt lat="44.34869" lon="2.55576">
        <ele>521.5</ele>
        <time>2011-05-11T16:01:56Z</time>
      </trkpt>
      <trkpt lat="44.34866" lon="2.5558">
        <ele>521.9</ele>
        <time>2011-05-11T16:01:57Z</time>
      </trkpt>
      <trkpt lat="44.34864" lon="2.55584">
        <ele>522</ele>
        <time>2011-05-11T16:01:58Z</time>
      </trkpt>
      <trkpt lat="44.34861" lon="2.55588">
        <ele>522</ele>
        <time>2011-05-11T16:01:59Z</time>
      </trkpt>
      <trkpt lat="44.34858" lon="2.55591">
        <ele>521.9</ele>
        <time>2011-05-11T16:02:00Z</time>
      </trkpt>
      <trkpt lat="44.34855" lon="2.55595">
        <ele>521.9</ele>
        <time>2011-05-11T16:02:01Z</time>
      </trkpt>
      <trkpt lat="44.34852" lon="2.55599">
        <ele>521.7</ele>
        <time>2011-05-11T16:02:02Z</time>
      </trkpt>
      <trkpt lat="44.34849" lon="2.55602">
        <ele>521.7</ele>
        <time>2011-05-11T16:02:03Z</time>
      </trkpt>
      <trkpt lat="44.34846" lon="2.55606">
        <ele>521.5</ele>
        <time>2011-05-11T16:02:04Z</time>
      </trkpt>
      <trkpt lat="44.34842" lon="2.55609">
        <ele>521.4</ele>
        <time>2011-05-11T16:02:05Z</time>
      </trkpt>
      <trkpt lat="44.34839" lon="2.55613">
        <ele>521.2</ele>
        <time>2011-05-11T16:02:06Z</time>
      </trkpt>
      <trkpt lat="44.34836" lon="2.55617">
        <ele>521.2</ele>
        <time>2011-05-11T16:02:07Z</time>
      </trkpt>
      <trkpt lat="44.34833" lon="2.55621">
        <ele>521.4</ele>
        <time>2011-05-11T16:02:08Z</time>
      </trkpt>
      <trkpt lat="44.34829" lon="2.55624">
        <ele>521.4</ele>
        <time>2011-05-11T16:02:09Z</time>
      </trkpt>
      <trkpt lat="44.34826" lon="2.55628">
        <ele>521.4</ele>
        <time>2011-05-11T16:02:10Z</time>
      </trkpt>
      <trkpt lat="44.34823" lon="2.55632">
        <ele>521.4</ele>
        <time>2011-05-11T16:02:11Z</time>
      </trkpt>
      <trkpt lat="44.34819" lon="2.55637">
        <ele>521.4</ele>
        <time>2011-05-11T16:02:12Z</time>
      </trkpt>
      <trkpt lat="44.34816" lon="2.55641">
        <ele>521.2</ele>
        <time>2011-05-11T16:02:13Z</time>
      </trkpt>
      <trkpt lat="44.34812" lon="2.55645">
        <ele>521.2</ele>
        <time>2011-05-11T16:02:14Z</time>
      </trkpt>
      <trkpt lat="44.34809" lon="2.55649">
        <ele>521</ele>
        <time>2011-05-11T16:02:15Z</time>
      </trkpt>
      <trkpt lat="44.34805" lon="2.55653">
        <ele>520.9</ele>
        <time>2011-05-11T16:02:16Z</time>
      </trkpt>
      <trkpt lat="44.34802" lon="2.55657">
        <ele>520.7</ele>
        <time>2011-05-11T16:02:17Z</time>
      </trkpt>
      <trkpt lat="44.34799" lon="2.55661">
        <ele>521</ele>
        <time>2011-05-11T16:02:18Z</time>
      </trkpt>
      <trkpt lat="44.34796" lon="2.55665">
        <ele>521.2</ele>
        <time>2011-05-11T16:02:19Z</time>
      </trkpt>
      <trkpt lat="44.34792" lon="2.55668">
        <ele>521.5</ele>
        <time>2011-05-11T16:02:20Z</time>
      </trkpt>
      <trkpt lat="44.34789" lon="2.55672">
        <ele>521.7</ele>
        <time>2011-05-11T16:02:21Z</time>
      </trkpt>
      <trkpt lat="44.34786" lon="2.55676">
        <ele>522</ele>
        <time>2011-05-11T16:02:22Z</time>
      </trkpt>
      <trkpt lat="44.34783" lon="2.55679">
        <ele>522.4</ele>
        <time>2011-05-11T16:02:23Z</time>
      </trkpt>
      <trkpt lat="44.3478" lon="2.55683">
        <ele>522.9</ele>
        <time>2011-05-11T16:02:24Z</time>
      </trkpt>
      <trkpt lat="44.34777" lon="2.55686">
        <ele>523.5</ele>
        <time>2011-05-11T16:02:25Z</time>
      </trkpt>
      <trkpt lat="44.34775" lon="2.55689">
        <ele>524.2</ele>
        <time>2011-05-11T16:02:26Z</time>
      </trkpt>
      <trkpt lat="44.34772" lon="2.55692">
        <ele>524.7</ele>
        <time>2011-05-11T16:02:27Z</time>
      </trkpt>
      <trkpt lat="44.3477" lon="2.55695">
        <ele>525.2</ele>
        <time>2011-05-11T16:02:28Z</time>
      </trkpt>
      <trkpt lat="44.34767" lon="2.55698">
        <ele>525.7</ele>
        <time>2011-05-11T16:02:29Z</time>
      </trkpt>
      <trkpt lat="44.34765" lon="2.557">
        <ele>526.2</ele>
        <time>2011-05-11T16:02:30Z</time>
      </trkpt>
      <trkpt lat="44.34762" lon="2.55703">
        <ele>526.5</ele>
        <time>2011-05-11T16:02:31Z</time>
      </trkpt>
      <trkpt lat="44.3476" lon="2.55705">
        <ele>527</ele>
        <time>2011-05-11T16:02:32Z</time>
      </trkpt>
      <trkpt lat="44.34758" lon="2.55708">
        <ele>527.4</ele>
        <time>2011-05-11T16:02:33Z</time>
      </trkpt>
      <trkpt lat="44.34755" lon="2.55711">
        <ele>527.7</ele>
        <time>2011-05-11T16:02:34Z</time>
      </trkpt>
      <trkpt lat="44.34753" lon="2.55714">
        <ele>528.2</ele>
        <time>2011-05-11T16:02:35Z</time>
      </trkpt>
      <trkpt lat="44.34751" lon="2.55716">
        <ele>528.7</ele>
        <time>2011-05-11T16:02:36Z</time>
      </trkpt>
      <trkpt lat="44.3475" lon="2.55719">
        <ele>529.2</ele>
        <time>2011-05-11T16:02:37Z</time>
      </trkpt>
      <trkpt lat="44.34748" lon="2.55722">
        <ele>529.7</ele>
        <time>2011-05-11T16:02:38Z</time>
      </trkpt>
      <trkpt lat="44.34747" lon="2.55725">
        <ele>530</ele>
        <time>2011-05-11T16:02:39Z</time>
      </trkpt>
      <trkpt lat="44.34745" lon="2.55727">
        <ele>530.5</ele>
        <time>2011-05-11T16:02:40Z</time>
      </trkpt>
      <trkpt lat="44.34744" lon="2.5573">
        <ele>531</ele>
        <time>2011-05-11T16:02:41Z</time>
      </trkpt>
      <trkpt lat="44.34743" lon="2.55733">
        <ele>531.5</ele>
        <time>2011-05-11T16:02:42Z</time>
      </trkpt>
      <trkpt lat="44.34741" lon="2.55739">
        <ele>532.5</ele>
        <time>2011-05-11T16:02:44Z</time>
      </trkpt>
      <trkpt lat="44.34739" lon="2.55741">
        <ele>532.9</ele>
        <time>2011-05-11T16:02:45Z</time>
      </trkpt>
      <trkpt lat="44.34738" lon="2.55744">
        <ele>533.5</ele>
        <time>2011-05-11T16:02:46Z</time>
      </trkpt>
      <trkpt lat="44.34737" lon="2.55746">
        <ele>533.9</ele>
        <time>2011-05-11T16:02:47Z</time>
      </trkpt>
      <trkpt lat="44.34734" lon="2.55752">
        <ele>534.7</ele>
        <time>2011-05-11T16:02:49Z</time>
      </trkpt>
      <trkpt lat="44.34733" lon="2.55757">
        <ele>535.5</ele>
        <time>2011-05-11T16:02:51Z</time>
      </trkpt>
      <trkpt lat="44.34731" lon="2.55763">
        <ele>536</ele>
        <time>2011-05-11T16:02:53Z</time>
      </trkpt>
      <trkpt lat="44.34729" lon="2.55769">
        <ele>536.7</ele>
        <time>2011-05-11T16:02:55Z</time>
      </trkpt>
      <trkpt lat="44.34728" lon="2.55774">
        <ele>537.2</ele>
        <time>2011-05-11T16:02:57Z</time>
      </trkpt>
      <trkpt lat="44.34727" lon="2.55777">
        <ele>537.2</ele>
        <time>2011-05-11T16:02:58Z</time>
      </trkpt>
      <trkpt lat="44.34727" lon="2.55781">
        <ele>537.2</ele>
        <time>2011-05-11T16:02:59Z</time>
      </trkpt>
      <trkpt lat="44.34726" lon="2.55785">
        <ele>537.5</ele>
        <time>2011-05-11T16:03:00Z</time>
      </trkpt>
      <trkpt lat="44.34725" lon="2.55789">
        <ele>537.5</ele>
        <time>2011-05-11T16:03:01Z</time>
      </trkpt>
      <trkpt lat="44.34725" lon="2.55794">
        <ele>537.4</ele>
        <time>2011-05-11T16:03:02Z</time>
      </trkpt>
      <trkpt lat="44.34724" lon="2.55799">
        <ele>537</ele>
        <time>2011-05-11T16:03:03Z</time>
      </trkpt>
      <trkpt lat="44.34723" lon="2.55804">
        <ele>536.5</ele>
        <time>2011-05-11T16:03:04Z</time>
      </trkpt>
      <trkpt lat="44.34722" lon="2.55811">
        <ele>535.7</ele>
        <time>2011-05-11T16:03:05Z</time>
      </trkpt>
      <trkpt lat="44.34722" lon="2.55817">
        <ele>534.9</ele>
        <time>2011-05-11T16:03:06Z</time>
      </trkpt>
      <trkpt lat="44.34721" lon="2.55825">
        <ele>533.7</ele>
        <time>2011-05-11T16:03:07Z</time>
      </trkpt>
      <trkpt lat="44.3472" lon="2.55832">
        <ele>532.7</ele>
        <time>2011-05-11T16:03:08Z</time>
      </trkpt>
      <trkpt lat="44.3472" lon="2.55841">
        <ele>531.2</ele>
        <time>2011-05-11T16:03:09Z</time>
      </trkpt>
      <trkpt lat="44.34721" lon="2.55851">
        <ele>529.7</ele>
        <time>2011-05-11T16:03:10Z</time>
      </trkpt>
      <trkpt lat="44.34722" lon="2.55861">
        <ele>528.5</ele>
        <time>2011-05-11T16:03:11Z</time>
      </trkpt>
      <trkpt lat="44.34722" lon="2.55872">
        <ele>527.5</ele>
        <time>2011-05-11T16:03:12Z</time>
      </trkpt>
      <trkpt lat="44.34722" lon="2.55882">
        <ele>526.9</ele>
        <time>2011-05-11T16:03:13Z</time>
      </trkpt>
      <trkpt lat="44.34721" lon="2.55893">
        <ele>526</ele>
        <time>2011-05-11T16:03:14Z</time>
      </trkpt>
      <trkpt lat="44.3472" lon="2.55904">
        <ele>525</ele>
        <time>2011-05-11T16:03:15Z</time>
      </trkpt>
      <trkpt lat="44.3472" lon="2.55915">
        <ele>524.4</ele>
        <time>2011-05-11T16:03:16Z</time>
      </trkpt>
      <trkpt lat="44.34719" lon="2.55926">
        <ele>523.7</ele>
        <time>2011-05-11T16:03:17Z</time>
      </trkpt>
      <trkpt lat="44.34717" lon="2.55936">
        <ele>523.2</ele>
        <time>2011-05-11T16:03:18Z</time>
      </trkpt>
      <trkpt lat="44.34714" lon="2.55943">
        <ele>523.2</ele>
        <time>2011-05-11T16:03:19Z</time>
      </trkpt>
      <trkpt lat="44.34712" lon="2.55949">
        <ele>523.2</ele>
        <time>2011-05-11T16:03:20Z</time>
      </trkpt>
      <trkpt lat="44.34709" lon="2.55955">
        <ele>523.4</ele>
        <time>2011-05-11T16:03:21Z</time>
      </trkpt>
      <trkpt lat="44.34707" lon="2.55959">
        <ele>523.7</ele>
        <time>2011-05-11T16:03:22Z</time>
      </trkpt>
      <trkpt lat="44.34705" lon="2.55962">
        <ele>524</ele>
        <time>2011-05-11T16:03:23Z</time>
      </trkpt>
      <trkpt lat="44.34703" lon="2.55966">
        <ele>524</ele>
        <time>2011-05-11T16:03:24Z</time>
      </trkpt>
      <trkpt lat="44.34701" lon="2.55969">
        <ele>524.4</ele>
        <time>2011-05-11T16:03:25Z</time>
      </trkpt>
      <trkpt lat="44.34699" lon="2.55973">
        <ele>524.7</ele>
        <time>2011-05-11T16:03:26Z</time>
      </trkpt>
      <trkpt lat="44.34697" lon="2.55977">
        <ele>525.2</ele>
        <time>2011-05-11T16:03:27Z</time>
      </trkpt>
      <trkpt lat="44.34695" lon="2.5598">
        <ele>526</ele>
        <time>2011-05-11T16:03:28Z</time>
      </trkpt>
      <trkpt lat="44.34693" lon="2.55983">
        <ele>526.7</ele>
        <time>2011-05-11T16:03:29Z</time>
      </trkpt>
      <trkpt lat="44.34691" lon="2.55986">
        <ele>527.5</ele>
        <time>2011-05-11T16:03:30Z</time>
      </trkpt>
      <trkpt lat="44.34689" lon="2.55989">
        <ele>528.2</ele>
        <time>2011-05-11T16:03:31Z</time>
      </trkpt>
      <trkpt lat="44.34688" lon="2.55992">
        <ele>528.7</ele>
        <time>2011-05-11T16:03:32Z</time>
      </trkpt>
      <trkpt lat="44.34686" lon="2.55994">
        <ele>529</ele>
        <time>2011-05-11T16:03:33Z</time>
      </trkpt>
      <trkpt lat="44.34684" lon="2.55997">
        <ele>529</ele>
        <time>2011-05-11T16:03:34Z</time>
      </trkpt>
      <trkpt lat="44.34682" lon="2.55999">
        <ele>528.9</ele>
        <time>2011-05-11T16:03:35Z</time>
      </trkpt>
      <trkpt lat="44.3468" lon="2.56001">
        <ele>528.9</ele>
        <time>2011-05-11T16:03:36Z</time>
      </trkpt>
      <trkpt lat="44.34678" lon="2.56003">
        <ele>529</ele>
        <time>2011-05-11T16:03:37Z</time>
      </trkpt>
      <trkpt lat="44.34674" lon="2.56005">
        <ele>528.9</ele>
        <time>2011-05-11T16:03:39Z</time>
      </trkpt>
      <trkpt lat="44.3467" lon="2.56005">
        <ele>528.5</ele>
        <time>2011-05-11T16:03:41Z</time>
      </trkpt>
      <trkpt lat="44.34665" lon="2.56006">
        <ele>528.2</ele>
        <time>2011-05-11T16:03:43Z</time>
      </trkpt>
      <trkpt lat="44.34661" lon="2.56006">
        <ele>528.2</ele>
        <time>2011-05-11T16:03:45Z</time>
      </trkpt>
      <trkpt lat="44.34657" lon="2.56006">
        <ele>528.5</ele>
        <time>2011-05-11T16:03:47Z</time>
      </trkpt>
      <trkpt lat="44.34653" lon="2.56006">
        <ele>528.9</ele>
        <time>2011-05-11T16:03:49Z</time>
      </trkpt>
      <trkpt lat="44.34649" lon="2.56007">
        <ele>529</ele>
        <time>2011-05-11T16:03:51Z</time>
      </trkpt>
      <trkpt lat="44.34646" lon="2.56009">
        <ele>528.7</ele>
        <time>2011-05-11T16:03:53Z</time>
      </trkpt>
      <trkpt lat="44.34642" lon="2.56011">
        <ele>528.5</ele>
        <time>2011-05-11T16:03:55Z</time>
      </trkpt>
      <trkpt lat="44.34639" lon="2.56013">
        <ele>528.2</ele>
        <time>2011-05-11T16:03:57Z</time>
      </trkpt>
      <trkpt lat="44.34637" lon="2.56017">
        <ele>528</ele>
        <time>2011-05-11T16:03:59Z</time>
      </trkpt>
      <trkpt lat="44.34634" lon="2.56021">
        <ele>528</ele>
        <time>2011-05-11T16:04:01Z</time>
      </trkpt>
      <trkpt lat="44.34632" lon="2.56025">
        <ele>528.2</ele>
        <time>2011-05-11T16:04:03Z</time>
      </trkpt>
      <trkpt lat="44.34629" lon="2.56029">
        <ele>528.5</ele>
        <time>2011-05-11T16:04:05Z</time>
      </trkpt>
      <trkpt lat="44.34627" lon="2.56033">
        <ele>528.7</ele>
        <time>2011-05-11T16:04:07Z</time>
      </trkpt>
      <trkpt lat="44.34625" lon="2.56038">
        <ele>528.9</ele>
        <time>2011-05-11T16:04:09Z</time>
      </trkpt>
      <trkpt lat="44.34622" lon="2.56042">
        <ele>528.9</ele>
        <time>2011-05-11T16:04:11Z</time>
      </trkpt>
      <trkpt lat="44.3462" lon="2.56047">
        <ele>529</ele>
        <time>2011-05-11T16:04:13Z</time>
      </trkpt>
      <trkpt lat="44.34617" lon="2.56051">
        <ele>529.2</ele>
        <time>2011-05-11T16:04:15Z</time>
      </trkpt>
      <trkpt lat="44.34614" lon="2.56056">
        <ele>529.2</ele>
        <time>2011-05-11T16:04:17Z</time>
      </trkpt>
      <trkpt lat="44.34611" lon="2.56061">
        <ele>529.5</ele>
        <time>2011-05-11T16:04:19Z</time>
      </trkpt>
      <trkpt lat="44.3461" lon="2.56063">
        <ele>529.5</ele>
        <time>2011-05-11T16:04:20Z</time>
      </trkpt>
      <trkpt lat="44.34608" lon="2.56066">
        <ele>529.7</ele>
        <time>2011-05-11T16:04:21Z</time>
      </trkpt>
      <trkpt lat="44.34607" lon="2.56069">
        <ele>529.9</ele>
        <time>2011-05-11T16:04:22Z</time>
      </trkpt>
      <trkpt lat="44.34605" lon="2.56071">
        <ele>530</ele>
        <time>2011-05-11T16:04:23Z</time>
      </trkpt>
      <trkpt lat="44.34604" lon="2.56074">
        <ele>530.4</ele>
        <time>2011-05-11T16:04:24Z</time>
      </trkpt>
      <trkpt lat="44.34602" lon="2.56077">
        <ele>530.7</ele>
        <time>2011-05-11T16:04:25Z</time>
      </trkpt>
      <trkpt lat="44.34601" lon="2.5608">
        <ele>531</ele>
        <time>2011-05-11T16:04:26Z</time>
      </trkpt>
      <trkpt lat="44.34599" lon="2.56082">
        <ele>531.2</ele>
        <time>2011-05-11T16:04:27Z</time>
      </trkpt>
      <trkpt lat="44.34597" lon="2.56085">
        <ele>531.5</ele>
        <time>2011-05-11T16:04:28Z</time>
      </trkpt>
      <trkpt lat="44.34596" lon="2.56088">
        <ele>531.7</ele>
        <time>2011-05-11T16:04:29Z</time>
      </trkpt>
      <trkpt lat="44.34594" lon="2.56091">
        <ele>532</ele>
        <time>2011-05-11T16:04:30Z</time>
      </trkpt>
      <trkpt lat="44.34593" lon="2.56094">
        <ele>532.2</ele>
        <time>2011-05-11T16:04:31Z</time>
      </trkpt>
      <trkpt lat="44.34591" lon="2.56096">
        <ele>532.5</ele>
        <time>2011-05-11T16:04:32Z</time>
      </trkpt>
      <trkpt lat="44.3459" lon="2.56099">
        <ele>532.7</ele>
        <time>2011-05-11T16:04:33Z</time>
      </trkpt>
      <trkpt lat="44.34588" lon="2.56102">
        <ele>533</ele>
        <time>2011-05-11T16:04:34Z</time>
      </trkpt>
      <trkpt lat="44.34587" lon="2.56104">
        <ele>533.4</ele>
        <time>2011-05-11T16:04:35Z</time>
      </trkpt>
      <trkpt lat="44.34585" lon="2.56107">
        <ele>533.7</ele>
        <time>2011-05-11T16:04:36Z</time>
      </trkpt>
      <trkpt lat="44.34583" lon="2.56109">
        <ele>534</ele>
        <time>2011-05-11T16:04:37Z</time>
      </trkpt>
      <trkpt lat="44.34582" lon="2.56111">
        <ele>534.2</ele>
        <time>2011-05-11T16:04:38Z</time>
      </trkpt>
      <trkpt lat="44.3458" lon="2.56113">
        <ele>534.4</ele>
        <time>2011-05-11T16:04:39Z</time>
      </trkpt>
      <trkpt lat="44.34578" lon="2.56116">
        <ele>534.5</ele>
        <time>2011-05-11T16:04:40Z</time>
      </trkpt>
      <trkpt lat="44.34574" lon="2.56119">
        <ele>534.7</ele>
        <time>2011-05-11T16:04:42Z</time>
      </trkpt>
      <trkpt lat="44.34572" lon="2.5612">
        <ele>534.9</ele>
        <time>2011-05-11T16:04:43Z</time>
      </trkpt>
      <trkpt lat="44.3457" lon="2.56121">
        <ele>535</ele>
        <time>2011-05-11T16:04:44Z</time>
      </trkpt>
      <trkpt lat="44.34566" lon="2.56122">
        <ele>535.5</ele>
        <time>2011-05-11T16:04:46Z</time>
      </trkpt>
      <trkpt lat="44.34562" lon="2.56123">
        <ele>536.2</ele>
        <time>2011-05-11T16:04:48Z</time>
      </trkpt>
      <trkpt lat="44.34557" lon="2.56123">
        <ele>536.9</ele>
        <time>2011-05-11T16:04:50Z</time>
      </trkpt>
      <trkpt lat="44.34553" lon="2.56122">
        <ele>537.9</ele>
        <time>2011-05-11T16:04:52Z</time>
      </trkpt>
      <trkpt lat="44.34549" lon="2.56121">
        <ele>538.7</ele>
        <time>2011-05-11T16:04:54Z</time>
      </trkpt>
      <trkpt lat="44.34545" lon="2.5612">
        <ele>539.2</ele>
        <time>2011-05-11T16:04:56Z</time>
      </trkpt>
      <trkpt lat="44.34541" lon="2.56118">
        <ele>540</ele>
        <time>2011-05-11T16:04:58Z</time>
      </trkpt>
      <trkpt lat="44.34537" lon="2.56116">
        <ele>541</ele>
        <time>2011-05-11T16:05:00Z</time>
      </trkpt>
      <trkpt lat="44.34533" lon="2.56113">
        <ele>541.9</ele>
        <time>2011-05-11T16:05:02Z</time>
      </trkpt>
      <trkpt lat="44.3453" lon="2.5611">
        <ele>542.5</ele>
        <time>2011-05-11T16:05:04Z</time>
      </trkpt>
      <trkpt lat="44.34527" lon="2.56107">
        <ele>542.7</ele>
        <time>2011-05-11T16:05:06Z</time>
      </trkpt>
      <trkpt lat="44.34524" lon="2.56103">
        <ele>542.7</ele>
        <time>2011-05-11T16:05:08Z</time>
      </trkpt>
      <trkpt lat="44.34522" lon="2.561">
        <ele>543</ele>
        <time>2011-05-11T16:05:10Z</time>
      </trkpt>
      <trkpt lat="44.34519" lon="2.56096">
        <ele>543</ele>
        <time>2011-05-11T16:05:12Z</time>
      </trkpt>
      <trkpt lat="44.34517" lon="2.56092">
        <ele>543.2</ele>
        <time>2011-05-11T16:05:14Z</time>
      </trkpt>
      <trkpt lat="44.34516" lon="2.56089">
        <ele>543.5</ele>
        <time>2011-05-11T16:05:16Z</time>
      </trkpt>
      <trkpt lat="44.34514" lon="2.56085">
        <ele>543.7</ele>
        <time>2011-05-11T16:05:18Z</time>
      </trkpt>
      <trkpt lat="44.34511" lon="2.56081">
        <ele>543.7</ele>
        <time>2011-05-11T16:05:20Z</time>
      </trkpt>
      <trkpt lat="44.34508" lon="2.56078">
        <ele>543.9</ele>
        <time>2011-05-11T16:05:22Z</time>
      </trkpt>
      <trkpt lat="44.34505" lon="2.56075">
        <ele>544.2</ele>
        <time>2011-05-11T16:05:24Z</time>
      </trkpt>
      <trkpt lat="44.34502" lon="2.56071">
        <ele>544.9</ele>
        <time>2011-05-11T16:05:26Z</time>
      </trkpt>
      <trkpt lat="44.345" lon="2.56069">
        <ele>545.2</ele>
        <time>2011-05-11T16:05:27Z</time>
      </trkpt>
      <trkpt lat="44.34495" lon="2.56065">
        <ele>546.4</ele>
        <time>2011-05-11T16:05:30Z</time>
      </trkpt>
      <trkpt lat="44.34491" lon="2.56062">
        <ele>547</ele>
        <time>2011-05-11T16:05:32Z</time>
      </trkpt>
      <trkpt lat="44.34488" lon="2.5606">
        <ele>547.7</ele>
        <time>2011-05-11T16:05:34Z</time>
      </trkpt>
      <trkpt lat="44.34484" lon="2.56058">
        <ele>548.2</ele>
        <time>2011-05-11T16:05:36Z</time>
      </trkpt>
      <trkpt lat="44.34481" lon="2.56056">
        <ele>548.9</ele>
        <time>2011-05-11T16:05:38Z</time>
      </trkpt>
      <trkpt lat="44.34477" lon="2.56054">
        <ele>549.5</ele>
        <time>2011-05-11T16:05:40Z</time>
      </trkpt>
      <trkpt lat="44.34474" lon="2.56053">
        <ele>549.7</ele>
        <time>2011-05-11T16:05:42Z</time>
      </trkpt>
      <trkpt lat="44.3447" lon="2.56051">
        <ele>550.2</ele>
        <time>2011-05-11T16:05:44Z</time>
      </trkpt>
      <trkpt lat="44.34467" lon="2.5605">
        <ele>550.7</ele>
        <time>2011-05-11T16:05:46Z</time>
      </trkpt>
      <trkpt lat="44.34464" lon="2.56049">
        <ele>551</ele>
        <time>2011-05-11T16:05:48Z</time>
      </trkpt>
      <trkpt lat="44.3446" lon="2.56049">
        <ele>551.5</ele>
        <time>2011-05-11T16:05:50Z</time>
      </trkpt>
      <trkpt lat="44.34457" lon="2.56048">
        <ele>552.4</ele>
        <time>2011-05-11T16:05:52Z</time>
      </trkpt>
      <trkpt lat="44.34453" lon="2.56047">
        <ele>553.2</ele>
        <time>2011-05-11T16:05:54Z</time>
      </trkpt>
      <trkpt lat="44.3445" lon="2.56047">
        <ele>553.9</ele>
        <time>2011-05-11T16:05:56Z</time>
      </trkpt>
      <trkpt lat="44.34447" lon="2.56045">
        <ele>554.9</ele>
        <time>2011-05-11T16:05:58Z</time>
      </trkpt>
      <trkpt lat="44.34444" lon="2.56045">
        <ele>555.4</ele>
        <time>2011-05-11T16:06:00Z</time>
      </trkpt>
      <trkpt lat="44.3444" lon="2.56045">
        <ele>555.7</ele>
        <time>2011-05-11T16:06:02Z</time>
      </trkpt>
      <trkpt lat="44.34437" lon="2.56044">
        <ele>556</ele>
        <time>2011-05-11T16:06:04Z</time>
      </trkpt>
      <trkpt lat="44.34434" lon="2.56044">
        <ele>556.2</ele>
        <time>2011-05-11T16:06:06Z</time>
      </trkpt>
      <trkpt lat="44.34431" lon="2.56043">
        <ele>556.4</ele>
        <time>2011-05-11T16:06:08Z</time>
      </trkpt>
      <trkpt lat="44.34427" lon="2.56043">
        <ele>556.9</ele>
        <time>2011-05-11T16:06:10Z</time>
      </trkpt>
      <trkpt lat="44.34424" lon="2.56043">
        <ele>557.2</ele>
        <time>2011-05-11T16:06:12Z</time>
      </trkpt>
      <trkpt lat="44.34421" lon="2.56043">
        <ele>557.7</ele>
        <time>2011-05-11T16:06:14Z</time>
      </trkpt>
      <trkpt lat="44.34418" lon="2.56043">
        <ele>558.4</ele>
        <time>2011-05-11T16:06:16Z</time>
      </trkpt>
      <trkpt lat="44.34415" lon="2.56043">
        <ele>559.2</ele>
        <time>2011-05-11T16:06:18Z</time>
      </trkpt>
      <trkpt lat="44.34411" lon="2.56043">
        <ele>560</ele>
        <time>2011-05-11T16:06:20Z</time>
      </trkpt>
      <trkpt lat="44.34408" lon="2.56043">
        <ele>560.7</ele>
        <time>2011-05-11T16:06:22Z</time>
      </trkpt>
      <trkpt lat="44.34405" lon="2.56043">
        <ele>561.2</ele>
        <time>2011-05-11T16:06:24Z</time>
      </trkpt>
      <trkpt lat="44.34401" lon="2.56043">
        <ele>561.9</ele>
        <time>2011-05-11T16:06:26Z</time>
      </trkpt>
      <trkpt lat="44.34398" lon="2.56043">
        <ele>562.5</ele>
        <time>2011-05-11T16:06:28Z</time>
      </trkpt>
      <trkpt lat="44.34396" lon="2.56043">
        <ele>562.7</ele>
        <time>2011-05-11T16:06:29Z</time>
      </trkpt>
      <trkpt lat="44.34391" lon="2.56042">
        <ele>563.9</ele>
        <time>2011-05-11T16:06:32Z</time>
      </trkpt>
      <trkpt lat="44.34388" lon="2.56041">
        <ele>564.5</ele>
        <time>2011-05-11T16:06:34Z</time>
      </trkpt>
      <trkpt lat="44.34385" lon="2.5604">
        <ele>565</ele>
        <time>2011-05-11T16:06:36Z</time>
      </trkpt>
      <trkpt lat="44.34381" lon="2.56039">
        <ele>565.7</ele>
        <time>2011-05-11T16:06:38Z</time>
      </trkpt>
      <trkpt lat="44.34378" lon="2.56037">
        <ele>566.2</ele>
        <time>2011-05-11T16:06:40Z</time>
      </trkpt>
      <trkpt lat="44.34375" lon="2.56035">
        <ele>566.7</ele>
        <time>2011-05-11T16:06:42Z</time>
      </trkpt>
      <trkpt lat="44.34372" lon="2.56033">
        <ele>567.5</ele>
        <time>2011-05-11T16:06:44Z</time>
      </trkpt>
      <trkpt lat="44.34369" lon="2.5603">
        <ele>568.2</ele>
        <time>2011-05-11T16:06:46Z</time>
      </trkpt>
      <trkpt lat="44.34366" lon="2.56028">
        <ele>568.7</ele>
        <time>2011-05-11T16:06:48Z</time>
      </trkpt>
      <trkpt lat="44.34363" lon="2.56027">
        <ele>569</ele>
        <time>2011-05-11T16:06:50Z</time>
      </trkpt>
      <trkpt lat="44.34359" lon="2.56026">
        <ele>569.4</ele>
        <time>2011-05-11T16:06:52Z</time>
      </trkpt>
      <trkpt lat="44.34356" lon="2.56026">
        <ele>569.4</ele>
        <time>2011-05-11T16:06:54Z</time>
      </trkpt>
      <trkpt lat="44.34353" lon="2.56026">
        <ele>569.2</ele>
        <time>2011-05-11T16:06:56Z</time>
      </trkpt>
      <trkpt lat="44.34348" lon="2.56026">
        <ele>569</ele>
        <time>2011-05-11T16:06:58Z</time>
      </trkpt>
      <trkpt lat="44.34346" lon="2.56027">
        <ele>568.9</ele>
        <time>2011-05-11T16:06:59Z</time>
      </trkpt>
      <trkpt lat="44.34344" lon="2.56028">
        <ele>568.5</ele>
        <time>2011-05-11T16:07:00Z</time>
      </trkpt>
      <trkpt lat="44.34341" lon="2.56029">
        <ele>568.2</ele>
        <time>2011-05-11T16:07:01Z</time>
      </trkpt>
      <trkpt lat="44.34339" lon="2.5603">
        <ele>568</ele>
        <time>2011-05-11T16:07:02Z</time>
      </trkpt>
      <trkpt lat="44.34336" lon="2.56031">
        <ele>568</ele>
        <time>2011-05-11T16:07:03Z</time>
      </trkpt>
      <trkpt lat="44.34333" lon="2.56033">
        <ele>567.7</ele>
        <time>2011-05-11T16:07:04Z</time>
      </trkpt>
      <trkpt lat="44.3433" lon="2.56035">
        <ele>567.7</ele>
        <time>2011-05-11T16:07:05Z</time>
      </trkpt>
      <trkpt lat="44.34327" lon="2.56037">
        <ele>567.5</ele>
        <time>2011-05-11T16:07:06Z</time>
      </trkpt>
      <trkpt lat="44.34323" lon="2.5604">
        <ele>567.2</ele>
        <time>2011-05-11T16:07:07Z</time>
      </trkpt>
      <trkpt lat="44.34319" lon="2.56043">
        <ele>567</ele>
        <time>2011-05-11T16:07:08Z</time>
      </trkpt>
      <trkpt lat="44.34315" lon="2.56046">
        <ele>566.7</ele>
        <time>2011-05-11T16:07:09Z</time>
      </trkpt>
      <trkpt lat="44.34311" lon="2.5605">
        <ele>566.5</ele>
        <time>2011-05-11T16:07:10Z</time>
      </trkpt>
      <trkpt lat="44.34306" lon="2.56054">
        <ele>566.2</ele>
        <time>2011-05-11T16:07:11Z</time>
      </trkpt>
      <trkpt lat="44.34302" lon="2.56058">
        <ele>565.9</ele>
        <time>2011-05-11T16:07:12Z</time>
      </trkpt>
      <trkpt lat="44.34297" lon="2.56063">
        <ele>565.4</ele>
        <time>2011-05-11T16:07:13Z</time>
      </trkpt>
      <trkpt lat="44.34292" lon="2.56067">
        <ele>564.9</ele>
        <time>2011-05-11T16:07:14Z</time>
      </trkpt>
      <trkpt lat="44.34288" lon="2.56072">
        <ele>564.4</ele>
        <time>2011-05-11T16:07:15Z</time>
      </trkpt>
      <trkpt lat="44.34283" lon="2.56078">
        <ele>563.7</ele>
        <time>2011-05-11T16:07:16Z</time>
      </trkpt>
      <trkpt lat="44.34278" lon="2.56085">
        <ele>563</ele>
        <time>2011-05-11T16:07:17Z</time>
      </trkpt>
      <trkpt lat="44.34274" lon="2.56092">
        <ele>562.5</ele>
        <time>2011-05-11T16:07:18Z</time>
      </trkpt>
      <trkpt lat="44.34269" lon="2.561">
        <ele>562</ele>
        <time>2011-05-11T16:07:19Z</time>
      </trkpt>
      <trkpt lat="44.34264" lon="2.56107">
        <ele>561.7</ele>
        <time>2011-05-11T16:07:20Z</time>
      </trkpt>
      <trkpt lat="44.34259" lon="2.56115">
        <ele>561.4</ele>
        <time>2011-05-11T16:07:21Z</time>
      </trkpt>
      <trkpt lat="44.34255" lon="2.56122">
        <ele>561.2</ele>
        <time>2011-05-11T16:07:22Z</time>
      </trkpt>
      <trkpt lat="44.34252" lon="2.56129">
        <ele>561.5</ele>
        <time>2011-05-11T16:07:23Z</time>
      </trkpt>
      <trkpt lat="44.3425" lon="2.56135">
        <ele>561.5</ele>
        <time>2011-05-11T16:07:24Z</time>
      </trkpt>
      <trkpt lat="44.34247" lon="2.56141">
        <ele>561.7</ele>
        <time>2011-05-11T16:07:25Z</time>
      </trkpt>
      <trkpt lat="44.34245" lon="2.56145">
        <ele>562</ele>
        <time>2011-05-11T16:07:26Z</time>
      </trkpt>
      <trkpt lat="44.34242" lon="2.56149">
        <ele>562.4</ele>
        <time>2011-05-11T16:07:27Z</time>
      </trkpt>
      <trkpt lat="44.3424" lon="2.56153">
        <ele>562.7</ele>
        <time>2011-05-11T16:07:28Z</time>
      </trkpt>
      <trkpt lat="44.34238" lon="2.56156">
        <ele>562.9</ele>
        <time>2011-05-11T16:07:29Z</time>
      </trkpt>
      <trkpt lat="44.34236" lon="2.56158">
        <ele>563.2</ele>
        <time>2011-05-11T16:07:30Z</time>
      </trkpt>
      <trkpt lat="44.34233" lon="2.5616">
        <ele>563.5</ele>
        <time>2011-05-11T16:07:31Z</time>
      </trkpt>
      <trkpt lat="44.3423" lon="2.56161">
        <ele>564</ele>
        <time>2011-05-11T16:07:33Z</time>
      </trkpt>
      <trkpt lat="44.34226" lon="2.56161">
        <ele>564.4</ele>
        <time>2011-05-11T16:07:35Z</time>
      </trkpt>
      <trkpt lat="44.34224" lon="2.56158">
        <ele>564.9</ele>
        <time>2011-05-11T16:07:37Z</time>
      </trkpt>
      <trkpt lat="44.34222" lon="2.56154">
        <ele>565.2</ele>
        <time>2011-05-11T16:07:39Z</time>
      </trkpt>
      <trkpt lat="44.3422" lon="2.5615">
        <ele>565.9</ele>
        <time>2011-05-11T16:07:41Z</time>
      </trkpt>
      <trkpt lat="44.34216" lon="2.56147">
        <ele>566.7</ele>
        <time>2011-05-11T16:07:43Z</time>
      </trkpt>
      <trkpt lat="44.34212" lon="2.56147">
        <ele>568</ele>
        <time>2011-05-11T16:07:46Z</time>
      </trkpt>
      <trkpt lat="44.34209" lon="2.56149">
        <ele>568.2</ele>
        <time>2011-05-11T16:07:49Z</time>
      </trkpt>
      <trkpt lat="44.34206" lon="2.56152">
        <ele>568</ele>
        <time>2011-05-11T16:07:52Z</time>
      </trkpt>
      <trkpt lat="44.34203" lon="2.56155">
        <ele>568</ele>
        <time>2011-05-11T16:07:54Z</time>
      </trkpt>
      <trkpt lat="44.342" lon="2.56157">
        <ele>567.5</ele>
        <time>2011-05-11T16:07:56Z</time>
      </trkpt>
      <trkpt lat="44.34198" lon="2.5616">
        <ele>566.9</ele>
        <time>2011-05-11T16:07:58Z</time>
      </trkpt>
      <trkpt lat="44.34195" lon="2.56162">
        <ele>566.2</ele>
        <time>2011-05-11T16:08:00Z</time>
      </trkpt>
      <trkpt lat="44.34192" lon="2.56164">
        <ele>565.7</ele>
        <time>2011-05-11T16:08:02Z</time>
      </trkpt>
      <trkpt lat="44.3419" lon="2.56167">
        <ele>565.5</ele>
        <time>2011-05-11T16:08:04Z</time>
      </trkpt>
      <trkpt lat="44.34187" lon="2.5617">
        <ele>565.5</ele>
        <time>2011-05-11T16:08:06Z</time>
      </trkpt>
      <trkpt lat="44.34183" lon="2.56173">
        <ele>565.9</ele>
        <time>2011-05-11T16:08:08Z</time>
      </trkpt>
      <trkpt lat="44.34179" lon="2.56176">
        <ele>566.5</ele>
        <time>2011-05-11T16:08:10Z</time>
      </trkpt>
      <trkpt lat="44.34175" lon="2.56178">
        <ele>567.4</ele>
        <time>2011-05-11T16:08:12Z</time>
      </trkpt>
      <trkpt lat="44.34171" lon="2.56178">
        <ele>568.4</ele>
        <time>2011-05-11T16:08:14Z</time>
      </trkpt>
      <trkpt lat="44.34168" lon="2.56178">
        <ele>569.2</ele>
        <time>2011-05-11T16:08:16Z</time>
      </trkpt>
      <trkpt lat="44.34164" lon="2.56176">
        <ele>570.7</ele>
        <time>2011-05-11T16:08:19Z</time>
      </trkpt>
      <trkpt lat="44.34162" lon="2.56174">
        <ele>571.2</ele>
        <time>2011-05-11T16:08:20Z</time>
      </trkpt>
      <trkpt lat="44.34157" lon="2.56174">
        <ele>573.7</ele>
        <time>2011-05-11T16:08:31Z</time>
      </trkpt>
      <trkpt lat="44.34157" lon="2.56174">
        <ele>574</ele>
        <time>2011-05-11T16:08:32Z</time>
      </trkpt>
      <trkpt lat="44.3415" lon="2.56169">
        <ele>575.2</ele>
        <time>2011-05-11T16:08:41Z</time>
      </trkpt>
      <trkpt lat="44.34147" lon="2.56166">
        <ele>575.7</ele>
        <time>2011-05-11T16:08:44Z</time>
      </trkpt>
      <trkpt lat="44.34143" lon="2.56164">
        <ele>576.2</ele>
        <time>2011-05-11T16:08:47Z</time>
      </trkpt>
      <trkpt lat="44.3414" lon="2.56161">
        <ele>576.7</ele>
        <time>2011-05-11T16:08:51Z</time>
      </trkpt>
      <trkpt lat="44.34136" lon="2.56158">
        <ele>577</ele>
        <time>2011-05-11T16:08:55Z</time>
      </trkpt>
      <trkpt lat="44.34132" lon="2.56155">
        <ele>577.2</ele>
        <time>2011-05-11T16:08:58Z</time>
      </trkpt>
      <trkpt lat="44.34129" lon="2.56153">
        <ele>578</ele>
        <time>2011-05-11T16:09:00Z</time>
      </trkpt>
      <trkpt lat="44.34126" lon="2.56151">
        <ele>579.2</ele>
        <time>2011-05-11T16:09:02Z</time>
      </trkpt>
      <trkpt lat="44.34122" lon="2.56151">
        <ele>579.7</ele>
        <time>2011-05-11T16:09:04Z</time>
      </trkpt>
      <trkpt lat="44.34119" lon="2.56152">
        <ele>580.2</ele>
        <time>2011-05-11T16:09:07Z</time>
      </trkpt>
      <trkpt lat="44.34115" lon="2.56153">
        <ele>580.5</ele>
        <time>2011-05-11T16:09:10Z</time>
      </trkpt>
      <trkpt lat="44.34112" lon="2.56155">
        <ele>580.5</ele>
        <time>2011-05-11T16:09:12Z</time>
      </trkpt>
      <trkpt lat="44.34109" lon="2.56156">
        <ele>580.7</ele>
        <time>2011-05-11T16:09:14Z</time>
      </trkpt>
      <trkpt lat="44.34106" lon="2.56158">
        <ele>580.5</ele>
        <time>2011-05-11T16:09:16Z</time>
      </trkpt>
      <trkpt lat="44.34103" lon="2.5616">
        <ele>580.5</ele>
        <time>2011-05-11T16:09:18Z</time>
      </trkpt>
      <trkpt lat="44.34099" lon="2.56162">
        <ele>582.4</ele>
        <time>2011-05-11T16:09:20Z</time>
      </trkpt>
      <trkpt lat="44.34097" lon="2.56163">
        <ele>582.7</ele>
        <time>2011-05-11T16:09:21Z</time>
      </trkpt>
      <trkpt lat="44.34095" lon="2.56165">
        <ele>582.5</ele>
        <time>2011-05-11T16:09:22Z</time>
      </trkpt>
      <trkpt lat="44.34092" lon="2.56166">
        <ele>582.5</ele>
        <time>2011-05-11T16:09:23Z</time>
      </trkpt>
      <trkpt lat="44.34089" lon="2.56168">
        <ele>582.2</ele>
        <time>2011-05-11T16:09:24Z</time>
      </trkpt>
      <trkpt lat="44.34086" lon="2.56169">
        <ele>582</ele>
        <time>2011-05-11T16:09:25Z</time>
      </trkpt>
      <trkpt lat="44.34082" lon="2.56171">
        <ele>582</ele>
        <time>2011-05-11T16:09:26Z</time>
      </trkpt>
      <trkpt lat="44.34079" lon="2.56173">
        <ele>581.7</ele>
        <time>2011-05-11T16:09:27Z</time>
      </trkpt>
      <trkpt lat="44.34075" lon="2.56173">
        <ele>581.7</ele>
        <time>2011-05-11T16:09:28Z</time>
      </trkpt>
      <trkpt lat="44.34072" lon="2.5617">
        <ele>582</ele>
        <time>2011-05-11T16:09:29Z</time>
      </trkpt>
      <trkpt lat="44.34069" lon="2.56166">
        <ele>581</ele>
        <time>2011-05-11T16:09:32Z</time>
      </trkpt>
      <trkpt lat="44.34069" lon="2.56165">
        <ele>580.7</ele>
        <time>2011-05-11T16:09:33Z</time>
      </trkpt>
      <trkpt lat="44.34068" lon="2.5616">
        <ele>582</ele>
        <time>2011-05-11T16:09:35Z</time>
      </trkpt>
      <trkpt lat="44.34067" lon="2.56156">
        <ele>583</ele>
        <time>2011-05-11T16:09:36Z</time>
      </trkpt>
      <trkpt lat="44.34066" lon="2.56152">
        <ele>583.2</ele>
        <time>2011-05-11T16:09:37Z</time>
      </trkpt>
      <trkpt lat="44.34065" lon="2.56148">
        <ele>582.4</ele>
        <time>2011-05-11T16:09:38Z</time>
      </trkpt>
      <trkpt lat="44.34067" lon="2.56144">
        <ele>586.5</ele>
        <time>2011-05-11T16:09:42Z</time>
      </trkpt>
      <trkpt lat="44.34071" lon="2.56143">
        <ele>587.2</ele>
        <time>2011-05-11T16:09:44Z</time>
      </trkpt>
      <trkpt lat="44.34075" lon="2.56142">
        <ele>588</ele>
        <time>2011-05-11T16:09:46Z</time>
      </trkpt>
      <trkpt lat="44.34078" lon="2.5614">
        <ele>588.5</ele>
        <time>2011-05-11T16:09:48Z</time>
      </trkpt>
      <trkpt lat="44.34082" lon="2.56137">
        <ele>589.2</ele>
        <time>2011-05-11T16:09:51Z</time>
      </trkpt>
      <trkpt lat="44.34082" lon="2.56131">
        <ele>589.7</ele>
        <time>2011-05-11T16:09:55Z</time>
      </trkpt>
      <trkpt lat="44.34079" lon="2.56127">
        <ele>590.2</ele>
        <time>2011-05-11T16:09:58Z</time>
      </trkpt>
      <trkpt lat="44.34077" lon="2.56124">
        <ele>590.4</ele>
        <time>2011-05-11T16:10:00Z</time>
      </trkpt>
      <trkpt lat="44.34074" lon="2.56122">
        <ele>590.7</ele>
        <time>2011-05-11T16:10:02Z</time>
      </trkpt>
      <trkpt lat="44.34071" lon="2.56119">
        <ele>591</ele>
        <time>2011-05-11T16:10:04Z</time>
      </trkpt>
      <trkpt lat="44.34068" lon="2.56115">
        <ele>591.2</ele>
        <time>2011-05-11T16:10:06Z</time>
      </trkpt>
      <trkpt lat="44.34066" lon="2.56111">
        <ele>591.7</ele>
        <time>2011-05-11T16:10:08Z</time>
      </trkpt>
      <trkpt lat="44.34064" lon="2.56107">
        <ele>592.2</ele>
        <time>2011-05-11T16:10:10Z</time>
      </trkpt>
      <trkpt lat="44.34061" lon="2.56102">
        <ele>592.5</ele>
        <time>2011-05-11T16:10:12Z</time>
      </trkpt>
      <trkpt lat="44.34059" lon="2.56098">
        <ele>592.7</ele>
        <time>2011-05-11T16:10:14Z</time>
      </trkpt>
      <trkpt lat="44.34057" lon="2.56093">
        <ele>592.7</ele>
        <time>2011-05-11T16:10:16Z</time>
      </trkpt>
      <trkpt lat="44.34056" lon="2.56089">
        <ele>593</ele>
        <time>2011-05-11T16:10:18Z</time>
      </trkpt>
      <trkpt lat="44.34054" lon="2.56085">
        <ele>593.4</ele>
        <time>2011-05-11T16:10:20Z</time>
      </trkpt>
      <trkpt lat="44.34052" lon="2.56081">
        <ele>593.7</ele>
        <time>2011-05-11T16:10:22Z</time>
      </trkpt>
      <trkpt lat="44.3405" lon="2.56076">
        <ele>594.2</ele>
        <time>2011-05-11T16:10:24Z</time>
      </trkpt>
      <trkpt lat="44.34048" lon="2.56072">
        <ele>594.7</ele>
        <time>2011-05-11T16:10:26Z</time>
      </trkpt>
      <trkpt lat="44.34047" lon="2.56068">
        <ele>595.2</ele>
        <time>2011-05-11T16:10:28Z</time>
      </trkpt>
      <trkpt lat="44.34045" lon="2.56064">
        <ele>595.7</ele>
        <time>2011-05-11T16:10:30Z</time>
      </trkpt>
      <trkpt lat="44.34043" lon="2.56061">
        <ele>596.4</ele>
        <time>2011-05-11T16:10:32Z</time>
      </trkpt>
      <trkpt lat="44.34041" lon="2.56055">
        <ele>597</ele>
        <time>2011-05-11T16:10:35Z</time>
      </trkpt>
      <trkpt lat="44.3404" lon="2.56054">
        <ele>597.2</ele>
        <time>2011-05-11T16:10:36Z</time>
      </trkpt>
      <trkpt lat="44.34037" lon="2.56048">
        <ele>598.2</ele>
        <time>2011-05-11T16:10:39Z</time>
      </trkpt>
      <trkpt lat="44.34036" lon="2.56044">
        <ele>599</ele>
        <time>2011-05-11T16:10:41Z</time>
      </trkpt>
      <trkpt lat="44.34034" lon="2.5604">
        <ele>599.5</ele>
        <time>2011-05-11T16:10:43Z</time>
      </trkpt>
      <trkpt lat="44.34033" lon="2.56037">
        <ele>600</ele>
        <time>2011-05-11T16:10:45Z</time>
      </trkpt>
      <trkpt lat="44.34031" lon="2.56033">
        <ele>600.7</ele>
        <time>2011-05-11T16:10:47Z</time>
      </trkpt>
      <trkpt lat="44.34029" lon="2.56029">
        <ele>601.4</ele>
        <time>2011-05-11T16:10:49Z</time>
      </trkpt>
      <trkpt lat="44.34027" lon="2.56024">
        <ele>602.2</ele>
        <time>2011-05-11T16:10:52Z</time>
      </trkpt>
      <trkpt lat="44.34026" lon="2.5602">
        <ele>603</ele>
        <time>2011-05-11T16:10:54Z</time>
      </trkpt>
      <trkpt lat="44.34024" lon="2.56016">
        <ele>603.5</ele>
        <time>2011-05-11T16:10:56Z</time>
      </trkpt>
      <trkpt lat="44.34022" lon="2.56012">
        <ele>604</ele>
        <time>2011-05-11T16:10:58Z</time>
      </trkpt>
      <trkpt lat="44.34021" lon="2.56009">
        <ele>604.5</ele>
        <time>2011-05-11T16:11:00Z</time>
      </trkpt>
      <trkpt lat="44.34019" lon="2.56003">
        <ele>604.7</ele>
        <time>2011-05-11T16:11:03Z</time>
      </trkpt>
      <trkpt lat="44.34017" lon="2.55997">
        <ele>604.5</ele>
        <time>2011-05-11T16:11:06Z</time>
      </trkpt>
      <trkpt lat="44.34016" lon="2.55992">
        <ele>604.4</ele>
        <time>2011-05-11T16:11:09Z</time>
      </trkpt>
      <trkpt lat="44.34014" lon="2.55988">
        <ele>604.7</ele>
        <time>2011-05-11T16:11:11Z</time>
      </trkpt>
      <trkpt lat="44.34013" lon="2.55984">
        <ele>605</ele>
        <time>2011-05-11T16:11:13Z</time>
      </trkpt>
      <trkpt lat="44.34012" lon="2.55979">
        <ele>605.2</ele>
        <time>2011-05-11T16:11:15Z</time>
      </trkpt>
      <trkpt lat="44.34011" lon="2.55974">
        <ele>605.7</ele>
        <time>2011-05-11T16:11:17Z</time>
      </trkpt>
      <trkpt lat="44.3401" lon="2.5597">
        <ele>606</ele>
        <time>2011-05-11T16:11:19Z</time>
      </trkpt>
      <trkpt lat="44.34009" lon="2.55965">
        <ele>606.5</ele>
        <time>2011-05-11T16:11:21Z</time>
      </trkpt>
      <trkpt lat="44.34007" lon="2.5596">
        <ele>606.7</ele>
        <time>2011-05-11T16:11:23Z</time>
      </trkpt>
      <trkpt lat="44.34006" lon="2.55956">
        <ele>607.2</ele>
        <time>2011-05-11T16:11:25Z</time>
      </trkpt>
      <trkpt lat="44.34004" lon="2.55951">
        <ele>607.5</ele>
        <time>2011-05-11T16:11:27Z</time>
      </trkpt>
      <trkpt lat="44.34003" lon="2.55946">
        <ele>607.7</ele>
        <time>2011-05-11T16:11:29Z</time>
      </trkpt>
      <trkpt lat="44.34001" lon="2.55941">
        <ele>608</ele>
        <time>2011-05-11T16:11:31Z</time>
      </trkpt>
      <trkpt lat="44.34" lon="2.55936">
        <ele>608.4</ele>
        <time>2011-05-11T16:11:33Z</time>
      </trkpt>
      <trkpt lat="44.33998" lon="2.55931">
        <ele>608.7</ele>
        <time>2011-05-11T16:11:35Z</time>
      </trkpt>
      <trkpt lat="44.33997" lon="2.55927">
        <ele>609</ele>
        <time>2011-05-11T16:11:37Z</time>
      </trkpt>
      <trkpt lat="44.33997" lon="2.55925">
        <ele>609.2</ele>
        <time>2011-05-11T16:11:38Z</time>
      </trkpt>
      <trkpt lat="44.33994" lon="2.55918">
        <ele>609.9</ele>
        <time>2011-05-11T16:11:41Z</time>
      </trkpt>
      <trkpt lat="44.33992" lon="2.55914">
        <ele>610.4</ele>
        <time>2011-05-11T16:11:43Z</time>
      </trkpt>
      <trkpt lat="44.33989" lon="2.55909">
        <ele>610.7</ele>
        <time>2011-05-11T16:11:45Z</time>
      </trkpt>
      <trkpt lat="44.33987" lon="2.55905">
        <ele>611</ele>
        <time>2011-05-11T16:11:47Z</time>
      </trkpt>
      <trkpt lat="44.33985" lon="2.55899">
        <ele>611.4</ele>
        <time>2011-05-11T16:11:49Z</time>
      </trkpt>
      <trkpt lat="44.33983" lon="2.55894">
        <ele>611.7</ele>
        <time>2011-05-11T16:11:51Z</time>
      </trkpt>
      <trkpt lat="44.33982" lon="2.55891">
        <ele>611.9</ele>
        <time>2011-05-11T16:11:52Z</time>
      </trkpt>
      <trkpt lat="44.33981" lon="2.55888">
        <ele>612</ele>
        <time>2011-05-11T16:11:53Z</time>
      </trkpt>
      <trkpt lat="44.33979" lon="2.55883">
        <ele>612.4</ele>
        <time>2011-05-11T16:11:55Z</time>
      </trkpt>
      <trkpt lat="44.33977" lon="2.55877">
        <ele>612.7</ele>
        <time>2011-05-11T16:11:57Z</time>
      </trkpt>
      <trkpt lat="44.33975" lon="2.55872">
        <ele>613</ele>
        <time>2011-05-11T16:11:59Z</time>
      </trkpt>
      <trkpt lat="44.33974" lon="2.55869">
        <ele>613.7</ele>
        <time>2011-05-11T16:12:00Z</time>
      </trkpt>
      <trkpt lat="44.33971" lon="2.55864">
        <ele>613.7</ele>
        <time>2011-05-11T16:12:02Z</time>
      </trkpt>
      <trkpt lat="44.33969" lon="2.55859">
        <ele>613.7</ele>
        <time>2011-05-11T16:12:04Z</time>
      </trkpt>
      <trkpt lat="44.33966" lon="2.55854">
        <ele>613.9</ele>
        <time>2011-05-11T16:12:06Z</time>
      </trkpt>
      <trkpt lat="44.33963" lon="2.5585">
        <ele>613.9</ele>
        <time>2011-05-11T16:12:08Z</time>
      </trkpt>
      <trkpt lat="44.33961" lon="2.55847">
        <ele>614</ele>
        <time>2011-05-11T16:12:09Z</time>
      </trkpt>
      <trkpt lat="44.3396" lon="2.55845">
        <ele>613.9</ele>
        <time>2011-05-11T16:12:10Z</time>
      </trkpt>
      <trkpt lat="44.33958" lon="2.55843">
        <ele>613.7</ele>
        <time>2011-05-11T16:12:11Z</time>
      </trkpt>
      <trkpt lat="44.33956" lon="2.55841">
        <ele>613.7</ele>
        <time>2011-05-11T16:12:12Z</time>
      </trkpt>
      <trkpt lat="44.33954" lon="2.55838">
        <ele>614</ele>
        <time>2011-05-11T16:12:13Z</time>
      </trkpt>
      <trkpt lat="44.33952" lon="2.55835">
        <ele>614</ele>
        <time>2011-05-11T16:12:14Z</time>
      </trkpt>
      <trkpt lat="44.33951" lon="2.55833">
        <ele>614</ele>
        <time>2011-05-11T16:12:15Z</time>
      </trkpt>
      <trkpt lat="44.33949" lon="2.5583">
        <ele>614.2</ele>
        <time>2011-05-11T16:12:16Z</time>
      </trkpt>
      <trkpt lat="44.33947" lon="2.55828">
        <ele>614.2</ele>
        <time>2011-05-11T16:12:17Z</time>
      </trkpt>
      <trkpt lat="44.33945" lon="2.55825">
        <ele>614.4</ele>
        <time>2011-05-11T16:12:18Z</time>
      </trkpt>
      <trkpt lat="44.33943" lon="2.55823">
        <ele>614.2</ele>
        <time>2011-05-11T16:12:19Z</time>
      </trkpt>
      <trkpt lat="44.33941" lon="2.5582">
        <ele>614.2</ele>
        <time>2011-05-11T16:12:20Z</time>
      </trkpt>
      <trkpt lat="44.33939" lon="2.55817">
        <ele>614.2</ele>
        <time>2011-05-11T16:12:21Z</time>
      </trkpt>
      <trkpt lat="44.33937" lon="2.55814">
        <ele>614.2</ele>
        <time>2011-05-11T16:12:22Z</time>
      </trkpt>
      <trkpt lat="44.33935" lon="2.55811">
        <ele>614.2</ele>
        <time>2011-05-11T16:12:23Z</time>
      </trkpt>
      <trkpt lat="44.33932" lon="2.55809">
        <ele>614</ele>
        <time>2011-05-11T16:12:24Z</time>
      </trkpt>
      <trkpt lat="44.3393" lon="2.55806">
        <ele>614</ele>
        <time>2011-05-11T16:12:25Z</time>
      </trkpt>
      <trkpt lat="44.33928" lon="2.55803">
        <ele>613.9</ele>
        <time>2011-05-11T16:12:26Z</time>
      </trkpt>
      <trkpt lat="44.33926" lon="2.558">
        <ele>613.9</ele>
        <time>2011-05-11T16:12:27Z</time>
      </trkpt>
      <trkpt lat="44.33924" lon="2.55797">
        <ele>613.7</ele>
        <time>2011-05-11T16:12:28Z</time>
      </trkpt>
      <trkpt lat="44.33921" lon="2.55794">
        <ele>613.5</ele>
        <time>2011-05-11T16:12:29Z</time>
      </trkpt>
      <trkpt lat="44.33919" lon="2.5579">
        <ele>613.2</ele>
        <time>2011-05-11T16:12:30Z</time>
      </trkpt>
      <trkpt lat="44.33917" lon="2.55786">
        <ele>613.2</ele>
        <time>2011-05-11T16:12:31Z</time>
      </trkpt>
      <trkpt lat="44.33915" lon="2.55782">
        <ele>613</ele>
        <time>2011-05-11T16:12:32Z</time>
      </trkpt>
      <trkpt lat="44.33913" lon="2.55778">
        <ele>612.9</ele>
        <time>2011-05-11T16:12:33Z</time>
      </trkpt>
      <trkpt lat="44.33911" lon="2.55773">
        <ele>612.5</ele>
        <time>2011-05-11T16:12:34Z</time>
      </trkpt>
      <trkpt lat="44.3391" lon="2.55768">
        <ele>612.4</ele>
        <time>2011-05-11T16:12:35Z</time>
      </trkpt>
      <trkpt lat="44.33908" lon="2.55762">
        <ele>612</ele>
        <time>2011-05-11T16:12:36Z</time>
      </trkpt>
      <trkpt lat="44.33907" lon="2.55756">
        <ele>611.9</ele>
        <time>2011-05-11T16:12:37Z</time>
      </trkpt>
      <trkpt lat="44.33905" lon="2.5575">
        <ele>611.7</ele>
        <time>2011-05-11T16:12:38Z</time>
      </trkpt>
      <trkpt lat="44.33903" lon="2.55744">
        <ele>611.4</ele>
        <time>2011-05-11T16:12:39Z</time>
      </trkpt>
      <trkpt lat="44.33901" lon="2.55738">
        <ele>611.2</ele>
        <time>2011-05-11T16:12:40Z</time>
      </trkpt>
      <trkpt lat="44.33899" lon="2.55731">
        <ele>610.9</ele>
        <time>2011-05-11T16:12:41Z</time>
      </trkpt>
      <trkpt lat="44.33897" lon="2.55724">
        <ele>610.5</ele>
        <time>2011-05-11T16:12:42Z</time>
      </trkpt>
      <trkpt lat="44.33895" lon="2.55717">
        <ele>610.2</ele>
        <time>2011-05-11T16:12:43Z</time>
      </trkpt>
      <trkpt lat="44.33893" lon="2.55709">
        <ele>609.9</ele>
        <time>2011-05-11T16:12:44Z</time>
      </trkpt>
      <trkpt lat="44.33891" lon="2.55701">
        <ele>609.5</ele>
        <time>2011-05-11T16:12:45Z</time>
      </trkpt>
      <trkpt lat="44.33889" lon="2.55693">
        <ele>609.2</ele>
        <time>2011-05-11T16:12:46Z</time>
      </trkpt>
      <trkpt lat="44.33886" lon="2.55685">
        <ele>608.7</ele>
        <time>2011-05-11T16:12:47Z</time>
      </trkpt>
      <trkpt lat="44.33883" lon="2.55676">
        <ele>608.4</ele>
        <time>2011-05-11T16:12:48Z</time>
      </trkpt>
      <trkpt lat="44.3388" lon="2.55668">
        <ele>608</ele>
        <time>2011-05-11T16:12:49Z</time>
      </trkpt>
      <trkpt lat="44.33878" lon="2.55659">
        <ele>607.5</ele>
        <time>2011-05-11T16:12:50Z</time>
      </trkpt>
      <trkpt lat="44.33875" lon="2.55649">
        <ele>607</ele>
        <time>2011-05-11T16:12:51Z</time>
      </trkpt>
      <trkpt lat="44.33872" lon="2.5564">
        <ele>606.5</ele>
        <time>2011-05-11T16:12:52Z</time>
      </trkpt>
      <trkpt lat="44.33869" lon="2.55631">
        <ele>605.9</ele>
        <time>2011-05-11T16:12:53Z</time>
      </trkpt>
      <trkpt lat="44.33866" lon="2.55622">
        <ele>605.4</ele>
        <time>2011-05-11T16:12:54Z</time>
      </trkpt>
      <trkpt lat="44.33862" lon="2.55612">
        <ele>605.2</ele>
        <time>2011-05-11T16:12:55Z</time>
      </trkpt>
      <trkpt lat="44.33859" lon="2.55603">
        <ele>604.7</ele>
        <time>2011-05-11T16:12:56Z</time>
      </trkpt>
      <trkpt lat="44.33856" lon="2.55593">
        <ele>604.4</ele>
        <time>2011-05-11T16:12:57Z</time>
      </trkpt>
      <trkpt lat="44.33852" lon="2.55583">
        <ele>603.7</ele>
        <time>2011-05-11T16:12:58Z</time>
      </trkpt>
      <trkpt lat="44.33849" lon="2.55574">
        <ele>603.2</ele>
        <time>2011-05-11T16:12:59Z</time>
      </trkpt>
      <trkpt lat="44.33846" lon="2.55563">
        <ele>602.7</ele>
        <time>2011-05-11T16:13:00Z</time>
      </trkpt>
      <trkpt lat="44.33842" lon="2.55553">
        <ele>602.2</ele>
        <time>2011-05-11T16:13:01Z</time>
      </trkpt>
      <trkpt lat="44.33839" lon="2.55543">
        <ele>601.7</ele>
        <time>2011-05-11T16:13:02Z</time>
      </trkpt>
      <trkpt lat="44.33836" lon="2.55532">
        <ele>601</ele>
        <time>2011-05-11T16:13:03Z</time>
      </trkpt>
      <trkpt lat="44.33833" lon="2.55522">
        <ele>600.9</ele>
        <time>2011-05-11T16:13:04Z</time>
      </trkpt>
      <trkpt lat="44.3383" lon="2.55513">
        <ele>600.7</ele>
        <time>2011-05-11T16:13:05Z</time>
      </trkpt>
      <trkpt lat="44.33829" lon="2.55504">
        <ele>600.5</ele>
        <time>2011-05-11T16:13:06Z</time>
      </trkpt>
      <trkpt lat="44.33828" lon="2.55497">
        <ele>600.4</ele>
        <time>2011-05-11T16:13:07Z</time>
      </trkpt>
      <trkpt lat="44.33827" lon="2.55492">
        <ele>600.4</ele>
        <time>2011-05-11T16:13:12Z</time>
      </trkpt>
      <trkpt lat="44.33826" lon="2.55488">
        <ele>600.2</ele>
        <time>2011-05-11T16:13:14Z</time>
      </trkpt>
      <trkpt lat="44.33827" lon="2.55484">
        <ele>600.2</ele>
        <time>2011-05-11T16:13:15Z</time>
      </trkpt>
      <trkpt lat="44.33828" lon="2.5548">
        <ele>600.2</ele>
        <time>2011-05-11T16:13:16Z</time>
      </trkpt>
      <trkpt lat="44.33829" lon="2.55476">
        <ele>600.2</ele>
        <time>2011-05-11T16:13:17Z</time>
      </trkpt>
      <trkpt lat="44.33829" lon="2.55471">
        <ele>600.4</ele>
        <time>2011-05-11T16:13:18Z</time>
      </trkpt>
      <trkpt lat="44.33828" lon="2.55466">
        <ele>600.5</ele>
        <time>2011-05-11T16:13:19Z</time>
      </trkpt>
      <trkpt lat="44.33826" lon="2.55462">
        <ele>600.5</ele>
        <time>2011-05-11T16:13:20Z</time>
      </trkpt>
      <trkpt lat="44.33823" lon="2.55458">
        <ele>600.7</ele>
        <time>2011-05-11T16:13:21Z</time>
      </trkpt>
      <trkpt lat="44.3382" lon="2.55455">
        <ele>600.7</ele>
        <time>2011-05-11T16:13:22Z</time>
      </trkpt>
      <trkpt lat="44.33816" lon="2.55452">
        <ele>600.9</ele>
        <time>2011-05-11T16:13:23Z</time>
      </trkpt>
      <trkpt lat="44.33812" lon="2.55448">
        <ele>600.7</ele>
        <time>2011-05-11T16:13:24Z</time>
      </trkpt>
      <trkpt lat="44.33809" lon="2.55444">
        <ele>600.5</ele>
        <time>2011-05-11T16:13:25Z</time>
      </trkpt>
      <trkpt lat="44.33806" lon="2.55439">
        <ele>600.5</ele>
        <time>2011-05-11T16:13:26Z</time>
      </trkpt>
      <trkpt lat="44.33804" lon="2.55433">
        <ele>600.5</ele>
        <time>2011-05-11T16:13:27Z</time>
      </trkpt>
      <trkpt lat="44.33802" lon="2.55427">
        <ele>600.7</ele>
        <time>2011-05-11T16:13:28Z</time>
      </trkpt>
      <trkpt lat="44.33801" lon="2.55421">
        <ele>600.7</ele>
        <time>2011-05-11T16:13:29Z</time>
      </trkpt>
      <trkpt lat="44.33801" lon="2.55415">
        <ele>601</ele>
        <time>2011-05-11T16:13:30Z</time>
      </trkpt>
      <trkpt lat="44.338" lon="2.5541">
        <ele>601.2</ele>
        <time>2011-05-11T16:13:31Z</time>
      </trkpt>
      <trkpt lat="44.338" lon="2.55405">
        <ele>601.4</ele>
        <time>2011-05-11T16:13:32Z</time>
      </trkpt>
      <trkpt lat="44.33801" lon="2.554">
        <ele>601.5</ele>
        <time>2011-05-11T16:13:33Z</time>
      </trkpt>
      <trkpt lat="44.33801" lon="2.55395">
        <ele>601.5</ele>
        <time>2011-05-11T16:13:34Z</time>
      </trkpt>
      <trkpt lat="44.338" lon="2.5539">
        <ele>601.5</ele>
        <time>2011-05-11T16:13:35Z</time>
      </trkpt>
      <trkpt lat="44.33798" lon="2.55386">
        <ele>601.7</ele>
        <time>2011-05-11T16:13:36Z</time>
      </trkpt>
      <trkpt lat="44.33796" lon="2.55382">
        <ele>601.5</ele>
        <time>2011-05-11T16:13:37Z</time>
      </trkpt>
      <trkpt lat="44.33793" lon="2.55379">
        <ele>601</ele>
        <time>2011-05-11T16:13:38Z</time>
      </trkpt>
      <trkpt lat="44.3379" lon="2.55376">
        <ele>600.5</ele>
        <time>2011-05-11T16:13:39Z</time>
      </trkpt>
      <trkpt lat="44.33787" lon="2.55373">
        <ele>600.5</ele>
        <time>2011-05-11T16:13:40Z</time>
      </trkpt>
      <trkpt lat="44.33783" lon="2.5537">
        <ele>600.7</ele>
        <time>2011-05-11T16:13:41Z</time>
      </trkpt>
      <trkpt lat="44.3378" lon="2.55367">
        <ele>601</ele>
        <time>2011-05-11T16:13:42Z</time>
      </trkpt>
      <trkpt lat="44.33776" lon="2.55364">
        <ele>601.5</ele>
        <time>2011-05-11T16:13:43Z</time>
      </trkpt>
      <trkpt lat="44.33772" lon="2.55361">
        <ele>601.7</ele>
        <time>2011-05-11T16:13:44Z</time>
      </trkpt>
      <trkpt lat="44.33768" lon="2.55358">
        <ele>601.5</ele>
        <time>2011-05-11T16:13:45Z</time>
      </trkpt>
      <trkpt lat="44.33764" lon="2.55355">
        <ele>601.5</ele>
        <time>2011-05-11T16:13:46Z</time>
      </trkpt>
      <trkpt lat="44.33761" lon="2.55353">
        <ele>601.4</ele>
        <time>2011-05-11T16:13:47Z</time>
      </trkpt>
      <trkpt lat="44.33757" lon="2.5535">
        <ele>601.4</ele>
        <time>2011-05-11T16:13:48Z</time>
      </trkpt>
      <trkpt lat="44.33753" lon="2.55347">
        <ele>601.4</ele>
        <time>2011-05-11T16:13:49Z</time>
      </trkpt>
      <trkpt lat="44.33749" lon="2.55345">
        <ele>601.4</ele>
        <time>2011-05-11T16:13:50Z</time>
      </trkpt>
      <trkpt lat="44.33745" lon="2.55342">
        <ele>601.2</ele>
        <time>2011-05-11T16:13:51Z</time>
      </trkpt>
      <trkpt lat="44.33742" lon="2.55339">
        <ele>601</ele>
        <time>2011-05-11T16:13:52Z</time>
      </trkpt>
      <trkpt lat="44.33738" lon="2.55335">
        <ele>601.2</ele>
        <time>2011-05-11T16:13:53Z</time>
      </trkpt>
      <trkpt lat="44.33734" lon="2.55332">
        <ele>601.5</ele>
        <time>2011-05-11T16:13:54Z</time>
      </trkpt>
      <trkpt lat="44.33731" lon="2.55329">
        <ele>602</ele>
        <time>2011-05-11T16:13:55Z</time>
      </trkpt>
      <trkpt lat="44.33727" lon="2.55326">
        <ele>602</ele>
        <time>2011-05-11T16:13:56Z</time>
      </trkpt>
      <trkpt lat="44.33724" lon="2.55323">
        <ele>602.2</ele>
        <time>2011-05-11T16:13:57Z</time>
      </trkpt>
      <trkpt lat="44.33721" lon="2.5532">
        <ele>602.2</ele>
        <time>2011-05-11T16:13:58Z</time>
      </trkpt>
      <trkpt lat="44.33719" lon="2.55315">
        <ele>602.5</ele>
        <time>2011-05-11T16:13:59Z</time>
      </trkpt>
      <trkpt lat="44.33718" lon="2.55311">
        <ele>602.7</ele>
        <time>2011-05-11T16:14:00Z</time>
      </trkpt>
      <trkpt lat="44.33719" lon="2.55306">
        <ele>602.7</ele>
        <time>2011-05-11T16:14:01Z</time>
      </trkpt>
      <trkpt lat="44.33721" lon="2.55302">
        <ele>602.9</ele>
        <time>2011-05-11T16:14:02Z</time>
      </trkpt>
      <trkpt lat="44.33722" lon="2.55299">
        <ele>602.7</ele>
        <time>2011-05-11T16:14:03Z</time>
      </trkpt>
      <trkpt lat="44.33723" lon="2.55295">
        <ele>603</ele>
        <time>2011-05-11T16:14:04Z</time>
      </trkpt>
      <trkpt lat="44.33724" lon="2.55291">
        <ele>603.2</ele>
        <time>2011-05-11T16:14:05Z</time>
      </trkpt>
      <trkpt lat="44.33723" lon="2.55287">
        <ele>603.4</ele>
        <time>2011-05-11T16:14:06Z</time>
      </trkpt>
      <trkpt lat="44.33722" lon="2.55284">
        <ele>603.5</ele>
        <time>2011-05-11T16:14:07Z</time>
      </trkpt>
      <trkpt lat="44.3372" lon="2.55281">
        <ele>603.7</ele>
        <time>2011-05-11T16:14:08Z</time>
      </trkpt>
      <trkpt lat="44.33718" lon="2.55278">
        <ele>604</ele>
        <time>2011-05-11T16:14:09Z</time>
      </trkpt>
      <trkpt lat="44.33716" lon="2.55275">
        <ele>604.2</ele>
        <time>2011-05-11T16:14:10Z</time>
      </trkpt>
      <trkpt lat="44.33714" lon="2.55272">
        <ele>604.5</ele>
        <time>2011-05-11T16:14:11Z</time>
      </trkpt>
      <trkpt lat="44.33712" lon="2.5527">
        <ele>604.7</ele>
        <time>2011-05-11T16:14:12Z</time>
      </trkpt>
      <trkpt lat="44.3371" lon="2.55267">
        <ele>604.9</ele>
        <time>2011-05-11T16:14:13Z</time>
      </trkpt>
      <trkpt lat="44.33707" lon="2.55265">
        <ele>605.2</ele>
        <time>2011-05-11T16:14:14Z</time>
      </trkpt>
      <trkpt lat="44.33705" lon="2.55262">
        <ele>605.4</ele>
        <time>2011-05-11T16:14:15Z</time>
      </trkpt>
      <trkpt lat="44.33704" lon="2.55259">
        <ele>605.5</ele>
        <time>2011-05-11T16:14:16Z</time>
      </trkpt>
      <trkpt lat="44.33702" lon="2.55256">
        <ele>605.2</ele>
        <time>2011-05-11T16:14:17Z</time>
      </trkpt>
      <trkpt lat="44.33701" lon="2.5525">
        <ele>605.2</ele>
        <time>2011-05-11T16:14:19Z</time>
      </trkpt>
      <trkpt lat="44.337" lon="2.55247">
        <ele>605</ele>
        <time>2011-05-11T16:14:20Z</time>
      </trkpt>
      <trkpt lat="44.33699" lon="2.55244">
        <ele>604.9</ele>
        <time>2011-05-11T16:14:21Z</time>
      </trkpt>
      <trkpt lat="44.33697" lon="2.55241">
        <ele>604.9</ele>
        <time>2011-05-11T16:14:22Z</time>
      </trkpt>
      <trkpt lat="44.33696" lon="2.55238">
        <ele>605</ele>
        <time>2011-05-11T16:14:23Z</time>
      </trkpt>
      <trkpt lat="44.33694" lon="2.55236">
        <ele>605</ele>
        <time>2011-05-11T16:14:24Z</time>
      </trkpt>
      <trkpt lat="44.33692" lon="2.55233">
        <ele>605.4</ele>
        <time>2011-05-11T16:14:25Z</time>
      </trkpt>
      <trkpt lat="44.33691" lon="2.5523">
        <ele>605.5</ele>
        <time>2011-05-11T16:14:26Z</time>
      </trkpt>
      <trkpt lat="44.33689" lon="2.55226">
        <ele>605.7</ele>
        <time>2011-05-11T16:14:27Z</time>
      </trkpt>
      <trkpt lat="44.33687" lon="2.55223">
        <ele>606</ele>
        <time>2011-05-11T16:14:28Z</time>
      </trkpt>
      <trkpt lat="44.33685" lon="2.5522">
        <ele>605.9</ele>
        <time>2011-05-11T16:14:29Z</time>
      </trkpt>
      <trkpt lat="44.33683" lon="2.55216">
        <ele>605.9</ele>
        <time>2011-05-11T16:14:30Z</time>
      </trkpt>
      <trkpt lat="44.33682" lon="2.55213">
        <ele>605.7</ele>
        <time>2011-05-11T16:14:31Z</time>
      </trkpt>
      <trkpt lat="44.3368" lon="2.5521">
        <ele>605.5</ele>
        <time>2011-05-11T16:14:32Z</time>
      </trkpt>
      <trkpt lat="44.33679" lon="2.55207">
        <ele>605.5</ele>
        <time>2011-05-11T16:14:33Z</time>
      </trkpt>
      <trkpt lat="44.33677" lon="2.55204">
        <ele>605.7</ele>
        <time>2011-05-11T16:14:34Z</time>
      </trkpt>
      <trkpt lat="44.33676" lon="2.55202">
        <ele>606</ele>
        <time>2011-05-11T16:14:35Z</time>
      </trkpt>
      <trkpt lat="44.33675" lon="2.55199">
        <ele>606.7</ele>
        <time>2011-05-11T16:14:36Z</time>
      </trkpt>
      <trkpt lat="44.33673" lon="2.55196">
        <ele>607.2</ele>
        <time>2011-05-11T16:14:37Z</time>
      </trkpt>
      <trkpt lat="44.33672" lon="2.55193">
        <ele>607.5</ele>
        <time>2011-05-11T16:14:38Z</time>
      </trkpt>
      <trkpt lat="44.3367" lon="2.55189">
        <ele>607.9</ele>
        <time>2011-05-11T16:14:39Z</time>
      </trkpt>
      <trkpt lat="44.33668" lon="2.55186">
        <ele>608</ele>
        <time>2011-05-11T16:14:40Z</time>
      </trkpt>
      <trkpt lat="44.33667" lon="2.55183">
        <ele>608.4</ele>
        <time>2011-05-11T16:14:41Z</time>
      </trkpt>
      <trkpt lat="44.33666" lon="2.55177">
        <ele>609</ele>
        <time>2011-05-11T16:14:43Z</time>
      </trkpt>
      <trkpt lat="44.33663" lon="2.55173">
        <ele>608.7</ele>
        <time>2011-05-11T16:14:45Z</time>
      </trkpt>
      <trkpt lat="44.33661" lon="2.5517">
        <ele>608.7</ele>
        <time>2011-05-11T16:14:46Z</time>
      </trkpt>
      <trkpt lat="44.33659" lon="2.55167">
        <ele>608.4</ele>
        <time>2011-05-11T16:14:47Z</time>
      </trkpt>
      <trkpt lat="44.33658" lon="2.55164">
        <ele>608.2</ele>
        <time>2011-05-11T16:14:48Z</time>
      </trkpt>
      <trkpt lat="44.33657" lon="2.55161">
        <ele>608</ele>
        <time>2011-05-11T16:14:49Z</time>
      </trkpt>
      <trkpt lat="44.33655" lon="2.55159">
        <ele>608</ele>
        <time>2011-05-11T16:14:50Z</time>
      </trkpt>
      <trkpt lat="44.33654" lon="2.55156">
        <ele>607.9</ele>
        <time>2011-05-11T16:14:51Z</time>
      </trkpt>
      <trkpt lat="44.33652" lon="2.55153">
        <ele>608</ele>
        <time>2011-05-11T16:14:52Z</time>
      </trkpt>
      <trkpt lat="44.3365" lon="2.55148">
        <ele>608.2</ele>
        <time>2011-05-11T16:14:54Z</time>
      </trkpt>
      <trkpt lat="44.33648" lon="2.55144">
        <ele>608.2</ele>
        <time>2011-05-11T16:14:56Z</time>
      </trkpt>
      <trkpt lat="44.33646" lon="2.55141">
        <ele>608.2</ele>
        <time>2011-05-11T16:14:57Z</time>
      </trkpt>
      <trkpt lat="44.33645" lon="2.55138">
        <ele>608.4</ele>
        <time>2011-05-11T16:14:58Z</time>
      </trkpt>
      <trkpt lat="44.33644" lon="2.55135">
        <ele>608.5</ele>
        <time>2011-05-11T16:14:59Z</time>
      </trkpt>
      <trkpt lat="44.33643" lon="2.55132">
        <ele>608.7</ele>
        <time>2011-05-11T16:15:00Z</time>
      </trkpt>
      <trkpt lat="44.3364" lon="2.55127">
        <ele>608.4</ele>
        <time>2011-05-11T16:15:02Z</time>
      </trkpt>
      <trkpt lat="44.33639" lon="2.55125">
        <ele>608.2</ele>
        <time>2011-05-11T16:15:03Z</time>
      </trkpt>
      <trkpt lat="44.33638" lon="2.55122">
        <ele>608</ele>
        <time>2011-05-11T16:15:04Z</time>
      </trkpt>
      <trkpt lat="44.33636" lon="2.55119">
        <ele>608</ele>
        <time>2011-05-11T16:15:05Z</time>
      </trkpt>
      <trkpt lat="44.33635" lon="2.55116">
        <ele>608</ele>
        <time>2011-05-11T16:15:06Z</time>
      </trkpt>
      <trkpt lat="44.33633" lon="2.55113">
        <ele>608</ele>
        <time>2011-05-11T16:15:07Z</time>
      </trkpt>
      <trkpt lat="44.33632" lon="2.5511">
        <ele>608.2</ele>
        <time>2011-05-11T16:15:08Z</time>
      </trkpt>
      <trkpt lat="44.33631" lon="2.55107">
        <ele>608.2</ele>
        <time>2011-05-11T16:15:09Z</time>
      </trkpt>
      <trkpt lat="44.33629" lon="2.55104">
        <ele>608.4</ele>
        <time>2011-05-11T16:15:10Z</time>
      </trkpt>
      <trkpt lat="44.33628" lon="2.55101">
        <ele>608.5</ele>
        <time>2011-05-11T16:15:11Z</time>
      </trkpt>
      <trkpt lat="44.33627" lon="2.55099">
        <ele>608.7</ele>
        <time>2011-05-11T16:15:12Z</time>
      </trkpt>
      <trkpt lat="44.33625" lon="2.55096">
        <ele>608.9</ele>
        <time>2011-05-11T16:15:13Z</time>
      </trkpt>
      <trkpt lat="44.33624" lon="2.55093">
        <ele>609.2</ele>
        <time>2011-05-11T16:15:14Z</time>
      </trkpt>
      <trkpt lat="44.33623" lon="2.55089">
        <ele>609.4</ele>
        <time>2011-05-11T16:15:15Z</time>
      </trkpt>
      <trkpt lat="44.33621" lon="2.55086">
        <ele>609.5</ele>
        <time>2011-05-11T16:15:16Z</time>
      </trkpt>
      <trkpt lat="44.3362" lon="2.55083">
        <ele>609.7</ele>
        <time>2011-05-11T16:15:17Z</time>
      </trkpt>
      <trkpt lat="44.33619" lon="2.5508">
        <ele>610</ele>
        <time>2011-05-11T16:15:18Z</time>
      </trkpt>
      <trkpt lat="44.33618" lon="2.55077">
        <ele>610.2</ele>
        <time>2011-05-11T16:15:19Z</time>
      </trkpt>
      <trkpt lat="44.33616" lon="2.55074">
        <ele>610.4</ele>
        <time>2011-05-11T16:15:20Z</time>
      </trkpt>
      <trkpt lat="44.33615" lon="2.55071">
        <ele>610.5</ele>
        <time>2011-05-11T16:15:21Z</time>
      </trkpt>
      <trkpt lat="44.33613" lon="2.55068">
        <ele>610.7</ele>
        <time>2011-05-11T16:15:22Z</time>
      </trkpt>
      <trkpt lat="44.33612" lon="2.55065">
        <ele>611</ele>
        <time>2011-05-11T16:15:23Z</time>
      </trkpt>
      <trkpt lat="44.3361" lon="2.55062">
        <ele>611.2</ele>
        <time>2011-05-11T16:15:24Z</time>
      </trkpt>
      <trkpt lat="44.33609" lon="2.55059">
        <ele>611.5</ele>
        <time>2011-05-11T16:15:25Z</time>
      </trkpt>
      <trkpt lat="44.33607" lon="2.55056">
        <ele>611.7</ele>
        <time>2011-05-11T16:15:26Z</time>
      </trkpt>
      <trkpt lat="44.33606" lon="2.55053">
        <ele>612</ele>
        <time>2011-05-11T16:15:27Z</time>
      </trkpt>
      <trkpt lat="44.33604" lon="2.55051">
        <ele>612.2</ele>
        <time>2011-05-11T16:15:28Z</time>
      </trkpt>
      <trkpt lat="44.33603" lon="2.55047">
        <ele>612.2</ele>
        <time>2011-05-11T16:15:29Z</time>
      </trkpt>
      <trkpt lat="44.33602" lon="2.55044">
        <ele>612.4</ele>
        <time>2011-05-11T16:15:30Z</time>
      </trkpt>
      <trkpt lat="44.336" lon="2.55041">
        <ele>612.5</ele>
        <time>2011-05-11T16:15:31Z</time>
      </trkpt>
      <trkpt lat="44.33599" lon="2.55038">
        <ele>612.5</ele>
        <time>2011-05-11T16:15:32Z</time>
      </trkpt>
      <trkpt lat="44.33597" lon="2.55035">
        <ele>612.5</ele>
        <time>2011-05-11T16:15:33Z</time>
      </trkpt>
      <trkpt lat="44.33595" lon="2.55032">
        <ele>612.5</ele>
        <time>2011-05-11T16:15:34Z</time>
      </trkpt>
      <trkpt lat="44.33593" lon="2.55028">
        <ele>612.5</ele>
        <time>2011-05-11T16:15:35Z</time>
      </trkpt>
      <trkpt lat="44.3359" lon="2.55025">
        <ele>612.5</ele>
        <time>2011-05-11T16:15:36Z</time>
      </trkpt>
      <trkpt lat="44.33587" lon="2.55022">
        <ele>612.5</ele>
        <time>2011-05-11T16:15:37Z</time>
      </trkpt>
      <trkpt lat="44.33585" lon="2.55019">
        <ele>612.5</ele>
        <time>2011-05-11T16:15:38Z</time>
      </trkpt>
      <trkpt lat="44.33582" lon="2.55016">
        <ele>612.5</ele>
        <time>2011-05-11T16:15:39Z</time>
      </trkpt>
      <trkpt lat="44.33578" lon="2.55013">
        <ele>612.7</ele>
        <time>2011-05-11T16:15:40Z</time>
      </trkpt>
      <trkpt lat="44.33575" lon="2.5501">
        <ele>612.7</ele>
        <time>2011-05-11T16:15:41Z</time>
      </trkpt>
      <trkpt lat="44.33572" lon="2.55007">
        <ele>612.9</ele>
        <time>2011-05-11T16:15:42Z</time>
      </trkpt>
      <trkpt lat="44.33569" lon="2.55004">
        <ele>613</ele>
        <time>2011-05-11T16:15:43Z</time>
      </trkpt>
      <trkpt lat="44.33566" lon="2.55">
        <ele>612.7</ele>
        <time>2011-05-11T16:15:44Z</time>
      </trkpt>
      <trkpt lat="44.33564" lon="2.54996">
        <ele>612.5</ele>
        <time>2011-05-11T16:15:45Z</time>
      </trkpt>
      <trkpt lat="44.33561" lon="2.54992">
        <ele>612.4</ele>
        <time>2011-05-11T16:15:46Z</time>
      </trkpt>
      <trkpt lat="44.33558" lon="2.54987">
        <ele>612.2</ele>
        <time>2011-05-11T16:15:47Z</time>
      </trkpt>
      <trkpt lat="44.33556" lon="2.54982">
        <ele>612.4</ele>
        <time>2011-05-11T16:15:48Z</time>
      </trkpt>
      <trkpt lat="44.33553" lon="2.54977">
        <ele>612.4</ele>
        <time>2011-05-11T16:15:49Z</time>
      </trkpt>
      <trkpt lat="44.33551" lon="2.54972">
        <ele>612.5</ele>
        <time>2011-05-11T16:15:50Z</time>
      </trkpt>
      <trkpt lat="44.33549" lon="2.54966">
        <ele>612.5</ele>
        <time>2011-05-11T16:15:51Z</time>
      </trkpt>
      <trkpt lat="44.33546" lon="2.54961">
        <ele>612.5</ele>
        <time>2011-05-11T16:15:52Z</time>
      </trkpt>
      <trkpt lat="44.33544" lon="2.54956">
        <ele>612.5</ele>
        <time>2011-05-11T16:15:53Z</time>
      </trkpt>
      <trkpt lat="44.33541" lon="2.54951">
        <ele>612.5</ele>
        <time>2011-05-11T16:15:54Z</time>
      </trkpt>
      <trkpt lat="44.33539" lon="2.54946">
        <ele>612.5</ele>
        <time>2011-05-11T16:15:55Z</time>
      </trkpt>
      <trkpt lat="44.33536" lon="2.54941">
        <ele>612.7</ele>
        <time>2011-05-11T16:15:56Z</time>
      </trkpt>
      <trkpt lat="44.33534" lon="2.54936">
        <ele>612.7</ele>
        <time>2011-05-11T16:15:57Z</time>
      </trkpt>
      <trkpt lat="44.33531" lon="2.5493">
        <ele>612.7</ele>
        <time>2011-05-11T16:15:58Z</time>
      </trkpt>
      <trkpt lat="44.33528" lon="2.54925">
        <ele>612.7</ele>
        <time>2011-05-11T16:15:59Z</time>
      </trkpt>
      <trkpt lat="44.33525" lon="2.54919">
        <ele>612.9</ele>
        <time>2011-05-11T16:16:00Z</time>
      </trkpt>
      <trkpt lat="44.33522" lon="2.54914">
        <ele>612.9</ele>
        <time>2011-05-11T16:16:01Z</time>
      </trkpt>
      <trkpt lat="44.3352" lon="2.5491">
        <ele>613</ele>
        <time>2011-05-11T16:16:02Z</time>
      </trkpt>
      <trkpt lat="44.33517" lon="2.54905">
        <ele>613</ele>
        <time>2011-05-11T16:16:03Z</time>
      </trkpt>
      <trkpt lat="44.33514" lon="2.54901">
        <ele>613</ele>
        <time>2011-05-11T16:16:04Z</time>
      </trkpt>
      <trkpt lat="44.33512" lon="2.54896">
        <ele>613</ele>
        <time>2011-05-11T16:16:05Z</time>
      </trkpt>
      <trkpt lat="44.3351" lon="2.54893">
        <ele>613.2</ele>
        <time>2011-05-11T16:16:06Z</time>
      </trkpt>
      <trkpt lat="44.33508" lon="2.54889">
        <ele>613.2</ele>
        <time>2011-05-11T16:16:07Z</time>
      </trkpt>
      <trkpt lat="44.33507" lon="2.54884">
        <ele>613.5</ele>
        <time>2011-05-11T16:16:08Z</time>
      </trkpt>
      <trkpt lat="44.33506" lon="2.5488">
        <ele>613.7</ele>
        <time>2011-05-11T16:16:09Z</time>
      </trkpt>
      <trkpt lat="44.33504" lon="2.54876">
        <ele>613.9</ele>
        <time>2011-05-11T16:16:10Z</time>
      </trkpt>
      <trkpt lat="44.33502" lon="2.54872">
        <ele>614.2</ele>
        <time>2011-05-11T16:16:11Z</time>
      </trkpt>
      <trkpt lat="44.335" lon="2.54867">
        <ele>614.4</ele>
        <time>2011-05-11T16:16:12Z</time>
      </trkpt>
      <trkpt lat="44.33498" lon="2.54863">
        <ele>614.7</ele>
        <time>2011-05-11T16:16:13Z</time>
      </trkpt>
      <trkpt lat="44.33497" lon="2.54858">
        <ele>614.9</ele>
        <time>2011-05-11T16:16:14Z</time>
      </trkpt>
      <trkpt lat="44.33495" lon="2.54854">
        <ele>615.2</ele>
        <time>2011-05-11T16:16:15Z</time>
      </trkpt>
      <trkpt lat="44.33493" lon="2.54849">
        <ele>615.7</ele>
        <time>2011-05-11T16:16:16Z</time>
      </trkpt>
      <trkpt lat="44.33491" lon="2.54845">
        <ele>616</ele>
        <time>2011-05-11T16:16:17Z</time>
      </trkpt>
      <trkpt lat="44.33489" lon="2.54841">
        <ele>616.4</ele>
        <time>2011-05-11T16:16:18Z</time>
      </trkpt>
      <trkpt lat="44.33488" lon="2.54837">
        <ele>616.2</ele>
        <time>2011-05-11T16:16:19Z</time>
      </trkpt>
      <trkpt lat="44.33487" lon="2.54832">
        <ele>616</ele>
        <time>2011-05-11T16:16:20Z</time>
      </trkpt>
      <trkpt lat="44.33486" lon="2.54828">
        <ele>615.9</ele>
        <time>2011-05-11T16:16:21Z</time>
      </trkpt>
      <trkpt lat="44.33484" lon="2.54824">
        <ele>615.7</ele>
        <time>2011-05-11T16:16:22Z</time>
      </trkpt>
      <trkpt lat="44.33483" lon="2.54819">
        <ele>616</ele>
        <time>2011-05-11T16:16:23Z</time>
      </trkpt>
      <trkpt lat="44.33482" lon="2.54814">
        <ele>616.2</ele>
        <time>2011-05-11T16:16:24Z</time>
      </trkpt>
      <trkpt lat="44.3348" lon="2.54809">
        <ele>616.5</ele>
        <time>2011-05-11T16:16:25Z</time>
      </trkpt>
      <trkpt lat="44.33479" lon="2.54805">
        <ele>617.2</ele>
        <time>2011-05-11T16:16:26Z</time>
      </trkpt>
      <trkpt lat="44.33477" lon="2.548">
        <ele>618</ele>
        <time>2011-05-11T16:16:27Z</time>
      </trkpt>
      <trkpt lat="44.33475" lon="2.54796">
        <ele>618.7</ele>
        <time>2011-05-11T16:16:28Z</time>
      </trkpt>
      <trkpt lat="44.33473" lon="2.54792">
        <ele>619</ele>
        <time>2011-05-11T16:16:29Z</time>
      </trkpt>
      <trkpt lat="44.33472" lon="2.54788">
        <ele>619.5</ele>
        <time>2011-05-11T16:16:30Z</time>
      </trkpt>
      <trkpt lat="44.3347" lon="2.54783">
        <ele>619.9</ele>
        <time>2011-05-11T16:16:31Z</time>
      </trkpt>
      <trkpt lat="44.33468" lon="2.54779">
        <ele>620.2</ele>
        <time>2011-05-11T16:16:32Z</time>
      </trkpt>
      <trkpt lat="44.33466" lon="2.54775">
        <ele>620.5</ele>
        <time>2011-05-11T16:16:33Z</time>
      </trkpt>
      <trkpt lat="44.33465" lon="2.54771">
        <ele>620.9</ele>
        <time>2011-05-11T16:16:34Z</time>
      </trkpt>
      <trkpt lat="44.33463" lon="2.54767">
        <ele>621.2</ele>
        <time>2011-05-11T16:16:35Z</time>
      </trkpt>
      <trkpt lat="44.33461" lon="2.54763">
        <ele>621.5</ele>
        <time>2011-05-11T16:16:36Z</time>
      </trkpt>
      <trkpt lat="44.33459" lon="2.54759">
        <ele>621.9</ele>
        <time>2011-05-11T16:16:37Z</time>
      </trkpt>
      <trkpt lat="44.33458" lon="2.54755">
        <ele>622</ele>
        <time>2011-05-11T16:16:38Z</time>
      </trkpt>
      <trkpt lat="44.33457" lon="2.54751">
        <ele>622</ele>
        <time>2011-05-11T16:16:39Z</time>
      </trkpt>
      <trkpt lat="44.33455" lon="2.54747">
        <ele>621.9</ele>
        <time>2011-05-11T16:16:40Z</time>
      </trkpt>
      <trkpt lat="44.33454" lon="2.54743">
        <ele>621.7</ele>
        <time>2011-05-11T16:16:41Z</time>
      </trkpt>
      <trkpt lat="44.33453" lon="2.54739">
        <ele>621.7</ele>
        <time>2011-05-11T16:16:42Z</time>
      </trkpt>
      <trkpt lat="44.33451" lon="2.54735">
        <ele>621.7</ele>
        <time>2011-05-11T16:16:43Z</time>
      </trkpt>
      <trkpt lat="44.3345" lon="2.54731">
        <ele>621.7</ele>
        <time>2011-05-11T16:16:44Z</time>
      </trkpt>
      <trkpt lat="44.33449" lon="2.54728">
        <ele>621.7</ele>
        <time>2011-05-11T16:16:45Z</time>
      </trkpt>
      <trkpt lat="44.33448" lon="2.54725">
        <ele>621.7</ele>
        <time>2011-05-11T16:16:46Z</time>
      </trkpt>
      <trkpt lat="44.33447" lon="2.54719">
        <ele>621</ele>
        <time>2011-05-11T16:16:48Z</time>
      </trkpt>
      <trkpt lat="44.33446" lon="2.54716">
        <ele>620.5</ele>
        <time>2011-05-11T16:16:49Z</time>
      </trkpt>
      <trkpt lat="44.33445" lon="2.54712">
        <ele>619.9</ele>
        <time>2011-05-11T16:16:50Z</time>
      </trkpt>
      <trkpt lat="44.33444" lon="2.54708">
        <ele>619.2</ele>
        <time>2011-05-11T16:16:51Z</time>
      </trkpt>
      <trkpt lat="44.33444" lon="2.54704">
        <ele>618.5</ele>
        <time>2011-05-11T16:16:52Z</time>
      </trkpt>
      <trkpt lat="44.33443" lon="2.54699">
        <ele>617.7</ele>
        <time>2011-05-11T16:16:53Z</time>
      </trkpt>
      <trkpt lat="44.33442" lon="2.54693">
        <ele>617</ele>
        <time>2011-05-11T16:16:54Z</time>
      </trkpt>
      <trkpt lat="44.33442" lon="2.54688">
        <ele>616.4</ele>
        <time>2011-05-11T16:16:55Z</time>
      </trkpt>
      <trkpt lat="44.33442" lon="2.54683">
        <ele>615.5</ele>
        <time>2011-05-11T16:16:56Z</time>
      </trkpt>
      <trkpt lat="44.33443" lon="2.54678">
        <ele>614.9</ele>
        <time>2011-05-11T16:16:57Z</time>
      </trkpt>
      <trkpt lat="44.33443" lon="2.54672">
        <ele>614.4</ele>
        <time>2011-05-11T16:16:58Z</time>
      </trkpt>
      <trkpt lat="44.33443" lon="2.54666">
        <ele>614</ele>
        <time>2011-05-11T16:16:59Z</time>
      </trkpt>
      <trkpt lat="44.33444" lon="2.5466">
        <ele>613.5</ele>
        <time>2011-05-11T16:17:00Z</time>
      </trkpt>
      <trkpt lat="44.33445" lon="2.54653">
        <ele>613</ele>
        <time>2011-05-11T16:17:01Z</time>
      </trkpt>
      <trkpt lat="44.33446" lon="2.54647">
        <ele>612.7</ele>
        <time>2011-05-11T16:17:02Z</time>
      </trkpt>
      <trkpt lat="44.33447" lon="2.5464">
        <ele>612.5</ele>
        <time>2011-05-11T16:17:03Z</time>
      </trkpt>
      <trkpt lat="44.33449" lon="2.54633">
        <ele>612.4</ele>
        <time>2011-05-11T16:17:04Z</time>
      </trkpt>
      <trkpt lat="44.3345" lon="2.54627">
        <ele>612.2</ele>
        <time>2011-05-11T16:17:05Z</time>
      </trkpt>
      <trkpt lat="44.33451" lon="2.5462">
        <ele>612.2</ele>
        <time>2011-05-11T16:17:06Z</time>
      </trkpt>
      <trkpt lat="44.33452" lon="2.54612">
        <ele>612.2</ele>
        <time>2011-05-11T16:17:07Z</time>
      </trkpt>
      <trkpt lat="44.33453" lon="2.54605">
        <ele>612.2</ele>
        <time>2011-05-11T16:17:08Z</time>
      </trkpt>
      <trkpt lat="44.33453" lon="2.54598">
        <ele>612.2</ele>
        <time>2011-05-11T16:17:09Z</time>
      </trkpt>
      <trkpt lat="44.33454" lon="2.54591">
        <ele>612</ele>
        <time>2011-05-11T16:17:10Z</time>
      </trkpt>
      <trkpt lat="44.33454" lon="2.54584">
        <ele>612</ele>
        <time>2011-05-11T16:17:11Z</time>
      </trkpt>
      <trkpt lat="44.33455" lon="2.54576">
        <ele>612</ele>
        <time>2011-05-11T16:17:12Z</time>
      </trkpt>
      <trkpt lat="44.33455" lon="2.54569">
        <ele>612</ele>
        <time>2011-05-11T16:17:13Z</time>
      </trkpt>
      <trkpt lat="44.33455" lon="2.54561">
        <ele>612</ele>
        <time>2011-05-11T16:17:14Z</time>
      </trkpt>
      <trkpt lat="44.33455" lon="2.54554">
        <ele>612</ele>
        <time>2011-05-11T16:17:15Z</time>
      </trkpt>
      <trkpt lat="44.33454" lon="2.54547">
        <ele>612.2</ele>
        <time>2011-05-11T16:17:16Z</time>
      </trkpt>
      <trkpt lat="44.33452" lon="2.54541">
        <ele>612.4</ele>
        <time>2011-05-11T16:17:17Z</time>
      </trkpt>
      <trkpt lat="44.33452" lon="2.54536">
        <ele>612.7</ele>
        <time>2011-05-11T16:17:18Z</time>
      </trkpt>
      <trkpt lat="44.33451" lon="2.5453">
        <ele>613</ele>
        <time>2011-05-11T16:17:19Z</time>
      </trkpt>
      <trkpt lat="44.33449" lon="2.54525">
        <ele>613.2</ele>
        <time>2011-05-11T16:17:20Z</time>
      </trkpt>
      <trkpt lat="44.33448" lon="2.5452">
        <ele>613.2</ele>
        <time>2011-05-11T16:17:21Z</time>
      </trkpt>
      <trkpt lat="44.33447" lon="2.54515">
        <ele>613.2</ele>
        <time>2011-05-11T16:17:22Z</time>
      </trkpt>
      <trkpt lat="44.33445" lon="2.5451">
        <ele>613.2</ele>
        <time>2011-05-11T16:17:23Z</time>
      </trkpt>
      <trkpt lat="44.33444" lon="2.54505">
        <ele>613.2</ele>
        <time>2011-05-11T16:17:24Z</time>
      </trkpt>
      <trkpt lat="44.33443" lon="2.54499">
        <ele>613</ele>
        <time>2011-05-11T16:17:25Z</time>
      </trkpt>
      <trkpt lat="44.33442" lon="2.54494">
        <ele>612.7</ele>
        <time>2011-05-11T16:17:26Z</time>
      </trkpt>
      <trkpt lat="44.33441" lon="2.54488">
        <ele>612.4</ele>
        <time>2011-05-11T16:17:27Z</time>
      </trkpt>
      <trkpt lat="44.3344" lon="2.54481">
        <ele>612</ele>
        <time>2011-05-11T16:17:28Z</time>
      </trkpt>
      <trkpt lat="44.33438" lon="2.54475">
        <ele>611.5</ele>
        <time>2011-05-11T16:17:29Z</time>
      </trkpt>
      <trkpt lat="44.33436" lon="2.54468">
        <ele>611</ele>
        <time>2011-05-11T16:17:30Z</time>
      </trkpt>
      <trkpt lat="44.33434" lon="2.54462">
        <ele>610.5</ele>
        <time>2011-05-11T16:17:31Z</time>
      </trkpt>
      <trkpt lat="44.33431" lon="2.54455">
        <ele>610</ele>
        <time>2011-05-11T16:17:32Z</time>
      </trkpt>
      <trkpt lat="44.33428" lon="2.54448">
        <ele>609.5</ele>
        <time>2011-05-11T16:17:33Z</time>
      </trkpt>
      <trkpt lat="44.33424" lon="2.54441">
        <ele>609.2</ele>
        <time>2011-05-11T16:17:34Z</time>
      </trkpt>
      <trkpt lat="44.3342" lon="2.54433">
        <ele>609</ele>
        <time>2011-05-11T16:17:35Z</time>
      </trkpt>
      <trkpt lat="44.33417" lon="2.54426">
        <ele>608.7</ele>
        <time>2011-05-11T16:17:36Z</time>
      </trkpt>
      <trkpt lat="44.33413" lon="2.54418">
        <ele>608.5</ele>
        <time>2011-05-11T16:17:37Z</time>
      </trkpt>
      <trkpt lat="44.33409" lon="2.5441">
        <ele>608.2</ele>
        <time>2011-05-11T16:17:38Z</time>
      </trkpt>
      <trkpt lat="44.33405" lon="2.54402">
        <ele>607.7</ele>
        <time>2011-05-11T16:17:39Z</time>
      </trkpt>
      <trkpt lat="44.33401" lon="2.54394">
        <ele>607.4</ele>
        <time>2011-05-11T16:17:40Z</time>
      </trkpt>
      <trkpt lat="44.33397" lon="2.54387">
        <ele>607</ele>
        <time>2011-05-11T16:17:41Z</time>
      </trkpt>
      <trkpt lat="44.33394" lon="2.54378">
        <ele>606.5</ele>
        <time>2011-05-11T16:17:42Z</time>
      </trkpt>
      <trkpt lat="44.33391" lon="2.5437">
        <ele>606.5</ele>
        <time>2011-05-11T16:17:43Z</time>
      </trkpt>
      <trkpt lat="44.33389" lon="2.54362">
        <ele>606.5</ele>
        <time>2011-05-11T16:17:44Z</time>
      </trkpt>
      <trkpt lat="44.33387" lon="2.54354">
        <ele>606.5</ele>
        <time>2011-05-11T16:17:45Z</time>
      </trkpt>
      <trkpt lat="44.33387" lon="2.54346">
        <ele>606.2</ele>
        <time>2011-05-11T16:17:46Z</time>
      </trkpt>
      <trkpt lat="44.33387" lon="2.54338">
        <ele>606.2</ele>
        <time>2011-05-11T16:17:47Z</time>
      </trkpt>
      <trkpt lat="44.33388" lon="2.5433">
        <ele>606</ele>
        <time>2011-05-11T16:17:48Z</time>
      </trkpt>
      <trkpt lat="44.33389" lon="2.54323">
        <ele>605.7</ele>
        <time>2011-05-11T16:17:49Z</time>
      </trkpt>
      <trkpt lat="44.33389" lon="2.54315">
        <ele>605.5</ele>
        <time>2011-05-11T16:17:50Z</time>
      </trkpt>
      <trkpt lat="44.33389" lon="2.54308">
        <ele>605.5</ele>
        <time>2011-05-11T16:17:51Z</time>
      </trkpt>
      <trkpt lat="44.33389" lon="2.543">
        <ele>605.7</ele>
        <time>2011-05-11T16:17:52Z</time>
      </trkpt>
      <trkpt lat="44.33389" lon="2.54293">
        <ele>605.7</ele>
        <time>2011-05-11T16:17:53Z</time>
      </trkpt>
      <trkpt lat="44.33388" lon="2.54285">
        <ele>606.4</ele>
        <time>2011-05-11T16:17:54Z</time>
      </trkpt>
      <trkpt lat="44.33388" lon="2.54278">
        <ele>607</ele>
        <time>2011-05-11T16:17:55Z</time>
      </trkpt>
      <trkpt lat="44.33388" lon="2.54271">
        <ele>607.7</ele>
        <time>2011-05-11T16:17:56Z</time>
      </trkpt>
      <trkpt lat="44.33388" lon="2.54264">
        <ele>608</ele>
        <time>2011-05-11T16:17:57Z</time>
      </trkpt>
      <trkpt lat="44.33387" lon="2.54257">
        <ele>608.5</ele>
        <time>2011-05-11T16:17:58Z</time>
      </trkpt>
      <trkpt lat="44.33388" lon="2.54251">
        <ele>608.9</ele>
        <time>2011-05-11T16:17:59Z</time>
      </trkpt>
      <trkpt lat="44.33388" lon="2.54244">
        <ele>609.4</ele>
        <time>2011-05-11T16:18:00Z</time>
      </trkpt>
      <trkpt lat="44.33388" lon="2.54238">
        <ele>609.9</ele>
        <time>2011-05-11T16:18:01Z</time>
      </trkpt>
      <trkpt lat="44.33389" lon="2.54232">
        <ele>610.5</ele>
        <time>2011-05-11T16:18:02Z</time>
      </trkpt>
      <trkpt lat="44.33389" lon="2.54226">
        <ele>610.9</ele>
        <time>2011-05-11T16:18:03Z</time>
      </trkpt>
      <trkpt lat="44.3339" lon="2.5422">
        <ele>611</ele>
        <time>2011-05-11T16:18:04Z</time>
      </trkpt>
      <trkpt lat="44.33391" lon="2.54214">
        <ele>611.2</ele>
        <time>2011-05-11T16:18:05Z</time>
      </trkpt>
      <trkpt lat="44.33392" lon="2.54208">
        <ele>611.2</ele>
        <time>2011-05-11T16:18:06Z</time>
      </trkpt>
      <trkpt lat="44.33393" lon="2.54202">
        <ele>611.2</ele>
        <time>2011-05-11T16:18:07Z</time>
      </trkpt>
      <trkpt lat="44.33393" lon="2.54196">
        <ele>611</ele>
        <time>2011-05-11T16:18:08Z</time>
      </trkpt>
      <trkpt lat="44.33394" lon="2.5419">
        <ele>610.9</ele>
        <time>2011-05-11T16:18:09Z</time>
      </trkpt>
      <trkpt lat="44.33394" lon="2.54184">
        <ele>610.7</ele>
        <time>2011-05-11T16:18:10Z</time>
      </trkpt>
      <trkpt lat="44.33394" lon="2.54178">
        <ele>610.7</ele>
        <time>2011-05-11T16:18:11Z</time>
      </trkpt>
      <trkpt lat="44.33394" lon="2.54172">
        <ele>610.9</ele>
        <time>2011-05-11T16:18:12Z</time>
      </trkpt>
      <trkpt lat="44.33394" lon="2.54166">
        <ele>611</ele>
        <time>2011-05-11T16:18:13Z</time>
      </trkpt>
      <trkpt lat="44.33394" lon="2.5416">
        <ele>611.2</ele>
        <time>2011-05-11T16:18:14Z</time>
      </trkpt>
      <trkpt lat="44.33394" lon="2.54154">
        <ele>611.2</ele>
        <time>2011-05-11T16:18:15Z</time>
      </trkpt>
      <trkpt lat="44.33394" lon="2.54148">
        <ele>611.2</ele>
        <time>2011-05-11T16:18:16Z</time>
      </trkpt>
      <trkpt lat="44.33395" lon="2.54143">
        <ele>611.4</ele>
        <time>2011-05-11T16:18:17Z</time>
      </trkpt>
      <trkpt lat="44.33395" lon="2.54137">
        <ele>611.5</ele>
        <time>2011-05-11T16:18:18Z</time>
      </trkpt>
      <trkpt lat="44.33395" lon="2.54132">
        <ele>611.5</ele>
        <time>2011-05-11T16:18:19Z</time>
      </trkpt>
      <trkpt lat="44.33396" lon="2.54128">
        <ele>611.4</ele>
        <time>2011-05-11T16:18:20Z</time>
      </trkpt>
      <trkpt lat="44.33396" lon="2.54123">
        <ele>611.2</ele>
        <time>2011-05-11T16:18:21Z</time>
      </trkpt>
      <trkpt lat="44.33397" lon="2.54119">
        <ele>611.2</ele>
        <time>2011-05-11T16:18:22Z</time>
      </trkpt>
      <trkpt lat="44.33397" lon="2.54114">
        <ele>611.5</ele>
        <time>2011-05-11T16:18:23Z</time>
      </trkpt>
      <trkpt lat="44.33398" lon="2.5411">
        <ele>611.4</ele>
        <time>2011-05-11T16:18:24Z</time>
      </trkpt>
      <trkpt lat="44.33398" lon="2.54106">
        <ele>611.7</ele>
        <time>2011-05-11T16:18:25Z</time>
      </trkpt>
      <trkpt lat="44.33399" lon="2.54102">
        <ele>611.9</ele>
        <time>2011-05-11T16:18:26Z</time>
      </trkpt>
      <trkpt lat="44.334" lon="2.54098">
        <ele>612</ele>
        <time>2011-05-11T16:18:27Z</time>
      </trkpt>
      <trkpt lat="44.33401" lon="2.54095">
        <ele>612</ele>
        <time>2011-05-11T16:18:28Z</time>
      </trkpt>
      <trkpt lat="44.33402" lon="2.54091">
        <ele>612.2</ele>
        <time>2011-05-11T16:18:29Z</time>
      </trkpt>
      <trkpt lat="44.33403" lon="2.54088">
        <ele>612.2</ele>
        <time>2011-05-11T16:18:30Z</time>
      </trkpt>
      <trkpt lat="44.33404" lon="2.54085">
        <ele>612.2</ele>
        <time>2011-05-11T16:18:31Z</time>
      </trkpt>
      <trkpt lat="44.33406" lon="2.54081">
        <ele>612.2</ele>
        <time>2011-05-11T16:18:32Z</time>
      </trkpt>
      <trkpt lat="44.33407" lon="2.54078">
        <ele>612.2</ele>
        <time>2011-05-11T16:18:33Z</time>
      </trkpt>
      <trkpt lat="44.33408" lon="2.54074">
        <ele>612</ele>
        <time>2011-05-11T16:18:34Z</time>
      </trkpt>
      <trkpt lat="44.33409" lon="2.54071">
        <ele>612</ele>
        <time>2011-05-11T16:18:35Z</time>
      </trkpt>
      <trkpt lat="44.33409" lon="2.54067">
        <ele>611.7</ele>
        <time>2011-05-11T16:18:36Z</time>
      </trkpt>
      <trkpt lat="44.3341" lon="2.54063">
        <ele>611.7</ele>
        <time>2011-05-11T16:18:37Z</time>
      </trkpt>
      <trkpt lat="44.3341" lon="2.54059">
        <ele>611.5</ele>
        <time>2011-05-11T16:18:38Z</time>
      </trkpt>
      <trkpt lat="44.33411" lon="2.54055">
        <ele>611.5</ele>
        <time>2011-05-11T16:18:39Z</time>
      </trkpt>
      <trkpt lat="44.33411" lon="2.54051">
        <ele>611.5</ele>
        <time>2011-05-11T16:18:40Z</time>
      </trkpt>
      <trkpt lat="44.33411" lon="2.54047">
        <ele>611.7</ele>
        <time>2011-05-11T16:18:41Z</time>
      </trkpt>
      <trkpt lat="44.33411" lon="2.54043">
        <ele>611.7</ele>
        <time>2011-05-11T16:18:42Z</time>
      </trkpt>
      <trkpt lat="44.33411" lon="2.54039">
        <ele>611.5</ele>
        <time>2011-05-11T16:18:43Z</time>
      </trkpt>
      <trkpt lat="44.33412" lon="2.54035">
        <ele>611.5</ele>
        <time>2011-05-11T16:18:44Z</time>
      </trkpt>
      <trkpt lat="44.33411" lon="2.54031">
        <ele>611.5</ele>
        <time>2011-05-11T16:18:45Z</time>
      </trkpt>
      <trkpt lat="44.33411" lon="2.54027">
        <ele>611.7</ele>
        <time>2011-05-11T16:18:46Z</time>
      </trkpt>
      <trkpt lat="44.33411" lon="2.54023">
        <ele>612</ele>
        <time>2011-05-11T16:18:47Z</time>
      </trkpt>
      <trkpt lat="44.3341" lon="2.54019">
        <ele>612.2</ele>
        <time>2011-05-11T16:18:48Z</time>
      </trkpt>
      <trkpt lat="44.3341" lon="2.54015">
        <ele>612.5</ele>
        <time>2011-05-11T16:18:49Z</time>
      </trkpt>
      <trkpt lat="44.33409" lon="2.54011">
        <ele>612.7</ele>
        <time>2011-05-11T16:18:50Z</time>
      </trkpt>
      <trkpt lat="44.33408" lon="2.54006">
        <ele>613</ele>
        <time>2011-05-11T16:18:51Z</time>
      </trkpt>
      <trkpt lat="44.33407" lon="2.54002">
        <ele>613.4</ele>
        <time>2011-05-11T16:18:52Z</time>
      </trkpt>
      <trkpt lat="44.33406" lon="2.53998">
        <ele>613.5</ele>
        <time>2011-05-11T16:18:53Z</time>
      </trkpt>
      <trkpt lat="44.33405" lon="2.53995">
        <ele>613.9</ele>
        <time>2011-05-11T16:18:54Z</time>
      </trkpt>
      <trkpt lat="44.33405" lon="2.53991">
        <ele>614.2</ele>
        <time>2011-05-11T16:18:55Z</time>
      </trkpt>
      <trkpt lat="44.33404" lon="2.53987">
        <ele>614.5</ele>
        <time>2011-05-11T16:18:56Z</time>
      </trkpt>
      <trkpt lat="44.33403" lon="2.53983">
        <ele>615</ele>
        <time>2011-05-11T16:18:57Z</time>
      </trkpt>
      <trkpt lat="44.33402" lon="2.53979">
        <ele>615.2</ele>
        <time>2011-05-11T16:18:58Z</time>
      </trkpt>
      <trkpt lat="44.33402" lon="2.53975">
        <ele>615.5</ele>
        <time>2011-05-11T16:18:59Z</time>
      </trkpt>
      <trkpt lat="44.33402" lon="2.53971">
        <ele>615.9</ele>
        <time>2011-05-11T16:19:00Z</time>
      </trkpt>
      <trkpt lat="44.33401" lon="2.53967">
        <ele>616</ele>
        <time>2011-05-11T16:19:01Z</time>
      </trkpt>
      <trkpt lat="44.334" lon="2.53963">
        <ele>616.2</ele>
        <time>2011-05-11T16:19:02Z</time>
      </trkpt>
      <trkpt lat="44.334" lon="2.5396">
        <ele>616.2</ele>
        <time>2011-05-11T16:19:03Z</time>
      </trkpt>
      <trkpt lat="44.33399" lon="2.53956">
        <ele>616.4</ele>
        <time>2011-05-11T16:19:04Z</time>
      </trkpt>
      <trkpt lat="44.33398" lon="2.53953">
        <ele>616.5</ele>
        <time>2011-05-11T16:19:05Z</time>
      </trkpt>
      <trkpt lat="44.33397" lon="2.5395">
        <ele>616.7</ele>
        <time>2011-05-11T16:19:06Z</time>
      </trkpt>
      <trkpt lat="44.33397" lon="2.53946">
        <ele>616.9</ele>
        <time>2011-05-11T16:19:07Z</time>
      </trkpt>
      <trkpt lat="44.33397" lon="2.53942">
        <ele>617</ele>
        <time>2011-05-11T16:19:08Z</time>
      </trkpt>
      <trkpt lat="44.33396" lon="2.53939">
        <ele>617</ele>
        <time>2011-05-11T16:19:09Z</time>
      </trkpt>
      <trkpt lat="44.33396" lon="2.53933">
        <ele>617.2</ele>
        <time>2011-05-11T16:19:12Z</time>
      </trkpt>
      <trkpt lat="44.33399" lon="2.53928">
        <ele>618.2</ele>
        <time>2011-05-11T16:19:31Z</time>
      </trkpt>
      <trkpt lat="44.33402" lon="2.53924">
        <ele>618</ele>
        <time>2011-05-11T16:20:06Z</time>
      </trkpt>
      <trkpt lat="44.33403" lon="2.53924">
        <ele>617.9</ele>
        <time>2011-05-11T16:20:07Z</time>
      </trkpt>
      <trkpt lat="44.33407" lon="2.53918">
        <ele>619.5</ele>
        <time>2011-05-11T16:21:56Z</time>
      </trkpt>
      <trkpt lat="44.33409" lon="2.53917">
        <ele>619.4</ele>
        <time>2011-05-11T16:21:57Z</time>
      </trkpt>
      <trkpt lat="44.33412" lon="2.53914">
        <ele>618.7</ele>
        <time>2011-05-11T16:21:59Z</time>
      </trkpt>
      <trkpt lat="44.33413" lon="2.53909">
        <ele>618.4</ele>
        <time>2011-05-11T16:22:01Z</time>
      </trkpt>
      <trkpt lat="44.33414" lon="2.53904">
        <ele>618</ele>
        <time>2011-05-11T16:22:03Z</time>
      </trkpt>
      <trkpt lat="44.33415" lon="2.53899">
        <ele>617.4</ele>
        <time>2011-05-11T16:22:05Z</time>
      </trkpt>
      <trkpt lat="44.33416" lon="2.53895">
        <ele>617</ele>
        <time>2011-05-11T16:22:06Z</time>
      </trkpt>
      <trkpt lat="44.33416" lon="2.53891">
        <ele>616.5</ele>
        <time>2011-05-11T16:22:07Z</time>
      </trkpt>
      <trkpt lat="44.33417" lon="2.53887">
        <ele>616</ele>
        <time>2011-05-11T16:22:08Z</time>
      </trkpt>
      <trkpt lat="44.33419" lon="2.53882">
        <ele>615.5</ele>
        <time>2011-05-11T16:22:09Z</time>
      </trkpt>
      <trkpt lat="44.3342" lon="2.53878">
        <ele>614.9</ele>
        <time>2011-05-11T16:22:10Z</time>
      </trkpt>
      <trkpt lat="44.33422" lon="2.53873">
        <ele>614</ele>
        <time>2011-05-11T16:22:11Z</time>
      </trkpt>
      <trkpt lat="44.33425" lon="2.53869">
        <ele>613.2</ele>
        <time>2011-05-11T16:22:12Z</time>
      </trkpt>
      <trkpt lat="44.33428" lon="2.53866">
        <ele>612.2</ele>
        <time>2011-05-11T16:22:13Z</time>
      </trkpt>
      <trkpt lat="44.33433" lon="2.53864">
        <ele>611.2</ele>
        <time>2011-05-11T16:22:14Z</time>
      </trkpt>
      <trkpt lat="44.33438" lon="2.53862">
        <ele>610</ele>
        <time>2011-05-11T16:22:15Z</time>
      </trkpt>
      <trkpt lat="44.33445" lon="2.5386">
        <ele>608.7</ele>
        <time>2011-05-11T16:22:16Z</time>
      </trkpt>
      <trkpt lat="44.33451" lon="2.53856">
        <ele>607.2</ele>
        <time>2011-05-11T16:22:17Z</time>
      </trkpt>
      <trkpt lat="44.33457" lon="2.53851">
        <ele>605.7</ele>
        <time>2011-05-11T16:22:18Z</time>
      </trkpt>
      <trkpt lat="44.33464" lon="2.53846">
        <ele>604.2</ele>
        <time>2011-05-11T16:22:19Z</time>
      </trkpt>
      <trkpt lat="44.33471" lon="2.53839">
        <ele>602.5</ele>
        <time>2011-05-11T16:22:20Z</time>
      </trkpt>
      <trkpt lat="44.33479" lon="2.53832">
        <ele>600.9</ele>
        <time>2011-05-11T16:22:21Z</time>
      </trkpt>
      <trkpt lat="44.33487" lon="2.53824">
        <ele>599</ele>
        <time>2011-05-11T16:22:22Z</time>
      </trkpt>
      <trkpt lat="44.33497" lon="2.53815">
        <ele>597</ele>
        <time>2011-05-11T16:22:23Z</time>
      </trkpt>
      <trkpt lat="44.33506" lon="2.53807">
        <ele>595.2</ele>
        <time>2011-05-11T16:22:24Z</time>
      </trkpt>
      <trkpt lat="44.33515" lon="2.53801">
        <ele>593.4</ele>
        <time>2011-05-11T16:22:25Z</time>
      </trkpt>
      <trkpt lat="44.33523" lon="2.53795">
        <ele>591.7</ele>
        <time>2011-05-11T16:22:26Z</time>
      </trkpt>
      <trkpt lat="44.3353" lon="2.53791">
        <ele>590.5</ele>
        <time>2011-05-11T16:22:27Z</time>
      </trkpt>
      <trkpt lat="44.33534" lon="2.53785">
        <ele>589.5</ele>
        <time>2011-05-11T16:22:28Z</time>
      </trkpt>
      <trkpt lat="44.33534" lon="2.53781">
        <ele>588.9</ele>
        <time>2011-05-11T16:22:29Z</time>
      </trkpt>
      <trkpt lat="44.33533" lon="2.53776">
        <ele>588.4</ele>
        <time>2011-05-11T16:22:30Z</time>
      </trkpt>
      <trkpt lat="44.33531" lon="2.53772">
        <ele>587.9</ele>
        <time>2011-05-11T16:22:31Z</time>
      </trkpt>
      <trkpt lat="44.33528" lon="2.53768">
        <ele>587.5</ele>
        <time>2011-05-11T16:22:32Z</time>
      </trkpt>
      <trkpt lat="44.33525" lon="2.53765">
        <ele>587</ele>
        <time>2011-05-11T16:22:33Z</time>
      </trkpt>
      <trkpt lat="44.33522" lon="2.53761">
        <ele>586.5</ele>
        <time>2011-05-11T16:22:34Z</time>
      </trkpt>
      <trkpt lat="44.33519" lon="2.53758">
        <ele>586</ele>
        <time>2011-05-11T16:22:35Z</time>
      </trkpt>
      <trkpt lat="44.33515" lon="2.53755">
        <ele>585.5</ele>
        <time>2011-05-11T16:22:36Z</time>
      </trkpt>
      <trkpt lat="44.33511" lon="2.53752">
        <ele>584.9</ele>
        <time>2011-05-11T16:22:37Z</time>
      </trkpt>
      <trkpt lat="44.33506" lon="2.53749">
        <ele>584.2</ele>
        <time>2011-05-11T16:22:38Z</time>
      </trkpt>
      <trkpt lat="44.33501" lon="2.53747">
        <ele>583.5</ele>
        <time>2011-05-11T16:22:39Z</time>
      </trkpt>
      <trkpt lat="44.33495" lon="2.53743">
        <ele>582.4</ele>
        <time>2011-05-11T16:22:40Z</time>
      </trkpt>
      <trkpt lat="44.33491" lon="2.53737">
        <ele>581.4</ele>
        <time>2011-05-11T16:22:41Z</time>
      </trkpt>
      <trkpt lat="44.33487" lon="2.53729">
        <ele>580.2</ele>
        <time>2011-05-11T16:22:42Z</time>
      </trkpt>
      <trkpt lat="44.33485" lon="2.5372">
        <ele>579</ele>
        <time>2011-05-11T16:22:43Z</time>
      </trkpt>
      <trkpt lat="44.33485" lon="2.53712">
        <ele>577.5</ele>
        <time>2011-05-11T16:22:44Z</time>
      </trkpt>
      <trkpt lat="44.33485" lon="2.53705">
        <ele>576.2</ele>
        <time>2011-05-11T16:22:45Z</time>
      </trkpt>
      <trkpt lat="44.33487" lon="2.53697">
        <ele>574.7</ele>
        <time>2011-05-11T16:22:46Z</time>
      </trkpt>
      <trkpt lat="44.33488" lon="2.53688">
        <ele>573.5</ele>
        <time>2011-05-11T16:22:47Z</time>
      </trkpt>
      <trkpt lat="44.33489" lon="2.53677">
        <ele>572</ele>
        <time>2011-05-11T16:22:48Z</time>
      </trkpt>
      <trkpt lat="44.3349" lon="2.53665">
        <ele>570.5</ele>
        <time>2011-05-11T16:22:49Z</time>
      </trkpt>
      <trkpt lat="44.3349" lon="2.53652">
        <ele>569</ele>
        <time>2011-05-11T16:22:50Z</time>
      </trkpt>
      <trkpt lat="44.33488" lon="2.53637">
        <ele>567.2</ele>
        <time>2011-05-11T16:22:51Z</time>
      </trkpt>
      <trkpt lat="44.33487" lon="2.53623">
        <ele>566.2</ele>
        <time>2011-05-11T16:22:52Z</time>
      </trkpt>
      <trkpt lat="44.33483" lon="2.5361">
        <ele>565.5</ele>
        <time>2011-05-11T16:22:53Z</time>
      </trkpt>
      <trkpt lat="44.33477" lon="2.53599">
        <ele>565.5</ele>
        <time>2011-05-11T16:22:54Z</time>
      </trkpt>
      <trkpt lat="44.33471" lon="2.53589">
        <ele>565.7</ele>
        <time>2011-05-11T16:22:55Z</time>
      </trkpt>
      <trkpt lat="44.33466" lon="2.53579">
        <ele>565.9</ele>
        <time>2011-05-11T16:22:56Z</time>
      </trkpt>
      <trkpt lat="44.33461" lon="2.53568">
        <ele>566</ele>
        <time>2011-05-11T16:22:57Z</time>
      </trkpt>
      <trkpt lat="44.33457" lon="2.53558">
        <ele>566.2</ele>
        <time>2011-05-11T16:22:58Z</time>
      </trkpt>
      <trkpt lat="44.33454" lon="2.53549">
        <ele>566</ele>
        <time>2011-05-11T16:22:59Z</time>
      </trkpt>
      <trkpt lat="44.3345" lon="2.53539">
        <ele>566.4</ele>
        <time>2011-05-11T16:23:00Z</time>
      </trkpt>
      <trkpt lat="44.33447" lon="2.5353">
        <ele>566.5</ele>
        <time>2011-05-11T16:23:01Z</time>
      </trkpt>
      <trkpt lat="44.33445" lon="2.53521">
        <ele>567.5</ele>
        <time>2011-05-11T16:23:02Z</time>
      </trkpt>
      <trkpt lat="44.33443" lon="2.53511">
        <ele>568.2</ele>
        <time>2011-05-11T16:23:03Z</time>
      </trkpt>
      <trkpt lat="44.33441" lon="2.535">
        <ele>566.9</ele>
        <time>2011-05-11T16:23:04Z</time>
      </trkpt>
      <trkpt lat="44.3344" lon="2.5349">
        <ele>565.2</ele>
        <time>2011-05-11T16:23:05Z</time>
      </trkpt>
      <trkpt lat="44.3344" lon="2.5348">
        <ele>563.5</ele>
        <time>2011-05-11T16:23:06Z</time>
      </trkpt>
      <trkpt lat="44.33441" lon="2.53474">
        <ele>562.2</ele>
        <time>2011-05-11T16:23:07Z</time>
      </trkpt>
      <trkpt lat="44.33444" lon="2.5347">
        <ele>561.5</ele>
        <time>2011-05-11T16:23:08Z</time>
      </trkpt>
      <trkpt lat="44.33446" lon="2.53471">
        <ele>561</ele>
        <time>2011-05-11T16:23:09Z</time>
      </trkpt>
      <trkpt lat="44.33449" lon="2.53474">
        <ele>560.2</ele>
        <time>2011-05-11T16:23:10Z</time>
      </trkpt>
      <trkpt lat="44.33452" lon="2.5348">
        <ele>559.2</ele>
        <time>2011-05-11T16:23:11Z</time>
      </trkpt>
      <trkpt lat="44.33455" lon="2.53486">
        <ele>558.4</ele>
        <time>2011-05-11T16:23:12Z</time>
      </trkpt>
      <trkpt lat="44.33459" lon="2.53492">
        <ele>557.2</ele>
        <time>2011-05-11T16:23:13Z</time>
      </trkpt>
      <trkpt lat="44.33464" lon="2.535">
        <ele>556</ele>
        <time>2011-05-11T16:23:14Z</time>
      </trkpt>
      <trkpt lat="44.33468" lon="2.53507">
        <ele>554.5</ele>
        <time>2011-05-11T16:23:15Z</time>
      </trkpt>
      <trkpt lat="44.33472" lon="2.53515">
        <ele>552.9</ele>
        <time>2011-05-11T16:23:16Z</time>
      </trkpt>
      <trkpt lat="44.33476" lon="2.53523">
        <ele>551</ele>
        <time>2011-05-11T16:23:17Z</time>
      </trkpt>
      <trkpt lat="44.33481" lon="2.53529">
        <ele>549.7</ele>
        <time>2011-05-11T16:23:18Z</time>
      </trkpt>
      <trkpt lat="44.33486" lon="2.53531">
        <ele>548.2</ele>
        <time>2011-05-11T16:23:19Z</time>
      </trkpt>
      <trkpt lat="44.33489" lon="2.53528">
        <ele>546.7</ele>
        <time>2011-05-11T16:23:20Z</time>
      </trkpt>
      <trkpt lat="44.33489" lon="2.53524">
        <ele>545</ele>
        <time>2011-05-11T16:23:21Z</time>
      </trkpt>
      <trkpt lat="44.33488" lon="2.5352">
        <ele>543.7</ele>
        <time>2011-05-11T16:23:22Z</time>
      </trkpt>
      <trkpt lat="44.33488" lon="2.53514">
        <ele>542.5</ele>
        <time>2011-05-11T16:23:23Z</time>
      </trkpt>
      <trkpt lat="44.33487" lon="2.53507">
        <ele>541.9</ele>
        <time>2011-05-11T16:23:24Z</time>
      </trkpt>
      <trkpt lat="44.33487" lon="2.53499">
        <ele>540.7</ele>
        <time>2011-05-11T16:23:25Z</time>
      </trkpt>
      <trkpt lat="44.33487" lon="2.53488">
        <ele>539.2</ele>
        <time>2011-05-11T16:23:26Z</time>
      </trkpt>
      <trkpt lat="44.33489" lon="2.53478">
        <ele>537.5</ele>
        <time>2011-05-11T16:23:27Z</time>
      </trkpt>
      <trkpt lat="44.3349" lon="2.53469">
        <ele>535.7</ele>
        <time>2011-05-11T16:23:28Z</time>
      </trkpt>
      <trkpt lat="44.33493" lon="2.53463">
        <ele>534.2</ele>
        <time>2011-05-11T16:23:29Z</time>
      </trkpt>
      <trkpt lat="44.33496" lon="2.53458">
        <ele>533</ele>
        <time>2011-05-11T16:23:30Z</time>
      </trkpt>
      <trkpt lat="44.335" lon="2.53457">
        <ele>531.9</ele>
        <time>2011-05-11T16:23:31Z</time>
      </trkpt>
      <trkpt lat="44.33502" lon="2.53457">
        <ele>531</ele>
        <time>2011-05-11T16:23:32Z</time>
      </trkpt>
      <trkpt lat="44.33507" lon="2.5346">
        <ele>530</ele>
        <time>2011-05-11T16:23:33Z</time>
      </trkpt>
      <trkpt lat="44.33511" lon="2.53464">
        <ele>529.2</ele>
        <time>2011-05-11T16:23:34Z</time>
      </trkpt>
      <trkpt lat="44.33517" lon="2.53469">
        <ele>528</ele>
        <time>2011-05-11T16:23:35Z</time>
      </trkpt>
      <trkpt lat="44.33523" lon="2.53476">
        <ele>526.7</ele>
        <time>2011-05-11T16:23:36Z</time>
      </trkpt>
      <trkpt lat="44.33529" lon="2.53483">
        <ele>525.5</ele>
        <time>2011-05-11T16:23:37Z</time>
      </trkpt>
      <trkpt lat="44.33535" lon="2.53492">
        <ele>524.5</ele>
        <time>2011-05-11T16:23:38Z</time>
      </trkpt>
      <trkpt lat="44.33541" lon="2.53501">
        <ele>523.5</ele>
        <time>2011-05-11T16:23:39Z</time>
      </trkpt>
      <trkpt lat="44.33547" lon="2.53508">
        <ele>522.2</ele>
        <time>2011-05-11T16:23:40Z</time>
      </trkpt>
      <trkpt lat="44.33553" lon="2.53513">
        <ele>521</ele>
        <time>2011-05-11T16:23:41Z</time>
      </trkpt>
      <trkpt lat="44.33561" lon="2.53515">
        <ele>520</ele>
        <time>2011-05-11T16:23:42Z</time>
      </trkpt>
      <trkpt lat="44.33569" lon="2.53517">
        <ele>519</ele>
        <time>2011-05-11T16:23:43Z</time>
      </trkpt>
      <trkpt lat="44.33578" lon="2.53519">
        <ele>518.2</ele>
        <time>2011-05-11T16:23:44Z</time>
      </trkpt>
      <trkpt lat="44.33586" lon="2.53519">
        <ele>517.2</ele>
        <time>2011-05-11T16:23:45Z</time>
      </trkpt>
      <trkpt lat="44.33594" lon="2.53517">
        <ele>515.7</ele>
        <time>2011-05-11T16:23:46Z</time>
      </trkpt>
      <trkpt lat="44.33603" lon="2.53514">
        <ele>514</ele>
        <time>2011-05-11T16:23:47Z</time>
      </trkpt>
      <trkpt lat="44.33612" lon="2.53512">
        <ele>512.2</ele>
        <time>2011-05-11T16:23:48Z</time>
      </trkpt>
      <trkpt lat="44.33619" lon="2.53511">
        <ele>510.5</ele>
        <time>2011-05-11T16:23:49Z</time>
      </trkpt>
      <trkpt lat="44.33624" lon="2.53511">
        <ele>509</ele>
        <time>2011-05-11T16:23:50Z</time>
      </trkpt>
      <trkpt lat="44.33628" lon="2.53512">
        <ele>508</ele>
        <time>2011-05-11T16:23:51Z</time>
      </trkpt>
      <trkpt lat="44.33632" lon="2.53513">
        <ele>506.8</ele>
        <time>2011-05-11T16:23:52Z</time>
      </trkpt>
      <trkpt lat="44.33637" lon="2.53515">
        <ele>506.1</ele>
        <time>2011-05-11T16:23:53Z</time>
      </trkpt>
      <trkpt lat="44.33642" lon="2.53518">
        <ele>505.3</ele>
        <time>2011-05-11T16:23:54Z</time>
      </trkpt>
      <trkpt lat="44.33646" lon="2.53522">
        <ele>504.5</ele>
        <time>2011-05-11T16:23:55Z</time>
      </trkpt>
      <trkpt lat="44.3365" lon="2.53526">
        <ele>503.7</ele>
        <time>2011-05-11T16:23:56Z</time>
      </trkpt>
      <trkpt lat="44.33653" lon="2.53529">
        <ele>503.1</ele>
        <time>2011-05-11T16:23:57Z</time>
      </trkpt>
      <trkpt lat="44.33657" lon="2.53534">
        <ele>502.5</ele>
        <time>2011-05-11T16:23:58Z</time>
      </trkpt>
      <trkpt lat="44.3366" lon="2.53539">
        <ele>502</ele>
        <time>2011-05-11T16:23:59Z</time>
      </trkpt>
      <trkpt lat="44.33663" lon="2.53545">
        <ele>501.2</ele>
        <time>2011-05-11T16:24:00Z</time>
      </trkpt>
      <trkpt lat="44.33667" lon="2.53551">
        <ele>500.3</ele>
        <time>2011-05-11T16:24:01Z</time>
      </trkpt>
      <trkpt lat="44.33671" lon="2.53558">
        <ele>499.6</ele>
        <time>2011-05-11T16:24:02Z</time>
      </trkpt>
      <trkpt lat="44.33675" lon="2.53565">
        <ele>498.7</ele>
        <time>2011-05-11T16:24:03Z</time>
      </trkpt>
      <trkpt lat="44.3368" lon="2.53572">
        <ele>498.2</ele>
        <time>2011-05-11T16:24:04Z</time>
      </trkpt>
      <trkpt lat="44.33684" lon="2.53578">
        <ele>497.3</ele>
        <time>2011-05-11T16:24:05Z</time>
      </trkpt>
      <trkpt lat="44.33687" lon="2.53582">
        <ele>496.6</ele>
        <time>2011-05-11T16:24:06Z</time>
      </trkpt>
      <trkpt lat="44.3369" lon="2.53579">
        <ele>498.2</ele>
        <time>2011-05-11T16:24:40Z</time>
      </trkpt>
      <trkpt lat="44.33689" lon="2.53574">
        <ele>498.5</ele>
        <time>2011-05-11T16:24:42Z</time>
      </trkpt>
      <trkpt lat="44.33687" lon="2.53569">
        <ele>499</ele>
        <time>2011-05-11T16:24:44Z</time>
      </trkpt>
      <trkpt lat="44.33686" lon="2.53566">
        <ele>499.2</ele>
        <time>2011-05-11T16:24:45Z</time>
      </trkpt>
      <trkpt lat="44.33685" lon="2.53562">
        <ele>499.3</ele>
        <time>2011-05-11T16:24:46Z</time>
      </trkpt>
      <trkpt lat="44.33683" lon="2.53559">
        <ele>499.5</ele>
        <time>2011-05-11T16:24:47Z</time>
      </trkpt>
      <trkpt lat="44.33682" lon="2.53555">
        <ele>499.7</ele>
        <time>2011-05-11T16:24:48Z</time>
      </trkpt>
      <trkpt lat="44.3368" lon="2.53552">
        <ele>500.1</ele>
        <time>2011-05-11T16:24:49Z</time>
      </trkpt>
      <trkpt lat="44.33678" lon="2.53549">
        <ele>500.3</ele>
        <time>2011-05-11T16:24:50Z</time>
      </trkpt>
      <trkpt lat="44.33677" lon="2.53546">
        <ele>500.7</ele>
        <time>2011-05-11T16:24:51Z</time>
      </trkpt>
      <trkpt lat="44.33675" lon="2.53542">
        <ele>501.1</ele>
        <time>2011-05-11T16:24:52Z</time>
      </trkpt>
      <trkpt lat="44.33673" lon="2.53538">
        <ele>501.6</ele>
        <time>2011-05-11T16:24:53Z</time>
      </trkpt>
      <trkpt lat="44.33672" lon="2.53534">
        <ele>502.2</ele>
        <time>2011-05-11T16:24:54Z</time>
      </trkpt>
      <trkpt lat="44.3367" lon="2.5353">
        <ele>503.2</ele>
        <time>2011-05-11T16:24:55Z</time>
      </trkpt>
      <trkpt lat="44.33669" lon="2.53526">
        <ele>504.1</ele>
        <time>2011-05-11T16:24:56Z</time>
      </trkpt>
      <trkpt lat="44.33667" lon="2.53522">
        <ele>504.7</ele>
        <time>2011-05-11T16:24:57Z</time>
      </trkpt>
      <trkpt lat="44.33666" lon="2.53517">
        <ele>505.7</ele>
        <time>2011-05-11T16:24:58Z</time>
      </trkpt>
      <trkpt lat="44.33665" lon="2.53513">
        <ele>506.8</ele>
        <time>2011-05-11T16:24:59Z</time>
      </trkpt>
      <trkpt lat="44.33663" lon="2.53508">
        <ele>507.7</ele>
        <time>2011-05-11T16:25:00Z</time>
      </trkpt>
      <trkpt lat="44.33661" lon="2.53503">
        <ele>508.6</ele>
        <time>2011-05-11T16:25:01Z</time>
      </trkpt>
      <trkpt lat="44.33659" lon="2.53498">
        <ele>509.2</ele>
        <time>2011-05-11T16:25:02Z</time>
      </trkpt>
      <trkpt lat="44.33657" lon="2.53493">
        <ele>510.1</ele>
        <time>2011-05-11T16:25:03Z</time>
      </trkpt>
      <trkpt lat="44.33656" lon="2.53488">
        <ele>511</ele>
        <time>2011-05-11T16:25:04Z</time>
      </trkpt>
      <trkpt lat="44.33654" lon="2.53483">
        <ele>511.7</ele>
        <time>2011-05-11T16:25:05Z</time>
      </trkpt>
      <trkpt lat="44.33652" lon="2.53478">
        <ele>512.2</ele>
        <time>2011-05-11T16:25:06Z</time>
      </trkpt>
      <trkpt lat="44.3365" lon="2.53474">
        <ele>513</ele>
        <time>2011-05-11T16:25:07Z</time>
      </trkpt>
      <trkpt lat="44.33648" lon="2.5347">
        <ele>513.5</ele>
        <time>2011-05-11T16:25:08Z</time>
      </trkpt>
      <trkpt lat="44.33646" lon="2.53465">
        <ele>514</ele>
        <time>2011-05-11T16:25:09Z</time>
      </trkpt>
      <trkpt lat="44.33644" lon="2.53462">
        <ele>514</ele>
        <time>2011-05-11T16:25:10Z</time>
      </trkpt>
      <trkpt lat="44.33642" lon="2.53457">
        <ele>513.9</ele>
        <time>2011-05-11T16:25:11Z</time>
      </trkpt>
      <trkpt lat="44.33641" lon="2.53453">
        <ele>513.4</ele>
        <time>2011-05-11T16:25:12Z</time>
      </trkpt>
      <trkpt lat="44.33639" lon="2.5345">
        <ele>512.7</ele>
        <time>2011-05-11T16:25:13Z</time>
      </trkpt>
      <trkpt lat="44.33637" lon="2.53446">
        <ele>512.5</ele>
        <time>2011-05-11T16:25:14Z</time>
      </trkpt>
      <trkpt lat="44.33636" lon="2.53443">
        <ele>512.2</ele>
        <time>2011-05-11T16:25:15Z</time>
      </trkpt>
      <trkpt lat="44.33634" lon="2.53441">
        <ele>512</ele>
        <time>2011-05-11T16:25:16Z</time>
      </trkpt>
      <trkpt lat="44.33632" lon="2.53438">
        <ele>512</ele>
        <time>2011-05-11T16:25:17Z</time>
      </trkpt>
      <trkpt lat="44.33631" lon="2.53435">
        <ele>511.7</ele>
        <time>2011-05-11T16:25:18Z</time>
      </trkpt>
      <trkpt lat="44.33629" lon="2.53432">
        <ele>511.7</ele>
        <time>2011-05-11T16:25:19Z</time>
      </trkpt>
      <trkpt lat="44.33628" lon="2.53429">
        <ele>511.6</ele>
        <time>2011-05-11T16:25:20Z</time>
      </trkpt>
      <trkpt lat="44.33626" lon="2.53425">
        <ele>511.7</ele>
        <time>2011-05-11T16:25:21Z</time>
      </trkpt>
      <trkpt lat="44.33624" lon="2.53422">
        <ele>511.7</ele>
        <time>2011-05-11T16:25:22Z</time>
      </trkpt>
      <trkpt lat="44.33623" lon="2.53419">
        <ele>511.6</ele>
        <time>2011-05-11T16:25:23Z</time>
      </trkpt>
      <trkpt lat="44.33621" lon="2.53415">
        <ele>511.6</ele>
        <time>2011-05-11T16:25:24Z</time>
      </trkpt>
      <trkpt lat="44.33619" lon="2.53412">
        <ele>511.6</ele>
        <time>2011-05-11T16:25:25Z</time>
      </trkpt>
      <trkpt lat="44.33617" lon="2.53409">
        <ele>511.5</ele>
        <time>2011-05-11T16:25:26Z</time>
      </trkpt>
      <trkpt lat="44.33616" lon="2.53406">
        <ele>511.5</ele>
        <time>2011-05-11T16:25:27Z</time>
      </trkpt>
      <trkpt lat="44.33614" lon="2.53402">
        <ele>511.5</ele>
        <time>2011-05-11T16:25:28Z</time>
      </trkpt>
      <trkpt lat="44.33613" lon="2.53398">
        <ele>511.3</ele>
        <time>2011-05-11T16:25:29Z</time>
      </trkpt>
      <trkpt lat="44.33612" lon="2.53395">
        <ele>511.2</ele>
        <time>2011-05-11T16:25:30Z</time>
      </trkpt>
      <trkpt lat="44.33611" lon="2.53391">
        <ele>511.2</ele>
        <time>2011-05-11T16:25:31Z</time>
      </trkpt>
      <trkpt lat="44.3361" lon="2.53388">
        <ele>511.2</ele>
        <time>2011-05-11T16:25:32Z</time>
      </trkpt>
      <trkpt lat="44.33608" lon="2.53383">
        <ele>511</ele>
        <time>2011-05-11T16:25:34Z</time>
      </trkpt>
      <trkpt lat="44.33607" lon="2.5338">
        <ele>510.7</ele>
        <time>2011-05-11T16:25:35Z</time>
      </trkpt>
      <trkpt lat="44.33605" lon="2.53377">
        <ele>510.5</ele>
        <time>2011-05-11T16:25:36Z</time>
      </trkpt>
      <trkpt lat="44.33604" lon="2.53374">
        <ele>510.2</ele>
        <time>2011-05-11T16:25:37Z</time>
      </trkpt>
      <trkpt lat="44.33602" lon="2.5337">
        <ele>510</ele>
        <time>2011-05-11T16:25:38Z</time>
      </trkpt>
      <trkpt lat="44.33601" lon="2.53366">
        <ele>509.7</ele>
        <time>2011-05-11T16:25:39Z</time>
      </trkpt>
      <trkpt lat="44.33599" lon="2.53362">
        <ele>509.6</ele>
        <time>2011-05-11T16:25:40Z</time>
      </trkpt>
      <trkpt lat="44.33597" lon="2.53358">
        <ele>509.3</ele>
        <time>2011-05-11T16:25:41Z</time>
      </trkpt>
      <trkpt lat="44.33595" lon="2.53354">
        <ele>509.2</ele>
        <time>2011-05-11T16:25:42Z</time>
      </trkpt>
      <trkpt lat="44.33593" lon="2.5335">
        <ele>509.2</ele>
        <time>2011-05-11T16:25:43Z</time>
      </trkpt>
      <trkpt lat="44.33592" lon="2.53346">
        <ele>509.2</ele>
        <time>2011-05-11T16:25:44Z</time>
      </trkpt>
      <trkpt lat="44.3359" lon="2.53341">
        <ele>509.2</ele>
        <time>2011-05-11T16:25:45Z</time>
      </trkpt>
      <trkpt lat="44.33587" lon="2.53337">
        <ele>509.2</ele>
        <time>2011-05-11T16:25:46Z</time>
      </trkpt>
      <trkpt lat="44.33585" lon="2.53332">
        <ele>509.2</ele>
        <time>2011-05-11T16:25:47Z</time>
      </trkpt>
      <trkpt lat="44.33583" lon="2.53328">
        <ele>509.1</ele>
        <time>2011-05-11T16:25:48Z</time>
      </trkpt>
      <trkpt lat="44.33581" lon="2.53324">
        <ele>509.1</ele>
        <time>2011-05-11T16:25:49Z</time>
      </trkpt>
      <trkpt lat="44.3358" lon="2.53319">
        <ele>508.8</ele>
        <time>2011-05-11T16:25:50Z</time>
      </trkpt>
      <trkpt lat="44.33578" lon="2.53315">
        <ele>508.7</ele>
        <time>2011-05-11T16:25:51Z</time>
      </trkpt>
      <trkpt lat="44.33577" lon="2.53312">
        <ele>508.5</ele>
        <time>2011-05-11T16:25:52Z</time>
      </trkpt>
      <trkpt lat="44.33575" lon="2.53308">
        <ele>508.2</ele>
        <time>2011-05-11T16:25:53Z</time>
      </trkpt>
      <trkpt lat="44.33574" lon="2.53304">
        <ele>508</ele>
        <time>2011-05-11T16:25:54Z</time>
      </trkpt>
      <trkpt lat="44.33573" lon="2.53299">
        <ele>507.7</ele>
        <time>2011-05-11T16:25:55Z</time>
      </trkpt>
      <trkpt lat="44.33572" lon="2.53295">
        <ele>507.6</ele>
        <time>2011-05-11T16:25:56Z</time>
      </trkpt>
      <trkpt lat="44.3357" lon="2.53291">
        <ele>507.6</ele>
        <time>2011-05-11T16:25:57Z</time>
      </trkpt>
      <trkpt lat="44.33569" lon="2.53286">
        <ele>507.8</ele>
        <time>2011-05-11T16:25:58Z</time>
      </trkpt>
      <trkpt lat="44.33567" lon="2.53282">
        <ele>508.2</ele>
        <time>2011-05-11T16:25:59Z</time>
      </trkpt>
      <trkpt lat="44.33566" lon="2.53278">
        <ele>508.7</ele>
        <time>2011-05-11T16:26:00Z</time>
      </trkpt>
      <trkpt lat="44.33565" lon="2.53273">
        <ele>509.2</ele>
        <time>2011-05-11T16:26:01Z</time>
      </trkpt>
      <trkpt lat="44.33563" lon="2.53269">
        <ele>509.3</ele>
        <time>2011-05-11T16:26:02Z</time>
      </trkpt>
      <trkpt lat="44.33561" lon="2.53264">
        <ele>509.6</ele>
        <time>2011-05-11T16:26:03Z</time>
      </trkpt>
      <trkpt lat="44.3356" lon="2.53259">
        <ele>509.8</ele>
        <time>2011-05-11T16:26:04Z</time>
      </trkpt>
      <trkpt lat="44.33559" lon="2.53255">
        <ele>510.2</ele>
        <time>2011-05-11T16:26:05Z</time>
      </trkpt>
      <trkpt lat="44.33558" lon="2.53251">
        <ele>510.5</ele>
        <time>2011-05-11T16:26:06Z</time>
      </trkpt>
      <trkpt lat="44.33557" lon="2.53247">
        <ele>510.7</ele>
        <time>2011-05-11T16:26:07Z</time>
      </trkpt>
      <trkpt lat="44.33556" lon="2.53243">
        <ele>511</ele>
        <time>2011-05-11T16:26:08Z</time>
      </trkpt>
      <trkpt lat="44.33555" lon="2.53239">
        <ele>511.1</ele>
        <time>2011-05-11T16:26:09Z</time>
      </trkpt>
      <trkpt lat="44.33553" lon="2.53235">
        <ele>511.2</ele>
        <time>2011-05-11T16:26:10Z</time>
      </trkpt>
      <trkpt lat="44.33552" lon="2.53231">
        <ele>511.1</ele>
        <time>2011-05-11T16:26:11Z</time>
      </trkpt>
      <trkpt lat="44.33551" lon="2.53226">
        <ele>511</ele>
        <time>2011-05-11T16:26:12Z</time>
      </trkpt>
      <trkpt lat="44.33551" lon="2.53222">
        <ele>510.7</ele>
        <time>2011-05-11T16:26:13Z</time>
      </trkpt>
      <trkpt lat="44.3355" lon="2.53217">
        <ele>510.5</ele>
        <time>2011-05-11T16:26:14Z</time>
      </trkpt>
      <trkpt lat="44.33549" lon="2.53213">
        <ele>510.3</ele>
        <time>2011-05-11T16:26:15Z</time>
      </trkpt>
      <trkpt lat="44.33548" lon="2.53208">
        <ele>510.2</ele>
        <time>2011-05-11T16:26:16Z</time>
      </trkpt>
      <trkpt lat="44.33547" lon="2.53204">
        <ele>510</ele>
        <time>2011-05-11T16:26:17Z</time>
      </trkpt>
      <trkpt lat="44.33546" lon="2.53199">
        <ele>509.7</ele>
        <time>2011-05-11T16:26:18Z</time>
      </trkpt>
      <trkpt lat="44.33545" lon="2.53194">
        <ele>509.6</ele>
        <time>2011-05-11T16:26:19Z</time>
      </trkpt>
      <trkpt lat="44.33544" lon="2.5319">
        <ele>509.7</ele>
        <time>2011-05-11T16:26:20Z</time>
      </trkpt>
      <trkpt lat="44.33542" lon="2.53186">
        <ele>509.7</ele>
        <time>2011-05-11T16:26:21Z</time>
      </trkpt>
      <trkpt lat="44.33541" lon="2.53181">
        <ele>509.7</ele>
        <time>2011-05-11T16:26:22Z</time>
      </trkpt>
      <trkpt lat="44.3354" lon="2.53177">
        <ele>509.7</ele>
        <time>2011-05-11T16:26:23Z</time>
      </trkpt>
      <trkpt lat="44.33538" lon="2.53172">
        <ele>509.7</ele>
        <time>2011-05-11T16:26:24Z</time>
      </trkpt>
      <trkpt lat="44.33537" lon="2.53167">
        <ele>509.8</ele>
        <time>2011-05-11T16:26:25Z</time>
      </trkpt>
      <trkpt lat="44.33536" lon="2.53162">
        <ele>510.1</ele>
        <time>2011-05-11T16:26:26Z</time>
      </trkpt>
      <trkpt lat="44.33535" lon="2.53156">
        <ele>510.2</ele>
        <time>2011-05-11T16:26:27Z</time>
      </trkpt>
      <trkpt lat="44.33533" lon="2.53151">
        <ele>510.3</ele>
        <time>2011-05-11T16:26:28Z</time>
      </trkpt>
      <trkpt lat="44.33532" lon="2.53145">
        <ele>510.7</ele>
        <time>2011-05-11T16:26:29Z</time>
      </trkpt>
      <trkpt lat="44.33531" lon="2.5314">
        <ele>511.2</ele>
        <time>2011-05-11T16:26:30Z</time>
      </trkpt>
      <trkpt lat="44.3353" lon="2.53135">
        <ele>511.8</ele>
        <time>2011-05-11T16:26:31Z</time>
      </trkpt>
      <trkpt lat="44.3353" lon="2.53129">
        <ele>512.5</ele>
        <time>2011-05-11T16:26:32Z</time>
      </trkpt>
      <trkpt lat="44.3353" lon="2.53123">
        <ele>513.2</ele>
        <time>2011-05-11T16:26:33Z</time>
      </trkpt>
      <trkpt lat="44.3353" lon="2.53118">
        <ele>513.7</ele>
        <time>2011-05-11T16:26:34Z</time>
      </trkpt>
      <trkpt lat="44.3353" lon="2.53112">
        <ele>514.2</ele>
        <time>2011-05-11T16:26:35Z</time>
      </trkpt>
      <trkpt lat="44.3353" lon="2.53107">
        <ele>514.7</ele>
        <time>2011-05-11T16:26:36Z</time>
      </trkpt>
      <trkpt lat="44.33529" lon="2.531">
        <ele>514.9</ele>
        <time>2011-05-11T16:26:37Z</time>
      </trkpt>
      <trkpt lat="44.33529" lon="2.53094">
        <ele>514.7</ele>
        <time>2011-05-11T16:26:38Z</time>
      </trkpt>
      <trkpt lat="44.33529" lon="2.53088">
        <ele>514.5</ele>
        <time>2011-05-11T16:26:39Z</time>
      </trkpt>
      <trkpt lat="44.33529" lon="2.53082">
        <ele>514.2</ele>
        <time>2011-05-11T16:26:40Z</time>
      </trkpt>
      <trkpt lat="44.33529" lon="2.53077">
        <ele>514.2</ele>
        <time>2011-05-11T16:26:41Z</time>
      </trkpt>
      <trkpt lat="44.33529" lon="2.53071">
        <ele>514.4</ele>
        <time>2011-05-11T16:26:42Z</time>
      </trkpt>
      <trkpt lat="44.33529" lon="2.53066">
        <ele>514.2</ele>
        <time>2011-05-11T16:26:43Z</time>
      </trkpt>
      <trkpt lat="44.3353" lon="2.53061">
        <ele>514</ele>
        <time>2011-05-11T16:26:44Z</time>
      </trkpt>
      <trkpt lat="44.33529" lon="2.53056">
        <ele>513.7</ele>
        <time>2011-05-11T16:26:45Z</time>
      </trkpt>
      <trkpt lat="44.33529" lon="2.53051">
        <ele>513.7</ele>
        <time>2011-05-11T16:26:46Z</time>
      </trkpt>
      <trkpt lat="44.33528" lon="2.53045">
        <ele>513.7</ele>
        <time>2011-05-11T16:26:47Z</time>
      </trkpt>
      <trkpt lat="44.33528" lon="2.5304">
        <ele>514</ele>
        <time>2011-05-11T16:26:48Z</time>
      </trkpt>
      <trkpt lat="44.33528" lon="2.53035">
        <ele>514</ele>
        <time>2011-05-11T16:26:49Z</time>
      </trkpt>
      <trkpt lat="44.33528" lon="2.5303">
        <ele>514.2</ele>
        <time>2011-05-11T16:26:50Z</time>
      </trkpt>
      <trkpt lat="44.33528" lon="2.53026">
        <ele>514.2</ele>
        <time>2011-05-11T16:26:51Z</time>
      </trkpt>
      <trkpt lat="44.33528" lon="2.53022">
        <ele>514.2</ele>
        <time>2011-05-11T16:26:52Z</time>
      </trkpt>
      <trkpt lat="44.33527" lon="2.53018">
        <ele>514.5</ele>
        <time>2011-05-11T16:26:53Z</time>
      </trkpt>
      <trkpt lat="44.33527" lon="2.53014">
        <ele>514.7</ele>
        <time>2011-05-11T16:26:54Z</time>
      </trkpt>
      <trkpt lat="44.33526" lon="2.5301">
        <ele>514.7</ele>
        <time>2011-05-11T16:26:55Z</time>
      </trkpt>
      <trkpt lat="44.33525" lon="2.53006">
        <ele>515</ele>
        <time>2011-05-11T16:26:56Z</time>
      </trkpt>
      <trkpt lat="44.33525" lon="2.53003">
        <ele>515.4</ele>
        <time>2011-05-11T16:26:57Z</time>
      </trkpt>
      <trkpt lat="44.33524" lon="2.52999">
        <ele>515.7</ele>
        <time>2011-05-11T16:26:58Z</time>
      </trkpt>
      <trkpt lat="44.33523" lon="2.52995">
        <ele>516</ele>
        <time>2011-05-11T16:26:59Z</time>
      </trkpt>
      <trkpt lat="44.33522" lon="2.52992">
        <ele>516.4</ele>
        <time>2011-05-11T16:27:00Z</time>
      </trkpt>
      <trkpt lat="44.33522" lon="2.52989">
        <ele>516.9</ele>
        <time>2011-05-11T16:27:01Z</time>
      </trkpt>
      <trkpt lat="44.33521" lon="2.52985">
        <ele>517.5</ele>
        <time>2011-05-11T16:27:02Z</time>
      </trkpt>
      <trkpt lat="44.3352" lon="2.52982">
        <ele>518</ele>
        <time>2011-05-11T16:27:03Z</time>
      </trkpt>
      <trkpt lat="44.33519" lon="2.52976">
        <ele>518.7</ele>
        <time>2011-05-11T16:27:05Z</time>
      </trkpt>
      <trkpt lat="44.33518" lon="2.5297">
        <ele>518.7</ele>
        <time>2011-05-11T16:27:07Z</time>
      </trkpt>
      <trkpt lat="44.33517" lon="2.52964">
        <ele>518.4</ele>
        <time>2011-05-11T16:27:09Z</time>
      </trkpt>
      <trkpt lat="44.33518" lon="2.52958">
        <ele>517.9</ele>
        <time>2011-05-11T16:27:11Z</time>
      </trkpt>
      <trkpt lat="44.33519" lon="2.52954">
        <ele>517</ele>
        <time>2011-05-11T16:27:13Z</time>
      </trkpt>
      <trkpt lat="44.33521" lon="2.52949">
        <ele>516</ele>
        <time>2011-05-11T16:27:15Z</time>
      </trkpt>
      <trkpt lat="44.33522" lon="2.52945">
        <ele>515.4</ele>
        <time>2011-05-11T16:27:16Z</time>
      </trkpt>
      <trkpt lat="44.33523" lon="2.52942">
        <ele>514.5</ele>
        <time>2011-05-11T16:27:17Z</time>
      </trkpt>
      <trkpt lat="44.33524" lon="2.52938">
        <ele>513.4</ele>
        <time>2011-05-11T16:27:18Z</time>
      </trkpt>
      <trkpt lat="44.33525" lon="2.52935">
        <ele>512.5</ele>
        <time>2011-05-11T16:27:19Z</time>
      </trkpt>
      <trkpt lat="44.33526" lon="2.52931">
        <ele>511.5</ele>
        <time>2011-05-11T16:27:20Z</time>
      </trkpt>
      <trkpt lat="44.33527" lon="2.52927">
        <ele>510.7</ele>
        <time>2011-05-11T16:27:21Z</time>
      </trkpt>
      <trkpt lat="44.33528" lon="2.52921">
        <ele>509.1</ele>
        <time>2011-05-11T16:27:23Z</time>
      </trkpt>
      <trkpt lat="44.33529" lon="2.52915">
        <ele>508.2</ele>
        <time>2011-05-11T16:27:25Z</time>
      </trkpt>
      <trkpt lat="44.3353" lon="2.5291">
        <ele>507.1</ele>
        <time>2011-05-11T16:27:27Z</time>
      </trkpt>
      <trkpt lat="44.3353" lon="2.52906">
        <ele>506.2</ele>
        <time>2011-05-11T16:27:28Z</time>
      </trkpt>
      <trkpt lat="44.3353" lon="2.52903">
        <ele>505.7</ele>
        <time>2011-05-11T16:27:29Z</time>
      </trkpt>
      <trkpt lat="44.3353" lon="2.529">
        <ele>505.5</ele>
        <time>2011-05-11T16:27:30Z</time>
      </trkpt>
      <trkpt lat="44.3353" lon="2.52896">
        <ele>505.2</ele>
        <time>2011-05-11T16:27:31Z</time>
      </trkpt>
      <trkpt lat="44.33531" lon="2.52893">
        <ele>505.1</ele>
        <time>2011-05-11T16:27:32Z</time>
      </trkpt>
      <trkpt lat="44.33531" lon="2.5289">
        <ele>504.7</ele>
        <time>2011-05-11T16:27:33Z</time>
      </trkpt>
      <trkpt lat="44.33531" lon="2.52886">
        <ele>504.2</ele>
        <time>2011-05-11T16:27:34Z</time>
      </trkpt>
      <trkpt lat="44.33532" lon="2.52883">
        <ele>503.8</ele>
        <time>2011-05-11T16:27:35Z</time>
      </trkpt>
      <trkpt lat="44.33532" lon="2.5288">
        <ele>503.6</ele>
        <time>2011-05-11T16:27:36Z</time>
      </trkpt>
      <trkpt lat="44.33532" lon="2.52877">
        <ele>503.2</ele>
        <time>2011-05-11T16:27:37Z</time>
      </trkpt>
      <trkpt lat="44.33532" lon="2.5287">
        <ele>503.8</ele>
        <time>2011-05-11T16:27:39Z</time>
      </trkpt>
      <trkpt lat="44.33533" lon="2.52865">
        <ele>505.2</ele>
        <time>2011-05-11T16:27:41Z</time>
      </trkpt>
      <trkpt lat="44.33534" lon="2.5286">
        <ele>506.7</ele>
        <time>2011-05-11T16:27:43Z</time>
      </trkpt>
      <trkpt lat="44.33535" lon="2.52855">
        <ele>508.6</ele>
        <time>2011-05-11T16:27:46Z</time>
      </trkpt>
      <trkpt lat="44.33536" lon="2.52849">
        <ele>509.6</ele>
        <time>2011-05-11T16:27:50Z</time>
      </trkpt>
      <trkpt lat="44.33538" lon="2.52844">
        <ele>509.5</ele>
        <time>2011-05-11T16:27:53Z</time>
      </trkpt>
      <trkpt lat="44.33539" lon="2.52838">
        <ele>509.2</ele>
        <time>2011-05-11T16:27:55Z</time>
      </trkpt>
      <trkpt lat="44.3354" lon="2.52833">
        <ele>508.8</ele>
        <time>2011-05-11T16:27:57Z</time>
      </trkpt>
      <trkpt lat="44.33541" lon="2.52827">
        <ele>508.5</ele>
        <time>2011-05-11T16:27:59Z</time>
      </trkpt>
      <trkpt lat="44.33542" lon="2.52824">
        <ele>508.2</ele>
        <time>2011-05-11T16:28:00Z</time>
      </trkpt>
      <trkpt lat="44.33542" lon="2.5282">
        <ele>508.2</ele>
        <time>2011-05-11T16:28:01Z</time>
      </trkpt>
      <trkpt lat="44.33542" lon="2.52817">
        <ele>508.1</ele>
        <time>2011-05-11T16:28:02Z</time>
      </trkpt>
      <trkpt lat="44.33542" lon="2.52811">
        <ele>508.2</ele>
        <time>2011-05-11T16:28:04Z</time>
      </trkpt>
      <trkpt lat="44.33543" lon="2.52805">
        <ele>508.3</ele>
        <time>2011-05-11T16:28:06Z</time>
      </trkpt>
      <trkpt lat="44.33544" lon="2.52799">
        <ele>507.8</ele>
        <time>2011-05-11T16:28:08Z</time>
      </trkpt>
      <trkpt lat="44.33546" lon="2.52794">
        <ele>507.6</ele>
        <time>2011-05-11T16:28:10Z</time>
      </trkpt>
      <trkpt lat="44.33547" lon="2.52791">
        <ele>507.2</ele>
        <time>2011-05-11T16:28:11Z</time>
      </trkpt>
      <trkpt lat="44.33548" lon="2.52787">
        <ele>506.7</ele>
        <time>2011-05-11T16:28:12Z</time>
      </trkpt>
      <trkpt lat="44.33548" lon="2.52784">
        <ele>506.5</ele>
        <time>2011-05-11T16:28:13Z</time>
      </trkpt>
      <trkpt lat="44.33548" lon="2.52781">
        <ele>506.3</ele>
        <time>2011-05-11T16:28:14Z</time>
      </trkpt>
      <trkpt lat="44.33549" lon="2.52778">
        <ele>506.1</ele>
        <time>2011-05-11T16:28:15Z</time>
      </trkpt>
      <trkpt lat="44.33549" lon="2.52775">
        <ele>505.8</ele>
        <time>2011-05-11T16:28:16Z</time>
      </trkpt>
      <trkpt lat="44.33551" lon="2.52771">
        <ele>505.6</ele>
        <time>2011-05-11T16:28:17Z</time>
      </trkpt>
      <trkpt lat="44.33552" lon="2.52767">
        <ele>505.2</ele>
        <time>2011-05-11T16:28:18Z</time>
      </trkpt>
      <trkpt lat="44.33553" lon="2.52763">
        <ele>505</ele>
        <time>2011-05-11T16:28:19Z</time>
      </trkpt>
      <trkpt lat="44.33554" lon="2.5276">
        <ele>504.7</ele>
        <time>2011-05-11T16:28:20Z</time>
      </trkpt>
      <trkpt lat="44.33555" lon="2.52757">
        <ele>504</ele>
        <time>2011-05-11T16:28:21Z</time>
      </trkpt>
      <trkpt lat="44.33557" lon="2.52752">
        <ele>503.3</ele>
        <time>2011-05-11T16:28:22Z</time>
      </trkpt>
      <trkpt lat="44.33558" lon="2.52748">
        <ele>502.8</ele>
        <time>2011-05-11T16:28:23Z</time>
      </trkpt>
      <trkpt lat="44.33559" lon="2.52744">
        <ele>502.7</ele>
        <time>2011-05-11T16:28:24Z</time>
      </trkpt>
      <trkpt lat="44.3356" lon="2.52741">
        <ele>502.7</ele>
        <time>2011-05-11T16:28:25Z</time>
      </trkpt>
      <trkpt lat="44.33562" lon="2.52736">
        <ele>502.5</ele>
        <time>2011-05-11T16:28:27Z</time>
      </trkpt>
      <trkpt lat="44.33564" lon="2.52732">
        <ele>501.7</ele>
        <time>2011-05-11T16:28:29Z</time>
      </trkpt>
      <trkpt lat="44.33567" lon="2.52728">
        <ele>501.7</ele>
        <time>2011-05-11T16:28:31Z</time>
      </trkpt>
      <trkpt lat="44.33568" lon="2.52723">
        <ele>502.5</ele>
        <time>2011-05-11T16:28:33Z</time>
      </trkpt>
      <trkpt lat="44.3357" lon="2.52717">
        <ele>503.2</ele>
        <time>2011-05-11T16:28:36Z</time>
      </trkpt>
      <trkpt lat="44.33572" lon="2.52713">
        <ele>503.7</ele>
        <time>2011-05-11T16:28:38Z</time>
      </trkpt>
      <trkpt lat="44.33573" lon="2.52708">
        <ele>505</ele>
        <time>2011-05-11T16:28:40Z</time>
      </trkpt>
      <trkpt lat="44.33576" lon="2.52703">
        <ele>506.2</ele>
        <time>2011-05-11T16:28:43Z</time>
      </trkpt>
      <trkpt lat="44.33579" lon="2.52704">
        <ele>504.8</ele>
        <time>2011-05-11T16:28:45Z</time>
      </trkpt>
      <trkpt lat="44.33583" lon="2.52701">
        <ele>503.3</ele>
        <time>2011-05-11T16:28:46Z</time>
      </trkpt>
      <trkpt lat="44.33587" lon="2.52697">
        <ele>502.5</ele>
        <time>2011-05-11T16:28:47Z</time>
      </trkpt>
      <trkpt lat="44.33589" lon="2.52693">
        <ele>502.2</ele>
        <time>2011-05-11T16:28:48Z</time>
      </trkpt>
      <trkpt lat="44.33592" lon="2.52689">
        <ele>502.3</ele>
        <time>2011-05-11T16:28:50Z</time>
      </trkpt>
      <trkpt lat="44.33595" lon="2.52686">
        <ele>503.1</ele>
        <time>2011-05-11T16:28:52Z</time>
      </trkpt>
      <trkpt lat="44.33597" lon="2.52684">
        <ele>503.7</ele>
        <time>2011-05-11T16:28:53Z</time>
      </trkpt>
      <trkpt lat="44.336" lon="2.5268">
        <ele>505.8</ele>
        <time>2011-05-11T16:28:55Z</time>
      </trkpt>
      <trkpt lat="44.33603" lon="2.52676">
        <ele>508.2</ele>
        <time>2011-05-11T16:28:58Z</time>
      </trkpt>
      <trkpt lat="44.33606" lon="2.52673">
        <ele>511.7</ele>
        <time>2011-05-11T16:29:11Z</time>
      </trkpt>
      <trkpt lat="44.33607" lon="2.52673">
        <ele>512</ele>
        <time>2011-05-11T16:29:12Z</time>
      </trkpt>
      <trkpt lat="44.33612" lon="2.52665">
        <ele>519.2</ele>
        <time>2011-05-11T16:29:36Z</time>
      </trkpt>
      <trkpt lat="44.33615" lon="2.52662">
        <ele>520.5</ele>
        <time>2011-05-11T16:29:43Z</time>
      </trkpt>
      <trkpt lat="44.33617" lon="2.52656">
        <ele>519.2</ele>
        <time>2011-05-11T16:29:58Z</time>
      </trkpt>
      <trkpt lat="44.33621" lon="2.52651">
        <ele>518</ele>
        <time>2011-05-11T16:30:08Z</time>
      </trkpt>
      <trkpt lat="44.33618" lon="2.52647">
        <ele>515.5</ele>
        <time>2011-05-11T16:31:16Z</time>
      </trkpt>
      <trkpt lat="44.33618" lon="2.52647">
        <ele>515.5</ele>
        <time>2011-05-11T16:31:17Z</time>
      </trkpt>
      <trkpt lat="44.3361" lon="2.52644">
        <ele>515.9</ele>
        <time>2011-05-11T16:31:30Z</time>
      </trkpt>
      <trkpt lat="44.33607" lon="2.52643">
        <ele>517</ele>
        <time>2011-05-11T16:31:35Z</time>
      </trkpt>
      <trkpt lat="44.33603" lon="2.52642">
        <ele>518.5</ele>
        <time>2011-05-11T16:31:39Z</time>
      </trkpt>
      <trkpt lat="44.33598" lon="2.52641">
        <ele>520.4</ele>
        <time>2011-05-11T16:31:46Z</time>
      </trkpt>
      <trkpt lat="44.33594" lon="2.5264">
        <ele>520.9</ele>
        <time>2011-05-11T16:31:51Z</time>
      </trkpt>
      <trkpt lat="44.3359" lon="2.52639">
        <ele>521.5</ele>
        <time>2011-05-11T16:31:55Z</time>
      </trkpt>
      <trkpt lat="44.33593" lon="2.5264">
        <ele>520.7</ele>
        <time>2011-05-11T16:32:05Z</time>
      </trkpt>
      <trkpt lat="44.33597" lon="2.52642">
        <ele>517.9</ele>
        <time>2011-05-11T16:32:08Z</time>
      </trkpt>
      <trkpt lat="44.33601" lon="2.52642">
        <ele>515.4</ele>
        <time>2011-05-11T16:32:10Z</time>
      </trkpt>
      <trkpt lat="44.33604" lon="2.52644">
        <ele>512.7</ele>
        <time>2011-05-11T16:32:13Z</time>
      </trkpt>
      <trkpt lat="44.33606" lon="2.5264">
        <ele>511.2</ele>
        <time>2011-05-11T16:32:15Z</time>
      </trkpt>
      <trkpt lat="44.33605" lon="2.52636">
        <ele>510.3</ele>
        <time>2011-05-11T16:32:17Z</time>
      </trkpt>
      <trkpt lat="44.33605" lon="2.52634">
        <ele>509.7</ele>
        <time>2011-05-11T16:32:18Z</time>
      </trkpt>
      <trkpt lat="44.33604" lon="2.52626">
        <ele>507</ele>
        <time>2011-05-11T16:32:21Z</time>
      </trkpt>
      <trkpt lat="44.33604" lon="2.52623">
        <ele>505.8</ele>
        <time>2011-05-11T16:32:22Z</time>
      </trkpt>
      <trkpt lat="44.33603" lon="2.52619">
        <ele>504.7</ele>
        <time>2011-05-11T16:32:23Z</time>
      </trkpt>
      <trkpt lat="44.33602" lon="2.52616">
        <ele>503.7</ele>
        <time>2011-05-11T16:32:24Z</time>
      </trkpt>
      <trkpt lat="44.33602" lon="2.5261">
        <ele>502.3</ele>
        <time>2011-05-11T16:32:26Z</time>
      </trkpt>
      <trkpt lat="44.33599" lon="2.52607">
        <ele>501.7</ele>
        <time>2011-05-11T16:32:29Z</time>
      </trkpt>
      <trkpt lat="44.33602" lon="2.52602">
        <ele>501.6</ele>
        <time>2011-05-11T16:32:33Z</time>
      </trkpt>
      <trkpt lat="44.33598" lon="2.52601">
        <ele>512.2</ele>
        <time>2011-05-11T16:33:26Z</time>
      </trkpt>
      <trkpt lat="44.33598" lon="2.52601">
        <ele>512.5</ele>
        <time>2011-05-11T16:33:27Z</time>
      </trkpt>
      <trkpt lat="44.33591" lon="2.52598">
        <ele>513.5</ele>
        <time>2011-05-11T16:33:46Z</time>
      </trkpt>
      <trkpt lat="44.33587" lon="2.52597">
        <ele>513</ele>
        <time>2011-05-11T16:33:50Z</time>
      </trkpt>
      <trkpt lat="44.33583" lon="2.52595">
        <ele>513.2</ele>
        <time>2011-05-11T16:33:53Z</time>
      </trkpt>
      <trkpt lat="44.33579" lon="2.52594">
        <ele>512.7</ele>
        <time>2011-05-11T16:33:57Z</time>
      </trkpt>
      <trkpt lat="44.33575" lon="2.52593">
        <ele>512.2</ele>
        <time>2011-05-11T16:34:00Z</time>
      </trkpt>
      <trkpt lat="44.33571" lon="2.52593">
        <ele>512.5</ele>
        <time>2011-05-11T16:34:03Z</time>
      </trkpt>
      <trkpt lat="44.33567" lon="2.52593">
        <ele>512.5</ele>
        <time>2011-05-11T16:34:06Z</time>
      </trkpt>
      <trkpt lat="44.33563" lon="2.52592">
        <ele>512.7</ele>
        <time>2011-05-11T16:34:09Z</time>
      </trkpt>
      <trkpt lat="44.33559" lon="2.52591">
        <ele>512.9</ele>
        <time>2011-05-11T16:34:12Z</time>
      </trkpt>
      <trkpt lat="44.33556" lon="2.52591">
        <ele>513.2</ele>
        <time>2011-05-11T16:34:14Z</time>
      </trkpt>
      <trkpt lat="44.33553" lon="2.5259">
        <ele>513.2</ele>
        <time>2011-05-11T16:34:16Z</time>
      </trkpt>
      <trkpt lat="44.3355" lon="2.52589">
        <ele>513.2</ele>
        <time>2011-05-11T16:34:18Z</time>
      </trkpt>
      <trkpt lat="44.33547" lon="2.52589">
        <ele>513.7</ele>
        <time>2011-05-11T16:34:20Z</time>
      </trkpt>
      <trkpt lat="44.33542" lon="2.52587">
        <ele>514.2</ele>
        <time>2011-05-11T16:34:23Z</time>
      </trkpt>
      <trkpt lat="44.33539" lon="2.52586">
        <ele>514.5</ele>
        <time>2011-05-11T16:34:25Z</time>
      </trkpt>
      <trkpt lat="44.33536" lon="2.52585">
        <ele>514.9</ele>
        <time>2011-05-11T16:34:27Z</time>
      </trkpt>
      <trkpt lat="44.33535" lon="2.52584">
        <ele>515.2</ele>
        <time>2011-05-11T16:34:28Z</time>
      </trkpt>
      <trkpt lat="44.3353" lon="2.52581">
        <ele>516</ele>
        <time>2011-05-11T16:34:31Z</time>
      </trkpt>
      <trkpt lat="44.33527" lon="2.5258">
        <ele>516.5</ele>
        <time>2011-05-11T16:34:33Z</time>
      </trkpt>
      <trkpt lat="44.33524" lon="2.52577">
        <ele>516.7</ele>
        <time>2011-05-11T16:34:35Z</time>
      </trkpt>
      <trkpt lat="44.33522" lon="2.52575">
        <ele>517.4</ele>
        <time>2011-05-11T16:34:37Z</time>
      </trkpt>
      <trkpt lat="44.33519" lon="2.52572">
        <ele>517.7</ele>
        <time>2011-05-11T16:34:39Z</time>
      </trkpt>
      <trkpt lat="44.33516" lon="2.52569">
        <ele>518</ele>
        <time>2011-05-11T16:34:41Z</time>
      </trkpt>
      <trkpt lat="44.33514" lon="2.52566">
        <ele>518</ele>
        <time>2011-05-11T16:34:43Z</time>
      </trkpt>
      <trkpt lat="44.33511" lon="2.52564">
        <ele>518.2</ele>
        <time>2011-05-11T16:34:45Z</time>
      </trkpt>
      <trkpt lat="44.33508" lon="2.52561">
        <ele>518.4</ele>
        <time>2011-05-11T16:34:47Z</time>
      </trkpt>
      <trkpt lat="44.33505" lon="2.52559">
        <ele>518.7</ele>
        <time>2011-05-11T16:34:49Z</time>
      </trkpt>
      <trkpt lat="44.33502" lon="2.52559">
        <ele>519.2</ele>
        <time>2011-05-11T16:34:51Z</time>
      </trkpt>
      <trkpt lat="44.33499" lon="2.52559">
        <ele>519.5</ele>
        <time>2011-05-11T16:34:53Z</time>
      </trkpt>
      <trkpt lat="44.33496" lon="2.52559">
        <ele>519.5</ele>
        <time>2011-05-11T16:34:55Z</time>
      </trkpt>
      <trkpt lat="44.33492" lon="2.5256">
        <ele>519.7</ele>
        <time>2011-05-11T16:34:57Z</time>
      </trkpt>
      <trkpt lat="44.33489" lon="2.52562">
        <ele>520</ele>
        <time>2011-05-11T16:34:59Z</time>
      </trkpt>
      <trkpt lat="44.33486" lon="2.52563">
        <ele>520.5</ele>
        <time>2011-05-11T16:35:01Z</time>
      </trkpt>
      <trkpt lat="44.33482" lon="2.52566">
        <ele>520.5</ele>
        <time>2011-05-11T16:35:04Z</time>
      </trkpt>
      <trkpt lat="44.33479" lon="2.52568">
        <ele>520</ele>
        <time>2011-05-11T16:35:07Z</time>
      </trkpt>
      <trkpt lat="44.33475" lon="2.52572">
        <ele>519</ele>
        <time>2011-05-11T16:35:10Z</time>
      </trkpt>
      <trkpt lat="44.33472" lon="2.52574">
        <ele>518.4</ele>
        <time>2011-05-11T16:35:12Z</time>
      </trkpt>
      <trkpt lat="44.33469" lon="2.52576">
        <ele>518</ele>
        <time>2011-05-11T16:35:14Z</time>
      </trkpt>
      <trkpt lat="44.33467" lon="2.52578">
        <ele>517.7</ele>
        <time>2011-05-11T16:35:16Z</time>
      </trkpt>
      <trkpt lat="44.33463" lon="2.52581">
        <ele>516.9</ele>
        <time>2011-05-11T16:35:19Z</time>
      </trkpt>
      <trkpt lat="44.33459" lon="2.52584">
        <ele>516</ele>
        <time>2011-05-11T16:35:22Z</time>
      </trkpt>
      <trkpt lat="44.33456" lon="2.52587">
        <ele>515</ele>
        <time>2011-05-11T16:35:25Z</time>
      </trkpt>
      <trkpt lat="44.33453" lon="2.52589">
        <ele>514.7</ele>
        <time>2011-05-11T16:35:27Z</time>
      </trkpt>
      <trkpt lat="44.3345" lon="2.52592">
        <ele>515</ele>
        <time>2011-05-11T16:35:29Z</time>
      </trkpt>
      <trkpt lat="44.33449" lon="2.52592">
        <ele>515</ele>
        <time>2011-05-11T16:35:30Z</time>
      </trkpt>
      <trkpt lat="44.33444" lon="2.52596">
        <ele>515.7</ele>
        <time>2011-05-11T16:35:34Z</time>
      </trkpt>
      <trkpt lat="44.3344" lon="2.52598">
        <ele>517</ele>
        <time>2011-05-11T16:35:37Z</time>
      </trkpt>
      <trkpt lat="44.33438" lon="2.52602">
        <ele>518.5</ele>
        <time>2011-05-11T16:35:41Z</time>
      </trkpt>
      <trkpt lat="44.33435" lon="2.52605">
        <ele>519.5</ele>
        <time>2011-05-11T16:35:45Z</time>
      </trkpt>
      <trkpt lat="44.33434" lon="2.52611">
        <ele>525</ele>
        <time>2011-05-11T16:35:57Z</time>
      </trkpt>
      <trkpt lat="44.33438" lon="2.5261">
        <ele>526.2</ele>
        <time>2011-05-11T16:36:01Z</time>
      </trkpt>
      <trkpt lat="44.33441" lon="2.52609">
        <ele>527.4</ele>
        <time>2011-05-11T16:36:04Z</time>
      </trkpt>
      <trkpt lat="44.33445" lon="2.52608">
        <ele>528.4</ele>
        <time>2011-05-11T16:36:07Z</time>
      </trkpt>
      <trkpt lat="44.33449" lon="2.52608">
        <ele>529</ele>
        <time>2011-05-11T16:36:10Z</time>
      </trkpt>
      <trkpt lat="44.33453" lon="2.52608">
        <ele>529.9</ele>
        <time>2011-05-11T16:36:13Z</time>
      </trkpt>
      <trkpt lat="44.33457" lon="2.52607">
        <ele>530.9</ele>
        <time>2011-05-11T16:36:16Z</time>
      </trkpt>
      <trkpt lat="44.33461" lon="2.52606">
        <ele>531.7</ele>
        <time>2011-05-11T16:36:19Z</time>
      </trkpt>
      <trkpt lat="44.33465" lon="2.52606">
        <ele>532.2</ele>
        <time>2011-05-11T16:36:22Z</time>
      </trkpt>
      <trkpt lat="44.33469" lon="2.52606">
        <ele>532.2</ele>
        <time>2011-05-11T16:36:25Z</time>
      </trkpt>
      <trkpt lat="44.33473" lon="2.52606">
        <ele>532.5</ele>
        <time>2011-05-11T16:36:28Z</time>
      </trkpt>
      <trkpt lat="44.33477" lon="2.52606">
        <ele>533</ele>
        <time>2011-05-11T16:36:31Z</time>
      </trkpt>
      <trkpt lat="44.33478" lon="2.52607">
        <ele>533.2</ele>
        <time>2011-05-11T16:36:32Z</time>
      </trkpt>
      <trkpt lat="44.33483" lon="2.52612">
        <ele>533.4</ele>
        <time>2011-05-11T16:36:37Z</time>
      </trkpt>
      <trkpt lat="44.33482" lon="2.52618">
        <ele>533.7</ele>
        <time>2011-05-11T16:36:41Z</time>
      </trkpt>
      <trkpt lat="44.33479" lon="2.5262">
        <ele>533.5</ele>
        <time>2011-05-11T16:36:44Z</time>
      </trkpt>
      <trkpt lat="44.33476" lon="2.52622">
        <ele>533.2</ele>
        <time>2011-05-11T16:36:48Z</time>
      </trkpt>
      <trkpt lat="44.33472" lon="2.52623">
        <ele>533.4</ele>
        <time>2011-05-11T16:36:52Z</time>
      </trkpt>
      <trkpt lat="44.33469" lon="2.52626">
        <ele>533.5</ele>
        <time>2011-05-11T16:36:55Z</time>
      </trkpt>
      <trkpt lat="44.33466" lon="2.52628">
        <ele>533.5</ele>
        <time>2011-05-11T16:36:58Z</time>
      </trkpt>
      <trkpt lat="44.33462" lon="2.5263">
        <ele>533.9</ele>
        <time>2011-05-11T16:37:01Z</time>
      </trkpt>
      <trkpt lat="44.33458" lon="2.52633">
        <ele>534.4</ele>
        <time>2011-05-11T16:37:04Z</time>
      </trkpt>
      <trkpt lat="44.33455" lon="2.52636">
        <ele>534.5</ele>
        <time>2011-05-11T16:37:07Z</time>
      </trkpt>
      <trkpt lat="44.33451" lon="2.52639">
        <ele>534.9</ele>
        <time>2011-05-11T16:37:11Z</time>
      </trkpt>
      <trkpt lat="44.33448" lon="2.52643">
        <ele>535.2</ele>
        <time>2011-05-11T16:37:15Z</time>
      </trkpt>
      <trkpt lat="44.33445" lon="2.52646">
        <ele>535</ele>
        <time>2011-05-11T16:37:18Z</time>
      </trkpt>
      <trkpt lat="44.33442" lon="2.5265">
        <ele>535.4</ele>
        <time>2011-05-11T16:37:21Z</time>
      </trkpt>
      <trkpt lat="44.33438" lon="2.52653">
        <ele>535.9</ele>
        <time>2011-05-11T16:37:24Z</time>
      </trkpt>
      <trkpt lat="44.33435" lon="2.52656">
        <ele>536</ele>
        <time>2011-05-11T16:37:26Z</time>
      </trkpt>
      <trkpt lat="44.33432" lon="2.52658">
        <ele>536.2</ele>
        <time>2011-05-11T16:37:28Z</time>
      </trkpt>
      <trkpt lat="44.3343" lon="2.52661">
        <ele>536.7</ele>
        <time>2011-05-11T16:37:30Z</time>
      </trkpt>
      <trkpt lat="44.33426" lon="2.52664">
        <ele>537.4</ele>
        <time>2011-05-11T16:37:33Z</time>
      </trkpt>
      <trkpt lat="44.33425" lon="2.52665">
        <ele>537.5</ele>
        <time>2011-05-11T16:37:34Z</time>
      </trkpt>
      <trkpt lat="44.33421" lon="2.5267">
        <ele>537.5</ele>
        <time>2011-05-11T16:37:38Z</time>
      </trkpt>
      <trkpt lat="44.33418" lon="2.52673">
        <ele>537.5</ele>
        <time>2011-05-11T16:37:40Z</time>
      </trkpt>
      <trkpt lat="44.33415" lon="2.52675">
        <ele>537.5</ele>
        <time>2011-05-11T16:37:42Z</time>
      </trkpt>
      <trkpt lat="44.33413" lon="2.52678">
        <ele>537.2</ele>
        <time>2011-05-11T16:37:44Z</time>
      </trkpt>
      <trkpt lat="44.3341" lon="2.52681">
        <ele>536.7</ele>
        <time>2011-05-11T16:37:46Z</time>
      </trkpt>
      <trkpt lat="44.33407" lon="2.52683">
        <ele>536.4</ele>
        <time>2011-05-11T16:37:48Z</time>
      </trkpt>
      <trkpt lat="44.33405" lon="2.52688">
        <ele>536.2</ele>
        <time>2011-05-11T16:37:51Z</time>
      </trkpt>
      <trkpt lat="44.33402" lon="2.52693">
        <ele>536.9</ele>
        <time>2011-05-11T16:37:55Z</time>
      </trkpt>
      <trkpt lat="44.33402" lon="2.52699">
        <ele>537.9</ele>
        <time>2011-05-11T16:38:00Z</time>
      </trkpt>
      <trkpt lat="44.33405" lon="2.52703">
        <ele>538.5</ele>
        <time>2011-05-11T16:38:04Z</time>
      </trkpt>
      <trkpt lat="44.33409" lon="2.52704">
        <ele>539.5</ele>
        <time>2011-05-11T16:38:08Z</time>
      </trkpt>
      <trkpt lat="44.33413" lon="2.52704">
        <ele>540.5</ele>
        <time>2011-05-11T16:38:11Z</time>
      </trkpt>
      <trkpt lat="44.33417" lon="2.52706">
        <ele>541</ele>
        <time>2011-05-11T16:38:14Z</time>
      </trkpt>
      <trkpt lat="44.3342" lon="2.52707">
        <ele>541.7</ele>
        <time>2011-05-11T16:38:16Z</time>
      </trkpt>
      <trkpt lat="44.33423" lon="2.52708">
        <ele>542.2</ele>
        <time>2011-05-11T16:38:18Z</time>
      </trkpt>
      <trkpt lat="44.33426" lon="2.5271">
        <ele>542.7</ele>
        <time>2011-05-11T16:38:20Z</time>
      </trkpt>
      <trkpt lat="44.33429" lon="2.52712">
        <ele>543.5</ele>
        <time>2011-05-11T16:38:22Z</time>
      </trkpt>
      <trkpt lat="44.33433" lon="2.52714">
        <ele>544.4</ele>
        <time>2011-05-11T16:38:24Z</time>
      </trkpt>
      <trkpt lat="44.33436" lon="2.52716">
        <ele>545.2</ele>
        <time>2011-05-11T16:38:26Z</time>
      </trkpt>
      <trkpt lat="44.33439" lon="2.52718">
        <ele>546.2</ele>
        <time>2011-05-11T16:38:28Z</time>
      </trkpt>
      <trkpt lat="44.33442" lon="2.52721">
        <ele>547.2</ele>
        <time>2011-05-11T16:38:30Z</time>
      </trkpt>
      <trkpt lat="44.33445" lon="2.52723">
        <ele>548</ele>
        <time>2011-05-11T16:38:32Z</time>
      </trkpt>
      <trkpt lat="44.33448" lon="2.52726">
        <ele>549</ele>
        <time>2011-05-11T16:38:34Z</time>
      </trkpt>
      <trkpt lat="44.3345" lon="2.52727">
        <ele>549.4</ele>
        <time>2011-05-11T16:38:35Z</time>
      </trkpt>
      <trkpt lat="44.33453" lon="2.52732">
        <ele>550.5</ele>
        <time>2011-05-11T16:38:38Z</time>
      </trkpt>
      <trkpt lat="44.33455" lon="2.52735">
        <ele>551.2</ele>
        <time>2011-05-11T16:38:40Z</time>
      </trkpt>
      <trkpt lat="44.33457" lon="2.52739">
        <ele>551.7</ele>
        <time>2011-05-11T16:38:42Z</time>
      </trkpt>
      <trkpt lat="44.33459" lon="2.52743">
        <ele>552.2</ele>
        <time>2011-05-11T16:38:44Z</time>
      </trkpt>
      <trkpt lat="44.33461" lon="2.52747">
        <ele>552.7</ele>
        <time>2011-05-11T16:38:46Z</time>
      </trkpt>
      <trkpt lat="44.33462" lon="2.5275">
        <ele>553.2</ele>
        <time>2011-05-11T16:38:48Z</time>
      </trkpt>
      <trkpt lat="44.33463" lon="2.52756">
        <ele>553.2</ele>
        <time>2011-05-11T16:38:51Z</time>
      </trkpt>
      <trkpt lat="44.33463" lon="2.52761">
        <ele>553.5</ele>
        <time>2011-05-11T16:38:53Z</time>
      </trkpt>
      <trkpt lat="44.33463" lon="2.52765">
        <ele>554</ele>
        <time>2011-05-11T16:38:55Z</time>
      </trkpt>
      <trkpt lat="44.33463" lon="2.52771">
        <ele>554.7</ele>
        <time>2011-05-11T16:38:58Z</time>
      </trkpt>
      <trkpt lat="44.33462" lon="2.52777">
        <ele>555.5</ele>
        <time>2011-05-11T16:39:01Z</time>
      </trkpt>
      <trkpt lat="44.33461" lon="2.52783">
        <ele>556.2</ele>
        <time>2011-05-11T16:39:04Z</time>
      </trkpt>
      <trkpt lat="44.33459" lon="2.52787">
        <ele>556.4</ele>
        <time>2011-05-11T16:39:07Z</time>
      </trkpt>
      <trkpt lat="44.33457" lon="2.52792">
        <ele>556.7</ele>
        <time>2011-05-11T16:39:10Z</time>
      </trkpt>
      <trkpt lat="44.33455" lon="2.52797">
        <ele>557</ele>
        <time>2011-05-11T16:39:13Z</time>
      </trkpt>
      <trkpt lat="44.33453" lon="2.52802">
        <ele>557.5</ele>
        <time>2011-05-11T16:39:16Z</time>
      </trkpt>
      <trkpt lat="44.3345" lon="2.52807">
        <ele>558</ele>
        <time>2011-05-11T16:39:19Z</time>
      </trkpt>
      <trkpt lat="44.33448" lon="2.52812">
        <ele>558.5</ele>
        <time>2011-05-11T16:39:22Z</time>
      </trkpt>
      <trkpt lat="44.33447" lon="2.52817">
        <ele>559.2</ele>
        <time>2011-05-11T16:39:25Z</time>
      </trkpt>
      <trkpt lat="44.33444" lon="2.52821">
        <ele>560</ele>
        <time>2011-05-11T16:39:28Z</time>
      </trkpt>
      <trkpt lat="44.33442" lon="2.52826">
        <ele>560.9</ele>
        <time>2011-05-11T16:39:31Z</time>
      </trkpt>
      <trkpt lat="44.3344" lon="2.52831">
        <ele>561.7</ele>
        <time>2011-05-11T16:39:34Z</time>
      </trkpt>
      <trkpt lat="44.33438" lon="2.52836">
        <ele>562.7</ele>
        <time>2011-05-11T16:39:38Z</time>
      </trkpt>
      <trkpt lat="44.33438" lon="2.52838">
        <ele>562.9</ele>
        <time>2011-05-11T16:39:39Z</time>
      </trkpt>
      <trkpt lat="44.3343" lon="2.52838">
        <ele>565</ele>
        <time>2011-05-11T16:40:01Z</time>
      </trkpt>
      <trkpt lat="44.33427" lon="2.52839">
        <ele>565.2</ele>
        <time>2011-05-11T16:40:04Z</time>
      </trkpt>
      <trkpt lat="44.33424" lon="2.52841">
        <ele>565</ele>
        <time>2011-05-11T16:40:06Z</time>
      </trkpt>
      <trkpt lat="44.33422" lon="2.52841">
        <ele>564.7</ele>
        <time>2011-05-11T16:40:07Z</time>
      </trkpt>
      <trkpt lat="44.3342" lon="2.52842">
        <ele>564.4</ele>
        <time>2011-05-11T16:40:08Z</time>
      </trkpt>
      <trkpt lat="44.33418" lon="2.52842">
        <ele>564</ele>
        <time>2011-05-11T16:40:09Z</time>
      </trkpt>
      <trkpt lat="44.33414" lon="2.52842">
        <ele>563.5</ele>
        <time>2011-05-11T16:40:11Z</time>
      </trkpt>
      <trkpt lat="44.33412" lon="2.52838">
        <ele>562.7</ele>
        <time>2011-05-11T16:40:14Z</time>
      </trkpt>
      <trkpt lat="44.33411" lon="2.52832">
        <ele>562</ele>
        <time>2011-05-11T16:40:16Z</time>
      </trkpt>
      <trkpt lat="44.33411" lon="2.52827">
        <ele>561.4</ele>
        <time>2011-05-11T16:40:17Z</time>
      </trkpt>
      <trkpt lat="44.33411" lon="2.52821">
        <ele>560.7</ele>
        <time>2011-05-11T16:40:18Z</time>
      </trkpt>
      <trkpt lat="44.33411" lon="2.52814">
        <ele>560</ele>
        <time>2011-05-11T16:40:19Z</time>
      </trkpt>
      <trkpt lat="44.33411" lon="2.52807">
        <ele>559.2</ele>
        <time>2011-05-11T16:40:20Z</time>
      </trkpt>
      <trkpt lat="44.33411" lon="2.528">
        <ele>558.7</ele>
        <time>2011-05-11T16:40:21Z</time>
      </trkpt>
      <trkpt lat="44.3341" lon="2.52794">
        <ele>558</ele>
        <time>2011-05-11T16:40:22Z</time>
      </trkpt>
      <trkpt lat="44.3341" lon="2.52787">
        <ele>557.4</ele>
        <time>2011-05-11T16:40:23Z</time>
      </trkpt>
      <trkpt lat="44.3341" lon="2.52781">
        <ele>556.7</ele>
        <time>2011-05-11T16:40:24Z</time>
      </trkpt>
      <trkpt lat="44.33411" lon="2.52774">
        <ele>556</ele>
        <time>2011-05-11T16:40:25Z</time>
      </trkpt>
      <trkpt lat="44.33411" lon="2.52767">
        <ele>555.4</ele>
        <time>2011-05-11T16:40:26Z</time>
      </trkpt>
      <trkpt lat="44.33411" lon="2.52761">
        <ele>554.9</ele>
        <time>2011-05-11T16:40:27Z</time>
      </trkpt>
      <trkpt lat="44.3341" lon="2.52756">
        <ele>554.4</ele>
        <time>2011-05-11T16:40:28Z</time>
      </trkpt>
      <trkpt lat="44.3341" lon="2.52752">
        <ele>553.9</ele>
        <time>2011-05-11T16:40:29Z</time>
      </trkpt>
      <trkpt lat="44.33406" lon="2.52748">
        <ele>551.9</ele>
        <time>2011-05-11T16:40:32Z</time>
      </trkpt>
      <trkpt lat="44.33406" lon="2.52742">
        <ele>550.5</ele>
        <time>2011-05-11T16:40:34Z</time>
      </trkpt>
      <trkpt lat="44.33404" lon="2.52739">
        <ele>549.5</ele>
        <time>2011-05-11T16:40:35Z</time>
      </trkpt>
      <trkpt lat="44.33402" lon="2.52735">
        <ele>548.9</ele>
        <time>2011-05-11T16:40:36Z</time>
      </trkpt>
      <trkpt lat="44.33399" lon="2.52731">
        <ele>548</ele>
        <time>2011-05-11T16:40:37Z</time>
      </trkpt>
      <trkpt lat="44.33396" lon="2.52728">
        <ele>546.9</ele>
        <time>2011-05-11T16:40:38Z</time>
      </trkpt>
      <trkpt lat="44.33394" lon="2.52724">
        <ele>545</ele>
        <time>2011-05-11T16:40:39Z</time>
      </trkpt>
      <trkpt lat="44.33392" lon="2.5272">
        <ele>543.4</ele>
        <time>2011-05-11T16:40:40Z</time>
      </trkpt>
      <trkpt lat="44.33391" lon="2.52716">
        <ele>542.2</ele>
        <time>2011-05-11T16:40:41Z</time>
      </trkpt>
      <trkpt lat="44.33386" lon="2.52714">
        <ele>541.9</ele>
        <time>2011-05-11T16:40:52Z</time>
      </trkpt>
      <trkpt lat="44.33383" lon="2.52718">
        <ele>538.4</ele>
        <time>2011-05-11T16:41:32Z</time>
      </trkpt>
      <trkpt lat="44.33379" lon="2.52717">
        <ele>538.2</ele>
        <time>2011-05-11T16:41:35Z</time>
      </trkpt>
      <trkpt lat="44.33376" lon="2.52717">
        <ele>537.9</ele>
        <time>2011-05-11T16:41:36Z</time>
      </trkpt>
      <trkpt lat="44.33374" lon="2.52717">
        <ele>537.4</ele>
        <time>2011-05-11T16:41:37Z</time>
      </trkpt>
      <trkpt lat="44.3337" lon="2.52717">
        <ele>537</ele>
        <time>2011-05-11T16:41:38Z</time>
      </trkpt>
      <trkpt lat="44.33366" lon="2.52718">
        <ele>536.5</ele>
        <time>2011-05-11T16:41:39Z</time>
      </trkpt>
      <trkpt lat="44.33361" lon="2.52719">
        <ele>536</ele>
        <time>2011-05-11T16:41:40Z</time>
      </trkpt>
      <trkpt lat="44.33356" lon="2.5272">
        <ele>535.4</ele>
        <time>2011-05-11T16:41:41Z</time>
      </trkpt>
      <trkpt lat="44.3335" lon="2.52722">
        <ele>534.5</ele>
        <time>2011-05-11T16:41:42Z</time>
      </trkpt>
      <trkpt lat="44.33343" lon="2.52725">
        <ele>533.4</ele>
        <time>2011-05-11T16:41:43Z</time>
      </trkpt>
      <trkpt lat="44.33336" lon="2.52728">
        <ele>532.2</ele>
        <time>2011-05-11T16:41:44Z</time>
      </trkpt>
      <trkpt lat="44.33328" lon="2.52733">
        <ele>531</ele>
        <time>2011-05-11T16:41:45Z</time>
      </trkpt>
      <trkpt lat="44.3332" lon="2.52738">
        <ele>529.5</ele>
        <time>2011-05-11T16:41:46Z</time>
      </trkpt>
      <trkpt lat="44.33313" lon="2.52745">
        <ele>528</ele>
        <time>2011-05-11T16:41:47Z</time>
      </trkpt>
      <trkpt lat="44.33305" lon="2.52752">
        <ele>526.5</ele>
        <time>2011-05-11T16:41:48Z</time>
      </trkpt>
      <trkpt lat="44.33298" lon="2.52759">
        <ele>525</ele>
        <time>2011-05-11T16:41:49Z</time>
      </trkpt>
      <trkpt lat="44.3329" lon="2.52765">
        <ele>523.7</ele>
        <time>2011-05-11T16:41:50Z</time>
      </trkpt>
      <trkpt lat="44.33282" lon="2.52771">
        <ele>522.4</ele>
        <time>2011-05-11T16:41:51Z</time>
      </trkpt>
      <trkpt lat="44.33275" lon="2.52778">
        <ele>520.9</ele>
        <time>2011-05-11T16:41:52Z</time>
      </trkpt>
      <trkpt lat="44.33268" lon="2.52785">
        <ele>519.4</ele>
        <time>2011-05-11T16:41:53Z</time>
      </trkpt>
      <trkpt lat="44.33261" lon="2.52791">
        <ele>518</ele>
        <time>2011-05-11T16:41:54Z</time>
      </trkpt>
      <trkpt lat="44.33253" lon="2.52796">
        <ele>517</ele>
        <time>2011-05-11T16:41:55Z</time>
      </trkpt>
      <trkpt lat="44.33246" lon="2.52802">
        <ele>515.9</ele>
        <time>2011-05-11T16:41:56Z</time>
      </trkpt>
      <trkpt lat="44.33239" lon="2.52808">
        <ele>514.7</ele>
        <time>2011-05-11T16:41:57Z</time>
      </trkpt>
      <trkpt lat="44.33231" lon="2.52814">
        <ele>513.2</ele>
        <time>2011-05-11T16:41:58Z</time>
      </trkpt>
      <trkpt lat="44.33223" lon="2.52821">
        <ele>512</ele>
        <time>2011-05-11T16:41:59Z</time>
      </trkpt>
      <trkpt lat="44.33216" lon="2.52827">
        <ele>510.8</ele>
        <time>2011-05-11T16:42:00Z</time>
      </trkpt>
      <trkpt lat="44.33208" lon="2.52833">
        <ele>509.8</ele>
        <time>2011-05-11T16:42:01Z</time>
      </trkpt>
      <trkpt lat="44.33203" lon="2.52838">
        <ele>508.3</ele>
        <time>2011-05-11T16:42:02Z</time>
      </trkpt>
      <trkpt lat="44.33199" lon="2.52839">
        <ele>506.8</ele>
        <time>2011-05-11T16:42:03Z</time>
      </trkpt>
      <trkpt lat="44.33197" lon="2.52837">
        <ele>505.6</ele>
        <time>2011-05-11T16:42:04Z</time>
      </trkpt>
      <trkpt lat="44.33196" lon="2.52834">
        <ele>504.7</ele>
        <time>2011-05-11T16:42:05Z</time>
      </trkpt>
      <trkpt lat="44.33196" lon="2.52828">
        <ele>504.2</ele>
        <time>2011-05-11T16:42:06Z</time>
      </trkpt>
      <trkpt lat="44.33197" lon="2.52822">
        <ele>503.6</ele>
        <time>2011-05-11T16:42:07Z</time>
      </trkpt>
      <trkpt lat="44.33197" lon="2.52816">
        <ele>503</ele>
        <time>2011-05-11T16:42:08Z</time>
      </trkpt>
      <trkpt lat="44.33198" lon="2.5281">
        <ele>502.6</ele>
        <time>2011-05-11T16:42:09Z</time>
      </trkpt>
      <trkpt lat="44.332" lon="2.52805">
        <ele>502.2</ele>
        <time>2011-05-11T16:42:10Z</time>
      </trkpt>
      <trkpt lat="44.33201" lon="2.52801">
        <ele>502</ele>
        <time>2011-05-11T16:42:11Z</time>
      </trkpt>
      <trkpt lat="44.33202" lon="2.52797">
        <ele>501.6</ele>
        <time>2011-05-11T16:42:12Z</time>
      </trkpt>
      <trkpt lat="44.33202" lon="2.52793">
        <ele>501.2</ele>
        <time>2011-05-11T16:42:13Z</time>
      </trkpt>
      <trkpt lat="44.33202" lon="2.52788">
        <ele>500.7</ele>
        <time>2011-05-11T16:42:15Z</time>
      </trkpt>
      <trkpt lat="44.33202" lon="2.52782">
        <ele>501.6</ele>
        <time>2011-05-11T16:42:18Z</time>
      </trkpt>
      <trkpt lat="44.332" lon="2.52777">
        <ele>503.5</ele>
        <time>2011-05-11T16:42:21Z</time>
      </trkpt>
      <trkpt lat="44.33198" lon="2.52772">
        <ele>504.5</ele>
        <time>2011-05-11T16:42:24Z</time>
      </trkpt>
      <trkpt lat="44.33197" lon="2.52766">
        <ele>505.5</ele>
        <time>2011-05-11T16:42:27Z</time>
      </trkpt>
      <trkpt lat="44.33196" lon="2.52761">
        <ele>505.8</ele>
        <time>2011-05-11T16:42:30Z</time>
      </trkpt>
      <trkpt lat="44.33194" lon="2.52757">
        <ele>506.2</ele>
        <time>2011-05-11T16:42:32Z</time>
      </trkpt>
      <trkpt lat="44.33191" lon="2.52755">
        <ele>506.6</ele>
        <time>2011-05-11T16:42:34Z</time>
      </trkpt>
      <trkpt lat="44.33188" lon="2.52753">
        <ele>507.3</ele>
        <time>2011-05-11T16:42:36Z</time>
      </trkpt>
      <trkpt lat="44.33185" lon="2.5275">
        <ele>507.8</ele>
        <time>2011-05-11T16:42:38Z</time>
      </trkpt>
      <trkpt lat="44.33181" lon="2.52747">
        <ele>508.2</ele>
        <time>2011-05-11T16:42:40Z</time>
      </trkpt>
      <trkpt lat="44.33178" lon="2.52744">
        <ele>508.7</ele>
        <time>2011-05-11T16:42:42Z</time>
      </trkpt>
      <trkpt lat="44.33177" lon="2.52742">
        <ele>509</ele>
        <time>2011-05-11T16:42:43Z</time>
      </trkpt>
      <trkpt lat="44.33172" lon="2.52739">
        <ele>509.6</ele>
        <time>2011-05-11T16:42:46Z</time>
      </trkpt>
      <trkpt lat="44.33168" lon="2.52738">
        <ele>510.2</ele>
        <time>2011-05-11T16:42:48Z</time>
      </trkpt>
      <trkpt lat="44.33164" lon="2.52737">
        <ele>511</ele>
        <time>2011-05-11T16:42:50Z</time>
      </trkpt>
      <trkpt lat="44.33161" lon="2.52735">
        <ele>511.7</ele>
        <time>2011-05-11T16:42:52Z</time>
      </trkpt>
      <trkpt lat="44.33157" lon="2.52735">
        <ele>512.4</ele>
        <time>2011-05-11T16:42:55Z</time>
      </trkpt>
      <trkpt lat="44.33153" lon="2.52734">
        <ele>512.7</ele>
        <time>2011-05-11T16:42:58Z</time>
      </trkpt>
      <trkpt lat="44.3315" lon="2.52735">
        <ele>512.9</ele>
        <time>2011-05-11T16:43:01Z</time>
      </trkpt>
      <trkpt lat="44.33146" lon="2.52735">
        <ele>512.9</ele>
        <time>2011-05-11T16:43:04Z</time>
      </trkpt>
      <trkpt lat="44.33142" lon="2.52736">
        <ele>513.2</ele>
        <time>2011-05-11T16:43:08Z</time>
      </trkpt>
      <trkpt lat="44.33139" lon="2.52738">
        <ele>513.5</ele>
        <time>2011-05-11T16:43:12Z</time>
      </trkpt>
      <trkpt lat="44.33135" lon="2.52739">
        <ele>514.7</ele>
        <time>2011-05-11T16:43:16Z</time>
      </trkpt>
      <trkpt lat="44.33131" lon="2.52741">
        <ele>515.7</ele>
        <time>2011-05-11T16:43:20Z</time>
      </trkpt>
      <trkpt lat="44.33127" lon="2.52743">
        <ele>517</ele>
        <time>2011-05-11T16:43:24Z</time>
      </trkpt>
      <trkpt lat="44.33123" lon="2.52744">
        <ele>518</ele>
        <time>2011-05-11T16:43:27Z</time>
      </trkpt>
      <trkpt lat="44.3312" lon="2.52748">
        <ele>519.2</ele>
        <time>2011-05-11T16:43:30Z</time>
      </trkpt>
      <trkpt lat="44.33116" lon="2.52751">
        <ele>519.7</ele>
        <time>2011-05-11T16:43:33Z</time>
      </trkpt>
      <trkpt lat="44.33112" lon="2.52753">
        <ele>520.2</ele>
        <time>2011-05-11T16:43:36Z</time>
      </trkpt>
      <trkpt lat="44.33109" lon="2.52756">
        <ele>520.2</ele>
        <time>2011-05-11T16:43:40Z</time>
      </trkpt>
      <trkpt lat="44.33105" lon="2.52759">
        <ele>521.5</ele>
        <time>2011-05-11T16:43:46Z</time>
      </trkpt>
      <trkpt lat="44.33105" lon="2.5276">
        <ele>521.9</ele>
        <time>2011-05-11T16:43:47Z</time>
      </trkpt>
      <trkpt lat="44.33098" lon="2.52766">
        <ele>528</ele>
        <time>2011-05-11T16:44:04Z</time>
      </trkpt>
      <trkpt lat="44.33095" lon="2.52769">
        <ele>531</ele>
        <time>2011-05-11T16:44:28Z</time>
      </trkpt>
      <trkpt lat="44.33091" lon="2.52766">
        <ele>542.7</ele>
        <time>2011-05-11T16:45:07Z</time>
      </trkpt>
      <trkpt lat="44.33091" lon="2.52766">
        <ele>542.9</ele>
        <time>2011-05-11T16:45:08Z</time>
      </trkpt>
      <trkpt lat="44.33088" lon="2.52758">
        <ele>542.7</ele>
        <time>2011-05-11T16:45:26Z</time>
      </trkpt>
      <trkpt lat="44.33091" lon="2.52754">
        <ele>542.5</ele>
        <time>2011-05-11T16:45:29Z</time>
      </trkpt>
      <trkpt lat="44.33094" lon="2.52749">
        <ele>542.2</ele>
        <time>2011-05-11T16:45:33Z</time>
      </trkpt>
      <trkpt lat="44.33096" lon="2.52744">
        <ele>542.7</ele>
        <time>2011-05-11T16:45:37Z</time>
      </trkpt>
      <trkpt lat="44.33097" lon="2.52739">
        <ele>543.5</ele>
        <time>2011-05-11T16:45:41Z</time>
      </trkpt>
      <trkpt lat="44.33098" lon="2.52734">
        <ele>544.7</ele>
        <time>2011-05-11T16:45:44Z</time>
      </trkpt>
      <trkpt lat="44.33101" lon="2.52729">
        <ele>544.9</ele>
        <time>2011-05-11T16:45:50Z</time>
      </trkpt>
      <trkpt lat="44.33104" lon="2.52724">
        <ele>541.9</ele>
        <time>2011-05-11T16:46:04Z</time>
      </trkpt>
      <trkpt lat="44.33105" lon="2.5272">
        <ele>541.2</ele>
        <time>2011-05-11T16:46:10Z</time>
      </trkpt>
      <trkpt lat="44.33105" lon="2.52718">
        <ele>541.5</ele>
        <time>2011-05-11T16:46:11Z</time>
      </trkpt>
      <trkpt lat="44.33106" lon="2.52708">
        <ele>542</ele>
        <time>2011-05-11T16:46:18Z</time>
      </trkpt>
      <trkpt lat="44.33106" lon="2.52702">
        <ele>543.2</ele>
        <time>2011-05-11T16:46:23Z</time>
      </trkpt>
      <trkpt lat="44.33106" lon="2.52696">
        <ele>543.7</ele>
        <time>2011-05-11T16:46:34Z</time>
      </trkpt>
      <trkpt lat="44.33107" lon="2.5269">
        <ele>543.5</ele>
        <time>2011-05-11T16:46:47Z</time>
      </trkpt>
      <trkpt lat="44.33111" lon="2.52688">
        <ele>538.5</ele>
        <time>2011-05-11T16:47:16Z</time>
      </trkpt>
      <trkpt lat="44.33112" lon="2.52688">
        <ele>538.5</ele>
        <time>2011-05-11T16:47:17Z</time>
      </trkpt>
      <trkpt lat="44.33109" lon="2.52678">
        <ele>545.2</ele>
        <time>2011-05-11T16:48:07Z</time>
      </trkpt>
      <trkpt lat="44.3311" lon="2.52673">
        <ele>546.4</ele>
        <time>2011-05-11T16:48:15Z</time>
      </trkpt>
      <trkpt lat="44.33111" lon="2.52668">
        <ele>547.7</ele>
        <time>2011-05-11T16:48:24Z</time>
      </trkpt>
      <trkpt lat="44.33112" lon="2.52667">
        <ele>547.7</ele>
        <time>2011-05-11T16:48:25Z</time>
      </trkpt>
      <trkpt lat="44.33114" lon="2.52656">
        <ele>550.7</ele>
        <time>2011-05-11T16:48:34Z</time>
      </trkpt>
      <trkpt lat="44.33115" lon="2.52651">
        <ele>552</ele>
        <time>2011-05-11T16:48:39Z</time>
      </trkpt>
      <trkpt lat="44.33117" lon="2.52646">
        <ele>553.7</ele>
        <time>2011-05-11T16:48:45Z</time>
      </trkpt>
      <trkpt lat="44.33118" lon="2.5264">
        <ele>554.9</ele>
        <time>2011-05-11T16:48:51Z</time>
      </trkpt>
      <trkpt lat="44.33119" lon="2.52634">
        <ele>555.5</ele>
        <time>2011-05-11T16:48:56Z</time>
      </trkpt>
      <trkpt lat="44.33119" lon="2.52628">
        <ele>556.7</ele>
        <time>2011-05-11T16:49:02Z</time>
      </trkpt>
      <trkpt lat="44.3312" lon="2.52622">
        <ele>557.7</ele>
        <time>2011-05-11T16:49:07Z</time>
      </trkpt>
      <trkpt lat="44.33121" lon="2.52617">
        <ele>559</ele>
        <time>2011-05-11T16:49:11Z</time>
      </trkpt>
      <trkpt lat="44.33121" lon="2.52611">
        <ele>559</ele>
        <time>2011-05-11T16:49:16Z</time>
      </trkpt>
      <trkpt lat="44.33122" lon="2.52606">
        <ele>559.5</ele>
        <time>2011-05-11T16:49:21Z</time>
      </trkpt>
      <trkpt lat="44.33122" lon="2.526">
        <ele>560.5</ele>
        <time>2011-05-11T16:49:26Z</time>
      </trkpt>
      <trkpt lat="44.33121" lon="2.52599">
        <ele>560.7</ele>
        <time>2011-05-11T16:49:27Z</time>
      </trkpt>
      <trkpt lat="44.3312" lon="2.52589">
        <ele>561</ele>
        <time>2011-05-11T16:49:44Z</time>
      </trkpt>
      <trkpt lat="44.33118" lon="2.52584">
        <ele>559.2</ele>
        <time>2011-05-11T16:50:04Z</time>
      </trkpt>
      <trkpt lat="44.33116" lon="2.5258">
        <ele>558.5</ele>
        <time>2011-05-11T16:50:07Z</time>
      </trkpt>
      <trkpt lat="44.33114" lon="2.52576">
        <ele>558.4</ele>
        <time>2011-05-11T16:50:10Z</time>
      </trkpt>
      <trkpt lat="44.33111" lon="2.52573">
        <ele>558.5</ele>
        <time>2011-05-11T16:50:13Z</time>
      </trkpt>
      <trkpt lat="44.33108" lon="2.5257">
        <ele>558.5</ele>
        <time>2011-05-11T16:50:16Z</time>
      </trkpt>
      <trkpt lat="44.33105" lon="2.52567">
        <ele>558</ele>
        <time>2011-05-11T16:50:19Z</time>
      </trkpt>
      <trkpt lat="44.33102" lon="2.52564">
        <ele>558</ele>
        <time>2011-05-11T16:50:22Z</time>
      </trkpt>
      <trkpt lat="44.33099" lon="2.52562">
        <ele>557.7</ele>
        <time>2011-05-11T16:50:26Z</time>
      </trkpt>
      <trkpt lat="44.33096" lon="2.52558">
        <ele>557.9</ele>
        <time>2011-05-11T16:50:30Z</time>
      </trkpt>
      <trkpt lat="44.33095" lon="2.52558">
        <ele>558</ele>
        <time>2011-05-11T16:50:31Z</time>
      </trkpt>
      <trkpt lat="44.33089" lon="2.52552">
        <ele>559</ele>
        <time>2011-05-11T16:50:38Z</time>
      </trkpt>
      <trkpt lat="44.33086" lon="2.52549">
        <ele>559.5</ele>
        <time>2011-05-11T16:50:42Z</time>
      </trkpt>
      <trkpt lat="44.33082" lon="2.52547">
        <ele>560.2</ele>
        <time>2011-05-11T16:50:46Z</time>
      </trkpt>
      <trkpt lat="44.33079" lon="2.52544">
        <ele>560.4</ele>
        <time>2011-05-11T16:50:50Z</time>
      </trkpt>
      <trkpt lat="44.33075" lon="2.52542">
        <ele>560.4</ele>
        <time>2011-05-11T16:50:54Z</time>
      </trkpt>
      <trkpt lat="44.3307" lon="2.52541">
        <ele>560.5</ele>
        <time>2011-05-11T16:50:58Z</time>
      </trkpt>
      <trkpt lat="44.33067" lon="2.52538">
        <ele>560.7</ele>
        <time>2011-05-11T16:51:01Z</time>
      </trkpt>
      <trkpt lat="44.33064" lon="2.52536">
        <ele>561</ele>
        <time>2011-05-11T16:51:04Z</time>
      </trkpt>
      <trkpt lat="44.33059" lon="2.52535">
        <ele>561.2</ele>
        <time>2011-05-11T16:51:07Z</time>
      </trkpt>
      <trkpt lat="44.33056" lon="2.52534">
        <ele>561.9</ele>
        <time>2011-05-11T16:51:10Z</time>
      </trkpt>
      <trkpt lat="44.33052" lon="2.52533">
        <ele>562.7</ele>
        <time>2011-05-11T16:51:13Z</time>
      </trkpt>
      <trkpt lat="44.33048" lon="2.52532">
        <ele>563.5</ele>
        <time>2011-05-11T16:51:16Z</time>
      </trkpt>
      <trkpt lat="44.33045" lon="2.52531">
        <ele>564</ele>
        <time>2011-05-11T16:51:19Z</time>
      </trkpt>
      <trkpt lat="44.33041" lon="2.5253">
        <ele>564.5</ele>
        <time>2011-05-11T16:51:22Z</time>
      </trkpt>
      <trkpt lat="44.33038" lon="2.52527">
        <ele>565</ele>
        <time>2011-05-11T16:51:25Z</time>
      </trkpt>
      <trkpt lat="44.33034" lon="2.52525">
        <ele>565.4</ele>
        <time>2011-05-11T16:51:28Z</time>
      </trkpt>
      <trkpt lat="44.3303" lon="2.52523">
        <ele>565.7</ele>
        <time>2011-05-11T16:51:31Z</time>
      </trkpt>
      <trkpt lat="44.33029" lon="2.52522">
        <ele>566</ele>
        <time>2011-05-11T16:51:32Z</time>
      </trkpt>
      <trkpt lat="44.33023" lon="2.52517">
        <ele>567</ele>
        <time>2011-05-11T16:51:37Z</time>
      </trkpt>
      <trkpt lat="44.3302" lon="2.52515">
        <ele>567.4</ele>
        <time>2011-05-11T16:51:40Z</time>
      </trkpt>
      <trkpt lat="44.33016" lon="2.52511">
        <ele>567.9</ele>
        <time>2011-05-11T16:51:44Z</time>
      </trkpt>
      <trkpt lat="44.33015" lon="2.52506">
        <ele>568.2</ele>
        <time>2011-05-11T16:51:47Z</time>
      </trkpt>
      <trkpt lat="44.33012" lon="2.52503">
        <ele>568.5</ele>
        <time>2011-05-11T16:51:50Z</time>
      </trkpt>
      <trkpt lat="44.33009" lon="2.52498">
        <ele>569.2</ele>
        <time>2011-05-11T16:51:53Z</time>
      </trkpt>
      <trkpt lat="44.33007" lon="2.52494">
        <ele>569.7</ele>
        <time>2011-05-11T16:51:56Z</time>
      </trkpt>
      <trkpt lat="44.33006" lon="2.52488">
        <ele>570</ele>
        <time>2011-05-11T16:51:59Z</time>
      </trkpt>
      <trkpt lat="44.33004" lon="2.52485">
        <ele>570.2</ele>
        <time>2011-05-11T16:52:01Z</time>
      </trkpt>
      <trkpt lat="44.33003" lon="2.52481">
        <ele>570.4</ele>
        <time>2011-05-11T16:52:03Z</time>
      </trkpt>
      <trkpt lat="44.33002" lon="2.52475">
        <ele>570.7</ele>
        <time>2011-05-11T16:52:06Z</time>
      </trkpt>
      <trkpt lat="44.33001" lon="2.52469">
        <ele>571</ele>
        <time>2011-05-11T16:52:09Z</time>
      </trkpt>
      <trkpt lat="44.33" lon="2.52465">
        <ele>571.5</ele>
        <time>2011-05-11T16:52:11Z</time>
      </trkpt>
      <trkpt lat="44.32999" lon="2.52459">
        <ele>572</ele>
        <time>2011-05-11T16:52:14Z</time>
      </trkpt>
      <trkpt lat="44.32999" lon="2.52453">
        <ele>572.4</ele>
        <time>2011-05-11T16:52:17Z</time>
      </trkpt>
      <trkpt lat="44.32998" lon="2.52449">
        <ele>572.7</ele>
        <time>2011-05-11T16:52:19Z</time>
      </trkpt>
      <trkpt lat="44.32998" lon="2.52445">
        <ele>573</ele>
        <time>2011-05-11T16:52:21Z</time>
      </trkpt>
      <trkpt lat="44.32997" lon="2.52439">
        <ele>573.7</ele>
        <time>2011-05-11T16:52:24Z</time>
      </trkpt>
      <trkpt lat="44.32996" lon="2.52435">
        <ele>574</ele>
        <time>2011-05-11T16:52:26Z</time>
      </trkpt>
      <trkpt lat="44.32995" lon="2.52429">
        <ele>574.7</ele>
        <time>2011-05-11T16:52:29Z</time>
      </trkpt>
      <trkpt lat="44.32995" lon="2.52423">
        <ele>575.2</ele>
        <time>2011-05-11T16:52:32Z</time>
      </trkpt>
      <trkpt lat="44.32994" lon="2.52421">
        <ele>575.5</ele>
        <time>2011-05-11T16:52:33Z</time>
      </trkpt>
      <trkpt lat="44.32994" lon="2.52411">
        <ele>576.4</ele>
        <time>2011-05-11T16:52:38Z</time>
      </trkpt>
      <trkpt lat="44.32993" lon="2.52405">
        <ele>576.9</ele>
        <time>2011-05-11T16:52:41Z</time>
      </trkpt>
      <trkpt lat="44.32993" lon="2.52399">
        <ele>577.2</ele>
        <time>2011-05-11T16:52:44Z</time>
      </trkpt>
      <trkpt lat="44.32992" lon="2.52393">
        <ele>577.7</ele>
        <time>2011-05-11T16:52:47Z</time>
      </trkpt>
      <trkpt lat="44.32991" lon="2.52387">
        <ele>578.2</ele>
        <time>2011-05-11T16:52:50Z</time>
      </trkpt>
      <trkpt lat="44.32991" lon="2.52382">
        <ele>578.5</ele>
        <time>2011-05-11T16:52:52Z</time>
      </trkpt>
      <trkpt lat="44.3299" lon="2.52378">
        <ele>578.9</ele>
        <time>2011-05-11T16:52:54Z</time>
      </trkpt>
      <trkpt lat="44.3299" lon="2.52373">
        <ele>579.2</ele>
        <time>2011-05-11T16:52:56Z</time>
      </trkpt>
      <trkpt lat="44.3299" lon="2.52368">
        <ele>579.5</ele>
        <time>2011-05-11T16:52:58Z</time>
      </trkpt>
      <trkpt lat="44.3299" lon="2.52363">
        <ele>580</ele>
        <time>2011-05-11T16:53:00Z</time>
      </trkpt>
      <trkpt lat="44.32992" lon="2.52359">
        <ele>580.4</ele>
        <time>2011-05-11T16:53:02Z</time>
      </trkpt>
      <trkpt lat="44.32994" lon="2.52355">
        <ele>580.7</ele>
        <time>2011-05-11T16:53:04Z</time>
      </trkpt>
      <trkpt lat="44.32996" lon="2.52351">
        <ele>581</ele>
        <time>2011-05-11T16:53:06Z</time>
      </trkpt>
      <trkpt lat="44.32998" lon="2.52347">
        <ele>581.5</ele>
        <time>2011-05-11T16:53:08Z</time>
      </trkpt>
      <trkpt lat="44.32999" lon="2.52343">
        <ele>581.7</ele>
        <time>2011-05-11T16:53:10Z</time>
      </trkpt>
      <trkpt lat="44.33" lon="2.52339">
        <ele>582.2</ele>
        <time>2011-05-11T16:53:12Z</time>
      </trkpt>
      <trkpt lat="44.33002" lon="2.52335">
        <ele>582.7</ele>
        <time>2011-05-11T16:53:14Z</time>
      </trkpt>
      <trkpt lat="44.33002" lon="2.5233">
        <ele>583</ele>
        <time>2011-05-11T16:53:16Z</time>
      </trkpt>
      <trkpt lat="44.33002" lon="2.52326">
        <ele>583.4</ele>
        <time>2011-05-11T16:53:18Z</time>
      </trkpt>
      <trkpt lat="44.33001" lon="2.5232">
        <ele>583.9</ele>
        <time>2011-05-11T16:53:21Z</time>
      </trkpt>
      <trkpt lat="44.32998" lon="2.52315">
        <ele>584.4</ele>
        <time>2011-05-11T16:53:24Z</time>
      </trkpt>
      <trkpt lat="44.32996" lon="2.52311">
        <ele>584.5</ele>
        <time>2011-05-11T16:53:27Z</time>
      </trkpt>
      <trkpt lat="44.32993" lon="2.52306">
        <ele>584.7</ele>
        <time>2011-05-11T16:53:30Z</time>
      </trkpt>
      <trkpt lat="44.32992" lon="2.52302">
        <ele>585.4</ele>
        <time>2011-05-11T16:53:33Z</time>
      </trkpt>
      <trkpt lat="44.32991" lon="2.523">
        <ele>585.5</ele>
        <time>2011-05-11T16:53:34Z</time>
      </trkpt>
      <trkpt lat="44.32989" lon="2.52291">
        <ele>586.7</ele>
        <time>2011-05-11T16:53:39Z</time>
      </trkpt>
      <trkpt lat="44.3299" lon="2.52285">
        <ele>587</ele>
        <time>2011-05-11T16:53:42Z</time>
      </trkpt>
      <trkpt lat="44.32991" lon="2.52281">
        <ele>587.2</ele>
        <time>2011-05-11T16:53:44Z</time>
      </trkpt>
      <trkpt lat="44.32992" lon="2.52276">
        <ele>587.2</ele>
        <time>2011-05-11T16:53:46Z</time>
      </trkpt>
      <trkpt lat="44.32993" lon="2.52272">
        <ele>587.2</ele>
        <time>2011-05-11T16:53:48Z</time>
      </trkpt>
      <trkpt lat="44.32994" lon="2.52268">
        <ele>587.2</ele>
        <time>2011-05-11T16:53:50Z</time>
      </trkpt>
      <trkpt lat="44.32996" lon="2.52264">
        <ele>587</ele>
        <time>2011-05-11T16:53:52Z</time>
      </trkpt>
      <trkpt lat="44.32997" lon="2.5226">
        <ele>587</ele>
        <time>2011-05-11T16:53:54Z</time>
      </trkpt>
      <trkpt lat="44.32998" lon="2.52256">
        <ele>586.4</ele>
        <time>2011-05-11T16:53:56Z</time>
      </trkpt>
      <trkpt lat="44.32999" lon="2.52252">
        <ele>585.5</ele>
        <time>2011-05-11T16:53:58Z</time>
      </trkpt>
      <trkpt lat="44.33001" lon="2.52248">
        <ele>585</ele>
        <time>2011-05-11T16:54:00Z</time>
      </trkpt>
      <trkpt lat="44.33002" lon="2.52243">
        <ele>584.9</ele>
        <time>2011-05-11T16:54:02Z</time>
      </trkpt>
      <trkpt lat="44.33004" lon="2.52238">
        <ele>584.9</ele>
        <time>2011-05-11T16:54:04Z</time>
      </trkpt>
      <trkpt lat="44.33005" lon="2.52233">
        <ele>585.2</ele>
        <time>2011-05-11T16:54:06Z</time>
      </trkpt>
      <trkpt lat="44.33007" lon="2.52228">
        <ele>585.4</ele>
        <time>2011-05-11T16:54:08Z</time>
      </trkpt>
      <trkpt lat="44.33009" lon="2.52223">
        <ele>585.7</ele>
        <time>2011-05-11T16:54:10Z</time>
      </trkpt>
      <trkpt lat="44.33011" lon="2.52217">
        <ele>586</ele>
        <time>2011-05-11T16:54:12Z</time>
      </trkpt>
      <trkpt lat="44.33013" lon="2.52212">
        <ele>586.2</ele>
        <time>2011-05-11T16:54:14Z</time>
      </trkpt>
      <trkpt lat="44.33015" lon="2.52207">
        <ele>586.2</ele>
        <time>2011-05-11T16:54:16Z</time>
      </trkpt>
      <trkpt lat="44.33017" lon="2.52202">
        <ele>586.2</ele>
        <time>2011-05-11T16:54:18Z</time>
      </trkpt>
      <trkpt lat="44.33019" lon="2.52197">
        <ele>586.5</ele>
        <time>2011-05-11T16:54:20Z</time>
      </trkpt>
      <trkpt lat="44.33022" lon="2.52191">
        <ele>586.7</ele>
        <time>2011-05-11T16:54:22Z</time>
      </trkpt>
      <trkpt lat="44.33023" lon="2.52189">
        <ele>586.7</ele>
        <time>2011-05-11T16:54:23Z</time>
      </trkpt>
      <trkpt lat="44.33024" lon="2.52186">
        <ele>586.7</ele>
        <time>2011-05-11T16:54:24Z</time>
      </trkpt>
      <trkpt lat="44.33026" lon="2.52183">
        <ele>586.9</ele>
        <time>2011-05-11T16:54:25Z</time>
      </trkpt>
      <trkpt lat="44.33027" lon="2.5218">
        <ele>587</ele>
        <time>2011-05-11T16:54:26Z</time>
      </trkpt>
      <trkpt lat="44.33028" lon="2.52177">
        <ele>587</ele>
        <time>2011-05-11T16:54:27Z</time>
      </trkpt>
      <trkpt lat="44.3303" lon="2.52174">
        <ele>587</ele>
        <time>2011-05-11T16:54:28Z</time>
      </trkpt>
      <trkpt lat="44.33031" lon="2.52171">
        <ele>587.2</ele>
        <time>2011-05-11T16:54:29Z</time>
      </trkpt>
      <trkpt lat="44.33032" lon="2.52169">
        <ele>587.4</ele>
        <time>2011-05-11T16:54:30Z</time>
      </trkpt>
      <trkpt lat="44.33034" lon="2.52166">
        <ele>587.5</ele>
        <time>2011-05-11T16:54:31Z</time>
      </trkpt>
      <trkpt lat="44.33035" lon="2.52163">
        <ele>587.7</ele>
        <time>2011-05-11T16:54:32Z</time>
      </trkpt>
      <trkpt lat="44.33036" lon="2.5216">
        <ele>587.7</ele>
        <time>2011-05-11T16:54:33Z</time>
      </trkpt>
      <trkpt lat="44.33037" lon="2.52157">
        <ele>587.9</ele>
        <time>2011-05-11T16:54:34Z</time>
      </trkpt>
      <trkpt lat="44.33038" lon="2.52154">
        <ele>588</ele>
        <time>2011-05-11T16:54:35Z</time>
      </trkpt>
      <trkpt lat="44.3304" lon="2.52151">
        <ele>588</ele>
        <time>2011-05-11T16:54:36Z</time>
      </trkpt>
      <trkpt lat="44.33041" lon="2.52148">
        <ele>588.2</ele>
        <time>2011-05-11T16:54:37Z</time>
      </trkpt>
      <trkpt lat="44.33042" lon="2.52145">
        <ele>588.2</ele>
        <time>2011-05-11T16:54:38Z</time>
      </trkpt>
      <trkpt lat="44.33043" lon="2.52142">
        <ele>588.2</ele>
        <time>2011-05-11T16:54:39Z</time>
      </trkpt>
      <trkpt lat="44.33044" lon="2.52139">
        <ele>588.2</ele>
        <time>2011-05-11T16:54:40Z</time>
      </trkpt>
      <trkpt lat="44.33045" lon="2.52136">
        <ele>588.4</ele>
        <time>2011-05-11T16:54:41Z</time>
      </trkpt>
      <trkpt lat="44.33046" lon="2.52133">
        <ele>588.4</ele>
        <time>2011-05-11T16:54:42Z</time>
      </trkpt>
      <trkpt lat="44.33047" lon="2.5213">
        <ele>588.5</ele>
        <time>2011-05-11T16:54:43Z</time>
      </trkpt>
      <trkpt lat="44.33048" lon="2.52127">
        <ele>588.5</ele>
        <time>2011-05-11T16:54:44Z</time>
      </trkpt>
      <trkpt lat="44.33049" lon="2.52121">
        <ele>589</ele>
        <time>2011-05-11T16:54:46Z</time>
      </trkpt>
      <trkpt lat="44.33051" lon="2.52116">
        <ele>589</ele>
        <time>2011-05-11T16:54:48Z</time>
      </trkpt>
      <trkpt lat="44.33053" lon="2.52112">
        <ele>589</ele>
        <time>2011-05-11T16:54:50Z</time>
      </trkpt>
      <trkpt lat="44.33055" lon="2.52107">
        <ele>589.2</ele>
        <time>2011-05-11T16:54:52Z</time>
      </trkpt>
      <trkpt lat="44.33058" lon="2.52102">
        <ele>589.5</ele>
        <time>2011-05-11T16:54:55Z</time>
      </trkpt>
      <trkpt lat="44.33061" lon="2.52099">
        <ele>589.4</ele>
        <time>2011-05-11T16:54:58Z</time>
      </trkpt>
      <trkpt lat="44.33064" lon="2.52097">
        <ele>589.5</ele>
        <time>2011-05-11T16:55:00Z</time>
      </trkpt>
      <trkpt lat="44.33067" lon="2.52094">
        <ele>589.7</ele>
        <time>2011-05-11T16:55:02Z</time>
      </trkpt>
      <trkpt lat="44.33071" lon="2.52091">
        <ele>590</ele>
        <time>2011-05-11T16:55:05Z</time>
      </trkpt>
      <trkpt lat="44.33073" lon="2.52089">
        <ele>590.4</ele>
        <time>2011-05-11T16:55:07Z</time>
      </trkpt>
      <trkpt lat="44.33076" lon="2.52087">
        <ele>591.2</ele>
        <time>2011-05-11T16:55:09Z</time>
      </trkpt>
      <trkpt lat="44.3308" lon="2.52085">
        <ele>592.4</ele>
        <time>2011-05-11T16:55:12Z</time>
      </trkpt>
      <trkpt lat="44.33083" lon="2.52083">
        <ele>593.4</ele>
        <time>2011-05-11T16:55:14Z</time>
      </trkpt>
      <trkpt lat="44.33086" lon="2.52081">
        <ele>594.2</ele>
        <time>2011-05-11T16:55:16Z</time>
      </trkpt>
      <trkpt lat="44.33089" lon="2.5208">
        <ele>595</ele>
        <time>2011-05-11T16:55:18Z</time>
      </trkpt>
      <trkpt lat="44.33092" lon="2.52078">
        <ele>595.7</ele>
        <time>2011-05-11T16:55:20Z</time>
      </trkpt>
      <trkpt lat="44.33096" lon="2.52077">
        <ele>596.4</ele>
        <time>2011-05-11T16:55:22Z</time>
      </trkpt>
      <trkpt lat="44.33099" lon="2.52075">
        <ele>596.7</ele>
        <time>2011-05-11T16:55:24Z</time>
      </trkpt>
      <trkpt lat="44.33102" lon="2.52074">
        <ele>596.7</ele>
        <time>2011-05-11T16:55:26Z</time>
      </trkpt>
      <trkpt lat="44.33105" lon="2.52072">
        <ele>596.9</ele>
        <time>2011-05-11T16:55:28Z</time>
      </trkpt>
      <trkpt lat="44.33108" lon="2.5207">
        <ele>597.4</ele>
        <time>2011-05-11T16:55:30Z</time>
      </trkpt>
      <trkpt lat="44.3311" lon="2.52064">
        <ele>599.7</ele>
        <time>2011-05-11T16:55:36Z</time>
      </trkpt>
      <trkpt lat="44.3311" lon="2.52063">
        <ele>600</ele>
        <time>2011-05-11T16:55:37Z</time>
      </trkpt>
      <trkpt lat="44.33109" lon="2.52053">
        <ele>602</ele>
        <time>2011-05-11T16:56:00Z</time>
      </trkpt>
      <trkpt lat="44.33107" lon="2.52048">
        <ele>602.4</ele>
        <time>2011-05-11T16:56:04Z</time>
      </trkpt>
      <trkpt lat="44.33106" lon="2.52043">
        <ele>602.7</ele>
        <time>2011-05-11T16:56:07Z</time>
      </trkpt>
      <trkpt lat="44.33106" lon="2.52038">
        <ele>602.9</ele>
        <time>2011-05-11T16:56:10Z</time>
      </trkpt>
      <trkpt lat="44.33105" lon="2.52032">
        <ele>603</ele>
        <time>2011-05-11T16:56:13Z</time>
      </trkpt>
      <trkpt lat="44.33106" lon="2.52027">
        <ele>603.5</ele>
        <time>2011-05-11T16:56:16Z</time>
      </trkpt>
      <trkpt lat="44.33107" lon="2.52023">
        <ele>604.2</ele>
        <time>2011-05-11T16:56:18Z</time>
      </trkpt>
      <trkpt lat="44.33108" lon="2.52017">
        <ele>605.5</ele>
        <time>2011-05-11T16:56:21Z</time>
      </trkpt>
      <trkpt lat="44.33109" lon="2.52012">
        <ele>606.5</ele>
        <time>2011-05-11T16:56:25Z</time>
      </trkpt>
      <trkpt lat="44.33112" lon="2.52007">
        <ele>607.7</ele>
        <time>2011-05-11T16:56:30Z</time>
      </trkpt>
      <trkpt lat="44.33114" lon="2.52002">
        <ele>608.9</ele>
        <time>2011-05-11T16:56:33Z</time>
      </trkpt>
      <trkpt lat="44.33116" lon="2.51997">
        <ele>610</ele>
        <time>2011-05-11T16:56:36Z</time>
      </trkpt>
      <trkpt lat="44.33118" lon="2.51993">
        <ele>611</ele>
        <time>2011-05-11T16:56:39Z</time>
      </trkpt>
      <trkpt lat="44.33119" lon="2.51992">
        <ele>611.2</ele>
        <time>2011-05-11T16:56:40Z</time>
      </trkpt>
      <trkpt lat="44.33123" lon="2.51985">
        <ele>612.7</ele>
        <time>2011-05-11T16:56:47Z</time>
      </trkpt>
      <trkpt lat="44.33125" lon="2.5198">
        <ele>613.5</ele>
        <time>2011-05-11T16:56:50Z</time>
      </trkpt>
      <trkpt lat="44.33128" lon="2.51975">
        <ele>614.2</ele>
        <time>2011-05-11T16:56:54Z</time>
      </trkpt>
      <trkpt lat="44.33131" lon="2.51971">
        <ele>615.4</ele>
        <time>2011-05-11T16:56:58Z</time>
      </trkpt>
      <trkpt lat="44.33133" lon="2.51966">
        <ele>616.7</ele>
        <time>2011-05-11T16:57:01Z</time>
      </trkpt>
      <trkpt lat="44.33134" lon="2.51961">
        <ele>617.7</ele>
        <time>2011-05-11T16:57:04Z</time>
      </trkpt>
      <trkpt lat="44.33136" lon="2.51957">
        <ele>618</ele>
        <time>2011-05-11T16:57:08Z</time>
      </trkpt>
      <trkpt lat="44.3314" lon="2.51953">
        <ele>618.4</ele>
        <time>2011-05-11T16:57:13Z</time>
      </trkpt>
      <trkpt lat="44.33142" lon="2.51949">
        <ele>618.5</ele>
        <time>2011-05-11T16:57:19Z</time>
      </trkpt>
      <trkpt lat="44.33145" lon="2.51946">
        <ele>618.5</ele>
        <time>2011-05-11T16:57:23Z</time>
      </trkpt>
      <trkpt lat="44.33148" lon="2.51941">
        <ele>618.7</ele>
        <time>2011-05-11T16:57:27Z</time>
      </trkpt>
      <trkpt lat="44.33151" lon="2.51937">
        <ele>619</ele>
        <time>2011-05-11T16:57:31Z</time>
      </trkpt>
      <trkpt lat="44.33153" lon="2.51932">
        <ele>619.2</ele>
        <time>2011-05-11T16:57:35Z</time>
      </trkpt>
      <trkpt lat="44.33156" lon="2.51928">
        <ele>619.2</ele>
        <time>2011-05-11T16:57:39Z</time>
      </trkpt>
      <trkpt lat="44.33157" lon="2.51923">
        <ele>619.2</ele>
        <time>2011-05-11T16:57:42Z</time>
      </trkpt>
      <trkpt lat="44.33158" lon="2.51922">
        <ele>619.2</ele>
        <time>2011-05-11T16:57:43Z</time>
      </trkpt>
      <trkpt lat="44.33162" lon="2.51913">
        <ele>619.5</ele>
        <time>2011-05-11T16:57:49Z</time>
      </trkpt>
      <trkpt lat="44.33164" lon="2.51909">
        <ele>619.5</ele>
        <time>2011-05-11T16:57:52Z</time>
      </trkpt>
      <trkpt lat="44.33166" lon="2.51905">
        <ele>619.7</ele>
        <time>2011-05-11T16:57:55Z</time>
      </trkpt>
      <trkpt lat="44.33169" lon="2.51901">
        <ele>620</ele>
        <time>2011-05-11T16:57:57Z</time>
      </trkpt>
      <trkpt lat="44.33171" lon="2.51897">
        <ele>620.2</ele>
        <time>2011-05-11T16:57:59Z</time>
      </trkpt>
      <trkpt lat="44.33172" lon="2.51892">
        <ele>620.5</ele>
        <time>2011-05-11T16:58:02Z</time>
      </trkpt>
      <trkpt lat="44.33175" lon="2.51887">
        <ele>620</ele>
        <time>2011-05-11T16:58:05Z</time>
      </trkpt>
      <trkpt lat="44.33176" lon="2.51883">
        <ele>620</ele>
        <time>2011-05-11T16:58:07Z</time>
      </trkpt>
      <trkpt lat="44.33178" lon="2.51879">
        <ele>620</ele>
        <time>2011-05-11T16:58:09Z</time>
      </trkpt>
      <trkpt lat="44.3318" lon="2.51874">
        <ele>620.5</ele>
        <time>2011-05-11T16:58:11Z</time>
      </trkpt>
      <trkpt lat="44.33182" lon="2.5187">
        <ele>620.9</ele>
        <time>2011-05-11T16:58:13Z</time>
      </trkpt>
      <trkpt lat="44.33183" lon="2.51865">
        <ele>621.2</ele>
        <time>2011-05-11T16:58:15Z</time>
      </trkpt>
      <trkpt lat="44.33185" lon="2.51861">
        <ele>621.7</ele>
        <time>2011-05-11T16:58:17Z</time>
      </trkpt>
      <trkpt lat="44.33186" lon="2.51856">
        <ele>622.2</ele>
        <time>2011-05-11T16:58:19Z</time>
      </trkpt>
      <trkpt lat="44.33188" lon="2.51852">
        <ele>622.4</ele>
        <time>2011-05-11T16:58:21Z</time>
      </trkpt>
      <trkpt lat="44.33189" lon="2.51847">
        <ele>622.5</ele>
        <time>2011-05-11T16:58:23Z</time>
      </trkpt>
      <trkpt lat="44.3319" lon="2.51843">
        <ele>622.9</ele>
        <time>2011-05-11T16:58:25Z</time>
      </trkpt>
      <trkpt lat="44.33191" lon="2.51838">
        <ele>623.2</ele>
        <time>2011-05-11T16:58:27Z</time>
      </trkpt>
      <trkpt lat="44.33191" lon="2.51833">
        <ele>623.4</ele>
        <time>2011-05-11T16:58:29Z</time>
      </trkpt>
      <trkpt lat="44.33192" lon="2.51827">
        <ele>623.5</ele>
        <time>2011-05-11T16:58:31Z</time>
      </trkpt>
      <trkpt lat="44.33192" lon="2.51822">
        <ele>623.7</ele>
        <time>2011-05-11T16:58:33Z</time>
      </trkpt>
      <trkpt lat="44.33192" lon="2.51817">
        <ele>623.7</ele>
        <time>2011-05-11T16:58:35Z</time>
      </trkpt>
      <trkpt lat="44.33193" lon="2.51812">
        <ele>623.9</ele>
        <time>2011-05-11T16:58:37Z</time>
      </trkpt>
      <trkpt lat="44.33193" lon="2.51806">
        <ele>624</ele>
        <time>2011-05-11T16:58:39Z</time>
      </trkpt>
      <trkpt lat="44.33193" lon="2.518">
        <ele>624</ele>
        <time>2011-05-11T16:58:41Z</time>
      </trkpt>
      <trkpt lat="44.33193" lon="2.51794">
        <ele>624</ele>
        <time>2011-05-11T16:58:43Z</time>
      </trkpt>
      <trkpt lat="44.33193" lon="2.51791">
        <ele>624</ele>
        <time>2011-05-11T16:58:44Z</time>
      </trkpt>
      <trkpt lat="44.33193" lon="2.51782">
        <ele>624</ele>
        <time>2011-05-11T16:58:47Z</time>
      </trkpt>
      <trkpt lat="44.33193" lon="2.51776">
        <ele>623.9</ele>
        <time>2011-05-11T16:58:49Z</time>
      </trkpt>
      <trkpt lat="44.33194" lon="2.51772">
        <ele>623.9</ele>
        <time>2011-05-11T16:58:50Z</time>
      </trkpt>
      <trkpt lat="44.33194" lon="2.51769">
        <ele>623.7</ele>
        <time>2011-05-11T16:58:51Z</time>
      </trkpt>
      <trkpt lat="44.33194" lon="2.51766">
        <ele>623.7</ele>
        <time>2011-05-11T16:58:52Z</time>
      </trkpt>
      <trkpt lat="44.33194" lon="2.51763">
        <ele>623.7</ele>
        <time>2011-05-11T16:58:53Z</time>
      </trkpt>
      <trkpt lat="44.33194" lon="2.51759">
        <ele>623.7</ele>
        <time>2011-05-11T16:58:54Z</time>
      </trkpt>
      <trkpt lat="44.33194" lon="2.51756">
        <ele>623.7</ele>
        <time>2011-05-11T16:58:55Z</time>
      </trkpt>
      <trkpt lat="44.33195" lon="2.51752">
        <ele>623.5</ele>
        <time>2011-05-11T16:58:56Z</time>
      </trkpt>
      <trkpt lat="44.33195" lon="2.51748">
        <ele>623.5</ele>
        <time>2011-05-11T16:58:57Z</time>
      </trkpt>
      <trkpt lat="44.33196" lon="2.51744">
        <ele>623.4</ele>
        <time>2011-05-11T16:58:58Z</time>
      </trkpt>
      <trkpt lat="44.33196" lon="2.5174">
        <ele>623.2</ele>
        <time>2011-05-11T16:58:59Z</time>
      </trkpt>
      <trkpt lat="44.33196" lon="2.51735">
        <ele>623</ele>
        <time>2011-05-11T16:59:00Z</time>
      </trkpt>
      <trkpt lat="44.33197" lon="2.5173">
        <ele>622.9</ele>
        <time>2011-05-11T16:59:01Z</time>
      </trkpt>
      <trkpt lat="44.33197" lon="2.51725">
        <ele>622.7</ele>
        <time>2011-05-11T16:59:02Z</time>
      </trkpt>
      <trkpt lat="44.33198" lon="2.5172">
        <ele>622.5</ele>
        <time>2011-05-11T16:59:03Z</time>
      </trkpt>
      <trkpt lat="44.33199" lon="2.51715">
        <ele>622.4</ele>
        <time>2011-05-11T16:59:04Z</time>
      </trkpt>
      <trkpt lat="44.33199" lon="2.5171">
        <ele>622.2</ele>
        <time>2011-05-11T16:59:05Z</time>
      </trkpt>
      <trkpt lat="44.332" lon="2.51704">
        <ele>622</ele>
        <time>2011-05-11T16:59:06Z</time>
      </trkpt>
      <trkpt lat="44.332" lon="2.51698">
        <ele>621.7</ele>
        <time>2011-05-11T16:59:07Z</time>
      </trkpt>
      <trkpt lat="44.33201" lon="2.51691">
        <ele>621.4</ele>
        <time>2011-05-11T16:59:08Z</time>
      </trkpt>
      <trkpt lat="44.33201" lon="2.51684">
        <ele>621</ele>
        <time>2011-05-11T16:59:09Z</time>
      </trkpt>
      <trkpt lat="44.33202" lon="2.51677">
        <ele>620.7</ele>
        <time>2011-05-11T16:59:10Z</time>
      </trkpt>
      <trkpt lat="44.33203" lon="2.5167">
        <ele>620.2</ele>
        <time>2011-05-11T16:59:11Z</time>
      </trkpt>
      <trkpt lat="44.33204" lon="2.51661">
        <ele>619.5</ele>
        <time>2011-05-11T16:59:12Z</time>
      </trkpt>
      <trkpt lat="44.33204" lon="2.51652">
        <ele>619</ele>
        <time>2011-05-11T16:59:13Z</time>
      </trkpt>
      <trkpt lat="44.33205" lon="2.51643">
        <ele>618.4</ele>
        <time>2011-05-11T16:59:14Z</time>
      </trkpt>
      <trkpt lat="44.33206" lon="2.51633">
        <ele>617.7</ele>
        <time>2011-05-11T16:59:15Z</time>
      </trkpt>
      <trkpt lat="44.33207" lon="2.51624">
        <ele>617</ele>
        <time>2011-05-11T16:59:16Z</time>
      </trkpt>
      <trkpt lat="44.33209" lon="2.51613">
        <ele>616.4</ele>
        <time>2011-05-11T16:59:17Z</time>
      </trkpt>
      <trkpt lat="44.3321" lon="2.51603">
        <ele>615.7</ele>
        <time>2011-05-11T16:59:18Z</time>
      </trkpt>
      <trkpt lat="44.33211" lon="2.51592">
        <ele>615.2</ele>
        <time>2011-05-11T16:59:19Z</time>
      </trkpt>
      <trkpt lat="44.33213" lon="2.51581">
        <ele>614.7</ele>
        <time>2011-05-11T16:59:20Z</time>
      </trkpt>
      <trkpt lat="44.33215" lon="2.51571">
        <ele>614.7</ele>
        <time>2011-05-11T16:59:21Z</time>
      </trkpt>
      <trkpt lat="44.33217" lon="2.51562">
        <ele>614.5</ele>
        <time>2011-05-11T16:59:22Z</time>
      </trkpt>
      <trkpt lat="44.33219" lon="2.51552">
        <ele>614.5</ele>
        <time>2011-05-11T16:59:23Z</time>
      </trkpt>
      <trkpt lat="44.3322" lon="2.51543">
        <ele>614.5</ele>
        <time>2011-05-11T16:59:24Z</time>
      </trkpt>
      <trkpt lat="44.33221" lon="2.51535">
        <ele>614.7</ele>
        <time>2011-05-11T16:59:25Z</time>
      </trkpt>
      <trkpt lat="44.3322" lon="2.51528">
        <ele>615.4</ele>
        <time>2011-05-11T16:59:26Z</time>
      </trkpt>
      <trkpt lat="44.33219" lon="2.51522">
        <ele>616</ele>
        <time>2011-05-11T16:59:27Z</time>
      </trkpt>
      <trkpt lat="44.33217" lon="2.51518">
        <ele>616.5</ele>
        <time>2011-05-11T16:59:28Z</time>
      </trkpt>
      <trkpt lat="44.33216" lon="2.51514">
        <ele>616.7</ele>
        <time>2011-05-11T16:59:29Z</time>
      </trkpt>
      <trkpt lat="44.33215" lon="2.5151">
        <ele>616.9</ele>
        <time>2011-05-11T16:59:30Z</time>
      </trkpt>
      <trkpt lat="44.33214" lon="2.51506">
        <ele>617</ele>
        <time>2011-05-11T16:59:31Z</time>
      </trkpt>
      <trkpt lat="44.33213" lon="2.51503">
        <ele>617</ele>
        <time>2011-05-11T16:59:32Z</time>
      </trkpt>
      <trkpt lat="44.33212" lon="2.51499">
        <ele>617.2</ele>
        <time>2011-05-11T16:59:33Z</time>
      </trkpt>
      <trkpt lat="44.33211" lon="2.51496">
        <ele>617.2</ele>
        <time>2011-05-11T16:59:34Z</time>
      </trkpt>
      <trkpt lat="44.3321" lon="2.51493">
        <ele>617.4</ele>
        <time>2011-05-11T16:59:35Z</time>
      </trkpt>
      <trkpt lat="44.33208" lon="2.51491">
        <ele>617.5</ele>
        <time>2011-05-11T16:59:36Z</time>
      </trkpt>
      <trkpt lat="44.33207" lon="2.51485">
        <ele>617.7</ele>
        <time>2011-05-11T16:59:38Z</time>
      </trkpt>
      <trkpt lat="44.33205" lon="2.5148">
        <ele>617.7</ele>
        <time>2011-05-11T16:59:40Z</time>
      </trkpt>
      <trkpt lat="44.33204" lon="2.51475">
        <ele>617.7</ele>
        <time>2011-05-11T16:59:42Z</time>
      </trkpt>
      <trkpt lat="44.33204" lon="2.5147">
        <ele>617.2</ele>
        <time>2011-05-11T16:59:44Z</time>
      </trkpt>
      <trkpt lat="44.33205" lon="2.51469">
        <ele>617</ele>
        <time>2011-05-11T16:59:45Z</time>
      </trkpt>
      <trkpt lat="44.3321" lon="2.51464">
        <ele>616.5</ele>
        <time>2011-05-11T16:59:48Z</time>
      </trkpt>
      <trkpt lat="44.33212" lon="2.51463">
        <ele>616.2</ele>
        <time>2011-05-11T16:59:49Z</time>
      </trkpt>
      <trkpt lat="44.33215" lon="2.51461">
        <ele>615.7</ele>
        <time>2011-05-11T16:59:50Z</time>
      </trkpt>
      <trkpt lat="44.33218" lon="2.51459">
        <ele>615.4</ele>
        <time>2011-05-11T16:59:51Z</time>
      </trkpt>
      <trkpt lat="44.33221" lon="2.51456">
        <ele>615</ele>
        <time>2011-05-11T16:59:52Z</time>
      </trkpt>
      <trkpt lat="44.33224" lon="2.51453">
        <ele>614.5</ele>
        <time>2011-05-11T16:59:53Z</time>
      </trkpt>
      <trkpt lat="44.33227" lon="2.5145">
        <ele>614</ele>
        <time>2011-05-11T16:59:54Z</time>
      </trkpt>
      <trkpt lat="44.33232" lon="2.51448">
        <ele>613.5</ele>
        <time>2011-05-11T16:59:55Z</time>
      </trkpt>
      <trkpt lat="44.33236" lon="2.51445">
        <ele>613</ele>
        <time>2011-05-11T16:59:56Z</time>
      </trkpt>
      <trkpt lat="44.33241" lon="2.51443">
        <ele>612.5</ele>
        <time>2011-05-11T16:59:57Z</time>
      </trkpt>
      <trkpt lat="44.33247" lon="2.5144">
        <ele>612</ele>
        <time>2011-05-11T16:59:58Z</time>
      </trkpt>
      <trkpt lat="44.33252" lon="2.51438">
        <ele>611.5</ele>
        <time>2011-05-11T16:59:59Z</time>
      </trkpt>
      <trkpt lat="44.33257" lon="2.51436">
        <ele>611</ele>
        <time>2011-05-11T17:00:00Z</time>
      </trkpt>
      <trkpt lat="44.33263" lon="2.51433">
        <ele>610.7</ele>
        <time>2011-05-11T17:00:01Z</time>
      </trkpt>
      <trkpt lat="44.33268" lon="2.51429">
        <ele>610</ele>
        <time>2011-05-11T17:00:02Z</time>
      </trkpt>
      <trkpt lat="44.33272" lon="2.51424">
        <ele>609.2</ele>
        <time>2011-05-11T17:00:03Z</time>
      </trkpt>
      <trkpt lat="44.33277" lon="2.5142">
        <ele>608.7</ele>
        <time>2011-05-11T17:00:04Z</time>
      </trkpt>
      <trkpt lat="44.33281" lon="2.51415">
        <ele>607.9</ele>
        <time>2011-05-11T17:00:05Z</time>
      </trkpt>
      <trkpt lat="44.33286" lon="2.51409">
        <ele>606.7</ele>
        <time>2011-05-11T17:00:06Z</time>
      </trkpt>
      <trkpt lat="44.3329" lon="2.51403">
        <ele>605.7</ele>
        <time>2011-05-11T17:00:07Z</time>
      </trkpt>
      <trkpt lat="44.33293" lon="2.51394">
        <ele>605</ele>
        <time>2011-05-11T17:00:08Z</time>
      </trkpt>
      <trkpt lat="44.33294" lon="2.51386">
        <ele>604.4</ele>
        <time>2011-05-11T17:00:09Z</time>
      </trkpt>
      <trkpt lat="44.33296" lon="2.51377">
        <ele>603.7</ele>
        <time>2011-05-11T17:00:10Z</time>
      </trkpt>
      <trkpt lat="44.33299" lon="2.51371">
        <ele>603.2</ele>
        <time>2011-05-11T17:00:11Z</time>
      </trkpt>
      <trkpt lat="44.33304" lon="2.51368">
        <ele>603</ele>
        <time>2011-05-11T17:00:12Z</time>
      </trkpt>
      <trkpt lat="44.33308" lon="2.51366">
        <ele>603</ele>
        <time>2011-05-11T17:00:13Z</time>
      </trkpt>
      <trkpt lat="44.33312" lon="2.51363">
        <ele>603</ele>
        <time>2011-05-11T17:00:14Z</time>
      </trkpt>
      <trkpt lat="44.33316" lon="2.5136">
        <ele>602.7</ele>
        <time>2011-05-11T17:00:15Z</time>
      </trkpt>
      <trkpt lat="44.3332" lon="2.51357">
        <ele>602.2</ele>
        <time>2011-05-11T17:00:16Z</time>
      </trkpt>
      <trkpt lat="44.33324" lon="2.51355">
        <ele>601.9</ele>
        <time>2011-05-11T17:00:17Z</time>
      </trkpt>
      <trkpt lat="44.33328" lon="2.51352">
        <ele>601.5</ele>
        <time>2011-05-11T17:00:18Z</time>
      </trkpt>
      <trkpt lat="44.33332" lon="2.51348">
        <ele>601.2</ele>
        <time>2011-05-11T17:00:19Z</time>
      </trkpt>
      <trkpt lat="44.33336" lon="2.51345">
        <ele>601</ele>
        <time>2011-05-11T17:00:20Z</time>
      </trkpt>
      <trkpt lat="44.3334" lon="2.51341">
        <ele>601</ele>
        <time>2011-05-11T17:00:21Z</time>
      </trkpt>
      <trkpt lat="44.33344" lon="2.51337">
        <ele>601</ele>
        <time>2011-05-11T17:00:22Z</time>
      </trkpt>
      <trkpt lat="44.33347" lon="2.51333">
        <ele>601</ele>
        <time>2011-05-11T17:00:23Z</time>
      </trkpt>
      <trkpt lat="44.3335" lon="2.5133">
        <ele>600.5</ele>
        <time>2011-05-11T17:00:24Z</time>
      </trkpt>
      <trkpt lat="44.33355" lon="2.51328">
        <ele>599.9</ele>
        <time>2011-05-11T17:00:25Z</time>
      </trkpt>
      <trkpt lat="44.33359" lon="2.51326">
        <ele>599.2</ele>
        <time>2011-05-11T17:00:26Z</time>
      </trkpt>
      <trkpt lat="44.33363" lon="2.51323">
        <ele>598.7</ele>
        <time>2011-05-11T17:00:27Z</time>
      </trkpt>
      <trkpt lat="44.33368" lon="2.51319">
        <ele>597.9</ele>
        <time>2011-05-11T17:00:28Z</time>
      </trkpt>
      <trkpt lat="44.33374" lon="2.51315">
        <ele>597.4</ele>
        <time>2011-05-11T17:00:29Z</time>
      </trkpt>
      <trkpt lat="44.3338" lon="2.51312">
        <ele>596.7</ele>
        <time>2011-05-11T17:00:30Z</time>
      </trkpt>
      <trkpt lat="44.33386" lon="2.51309">
        <ele>596</ele>
        <time>2011-05-11T17:00:31Z</time>
      </trkpt>
      <trkpt lat="44.33391" lon="2.51304">
        <ele>595</ele>
        <time>2011-05-11T17:00:32Z</time>
      </trkpt>
      <trkpt lat="44.33395" lon="2.51298">
        <ele>593.5</ele>
        <time>2011-05-11T17:00:33Z</time>
      </trkpt>
      <trkpt lat="44.334" lon="2.51293">
        <ele>592.4</ele>
        <time>2011-05-11T17:00:34Z</time>
      </trkpt>
      <trkpt lat="44.33403" lon="2.51287">
        <ele>591.4</ele>
        <time>2011-05-11T17:00:35Z</time>
      </trkpt>
      <trkpt lat="44.33407" lon="2.5128">
        <ele>590.7</ele>
        <time>2011-05-11T17:00:36Z</time>
      </trkpt>
      <trkpt lat="44.33411" lon="2.51274">
        <ele>589.7</ele>
        <time>2011-05-11T17:00:37Z</time>
      </trkpt>
      <trkpt lat="44.33415" lon="2.51267">
        <ele>589</ele>
        <time>2011-05-11T17:00:38Z</time>
      </trkpt>
      <trkpt lat="44.33416" lon="2.51262">
        <ele>588.7</ele>
        <time>2011-05-11T17:00:39Z</time>
      </trkpt>
      <trkpt lat="44.33417" lon="2.51256">
        <ele>588.5</ele>
        <time>2011-05-11T17:00:40Z</time>
      </trkpt>
      <trkpt lat="44.33419" lon="2.5125">
        <ele>588.5</ele>
        <time>2011-05-11T17:00:41Z</time>
      </trkpt>
      <trkpt lat="44.3342" lon="2.51244">
        <ele>587.7</ele>
        <time>2011-05-11T17:00:42Z</time>
      </trkpt>
      <trkpt lat="44.33422" lon="2.51235">
        <ele>586.9</ele>
        <time>2011-05-11T17:00:43Z</time>
      </trkpt>
      <trkpt lat="44.33424" lon="2.51227">
        <ele>586</ele>
        <time>2011-05-11T17:00:44Z</time>
      </trkpt>
      <trkpt lat="44.33427" lon="2.51222">
        <ele>585.7</ele>
        <time>2011-05-11T17:00:45Z</time>
      </trkpt>
      <trkpt lat="44.3343" lon="2.51218">
        <ele>585.2</ele>
        <time>2011-05-11T17:00:46Z</time>
      </trkpt>
      <trkpt lat="44.33432" lon="2.51213">
        <ele>584</ele>
        <time>2011-05-11T17:00:47Z</time>
      </trkpt>
      <trkpt lat="44.33434" lon="2.51208">
        <ele>583.4</ele>
        <time>2011-05-11T17:00:48Z</time>
      </trkpt>
      <trkpt lat="44.33436" lon="2.51204">
        <ele>582.5</ele>
        <time>2011-05-11T17:00:49Z</time>
      </trkpt>
      <trkpt lat="44.33437" lon="2.51199">
        <ele>581.7</ele>
        <time>2011-05-11T17:00:50Z</time>
      </trkpt>
      <trkpt lat="44.33439" lon="2.51193">
        <ele>581</ele>
        <time>2011-05-11T17:00:51Z</time>
      </trkpt>
      <trkpt lat="44.33443" lon="2.51188">
        <ele>580.9</ele>
        <time>2011-05-11T17:00:52Z</time>
      </trkpt>
      <trkpt lat="44.33447" lon="2.51184">
        <ele>580.7</ele>
        <time>2011-05-11T17:00:53Z</time>
      </trkpt>
      <trkpt lat="44.3345" lon="2.51179">
        <ele>580.5</ele>
        <time>2011-05-11T17:00:54Z</time>
      </trkpt>
      <trkpt lat="44.33451" lon="2.51174">
        <ele>580.4</ele>
        <time>2011-05-11T17:00:55Z</time>
      </trkpt>
      <trkpt lat="44.33453" lon="2.51168">
        <ele>580.2</ele>
        <time>2011-05-11T17:00:56Z</time>
      </trkpt>
      <trkpt lat="44.33456" lon="2.51164">
        <ele>580</ele>
        <time>2011-05-11T17:00:57Z</time>
      </trkpt>
      <trkpt lat="44.33457" lon="2.51158">
        <ele>579.7</ele>
        <time>2011-05-11T17:00:58Z</time>
      </trkpt>
      <trkpt lat="44.33457" lon="2.51154">
        <ele>579.4</ele>
        <time>2011-05-11T17:00:59Z</time>
      </trkpt>
      <trkpt lat="44.33458" lon="2.51149">
        <ele>579.2</ele>
        <time>2011-05-11T17:01:00Z</time>
      </trkpt>
      <trkpt lat="44.33459" lon="2.51146">
        <ele>578.9</ele>
        <time>2011-05-11T17:01:01Z</time>
      </trkpt>
      <trkpt lat="44.33458" lon="2.5114">
        <ele>578.2</ele>
        <time>2011-05-11T17:01:03Z</time>
      </trkpt>
      <trkpt lat="44.33458" lon="2.51136">
        <ele>578.2</ele>
        <time>2011-05-11T17:01:04Z</time>
      </trkpt>
      <trkpt lat="44.33459" lon="2.51133">
        <ele>578.2</ele>
        <time>2011-05-11T17:01:05Z</time>
      </trkpt>
      <trkpt lat="44.33461" lon="2.51131">
        <ele>578.2</ele>
        <time>2011-05-11T17:01:06Z</time>
      </trkpt>
      <trkpt lat="44.33464" lon="2.51129">
        <ele>578.2</ele>
        <time>2011-05-11T17:01:07Z</time>
      </trkpt>
      <trkpt lat="44.33467" lon="2.51127">
        <ele>578.7</ele>
        <time>2011-05-11T17:01:08Z</time>
      </trkpt>
      <trkpt lat="44.3347" lon="2.51123">
        <ele>580.2</ele>
        <time>2011-05-11T17:01:11Z</time>
      </trkpt>
      <trkpt lat="44.33472" lon="2.51117">
        <ele>582.4</ele>
        <time>2011-05-11T17:01:18Z</time>
      </trkpt>
      <trkpt lat="44.33473" lon="2.51111">
        <ele>585.2</ele>
        <time>2011-05-11T17:01:30Z</time>
      </trkpt>
      <trkpt lat="44.33475" lon="2.51106">
        <ele>589.5</ele>
        <time>2011-05-11T17:01:52Z</time>
      </trkpt>
      <trkpt lat="44.33476" lon="2.51106">
        <ele>589.7</ele>
        <time>2011-05-11T17:01:53Z</time>
      </trkpt>
      <trkpt lat="44.33482" lon="2.511">
        <ele>590</ele>
        <time>2011-05-11T17:02:02Z</time>
      </trkpt>
      <trkpt lat="44.33483" lon="2.51098">
        <ele>589.7</ele>
        <time>2011-05-11T17:02:03Z</time>
      </trkpt>
      <trkpt lat="44.33485" lon="2.51095">
        <ele>589.7</ele>
        <time>2011-05-11T17:02:04Z</time>
      </trkpt>
      <trkpt lat="44.33487" lon="2.5109">
        <ele>589.4</ele>
        <time>2011-05-11T17:02:05Z</time>
      </trkpt>
      <trkpt lat="44.33489" lon="2.51085">
        <ele>589</ele>
        <time>2011-05-11T17:02:06Z</time>
      </trkpt>
      <trkpt lat="44.3349" lon="2.5108">
        <ele>588.4</ele>
        <time>2011-05-11T17:02:07Z</time>
      </trkpt>
      <trkpt lat="44.3349" lon="2.51076">
        <ele>588.2</ele>
        <time>2011-05-11T17:02:08Z</time>
      </trkpt>
      <trkpt lat="44.3349" lon="2.51072">
        <ele>587.7</ele>
        <time>2011-05-11T17:02:09Z</time>
      </trkpt>
      <trkpt lat="44.33491" lon="2.51067">
        <ele>587</ele>
        <time>2011-05-11T17:02:10Z</time>
      </trkpt>
      <trkpt lat="44.33493" lon="2.51063">
        <ele>586</ele>
        <time>2011-05-11T17:02:11Z</time>
      </trkpt>
      <trkpt lat="44.33496" lon="2.5106">
        <ele>585.5</ele>
        <time>2011-05-11T17:02:12Z</time>
      </trkpt>
      <trkpt lat="44.33498" lon="2.51055">
        <ele>585</ele>
        <time>2011-05-11T17:02:13Z</time>
      </trkpt>
      <trkpt lat="44.335" lon="2.51049">
        <ele>584.2</ele>
        <time>2011-05-11T17:02:14Z</time>
      </trkpt>
      <trkpt lat="44.33502" lon="2.51043">
        <ele>583.4</ele>
        <time>2011-05-11T17:02:15Z</time>
      </trkpt>
      <trkpt lat="44.33505" lon="2.51037">
        <ele>582.5</ele>
        <time>2011-05-11T17:02:16Z</time>
      </trkpt>
      <trkpt lat="44.33509" lon="2.51031">
        <ele>581.5</ele>
        <time>2011-05-11T17:02:17Z</time>
      </trkpt>
      <trkpt lat="44.33513" lon="2.51027">
        <ele>580.5</ele>
        <time>2011-05-11T17:02:18Z</time>
      </trkpt>
      <trkpt lat="44.33517" lon="2.51023">
        <ele>579.5</ele>
        <time>2011-05-11T17:02:19Z</time>
      </trkpt>
      <trkpt lat="44.33519" lon="2.51016">
        <ele>578.9</ele>
        <time>2011-05-11T17:02:20Z</time>
      </trkpt>
      <trkpt lat="44.3352" lon="2.5101">
        <ele>578.4</ele>
        <time>2011-05-11T17:02:21Z</time>
      </trkpt>
      <trkpt lat="44.33522" lon="2.51004">
        <ele>577.4</ele>
        <time>2011-05-11T17:02:22Z</time>
      </trkpt>
      <trkpt lat="44.33524" lon="2.50998">
        <ele>576.5</ele>
        <time>2011-05-11T17:02:23Z</time>
      </trkpt>
      <trkpt lat="44.33526" lon="2.50993">
        <ele>575.7</ele>
        <time>2011-05-11T17:02:24Z</time>
      </trkpt>
      <trkpt lat="44.33528" lon="2.50988">
        <ele>575</ele>
        <time>2011-05-11T17:02:25Z</time>
      </trkpt>
      <trkpt lat="44.3353" lon="2.50984">
        <ele>574.2</ele>
        <time>2011-05-11T17:02:26Z</time>
      </trkpt>
      <trkpt lat="44.33531" lon="2.5098">
        <ele>573.5</ele>
        <time>2011-05-11T17:02:27Z</time>
      </trkpt>
      <trkpt lat="44.33533" lon="2.50978">
        <ele>572.7</ele>
        <time>2011-05-11T17:02:28Z</time>
      </trkpt>
      <trkpt lat="44.33535" lon="2.50974">
        <ele>570.9</ele>
        <time>2011-05-11T17:02:29Z</time>
      </trkpt>
      <trkpt lat="44.33538" lon="2.50968">
        <ele>568.9</ele>
        <time>2011-05-11T17:02:30Z</time>
      </trkpt>
      <trkpt lat="44.33541" lon="2.50961">
        <ele>567.5</ele>
        <time>2011-05-11T17:02:31Z</time>
      </trkpt>
      <trkpt lat="44.33543" lon="2.50957">
        <ele>566.9</ele>
        <time>2011-05-11T17:02:32Z</time>
      </trkpt>
      <trkpt lat="44.33544" lon="2.50953">
        <ele>566.4</ele>
        <time>2011-05-11T17:02:33Z</time>
      </trkpt>
      <trkpt lat="44.33545" lon="2.50949">
        <ele>565.7</ele>
        <time>2011-05-11T17:02:34Z</time>
      </trkpt>
      <trkpt lat="44.33545" lon="2.50945">
        <ele>564.9</ele>
        <time>2011-05-11T17:02:35Z</time>
      </trkpt>
      <trkpt lat="44.33547" lon="2.50938">
        <ele>563.9</ele>
        <time>2011-05-11T17:02:36Z</time>
      </trkpt>
      <trkpt lat="44.3355" lon="2.50932">
        <ele>562.9</ele>
        <time>2011-05-11T17:02:37Z</time>
      </trkpt>
      <trkpt lat="44.33555" lon="2.50927">
        <ele>562.2</ele>
        <time>2011-05-11T17:02:38Z</time>
      </trkpt>
      <trkpt lat="44.3356" lon="2.50922">
        <ele>562.2</ele>
        <time>2011-05-11T17:02:39Z</time>
      </trkpt>
      <trkpt lat="44.33564" lon="2.50918">
        <ele>562.2</ele>
        <time>2011-05-11T17:02:40Z</time>
      </trkpt>
      <trkpt lat="44.33567" lon="2.50913">
        <ele>561.7</ele>
        <time>2011-05-11T17:02:41Z</time>
      </trkpt>
      <trkpt lat="44.33572" lon="2.50909">
        <ele>561.5</ele>
        <time>2011-05-11T17:02:42Z</time>
      </trkpt>
      <trkpt lat="44.33576" lon="2.50907">
        <ele>561.5</ele>
        <time>2011-05-11T17:02:43Z</time>
      </trkpt>
      <trkpt lat="44.3358" lon="2.50905">
        <ele>561.2</ele>
        <time>2011-05-11T17:02:44Z</time>
      </trkpt>
      <trkpt lat="44.33584" lon="2.50902">
        <ele>560.2</ele>
        <time>2011-05-11T17:02:45Z</time>
      </trkpt>
      <trkpt lat="44.33586" lon="2.50897">
        <ele>559.2</ele>
        <time>2011-05-11T17:02:46Z</time>
      </trkpt>
      <trkpt lat="44.33588" lon="2.50892">
        <ele>558</ele>
        <time>2011-05-11T17:02:47Z</time>
      </trkpt>
      <trkpt lat="44.33589" lon="2.50888">
        <ele>556.5</ele>
        <time>2011-05-11T17:02:48Z</time>
      </trkpt>
      <trkpt lat="44.3359" lon="2.50883">
        <ele>555</ele>
        <time>2011-05-11T17:02:49Z</time>
      </trkpt>
      <trkpt lat="44.33592" lon="2.5088">
        <ele>554.5</ele>
        <time>2011-05-11T17:02:50Z</time>
      </trkpt>
      <trkpt lat="44.33595" lon="2.50878">
        <ele>553.9</ele>
        <time>2011-05-11T17:02:51Z</time>
      </trkpt>
      <trkpt lat="44.336" lon="2.50875">
        <ele>553</ele>
        <time>2011-05-11T17:02:52Z</time>
      </trkpt>
      <trkpt lat="44.33603" lon="2.50872">
        <ele>552</ele>
        <time>2011-05-11T17:02:53Z</time>
      </trkpt>
      <trkpt lat="44.33608" lon="2.50869">
        <ele>550.7</ele>
        <time>2011-05-11T17:02:54Z</time>
      </trkpt>
      <trkpt lat="44.33612" lon="2.50865">
        <ele>549.2</ele>
        <time>2011-05-11T17:02:55Z</time>
      </trkpt>
      <trkpt lat="44.33617" lon="2.50861">
        <ele>547.5</ele>
        <time>2011-05-11T17:02:56Z</time>
      </trkpt>
      <trkpt lat="44.33623" lon="2.50857">
        <ele>545.5</ele>
        <time>2011-05-11T17:02:57Z</time>
      </trkpt>
      <trkpt lat="44.33629" lon="2.50853">
        <ele>543.7</ele>
        <time>2011-05-11T17:02:58Z</time>
      </trkpt>
      <trkpt lat="44.33635" lon="2.50848">
        <ele>542</ele>
        <time>2011-05-11T17:02:59Z</time>
      </trkpt>
      <trkpt lat="44.3364" lon="2.50843">
        <ele>540.9</ele>
        <time>2011-05-11T17:03:00Z</time>
      </trkpt>
      <trkpt lat="44.33645" lon="2.50841">
        <ele>540.5</ele>
        <time>2011-05-11T17:03:01Z</time>
      </trkpt>
      <trkpt lat="44.33649" lon="2.5084">
        <ele>540.5</ele>
        <time>2011-05-11T17:03:02Z</time>
      </trkpt>
      <trkpt lat="44.33654" lon="2.50838">
        <ele>539.7</ele>
        <time>2011-05-11T17:03:03Z</time>
      </trkpt>
      <trkpt lat="44.33658" lon="2.50834">
        <ele>539.2</ele>
        <time>2011-05-11T17:03:04Z</time>
      </trkpt>
      <trkpt lat="44.33661" lon="2.50831">
        <ele>539.5</ele>
        <time>2011-05-11T17:03:05Z</time>
      </trkpt>
      <trkpt lat="44.33663" lon="2.50826">
        <ele>539.2</ele>
        <time>2011-05-11T17:03:07Z</time>
      </trkpt>
      <trkpt lat="44.33665" lon="2.50823">
        <ele>538.7</ele>
        <time>2011-05-11T17:03:08Z</time>
      </trkpt>
      <trkpt lat="44.33666" lon="2.5082">
        <ele>538.2</ele>
        <time>2011-05-11T17:03:09Z</time>
      </trkpt>
      <trkpt lat="44.33668" lon="2.50817">
        <ele>537.7</ele>
        <time>2011-05-11T17:03:10Z</time>
      </trkpt>
      <trkpt lat="44.33671" lon="2.50812">
        <ele>537</ele>
        <time>2011-05-11T17:03:11Z</time>
      </trkpt>
      <trkpt lat="44.33675" lon="2.50808">
        <ele>536.2</ele>
        <time>2011-05-11T17:03:12Z</time>
      </trkpt>
      <trkpt lat="44.33678" lon="2.50804">
        <ele>535.5</ele>
        <time>2011-05-11T17:03:13Z</time>
      </trkpt>
      <trkpt lat="44.33682" lon="2.508">
        <ele>535</ele>
        <time>2011-05-11T17:03:14Z</time>
      </trkpt>
      <trkpt lat="44.33687" lon="2.50797">
        <ele>534.4</ele>
        <time>2011-05-11T17:03:15Z</time>
      </trkpt>
      <trkpt lat="44.33692" lon="2.50794">
        <ele>533.7</ele>
        <time>2011-05-11T17:03:16Z</time>
      </trkpt>
      <trkpt lat="44.33697" lon="2.50792">
        <ele>533.4</ele>
        <time>2011-05-11T17:03:17Z</time>
      </trkpt>
      <trkpt lat="44.33703" lon="2.5079">
        <ele>533</ele>
        <time>2011-05-11T17:03:18Z</time>
      </trkpt>
      <trkpt lat="44.33708" lon="2.50789">
        <ele>532.5</ele>
        <time>2011-05-11T17:03:19Z</time>
      </trkpt>
      <trkpt lat="44.33714" lon="2.50787">
        <ele>532.2</ele>
        <time>2011-05-11T17:03:20Z</time>
      </trkpt>
      <trkpt lat="44.3372" lon="2.50786">
        <ele>531.7</ele>
        <time>2011-05-11T17:03:21Z</time>
      </trkpt>
      <trkpt lat="44.33725" lon="2.50785">
        <ele>531.5</ele>
        <time>2011-05-11T17:03:22Z</time>
      </trkpt>
      <trkpt lat="44.3373" lon="2.50783">
        <ele>531.5</ele>
        <time>2011-05-11T17:03:24Z</time>
      </trkpt>
      <trkpt lat="44.33734" lon="2.50781">
        <ele>538.2</ele>
        <time>2011-05-11T17:04:06Z</time>
      </trkpt>
      <trkpt lat="44.33734" lon="2.50781">
        <ele>538.2</ele>
        <time>2011-05-11T17:04:07Z</time>
      </trkpt>
      <trkpt lat="44.33739" lon="2.50784">
        <ele>539.7</ele>
        <time>2011-05-11T17:04:51Z</time>
      </trkpt>
      <trkpt lat="44.33742" lon="2.50785">
        <ele>539</ele>
        <time>2011-05-11T17:04:52Z</time>
      </trkpt>
      <trkpt lat="44.33744" lon="2.50785">
        <ele>538.5</ele>
        <time>2011-05-11T17:04:53Z</time>
      </trkpt>
      <trkpt lat="44.33746" lon="2.50785">
        <ele>537.7</ele>
        <time>2011-05-11T17:04:54Z</time>
      </trkpt>
      <trkpt lat="44.33751" lon="2.50786">
        <ele>535</ele>
        <time>2011-05-11T17:04:56Z</time>
      </trkpt>
      <trkpt lat="44.33753" lon="2.50789">
        <ele>533.2</ele>
        <time>2011-05-11T17:04:57Z</time>
      </trkpt>
      <trkpt lat="44.33755" lon="2.50791">
        <ele>531.5</ele>
        <time>2011-05-11T17:04:58Z</time>
      </trkpt>
      <trkpt lat="44.33757" lon="2.50794">
        <ele>529.7</ele>
        <time>2011-05-11T17:04:59Z</time>
      </trkpt>
      <trkpt lat="44.33761" lon="2.50796">
        <ele>528.5</ele>
        <time>2011-05-11T17:05:00Z</time>
      </trkpt>
      <trkpt lat="44.33764" lon="2.50798">
        <ele>527.5</ele>
        <time>2011-05-11T17:05:01Z</time>
      </trkpt>
      <trkpt lat="44.33767" lon="2.508">
        <ele>526.4</ele>
        <time>2011-05-11T17:05:02Z</time>
      </trkpt>
      <trkpt lat="44.3377" lon="2.50802">
        <ele>525.5</ele>
        <time>2011-05-11T17:05:03Z</time>
      </trkpt>
      <trkpt lat="44.33774" lon="2.50804">
        <ele>524.7</ele>
        <time>2011-05-11T17:05:04Z</time>
      </trkpt>
      <trkpt lat="44.33777" lon="2.50806">
        <ele>524.2</ele>
        <time>2011-05-11T17:05:05Z</time>
      </trkpt>
      <trkpt lat="44.33781" lon="2.50808">
        <ele>523.7</ele>
        <time>2011-05-11T17:05:06Z</time>
      </trkpt>
      <trkpt lat="44.33785" lon="2.50809">
        <ele>523</ele>
        <time>2011-05-11T17:05:07Z</time>
      </trkpt>
      <trkpt lat="44.33787" lon="2.50811">
        <ele>522.2</ele>
        <time>2011-05-11T17:05:08Z</time>
      </trkpt>
      <trkpt lat="44.33789" lon="2.50817">
        <ele>521.4</ele>
        <time>2011-05-11T17:05:22Z</time>
      </trkpt>
      <trkpt lat="44.33786" lon="2.50818">
        <ele>522.2</ele>
        <time>2011-05-11T17:05:30Z</time>
      </trkpt>
      <trkpt lat="44.33783" lon="2.50818">
        <ele>521.9</ele>
        <time>2011-05-11T17:05:32Z</time>
      </trkpt>
      <trkpt lat="44.3378" lon="2.50818">
        <ele>521.2</ele>
        <time>2011-05-11T17:05:33Z</time>
      </trkpt>
      <trkpt lat="44.33778" lon="2.50817">
        <ele>520.7</ele>
        <time>2011-05-11T17:05:34Z</time>
      </trkpt>
      <trkpt lat="44.33774" lon="2.50818">
        <ele>519.2</ele>
        <time>2011-05-11T17:05:36Z</time>
      </trkpt>
      <trkpt lat="44.33771" lon="2.50818">
        <ele>518.2</ele>
        <time>2011-05-11T17:05:37Z</time>
      </trkpt>
      <trkpt lat="44.33767" lon="2.50819">
        <ele>517</ele>
        <time>2011-05-11T17:05:38Z</time>
      </trkpt>
      <trkpt lat="44.33763" lon="2.50819">
        <ele>515.7</ele>
        <time>2011-05-11T17:05:39Z</time>
      </trkpt>
      <trkpt lat="44.33759" lon="2.50819">
        <ele>514.4</ele>
        <time>2011-05-11T17:05:40Z</time>
      </trkpt>
      <trkpt lat="44.33755" lon="2.5082">
        <ele>513</ele>
        <time>2011-05-11T17:05:41Z</time>
      </trkpt>
      <trkpt lat="44.33752" lon="2.50821">
        <ele>511.6</ele>
        <time>2011-05-11T17:05:42Z</time>
      </trkpt>
      <trkpt lat="44.33748" lon="2.50823">
        <ele>510.5</ele>
        <time>2011-05-11T17:05:43Z</time>
      </trkpt>
      <trkpt lat="44.33743" lon="2.50825">
        <ele>509.5</ele>
        <time>2011-05-11T17:05:44Z</time>
      </trkpt>
      <trkpt lat="44.33739" lon="2.50828">
        <ele>508.7</ele>
        <time>2011-05-11T17:05:45Z</time>
      </trkpt>
      <trkpt lat="44.33734" lon="2.50831">
        <ele>507.7</ele>
        <time>2011-05-11T17:05:46Z</time>
      </trkpt>
      <trkpt lat="44.3373" lon="2.50834">
        <ele>506.7</ele>
        <time>2011-05-11T17:05:47Z</time>
      </trkpt>
      <trkpt lat="44.33725" lon="2.50838">
        <ele>505.7</ele>
        <time>2011-05-11T17:05:48Z</time>
      </trkpt>
      <trkpt lat="44.3372" lon="2.50842">
        <ele>504.5</ele>
        <time>2011-05-11T17:05:49Z</time>
      </trkpt>
      <trkpt lat="44.33715" lon="2.50846">
        <ele>503.7</ele>
        <time>2011-05-11T17:05:50Z</time>
      </trkpt>
      <trkpt lat="44.3371" lon="2.50852">
        <ele>502.8</ele>
        <time>2011-05-11T17:05:51Z</time>
      </trkpt>
      <trkpt lat="44.33705" lon="2.50858">
        <ele>502.2</ele>
        <time>2011-05-11T17:05:52Z</time>
      </trkpt>
      <trkpt lat="44.337" lon="2.50865">
        <ele>501.6</ele>
        <time>2011-05-11T17:05:53Z</time>
      </trkpt>
      <trkpt lat="44.33695" lon="2.50871">
        <ele>501.1</ele>
        <time>2011-05-11T17:05:54Z</time>
      </trkpt>
      <trkpt lat="44.3369" lon="2.50878">
        <ele>500.8</ele>
        <time>2011-05-11T17:05:55Z</time>
      </trkpt>
      <trkpt lat="44.33685" lon="2.50885">
        <ele>501.2</ele>
        <time>2011-05-11T17:05:56Z</time>
      </trkpt>
      <trkpt lat="44.33681" lon="2.50891">
        <ele>501.6</ele>
        <time>2011-05-11T17:05:57Z</time>
      </trkpt>
      <trkpt lat="44.33677" lon="2.50897">
        <ele>501.3</ele>
        <time>2011-05-11T17:05:58Z</time>
      </trkpt>
      <trkpt lat="44.33673" lon="2.50903">
        <ele>501.2</ele>
        <time>2011-05-11T17:05:59Z</time>
      </trkpt>
      <trkpt lat="44.3367" lon="2.50909">
        <ele>501</ele>
        <time>2011-05-11T17:06:00Z</time>
      </trkpt>
      <trkpt lat="44.33667" lon="2.50915">
        <ele>501.2</ele>
        <time>2011-05-11T17:06:01Z</time>
      </trkpt>
      <trkpt lat="44.33664" lon="2.50921">
        <ele>501.7</ele>
        <time>2011-05-11T17:06:02Z</time>
      </trkpt>
      <trkpt lat="44.33662" lon="2.50927">
        <ele>502.3</ele>
        <time>2011-05-11T17:06:03Z</time>
      </trkpt>
      <trkpt lat="44.3366" lon="2.50934">
        <ele>503.2</ele>
        <time>2011-05-11T17:06:04Z</time>
      </trkpt>
      <trkpt lat="44.3366" lon="2.5094">
        <ele>504.2</ele>
        <time>2011-05-11T17:06:05Z</time>
      </trkpt>
      <trkpt lat="44.33658" lon="2.50947">
        <ele>505.5</ele>
        <time>2011-05-11T17:06:06Z</time>
      </trkpt>
      <trkpt lat="44.33657" lon="2.50953">
        <ele>506.7</ele>
        <time>2011-05-11T17:06:07Z</time>
      </trkpt>
      <trkpt lat="44.33656" lon="2.50959">
        <ele>508</ele>
        <time>2011-05-11T17:06:08Z</time>
      </trkpt>
      <trkpt lat="44.33655" lon="2.50965">
        <ele>509.1</ele>
        <time>2011-05-11T17:06:09Z</time>
      </trkpt>
      <trkpt lat="44.33654" lon="2.50971">
        <ele>510</ele>
        <time>2011-05-11T17:06:10Z</time>
      </trkpt>
      <trkpt lat="44.33653" lon="2.50976">
        <ele>510.6</ele>
        <time>2011-05-11T17:06:11Z</time>
      </trkpt>
      <trkpt lat="44.33651" lon="2.50981">
        <ele>511.2</ele>
        <time>2011-05-11T17:06:12Z</time>
      </trkpt>
      <trkpt lat="44.3365" lon="2.50986">
        <ele>512</ele>
        <time>2011-05-11T17:06:13Z</time>
      </trkpt>
      <trkpt lat="44.33649" lon="2.50989">
        <ele>512.7</ele>
        <time>2011-05-11T17:06:14Z</time>
      </trkpt>
      <trkpt lat="44.33648" lon="2.50994">
        <ele>514.5</ele>
        <time>2011-05-11T17:06:16Z</time>
      </trkpt>
      <trkpt lat="44.33647" lon="2.50999">
        <ele>515.9</ele>
        <time>2011-05-11T17:06:18Z</time>
      </trkpt>
      <trkpt lat="44.33645" lon="2.51003">
        <ele>516.7</ele>
        <time>2011-05-11T17:06:20Z</time>
      </trkpt>
      <trkpt lat="44.33644" lon="2.51008">
        <ele>517.2</ele>
        <time>2011-05-11T17:06:22Z</time>
      </trkpt>
      <trkpt lat="44.33642" lon="2.51013">
        <ele>517.7</ele>
        <time>2011-05-11T17:06:24Z</time>
      </trkpt>
      <trkpt lat="44.3364" lon="2.51017">
        <ele>518</ele>
        <time>2011-05-11T17:06:26Z</time>
      </trkpt>
      <trkpt lat="44.33639" lon="2.51021">
        <ele>517.7</ele>
        <time>2011-05-11T17:06:28Z</time>
      </trkpt>
      <trkpt lat="44.33637" lon="2.51026">
        <ele>517.7</ele>
        <time>2011-05-11T17:06:30Z</time>
      </trkpt>
      <trkpt lat="44.33636" lon="2.51029">
        <ele>517.7</ele>
        <time>2011-05-11T17:06:31Z</time>
      </trkpt>
      <trkpt lat="44.33635" lon="2.51033">
        <ele>517.7</ele>
        <time>2011-05-11T17:06:32Z</time>
      </trkpt>
      <trkpt lat="44.33634" lon="2.51037">
        <ele>517.7</ele>
        <time>2011-05-11T17:06:33Z</time>
      </trkpt>
      <trkpt lat="44.33633" lon="2.5104">
        <ele>517.7</ele>
        <time>2011-05-11T17:06:34Z</time>
      </trkpt>
      <trkpt lat="44.33633" lon="2.51044">
        <ele>517.7</ele>
        <time>2011-05-11T17:06:35Z</time>
      </trkpt>
      <trkpt lat="44.33632" lon="2.51048">
        <ele>517.7</ele>
        <time>2011-05-11T17:06:36Z</time>
      </trkpt>
      <trkpt lat="44.33632" lon="2.51053">
        <ele>518</ele>
        <time>2011-05-11T17:06:37Z</time>
      </trkpt>
      <trkpt lat="44.33631" lon="2.51058">
        <ele>518.2</ele>
        <time>2011-05-11T17:06:38Z</time>
      </trkpt>
      <trkpt lat="44.3363" lon="2.51062">
        <ele>518.5</ele>
        <time>2011-05-11T17:06:39Z</time>
      </trkpt>
      <trkpt lat="44.33629" lon="2.51065">
        <ele>518.5</ele>
        <time>2011-05-11T17:06:40Z</time>
      </trkpt>
      <trkpt lat="44.33628" lon="2.5107">
        <ele>518.2</ele>
        <time>2011-05-11T17:06:41Z</time>
      </trkpt>
      <trkpt lat="44.33626" lon="2.51075">
        <ele>517.7</ele>
        <time>2011-05-11T17:06:42Z</time>
      </trkpt>
      <trkpt lat="44.33624" lon="2.51079">
        <ele>517.5</ele>
        <time>2011-05-11T17:06:43Z</time>
      </trkpt>
      <trkpt lat="44.33622" lon="2.51084">
        <ele>517.4</ele>
        <time>2011-05-11T17:06:44Z</time>
      </trkpt>
      <trkpt lat="44.3362" lon="2.51088">
        <ele>517.2</ele>
        <time>2011-05-11T17:06:45Z</time>
      </trkpt>
      <trkpt lat="44.33619" lon="2.51092">
        <ele>517.2</ele>
        <time>2011-05-11T17:06:46Z</time>
      </trkpt>
      <trkpt lat="44.33618" lon="2.51096">
        <ele>517.5</ele>
        <time>2011-05-11T17:06:47Z</time>
      </trkpt>
      <trkpt lat="44.33617" lon="2.511">
        <ele>518</ele>
        <time>2011-05-11T17:06:48Z</time>
      </trkpt>
      <trkpt lat="44.33616" lon="2.51103">
        <ele>518.4</ele>
        <time>2011-05-11T17:06:49Z</time>
      </trkpt>
      <trkpt lat="44.33613" lon="2.51109">
        <ele>518.9</ele>
        <time>2011-05-11T17:06:51Z</time>
      </trkpt>
      <trkpt lat="44.33612" lon="2.51112">
        <ele>519</ele>
        <time>2011-05-11T17:06:52Z</time>
      </trkpt>
      <trkpt lat="44.33612" lon="2.51117">
        <ele>519.2</ele>
        <time>2011-05-11T17:06:53Z</time>
      </trkpt>
      <trkpt lat="44.33611" lon="2.51122">
        <ele>519.7</ele>
        <time>2011-05-11T17:06:54Z</time>
      </trkpt>
      <trkpt lat="44.3361" lon="2.51126">
        <ele>520.2</ele>
        <time>2011-05-11T17:06:55Z</time>
      </trkpt>
      <trkpt lat="44.33609" lon="2.51129">
        <ele>520.7</ele>
        <time>2011-05-11T17:06:56Z</time>
      </trkpt>
      <trkpt lat="44.33608" lon="2.51132">
        <ele>521</ele>
        <time>2011-05-11T17:06:57Z</time>
      </trkpt>
      <trkpt lat="44.33605" lon="2.51137">
        <ele>521.7</ele>
        <time>2011-05-11T17:06:59Z</time>
      </trkpt>
      <trkpt lat="44.33605" lon="2.51142">
        <ele>521.9</ele>
        <time>2011-05-11T17:07:01Z</time>
      </trkpt>
      <trkpt lat="44.33605" lon="2.51145">
        <ele>521.7</ele>
        <time>2011-05-11T17:07:02Z</time>
      </trkpt>
      <trkpt lat="44.33605" lon="2.51149">
        <ele>521.7</ele>
        <time>2011-05-11T17:07:03Z</time>
      </trkpt>
      <trkpt lat="44.33604" lon="2.51154">
        <ele>522.2</ele>
        <time>2011-05-11T17:07:05Z</time>
      </trkpt>
      <trkpt lat="44.33603" lon="2.51157">
        <ele>522.4</ele>
        <time>2011-05-11T17:07:06Z</time>
      </trkpt>
      <trkpt lat="44.33603" lon="2.5116">
        <ele>522.7</ele>
        <time>2011-05-11T17:07:07Z</time>
      </trkpt>
      <trkpt lat="44.33602" lon="2.51164">
        <ele>522.9</ele>
        <time>2011-05-11T17:07:08Z</time>
      </trkpt>
      <trkpt lat="44.33602" lon="2.51168">
        <ele>523</ele>
        <time>2011-05-11T17:07:09Z</time>
      </trkpt>
      <trkpt lat="44.33602" lon="2.51172">
        <ele>522.9</ele>
        <time>2011-05-11T17:07:10Z</time>
      </trkpt>
      <trkpt lat="44.33602" lon="2.51177">
        <ele>522.7</ele>
        <time>2011-05-11T17:07:11Z</time>
      </trkpt>
      <trkpt lat="44.33601" lon="2.5118">
        <ele>522.7</ele>
        <time>2011-05-11T17:07:12Z</time>
      </trkpt>
      <trkpt lat="44.33599" lon="2.51182">
        <ele>522.5</ele>
        <time>2011-05-11T17:07:13Z</time>
      </trkpt>
      <trkpt lat="44.33598" lon="2.51185">
        <ele>522.5</ele>
        <time>2011-05-11T17:07:14Z</time>
      </trkpt>
      <trkpt lat="44.33595" lon="2.51188">
        <ele>522.7</ele>
        <time>2011-05-11T17:07:16Z</time>
      </trkpt>
      <trkpt lat="44.33594" lon="2.51193">
        <ele>520.9</ele>
        <time>2011-05-11T17:07:19Z</time>
      </trkpt>
      <trkpt lat="44.33592" lon="2.51198">
        <ele>519.5</ele>
        <time>2011-05-11T17:07:21Z</time>
      </trkpt>
      <trkpt lat="44.3359" lon="2.51202">
        <ele>518.7</ele>
        <time>2011-05-11T17:07:23Z</time>
      </trkpt>
      <trkpt lat="44.33588" lon="2.51206">
        <ele>518.5</ele>
        <time>2011-05-11T17:07:25Z</time>
      </trkpt>
      <trkpt lat="44.33588" lon="2.51211">
        <ele>517.7</ele>
        <time>2011-05-11T17:07:27Z</time>
      </trkpt>
      <trkpt lat="44.33588" lon="2.51214">
        <ele>517.2</ele>
        <time>2011-05-11T17:07:28Z</time>
      </trkpt>
      <trkpt lat="44.33587" lon="2.51218">
        <ele>517</ele>
        <time>2011-05-11T17:07:29Z</time>
      </trkpt>
      <trkpt lat="44.33587" lon="2.51222">
        <ele>516.9</ele>
        <time>2011-05-11T17:07:30Z</time>
      </trkpt>
      <trkpt lat="44.33586" lon="2.51228">
        <ele>517.2</ele>
        <time>2011-05-11T17:07:32Z</time>
      </trkpt>
      <trkpt lat="44.33586" lon="2.51233">
        <ele>517.2</ele>
        <time>2011-05-11T17:07:34Z</time>
      </trkpt>
      <trkpt lat="44.33584" lon="2.51237">
        <ele>516.9</ele>
        <time>2011-05-11T17:07:36Z</time>
      </trkpt>
      <trkpt lat="44.33583" lon="2.51241">
        <ele>516</ele>
        <time>2011-05-11T17:07:38Z</time>
      </trkpt>
      <trkpt lat="44.33581" lon="2.51245">
        <ele>515.2</ele>
        <time>2011-05-11T17:07:40Z</time>
      </trkpt>
      <trkpt lat="44.33579" lon="2.51248">
        <ele>514.7</ele>
        <time>2011-05-11T17:07:41Z</time>
      </trkpt>
      <trkpt lat="44.33576" lon="2.51252">
        <ele>513.5</ele>
        <time>2011-05-11T17:07:43Z</time>
      </trkpt>
      <trkpt lat="44.33573" lon="2.51256">
        <ele>512.5</ele>
        <time>2011-05-11T17:07:45Z</time>
      </trkpt>
      <trkpt lat="44.33571" lon="2.5126">
        <ele>511.7</ele>
        <time>2011-05-11T17:07:47Z</time>
      </trkpt>
      <trkpt lat="44.33568" lon="2.51264">
        <ele>511.3</ele>
        <time>2011-05-11T17:07:49Z</time>
      </trkpt>
      <trkpt lat="44.33566" lon="2.51268">
        <ele>510.7</ele>
        <time>2011-05-11T17:07:51Z</time>
      </trkpt>
      <trkpt lat="44.33565" lon="2.51273">
        <ele>510</ele>
        <time>2011-05-11T17:07:53Z</time>
      </trkpt>
      <trkpt lat="44.33562" lon="2.51276">
        <ele>509.5</ele>
        <time>2011-05-11T17:07:55Z</time>
      </trkpt>
      <trkpt lat="44.33562" lon="2.5128">
        <ele>509</ele>
        <time>2011-05-11T17:07:57Z</time>
      </trkpt>
      <trkpt lat="44.33561" lon="2.51286">
        <ele>508.7</ele>
        <time>2011-05-11T17:07:59Z</time>
      </trkpt>
      <trkpt lat="44.33559" lon="2.5129">
        <ele>508.6</ele>
        <time>2011-05-11T17:08:01Z</time>
      </trkpt>
      <trkpt lat="44.33559" lon="2.51296">
        <ele>508.2</ele>
        <time>2011-05-11T17:08:04Z</time>
      </trkpt>
      <trkpt lat="44.33559" lon="2.513">
        <ele>508.1</ele>
        <time>2011-05-11T17:08:05Z</time>
      </trkpt>
      <trkpt lat="44.33558" lon="2.51303">
        <ele>507.7</ele>
        <time>2011-05-11T17:08:06Z</time>
      </trkpt>
      <trkpt lat="44.33558" lon="2.51307">
        <ele>507.5</ele>
        <time>2011-05-11T17:08:07Z</time>
      </trkpt>
      <trkpt lat="44.33558" lon="2.51311">
        <ele>507.2</ele>
        <time>2011-05-11T17:08:08Z</time>
      </trkpt>
      <trkpt lat="44.33557" lon="2.51316">
        <ele>506.5</ele>
        <time>2011-05-11T17:08:10Z</time>
      </trkpt>
      <trkpt lat="44.33557" lon="2.51319">
        <ele>506.1</ele>
        <time>2011-05-11T17:08:11Z</time>
      </trkpt>
      <trkpt lat="44.33556" lon="2.51323">
        <ele>506</ele>
        <time>2011-05-11T17:08:12Z</time>
      </trkpt>
      <trkpt lat="44.33554" lon="2.51331">
        <ele>506.7</ele>
        <time>2011-05-11T17:08:15Z</time>
      </trkpt>
      <trkpt lat="44.33554" lon="2.51336">
        <ele>507.2</ele>
        <time>2011-05-11T17:08:17Z</time>
      </trkpt>
      <trkpt lat="44.33553" lon="2.51341">
        <ele>507.6</ele>
        <time>2011-05-11T17:08:19Z</time>
      </trkpt>
      <trkpt lat="44.33552" lon="2.51346">
        <ele>508</ele>
        <time>2011-05-11T17:08:21Z</time>
      </trkpt>
      <trkpt lat="44.33551" lon="2.51352">
        <ele>508.2</ele>
        <time>2011-05-11T17:08:23Z</time>
      </trkpt>
      <trkpt lat="44.33551" lon="2.51357">
        <ele>508.6</ele>
        <time>2011-05-11T17:08:25Z</time>
      </trkpt>
      <trkpt lat="44.3355" lon="2.51362">
        <ele>508.7</ele>
        <time>2011-05-11T17:08:27Z</time>
      </trkpt>
      <trkpt lat="44.33549" lon="2.51368">
        <ele>508.7</ele>
        <time>2011-05-11T17:08:29Z</time>
      </trkpt>
      <trkpt lat="44.33549" lon="2.51373">
        <ele>508.8</ele>
        <time>2011-05-11T17:08:31Z</time>
      </trkpt>
      <trkpt lat="44.33548" lon="2.51377">
        <ele>508.8</ele>
        <time>2011-05-11T17:08:33Z</time>
      </trkpt>
      <trkpt lat="44.33547" lon="2.51381">
        <ele>508.8</ele>
        <time>2011-05-11T17:08:35Z</time>
      </trkpt>
      <trkpt lat="44.33546" lon="2.51386">
        <ele>509.1</ele>
        <time>2011-05-11T17:08:37Z</time>
      </trkpt>
      <trkpt lat="44.33545" lon="2.5139">
        <ele>509.7</ele>
        <time>2011-05-11T17:08:39Z</time>
      </trkpt>
      <trkpt lat="44.33544" lon="2.51395">
        <ele>510.3</ele>
        <time>2011-05-11T17:08:41Z</time>
      </trkpt>
      <trkpt lat="44.33543" lon="2.51399">
        <ele>511.1</ele>
        <time>2011-05-11T17:08:43Z</time>
      </trkpt>
      <trkpt lat="44.33543" lon="2.51403">
        <ele>511.7</ele>
        <time>2011-05-11T17:08:45Z</time>
      </trkpt>
      <trkpt lat="44.33542" lon="2.51409">
        <ele>512.7</ele>
        <time>2011-05-11T17:08:48Z</time>
      </trkpt>
      <trkpt lat="44.33541" lon="2.51413">
        <ele>513.2</ele>
        <time>2011-05-11T17:08:50Z</time>
      </trkpt>
      <trkpt lat="44.3354" lon="2.51419">
        <ele>513.2</ele>
        <time>2011-05-11T17:08:53Z</time>
      </trkpt>
      <trkpt lat="44.3354" lon="2.51422">
        <ele>513.2</ele>
        <time>2011-05-11T17:08:54Z</time>
      </trkpt>
      <trkpt lat="44.33539" lon="2.51425">
        <ele>513.2</ele>
        <time>2011-05-11T17:08:55Z</time>
      </trkpt>
      <trkpt lat="44.33538" lon="2.51431">
        <ele>513.5</ele>
        <time>2011-05-11T17:08:57Z</time>
      </trkpt>
      <trkpt lat="44.33537" lon="2.51437">
        <ele>513.7</ele>
        <time>2011-05-11T17:09:00Z</time>
      </trkpt>
      <trkpt lat="44.33538" lon="2.51442">
        <ele>513</ele>
        <time>2011-05-11T17:09:15Z</time>
      </trkpt>
      <trkpt lat="44.33539" lon="2.51444">
        <ele>512.7</ele>
        <time>2011-05-11T17:09:16Z</time>
      </trkpt>
      <trkpt lat="44.33539" lon="2.51452">
        <ele>511.8</ele>
        <time>2011-05-11T17:09:19Z</time>
      </trkpt>
      <trkpt lat="44.33538" lon="2.51457">
        <ele>511.3</ele>
        <time>2011-05-11T17:09:21Z</time>
      </trkpt>
      <trkpt lat="44.33537" lon="2.51463">
        <ele>510.5</ele>
        <time>2011-05-11T17:09:25Z</time>
      </trkpt>
      <trkpt lat="44.33533" lon="2.51467">
        <ele>508.8</ele>
        <time>2011-05-11T17:09:45Z</time>
      </trkpt>
      <trkpt lat="44.33532" lon="2.51471">
        <ele>508.7</ele>
        <time>2011-05-11T17:09:49Z</time>
      </trkpt>
      <trkpt lat="44.3353" lon="2.51476">
        <ele>508.3</ele>
        <time>2011-05-11T17:09:52Z</time>
      </trkpt>
      <trkpt lat="44.33528" lon="2.51479">
        <ele>507.7</ele>
        <time>2011-05-11T17:09:54Z</time>
      </trkpt>
      <trkpt lat="44.33525" lon="2.51484">
        <ele>507</ele>
        <time>2011-05-11T17:09:57Z</time>
      </trkpt>
      <trkpt lat="44.33524" lon="2.51488">
        <ele>506.3</ele>
        <time>2011-05-11T17:09:59Z</time>
      </trkpt>
      <trkpt lat="44.33523" lon="2.51493">
        <ele>506.1</ele>
        <time>2011-05-11T17:10:01Z</time>
      </trkpt>
      <trkpt lat="44.33521" lon="2.51498">
        <ele>505.7</ele>
        <time>2011-05-11T17:10:03Z</time>
      </trkpt>
      <trkpt lat="44.3352" lon="2.51503">
        <ele>505.5</ele>
        <time>2011-05-11T17:10:05Z</time>
      </trkpt>
      <trkpt lat="44.33518" lon="2.51507">
        <ele>505.3</ele>
        <time>2011-05-11T17:10:07Z</time>
      </trkpt>
      <trkpt lat="44.33516" lon="2.51511">
        <ele>505.5</ele>
        <time>2011-05-11T17:10:09Z</time>
      </trkpt>
      <trkpt lat="44.33514" lon="2.51517">
        <ele>505.6</ele>
        <time>2011-05-11T17:10:11Z</time>
      </trkpt>
      <trkpt lat="44.33512" lon="2.51522">
        <ele>505.7</ele>
        <time>2011-05-11T17:10:13Z</time>
      </trkpt>
      <trkpt lat="44.3351" lon="2.51527">
        <ele>505.7</ele>
        <time>2011-05-11T17:10:15Z</time>
      </trkpt>
      <trkpt lat="44.33508" lon="2.51532">
        <ele>505.3</ele>
        <time>2011-05-11T17:10:17Z</time>
      </trkpt>
      <trkpt lat="44.33507" lon="2.51535">
        <ele>505.2</ele>
        <time>2011-05-11T17:10:18Z</time>
      </trkpt>
      <trkpt lat="44.33504" lon="2.51541">
        <ele>504.6</ele>
        <time>2011-05-11T17:10:21Z</time>
      </trkpt>
      <trkpt lat="44.33503" lon="2.51547">
        <ele>503.7</ele>
        <time>2011-05-11T17:10:24Z</time>
      </trkpt>
      <trkpt lat="44.33501" lon="2.51551">
        <ele>503.6</ele>
        <time>2011-05-11T17:10:26Z</time>
      </trkpt>
      <trkpt lat="44.33501" lon="2.51556">
        <ele>503.5</ele>
        <time>2011-05-11T17:10:28Z</time>
      </trkpt>
      <trkpt lat="44.33499" lon="2.51561">
        <ele>503.2</ele>
        <time>2011-05-11T17:10:30Z</time>
      </trkpt>
      <trkpt lat="44.33497" lon="2.51565">
        <ele>502.7</ele>
        <time>2011-05-11T17:10:32Z</time>
      </trkpt>
      <trkpt lat="44.33495" lon="2.5157">
        <ele>502.3</ele>
        <time>2011-05-11T17:10:34Z</time>
      </trkpt>
      <trkpt lat="44.33494" lon="2.51575">
        <ele>501.8</ele>
        <time>2011-05-11T17:10:36Z</time>
      </trkpt>
      <trkpt lat="44.33492" lon="2.5158">
        <ele>501.7</ele>
        <time>2011-05-11T17:10:38Z</time>
      </trkpt>
      <trkpt lat="44.33491" lon="2.51585">
        <ele>502.2</ele>
        <time>2011-05-11T17:10:40Z</time>
      </trkpt>
      <trkpt lat="44.3349" lon="2.51589">
        <ele>503.1</ele>
        <time>2011-05-11T17:10:42Z</time>
      </trkpt>
      <trkpt lat="44.33489" lon="2.51595">
        <ele>503.5</ele>
        <time>2011-05-11T17:10:44Z</time>
      </trkpt>
      <trkpt lat="44.33489" lon="2.516">
        <ele>503.7</ele>
        <time>2011-05-11T17:10:46Z</time>
      </trkpt>
      <trkpt lat="44.33488" lon="2.51606">
        <ele>504</ele>
        <time>2011-05-11T17:10:48Z</time>
      </trkpt>
      <trkpt lat="44.33486" lon="2.51611">
        <ele>504.2</ele>
        <time>2011-05-11T17:10:50Z</time>
      </trkpt>
      <trkpt lat="44.33484" lon="2.51617">
        <ele>504.2</ele>
        <time>2011-05-11T17:10:52Z</time>
      </trkpt>
      <trkpt lat="44.33482" lon="2.51621">
        <ele>504</ele>
        <time>2011-05-11T17:10:54Z</time>
      </trkpt>
      <trkpt lat="44.33482" lon="2.51626">
        <ele>503.8</ele>
        <time>2011-05-11T17:10:56Z</time>
      </trkpt>
      <trkpt lat="44.33481" lon="2.51631">
        <ele>504.1</ele>
        <time>2011-05-11T17:10:58Z</time>
      </trkpt>
      <trkpt lat="44.3348" lon="2.51636">
        <ele>504.5</ele>
        <time>2011-05-11T17:11:00Z</time>
      </trkpt>
      <trkpt lat="44.33478" lon="2.51641">
        <ele>504.7</ele>
        <time>2011-05-11T17:11:02Z</time>
      </trkpt>
      <trkpt lat="44.33477" lon="2.51646">
        <ele>505.2</ele>
        <time>2011-05-11T17:11:04Z</time>
      </trkpt>
      <trkpt lat="44.33475" lon="2.51651">
        <ele>505.7</ele>
        <time>2011-05-11T17:11:06Z</time>
      </trkpt>
      <trkpt lat="44.33474" lon="2.51655">
        <ele>506.1</ele>
        <time>2011-05-11T17:11:08Z</time>
      </trkpt>
      <trkpt lat="44.33471" lon="2.5166">
        <ele>506.2</ele>
        <time>2011-05-11T17:11:10Z</time>
      </trkpt>
      <trkpt lat="44.33469" lon="2.51665">
        <ele>506</ele>
        <time>2011-05-11T17:11:12Z</time>
      </trkpt>
      <trkpt lat="44.33467" lon="2.5167">
        <ele>505.5</ele>
        <time>2011-05-11T17:11:14Z</time>
      </trkpt>
      <trkpt lat="44.33465" lon="2.51675">
        <ele>505.1</ele>
        <time>2011-05-11T17:11:16Z</time>
      </trkpt>
      <trkpt lat="44.33463" lon="2.51679">
        <ele>504.6</ele>
        <time>2011-05-11T17:11:18Z</time>
      </trkpt>
      <trkpt lat="44.33461" lon="2.51682">
        <ele>504.2</ele>
        <time>2011-05-11T17:11:19Z</time>
      </trkpt>
      <trkpt lat="44.33459" lon="2.51685">
        <ele>503.3</ele>
        <time>2011-05-11T17:11:21Z</time>
      </trkpt>
      <trkpt lat="44.33457" lon="2.51689">
        <ele>502.6</ele>
        <time>2011-05-11T17:11:24Z</time>
      </trkpt>
      <trkpt lat="44.33455" lon="2.51694">
        <ele>502.6</ele>
        <time>2011-05-11T17:11:27Z</time>
      </trkpt>
      <trkpt lat="44.33453" lon="2.51698">
        <ele>502.8</ele>
        <time>2011-05-11T17:11:29Z</time>
      </trkpt>
      <trkpt lat="44.3345" lon="2.51703">
        <ele>502.7</ele>
        <time>2011-05-11T17:11:32Z</time>
      </trkpt>
      <trkpt lat="44.33448" lon="2.51707">
        <ele>502.7</ele>
        <time>2011-05-11T17:11:34Z</time>
      </trkpt>
      <trkpt lat="44.33447" lon="2.51712">
        <ele>502.8</ele>
        <time>2011-05-11T17:11:36Z</time>
      </trkpt>
      <trkpt lat="44.33446" lon="2.51717">
        <ele>503.7</ele>
        <time>2011-05-11T17:11:38Z</time>
      </trkpt>
      <trkpt lat="44.33445" lon="2.51722">
        <ele>504.7</ele>
        <time>2011-05-11T17:11:40Z</time>
      </trkpt>
      <trkpt lat="44.33445" lon="2.51727">
        <ele>506.1</ele>
        <time>2011-05-11T17:11:42Z</time>
      </trkpt>
      <trkpt lat="44.33445" lon="2.51731">
        <ele>507.7</ele>
        <time>2011-05-11T17:11:44Z</time>
      </trkpt>
      <trkpt lat="44.33446" lon="2.51736">
        <ele>510.1</ele>
        <time>2011-05-11T17:11:46Z</time>
      </trkpt>
      <trkpt lat="44.33448" lon="2.51741">
        <ele>513</ele>
        <time>2011-05-11T17:11:48Z</time>
      </trkpt>
      <trkpt lat="44.3345" lon="2.51745">
        <ele>515.2</ele>
        <time>2011-05-11T17:11:50Z</time>
      </trkpt>
      <trkpt lat="44.33451" lon="2.51749">
        <ele>517</ele>
        <time>2011-05-11T17:11:52Z</time>
      </trkpt>
      <trkpt lat="44.3345" lon="2.51755">
        <ele>518.9</ele>
        <time>2011-05-11T17:11:54Z</time>
      </trkpt>
      <trkpt lat="44.33449" lon="2.51759">
        <ele>519.5</ele>
        <time>2011-05-11T17:11:56Z</time>
      </trkpt>
      <trkpt lat="44.33448" lon="2.51765">
        <ele>519.7</ele>
        <time>2011-05-11T17:11:59Z</time>
      </trkpt>
      <trkpt lat="44.33447" lon="2.5177">
        <ele>519.2</ele>
        <time>2011-05-11T17:12:02Z</time>
      </trkpt>
      <trkpt lat="44.33446" lon="2.51776">
        <ele>519</ele>
        <time>2011-05-11T17:12:05Z</time>
      </trkpt>
      <trkpt lat="44.33444" lon="2.5178">
        <ele>519.2</ele>
        <time>2011-05-11T17:12:07Z</time>
      </trkpt>
      <trkpt lat="44.33443" lon="2.51784">
        <ele>519.5</ele>
        <time>2011-05-11T17:12:09Z</time>
      </trkpt>
      <trkpt lat="44.3344" lon="2.51789">
        <ele>519.2</ele>
        <time>2011-05-11T17:12:11Z</time>
      </trkpt>
      <trkpt lat="44.33439" lon="2.51793">
        <ele>519</ele>
        <time>2011-05-11T17:12:13Z</time>
      </trkpt>
      <trkpt lat="44.33436" lon="2.51797">
        <ele>518.5</ele>
        <time>2011-05-11T17:12:15Z</time>
      </trkpt>
      <trkpt lat="44.33434" lon="2.51801">
        <ele>517.2</ele>
        <time>2011-05-11T17:12:17Z</time>
      </trkpt>
      <trkpt lat="44.3343" lon="2.51805">
        <ele>515.2</ele>
        <time>2011-05-11T17:12:19Z</time>
      </trkpt>
      <trkpt lat="44.33429" lon="2.51807">
        <ele>513.9</ele>
        <time>2011-05-11T17:12:20Z</time>
      </trkpt>
      <trkpt lat="44.33424" lon="2.51811">
        <ele>510.3</ele>
        <time>2011-05-11T17:12:23Z</time>
      </trkpt>
      <trkpt lat="44.33422" lon="2.51815">
        <ele>508</ele>
        <time>2011-05-11T17:12:25Z</time>
      </trkpt>
      <trkpt lat="44.33419" lon="2.51819">
        <ele>505.6</ele>
        <time>2011-05-11T17:12:27Z</time>
      </trkpt>
      <trkpt lat="44.33418" lon="2.51822">
        <ele>504.5</ele>
        <time>2011-05-11T17:12:28Z</time>
      </trkpt>
      <trkpt lat="44.33416" lon="2.51825">
        <ele>503.5</ele>
        <time>2011-05-11T17:12:29Z</time>
      </trkpt>
      <trkpt lat="44.33415" lon="2.51828">
        <ele>502.7</ele>
        <time>2011-05-11T17:12:30Z</time>
      </trkpt>
      <trkpt lat="44.33412" lon="2.51833">
        <ele>501.6</ele>
        <time>2011-05-11T17:12:32Z</time>
      </trkpt>
      <trkpt lat="44.33411" lon="2.51837">
        <ele>500</ele>
        <time>2011-05-11T17:12:34Z</time>
      </trkpt>
      <trkpt lat="44.33408" lon="2.51842">
        <ele>498.1</ele>
        <time>2011-05-11T17:12:36Z</time>
      </trkpt>
      <trkpt lat="44.33406" lon="2.51847">
        <ele>496.2</ele>
        <time>2011-05-11T17:12:38Z</time>
      </trkpt>
      <trkpt lat="44.33404" lon="2.51852">
        <ele>494.3</ele>
        <time>2011-05-11T17:12:40Z</time>
      </trkpt>
      <trkpt lat="44.33402" lon="2.51857">
        <ele>492.2</ele>
        <time>2011-05-11T17:12:42Z</time>
      </trkpt>
      <trkpt lat="44.334" lon="2.51862">
        <ele>490.5</ele>
        <time>2011-05-11T17:12:44Z</time>
      </trkpt>
      <trkpt lat="44.33399" lon="2.51867">
        <ele>489</ele>
        <time>2011-05-11T17:12:46Z</time>
      </trkpt>
      <trkpt lat="44.33398" lon="2.51871">
        <ele>488.1</ele>
        <time>2011-05-11T17:12:48Z</time>
      </trkpt>
      <trkpt lat="44.33398" lon="2.51876">
        <ele>487.3</ele>
        <time>2011-05-11T17:12:50Z</time>
      </trkpt>
      <trkpt lat="44.33397" lon="2.51881">
        <ele>486.6</ele>
        <time>2011-05-11T17:12:52Z</time>
      </trkpt>
      <trkpt lat="44.33397" lon="2.51886">
        <ele>486.6</ele>
        <time>2011-05-11T17:12:54Z</time>
      </trkpt>
      <trkpt lat="44.33397" lon="2.51892">
        <ele>487.1</ele>
        <time>2011-05-11T17:12:56Z</time>
      </trkpt>
      <trkpt lat="44.33398" lon="2.51897">
        <ele>487.7</ele>
        <time>2011-05-11T17:12:58Z</time>
      </trkpt>
      <trkpt lat="44.334" lon="2.51902">
        <ele>488.6</ele>
        <time>2011-05-11T17:13:00Z</time>
      </trkpt>
      <trkpt lat="44.33402" lon="2.51907">
        <ele>489.2</ele>
        <time>2011-05-11T17:13:02Z</time>
      </trkpt>
      <trkpt lat="44.33404" lon="2.51912">
        <ele>489.7</ele>
        <time>2011-05-11T17:13:04Z</time>
      </trkpt>
      <trkpt lat="44.33405" lon="2.51914">
        <ele>489.8</ele>
        <time>2011-05-11T17:13:05Z</time>
      </trkpt>
      <trkpt lat="44.33407" lon="2.51917">
        <ele>489.8</ele>
        <time>2011-05-11T17:13:06Z</time>
      </trkpt>
      <trkpt lat="44.33408" lon="2.5192">
        <ele>490</ele>
        <time>2011-05-11T17:13:07Z</time>
      </trkpt>
      <trkpt lat="44.3341" lon="2.51923">
        <ele>490.2</ele>
        <time>2011-05-11T17:13:08Z</time>
      </trkpt>
      <trkpt lat="44.33411" lon="2.51931">
        <ele>492</ele>
        <time>2011-05-11T17:13:12Z</time>
      </trkpt>
      <trkpt lat="44.33413" lon="2.51937">
        <ele>496.8</ele>
        <time>2011-05-11T17:13:18Z</time>
      </trkpt>
      <trkpt lat="44.33417" lon="2.5194">
        <ele>504.6</ele>
        <time>2011-05-11T17:13:27Z</time>
      </trkpt>
      <trkpt lat="44.33417" lon="2.5194">
        <ele>505.2</ele>
        <time>2011-05-11T17:13:28Z</time>
      </trkpt>
      <trkpt lat="44.33425" lon="2.51944">
        <ele>512.5</ele>
        <time>2011-05-11T17:13:44Z</time>
      </trkpt>
      <trkpt lat="44.33427" lon="2.51939">
        <ele>515.9</ele>
        <time>2011-05-11T17:13:59Z</time>
      </trkpt>
      <trkpt lat="44.33424" lon="2.51934">
        <ele>515.5</ele>
        <time>2011-05-11T17:14:08Z</time>
      </trkpt>
      <trkpt lat="44.33421" lon="2.51936">
        <ele>517.4</ele>
        <time>2011-05-11T17:14:20Z</time>
      </trkpt>
      <trkpt lat="44.33417" lon="2.51939">
        <ele>517.7</ele>
        <time>2011-05-11T17:14:30Z</time>
      </trkpt>
      <trkpt lat="44.33416" lon="2.51939">
        <ele>517.7</ele>
        <time>2011-05-11T17:14:31Z</time>
      </trkpt>
      <trkpt lat="44.33417" lon="2.51951">
        <ele>518.9</ele>
        <time>2011-05-11T17:15:14Z</time>
      </trkpt>
      <trkpt lat="44.3342" lon="2.51955">
        <ele>520.7</ele>
        <time>2011-05-11T17:15:30Z</time>
      </trkpt>
      <trkpt lat="44.3342" lon="2.51961">
        <ele>521.5</ele>
        <time>2011-05-11T17:15:50Z</time>
      </trkpt>
      <trkpt lat="44.3342" lon="2.51963">
        <ele>521.7</ele>
        <time>2011-05-11T17:15:51Z</time>
      </trkpt>
      <trkpt lat="44.33422" lon="2.51972">
        <ele>527</ele>
        <time>2011-05-11T17:16:24Z</time>
      </trkpt>
      <trkpt lat="44.33421" lon="2.51978">
        <ele>526.5</ele>
        <time>2011-05-11T17:16:33Z</time>
      </trkpt>
      <trkpt lat="44.33421" lon="2.51984">
        <ele>527</ele>
        <time>2011-05-11T17:16:38Z</time>
      </trkpt>
      <trkpt lat="44.33422" lon="2.5199">
        <ele>528</ele>
        <time>2011-05-11T17:16:44Z</time>
      </trkpt>
      <trkpt lat="44.33423" lon="2.51995">
        <ele>528.7</ele>
        <time>2011-05-11T17:16:51Z</time>
      </trkpt>
      <trkpt lat="44.33423" lon="2.51996">
        <ele>529</ele>
        <time>2011-05-11T17:16:52Z</time>
      </trkpt>
      <trkpt lat="44.33427" lon="2.52006">
        <ele>532.7</ele>
        <time>2011-05-11T17:17:12Z</time>
      </trkpt>
      <trkpt lat="44.33429" lon="2.52011">
        <ele>533</ele>
        <time>2011-05-11T17:17:21Z</time>
      </trkpt>
      <trkpt lat="44.33431" lon="2.52016">
        <ele>532.7</ele>
        <time>2011-05-11T17:17:31Z</time>
      </trkpt>
      <trkpt lat="44.33434" lon="2.5202">
        <ele>533.5</ele>
        <time>2011-05-11T17:17:37Z</time>
      </trkpt>
      <trkpt lat="44.33436" lon="2.52025">
        <ele>533.2</ele>
        <time>2011-05-11T17:17:49Z</time>
      </trkpt>
      <trkpt lat="44.33438" lon="2.52031">
        <ele>533</ele>
        <time>2011-05-11T17:18:09Z</time>
      </trkpt>
      <trkpt lat="44.33439" lon="2.52031">
        <ele>532.7</ele>
        <time>2011-05-11T17:18:10Z</time>
      </trkpt>
      <trkpt lat="44.3344" lon="2.52043">
        <ele>532.5</ele>
        <time>2011-05-11T17:18:28Z</time>
      </trkpt>
      <trkpt lat="44.3344" lon="2.52049">
        <ele>533.7</ele>
        <time>2011-05-11T17:18:36Z</time>
      </trkpt>
      <trkpt lat="44.33441" lon="2.52055">
        <ele>534.5</ele>
        <time>2011-05-11T17:18:44Z</time>
      </trkpt>
      <trkpt lat="44.33442" lon="2.5206">
        <ele>535.9</ele>
        <time>2011-05-11T17:18:51Z</time>
      </trkpt>
      <trkpt lat="44.33442" lon="2.52066">
        <ele>537</ele>
        <time>2011-05-11T17:19:01Z</time>
      </trkpt>
      <trkpt lat="44.33441" lon="2.52072">
        <ele>540.4</ele>
        <time>2011-05-11T17:19:24Z</time>
      </trkpt>
      <trkpt lat="44.33441" lon="2.52073">
        <ele>540.4</ele>
        <time>2011-05-11T17:19:25Z</time>
      </trkpt>
      <trkpt lat="44.33448" lon="2.52078">
        <ele>546.2</ele>
        <time>2011-05-11T17:22:26Z</time>
      </trkpt>
      <trkpt lat="44.33449" lon="2.52079">
        <ele>546.2</ele>
        <time>2011-05-11T17:22:27Z</time>
      </trkpt>
      <trkpt lat="44.3345" lon="2.52089">
        <ele>547.5</ele>
        <time>2011-05-11T17:22:35Z</time>
      </trkpt>
      <trkpt lat="44.33453" lon="2.52093">
        <ele>547.5</ele>
        <time>2011-05-11T17:22:37Z</time>
      </trkpt>
      <trkpt lat="44.33454" lon="2.52095">
        <ele>547.4</ele>
        <time>2011-05-11T17:22:38Z</time>
      </trkpt>
      <trkpt lat="44.33457" lon="2.52099">
        <ele>546.7</ele>
        <time>2011-05-11T17:22:40Z</time>
      </trkpt>
      <trkpt lat="44.3346" lon="2.52103">
        <ele>546</ele>
        <time>2011-05-11T17:22:42Z</time>
      </trkpt>
      <trkpt lat="44.33461" lon="2.52105">
        <ele>545.5</ele>
        <time>2011-05-11T17:22:43Z</time>
      </trkpt>
      <trkpt lat="44.33463" lon="2.52108">
        <ele>544.9</ele>
        <time>2011-05-11T17:22:44Z</time>
      </trkpt>
      <trkpt lat="44.33465" lon="2.52111">
        <ele>544.5</ele>
        <time>2011-05-11T17:22:45Z</time>
      </trkpt>
      <trkpt lat="44.33468" lon="2.52114">
        <ele>543.7</ele>
        <time>2011-05-11T17:22:47Z</time>
      </trkpt>
      <trkpt lat="44.33471" lon="2.52118">
        <ele>543.4</ele>
        <time>2011-05-11T17:22:49Z</time>
      </trkpt>
      <trkpt lat="44.33474" lon="2.52122">
        <ele>543.5</ele>
        <time>2011-05-11T17:22:52Z</time>
      </trkpt>
      <trkpt lat="44.33477" lon="2.52126">
        <ele>544</ele>
        <time>2011-05-11T17:22:55Z</time>
      </trkpt>
      <trkpt lat="44.33478" lon="2.52129">
        <ele>544.4</ele>
        <time>2011-05-11T17:22:57Z</time>
      </trkpt>
      <trkpt lat="44.33481" lon="2.52132">
        <ele>544.5</ele>
        <time>2011-05-11T17:22:59Z</time>
      </trkpt>
      <trkpt lat="44.33483" lon="2.52135">
        <ele>545.2</ele>
        <time>2011-05-11T17:23:01Z</time>
      </trkpt>
      <trkpt lat="44.33485" lon="2.52138">
        <ele>546</ele>
        <time>2011-05-11T17:23:03Z</time>
      </trkpt>
      <trkpt lat="44.33489" lon="2.52141">
        <ele>546.7</ele>
        <time>2011-05-11T17:23:06Z</time>
      </trkpt>
      <trkpt lat="44.33491" lon="2.52144">
        <ele>547.2</ele>
        <time>2011-05-11T17:23:08Z</time>
      </trkpt>
      <trkpt lat="44.33493" lon="2.52148">
        <ele>547.5</ele>
        <time>2011-05-11T17:23:10Z</time>
      </trkpt>
      <trkpt lat="44.33496" lon="2.52152">
        <ele>548.2</ele>
        <time>2011-05-11T17:23:13Z</time>
      </trkpt>
      <trkpt lat="44.33498" lon="2.52156">
        <ele>548.7</ele>
        <time>2011-05-11T17:23:16Z</time>
      </trkpt>
      <trkpt lat="44.33501" lon="2.5216">
        <ele>548.7</ele>
        <time>2011-05-11T17:23:19Z</time>
      </trkpt>
      <trkpt lat="44.33503" lon="2.52163">
        <ele>548.7</ele>
        <time>2011-05-11T17:23:21Z</time>
      </trkpt>
      <trkpt lat="44.33505" lon="2.52167">
        <ele>548.4</ele>
        <time>2011-05-11T17:23:23Z</time>
      </trkpt>
      <trkpt lat="44.33507" lon="2.5217">
        <ele>548</ele>
        <time>2011-05-11T17:23:25Z</time>
      </trkpt>
      <trkpt lat="44.3351" lon="2.52174">
        <ele>547.5</ele>
        <time>2011-05-11T17:23:27Z</time>
      </trkpt>
      <trkpt lat="44.33511" lon="2.52176">
        <ele>547.4</ele>
        <time>2011-05-11T17:23:28Z</time>
      </trkpt>
      <trkpt lat="44.33514" lon="2.52181">
        <ele>546.7</ele>
        <time>2011-05-11T17:23:31Z</time>
      </trkpt>
      <trkpt lat="44.33516" lon="2.52185">
        <ele>546.7</ele>
        <time>2011-05-11T17:23:33Z</time>
      </trkpt>
      <trkpt lat="44.33518" lon="2.52191">
        <ele>546.7</ele>
        <time>2011-05-11T17:23:36Z</time>
      </trkpt>
      <trkpt lat="44.33519" lon="2.52196">
        <ele>547.5</ele>
        <time>2011-05-11T17:23:39Z</time>
      </trkpt>
      <trkpt lat="44.33521" lon="2.52199">
        <ele>547.7</ele>
        <time>2011-05-11T17:23:41Z</time>
      </trkpt>
      <trkpt lat="44.33523" lon="2.52204">
        <ele>548</ele>
        <time>2011-05-11T17:23:43Z</time>
      </trkpt>
      <trkpt lat="44.33524" lon="2.52208">
        <ele>548.2</ele>
        <time>2011-05-11T17:23:45Z</time>
      </trkpt>
      <trkpt lat="44.33526" lon="2.52213">
        <ele>548.2</ele>
        <time>2011-05-11T17:23:47Z</time>
      </trkpt>
      <trkpt lat="44.33528" lon="2.52218">
        <ele>547.5</ele>
        <time>2011-05-11T17:23:49Z</time>
      </trkpt>
      <trkpt lat="44.3353" lon="2.52223">
        <ele>547</ele>
        <time>2011-05-11T17:23:51Z</time>
      </trkpt>
      <trkpt lat="44.33531" lon="2.52228">
        <ele>546.5</ele>
        <time>2011-05-11T17:23:53Z</time>
      </trkpt>
      <trkpt lat="44.33532" lon="2.52233">
        <ele>546</ele>
        <time>2011-05-11T17:23:55Z</time>
      </trkpt>
      <trkpt lat="44.33533" lon="2.52238">
        <ele>545.5</ele>
        <time>2011-05-11T17:23:57Z</time>
      </trkpt>
      <trkpt lat="44.33534" lon="2.52243">
        <ele>545.4</ele>
        <time>2011-05-11T17:23:59Z</time>
      </trkpt>
      <trkpt lat="44.33535" lon="2.52248">
        <ele>545.5</ele>
        <time>2011-05-11T17:24:01Z</time>
      </trkpt>
      <trkpt lat="44.33536" lon="2.52251">
        <ele>545.7</ele>
        <time>2011-05-11T17:24:02Z</time>
      </trkpt>
      <trkpt lat="44.33537" lon="2.52254">
        <ele>545.7</ele>
        <time>2011-05-11T17:24:03Z</time>
      </trkpt>
      <trkpt lat="44.33538" lon="2.5226">
        <ele>545.7</ele>
        <time>2011-05-11T17:24:05Z</time>
      </trkpt>
      <trkpt lat="44.33539" lon="2.52266">
        <ele>546.2</ele>
        <time>2011-05-11T17:24:07Z</time>
      </trkpt>
      <trkpt lat="44.3354" lon="2.52272">
        <ele>546.7</ele>
        <time>2011-05-11T17:24:09Z</time>
      </trkpt>
      <trkpt lat="44.3354" lon="2.52278">
        <ele>547.4</ele>
        <time>2011-05-11T17:24:11Z</time>
      </trkpt>
      <trkpt lat="44.3354" lon="2.52284">
        <ele>547.7</ele>
        <time>2011-05-11T17:24:13Z</time>
      </trkpt>
      <trkpt lat="44.3354" lon="2.52288">
        <ele>548.4</ele>
        <time>2011-05-11T17:24:15Z</time>
      </trkpt>
      <trkpt lat="44.3354" lon="2.52294">
        <ele>549.5</ele>
        <time>2011-05-11T17:24:25Z</time>
      </trkpt>
      <trkpt lat="44.33543" lon="2.52299">
        <ele>551</ele>
        <time>2011-05-11T17:24:37Z</time>
      </trkpt>
      <trkpt lat="44.33544" lon="2.52299">
        <ele>551.2</ele>
        <time>2011-05-11T17:24:38Z</time>
      </trkpt>
      <trkpt lat="44.33538" lon="2.52289">
        <ele>554.4</ele>
        <time>2011-05-11T17:25:02Z</time>
      </trkpt>
      <trkpt lat="44.33535" lon="2.52287">
        <ele>555.4</ele>
        <time>2011-05-11T17:25:06Z</time>
      </trkpt>
      <trkpt lat="44.33533" lon="2.52282">
        <ele>556.5</ele>
        <time>2011-05-11T17:25:10Z</time>
      </trkpt>
      <trkpt lat="44.3353" lon="2.52277">
        <ele>557.5</ele>
        <time>2011-05-11T17:25:14Z</time>
      </trkpt>
      <trkpt lat="44.33527" lon="2.52274">
        <ele>558.5</ele>
        <time>2011-05-11T17:25:19Z</time>
      </trkpt>
      <trkpt lat="44.33524" lon="2.52269">
        <ele>559.7</ele>
        <time>2011-05-11T17:25:24Z</time>
      </trkpt>
      <trkpt lat="44.33522" lon="2.52265">
        <ele>560.5</ele>
        <time>2011-05-11T17:25:27Z</time>
      </trkpt>
      <trkpt lat="44.33521" lon="2.5226">
        <ele>562</ele>
        <time>2011-05-11T17:25:31Z</time>
      </trkpt>
      <trkpt lat="44.33518" lon="2.52257">
        <ele>562.7</ele>
        <time>2011-05-11T17:25:35Z</time>
      </trkpt>
      <trkpt lat="44.33515" lon="2.52253">
        <ele>563.7</ele>
        <time>2011-05-11T17:25:39Z</time>
      </trkpt>
      <trkpt lat="44.33515" lon="2.52252">
        <ele>564</ele>
        <time>2011-05-11T17:25:40Z</time>
      </trkpt>
      <trkpt lat="44.33509" lon="2.52245">
        <ele>565.5</ele>
        <time>2011-05-11T17:25:47Z</time>
      </trkpt>
      <trkpt lat="44.33506" lon="2.52242">
        <ele>565.7</ele>
        <time>2011-05-11T17:25:51Z</time>
      </trkpt>
      <trkpt lat="44.33503" lon="2.52238">
        <ele>566</ele>
        <time>2011-05-11T17:25:56Z</time>
      </trkpt>
      <trkpt lat="44.335" lon="2.52235">
        <ele>566</ele>
        <time>2011-05-11T17:26:01Z</time>
      </trkpt>
      <trkpt lat="44.33496" lon="2.52233">
        <ele>566.4</ele>
        <time>2011-05-11T17:26:05Z</time>
      </trkpt>
      <trkpt lat="44.33492" lon="2.52231">
        <ele>566.7</ele>
        <time>2011-05-11T17:26:09Z</time>
      </trkpt>
      <trkpt lat="44.33489" lon="2.52228">
        <ele>567.2</ele>
        <time>2011-05-11T17:26:13Z</time>
      </trkpt>
      <trkpt lat="44.33486" lon="2.52226">
        <ele>567.5</ele>
        <time>2011-05-11T17:26:17Z</time>
      </trkpt>
      <trkpt lat="44.33482" lon="2.52224">
        <ele>567.7</ele>
        <time>2011-05-11T17:26:21Z</time>
      </trkpt>
      <trkpt lat="44.33479" lon="2.52221">
        <ele>567.7</ele>
        <time>2011-05-11T17:26:25Z</time>
      </trkpt>
      <trkpt lat="44.33475" lon="2.5222">
        <ele>567.7</ele>
        <time>2011-05-11T17:26:29Z</time>
      </trkpt>
      <trkpt lat="44.33472" lon="2.52217">
        <ele>567.2</ele>
        <time>2011-05-11T17:26:33Z</time>
      </trkpt>
      <trkpt lat="44.33469" lon="2.52215">
        <ele>566.7</ele>
        <time>2011-05-11T17:26:36Z</time>
      </trkpt>
      <trkpt lat="44.33465" lon="2.52213">
        <ele>565.9</ele>
        <time>2011-05-11T17:26:39Z</time>
      </trkpt>
      <trkpt lat="44.33461" lon="2.5221">
        <ele>564.9</ele>
        <time>2011-05-11T17:26:43Z</time>
      </trkpt>
      <trkpt lat="44.3346" lon="2.52209">
        <ele>564.9</ele>
        <time>2011-05-11T17:26:44Z</time>
      </trkpt>
      <trkpt lat="44.33455" lon="2.52206">
        <ele>565</ele>
        <time>2011-05-11T17:26:49Z</time>
      </trkpt>
      <trkpt lat="44.33451" lon="2.52203">
        <ele>565</ele>
        <time>2011-05-11T17:26:52Z</time>
      </trkpt>
      <trkpt lat="44.33448" lon="2.52201">
        <ele>565.5</ele>
        <time>2011-05-11T17:26:55Z</time>
      </trkpt>
      <trkpt lat="44.33444" lon="2.52199">
        <ele>566.2</ele>
        <time>2011-05-11T17:26:58Z</time>
      </trkpt>
      <trkpt lat="44.33441" lon="2.52197">
        <ele>567.5</ele>
        <time>2011-05-11T17:27:01Z</time>
      </trkpt>
      <trkpt lat="44.33437" lon="2.52194">
        <ele>569.5</ele>
        <time>2011-05-11T17:27:04Z</time>
      </trkpt>
      <trkpt lat="44.33434" lon="2.52193">
        <ele>570.9</ele>
        <time>2011-05-11T17:27:06Z</time>
      </trkpt>
      <trkpt lat="44.33431" lon="2.52191">
        <ele>572</ele>
        <time>2011-05-11T17:27:08Z</time>
      </trkpt>
      <trkpt lat="44.33428" lon="2.52189">
        <ele>573.2</ele>
        <time>2011-05-11T17:27:10Z</time>
      </trkpt>
      <trkpt lat="44.33425" lon="2.52187">
        <ele>574.4</ele>
        <time>2011-05-11T17:27:12Z</time>
      </trkpt>
      <trkpt lat="44.33422" lon="2.52185">
        <ele>575.7</ele>
        <time>2011-05-11T17:27:14Z</time>
      </trkpt>
      <trkpt lat="44.33419" lon="2.52183">
        <ele>576.9</ele>
        <time>2011-05-11T17:27:16Z</time>
      </trkpt>
      <trkpt lat="44.33416" lon="2.52181">
        <ele>578</ele>
        <time>2011-05-11T17:27:18Z</time>
      </trkpt>
      <trkpt lat="44.33412" lon="2.52179">
        <ele>579.5</ele>
        <time>2011-05-11T17:27:21Z</time>
      </trkpt>
      <trkpt lat="44.33409" lon="2.52176">
        <ele>580.4</ele>
        <time>2011-05-11T17:27:23Z</time>
      </trkpt>
      <trkpt lat="44.33406" lon="2.52174">
        <ele>581.5</ele>
        <time>2011-05-11T17:27:25Z</time>
      </trkpt>
      <trkpt lat="44.33403" lon="2.52171">
        <ele>582.4</ele>
        <time>2011-05-11T17:27:27Z</time>
      </trkpt>
      <trkpt lat="44.33401" lon="2.52168">
        <ele>583.5</ele>
        <time>2011-05-11T17:27:30Z</time>
      </trkpt>
      <trkpt lat="44.33398" lon="2.52164">
        <ele>584.5</ele>
        <time>2011-05-11T17:27:33Z</time>
      </trkpt>
      <trkpt lat="44.33396" lon="2.52161">
        <ele>585.2</ele>
        <time>2011-05-11T17:27:36Z</time>
      </trkpt>
      <trkpt lat="44.33394" lon="2.52157">
        <ele>585.4</ele>
        <time>2011-05-11T17:27:39Z</time>
      </trkpt>
      <trkpt lat="44.33392" lon="2.52152">
        <ele>585.5</ele>
        <time>2011-05-11T17:27:42Z</time>
      </trkpt>
      <trkpt lat="44.3339" lon="2.52148">
        <ele>586</ele>
        <time>2011-05-11T17:27:45Z</time>
      </trkpt>
      <trkpt lat="44.33389" lon="2.52147">
        <ele>586</ele>
        <time>2011-05-11T17:27:46Z</time>
      </trkpt>
      <trkpt lat="44.33384" lon="2.5214">
        <ele>586.9</ele>
        <time>2011-05-11T17:27:51Z</time>
      </trkpt>
      <trkpt lat="44.33382" lon="2.52136">
        <ele>587.2</ele>
        <time>2011-05-11T17:27:54Z</time>
      </trkpt>
      <trkpt lat="44.33379" lon="2.52132">
        <ele>587.7</ele>
        <time>2011-05-11T17:27:57Z</time>
      </trkpt>
      <trkpt lat="44.33375" lon="2.52129">
        <ele>588.2</ele>
        <time>2011-05-11T17:28:00Z</time>
      </trkpt>
      <trkpt lat="44.33372" lon="2.52125">
        <ele>588.7</ele>
        <time>2011-05-11T17:28:03Z</time>
      </trkpt>
      <trkpt lat="44.33369" lon="2.52123">
        <ele>589.2</ele>
        <time>2011-05-11T17:28:05Z</time>
      </trkpt>
      <trkpt lat="44.33365" lon="2.52121">
        <ele>589.9</ele>
        <time>2011-05-11T17:28:08Z</time>
      </trkpt>
      <trkpt lat="44.33362" lon="2.52117">
        <ele>590.5</ele>
        <time>2011-05-11T17:28:11Z</time>
      </trkpt>
      <trkpt lat="44.33359" lon="2.52114">
        <ele>590.9</ele>
        <time>2011-05-11T17:28:13Z</time>
      </trkpt>
      <trkpt lat="44.33357" lon="2.52112">
        <ele>591.2</ele>
        <time>2011-05-11T17:28:15Z</time>
      </trkpt>
      <trkpt lat="44.33354" lon="2.52109">
        <ele>591.9</ele>
        <time>2011-05-11T17:28:17Z</time>
      </trkpt>
      <trkpt lat="44.33351" lon="2.52107">
        <ele>592.5</ele>
        <time>2011-05-11T17:28:19Z</time>
      </trkpt>
      <trkpt lat="44.33349" lon="2.52104">
        <ele>593</ele>
        <time>2011-05-11T17:28:21Z</time>
      </trkpt>
      <trkpt lat="44.33347" lon="2.521">
        <ele>593.5</ele>
        <time>2011-05-11T17:28:23Z</time>
      </trkpt>
      <trkpt lat="44.33345" lon="2.52097">
        <ele>594</ele>
        <time>2011-05-11T17:28:25Z</time>
      </trkpt>
      <trkpt lat="44.33342" lon="2.52094">
        <ele>594.5</ele>
        <time>2011-05-11T17:28:27Z</time>
      </trkpt>
      <trkpt lat="44.33339" lon="2.52091">
        <ele>595</ele>
        <time>2011-05-11T17:28:29Z</time>
      </trkpt>
      <trkpt lat="44.33337" lon="2.52088">
        <ele>595.5</ele>
        <time>2011-05-11T17:28:31Z</time>
      </trkpt>
      <trkpt lat="44.33334" lon="2.52085">
        <ele>596</ele>
        <time>2011-05-11T17:28:34Z</time>
      </trkpt>
      <trkpt lat="44.3333" lon="2.52081">
        <ele>596.5</ele>
        <time>2011-05-11T17:28:37Z</time>
      </trkpt>
      <trkpt lat="44.33327" lon="2.52079">
        <ele>596.7</ele>
        <time>2011-05-11T17:28:39Z</time>
      </trkpt>
      <trkpt lat="44.33325" lon="2.52077">
        <ele>596.9</ele>
        <time>2011-05-11T17:28:41Z</time>
      </trkpt>
      <trkpt lat="44.33323" lon="2.52074">
        <ele>597.2</ele>
        <time>2011-05-11T17:28:43Z</time>
      </trkpt>
      <trkpt lat="44.3332" lon="2.52071">
        <ele>597.5</ele>
        <time>2011-05-11T17:28:45Z</time>
      </trkpt>
      <trkpt lat="44.33317" lon="2.52069">
        <ele>597.7</ele>
        <time>2011-05-11T17:28:47Z</time>
      </trkpt>
      <trkpt lat="44.33316" lon="2.52068">
        <ele>598</ele>
        <time>2011-05-11T17:28:48Z</time>
      </trkpt>
      <trkpt lat="44.33312" lon="2.52065">
        <ele>598.5</ele>
        <time>2011-05-11T17:28:51Z</time>
      </trkpt>
      <trkpt lat="44.33309" lon="2.52062">
        <ele>599</ele>
        <time>2011-05-11T17:28:53Z</time>
      </trkpt>
      <trkpt lat="44.33307" lon="2.5206">
        <ele>599.2</ele>
        <time>2011-05-11T17:28:55Z</time>
      </trkpt>
      <trkpt lat="44.33304" lon="2.52057">
        <ele>599.7</ele>
        <time>2011-05-11T17:28:57Z</time>
      </trkpt>
      <trkpt lat="44.33301" lon="2.52054">
        <ele>600.2</ele>
        <time>2011-05-11T17:28:59Z</time>
      </trkpt>
      <trkpt lat="44.33299" lon="2.52052">
        <ele>600.5</ele>
        <time>2011-05-11T17:29:01Z</time>
      </trkpt>
      <trkpt lat="44.33296" lon="2.52049">
        <ele>600.7</ele>
        <time>2011-05-11T17:29:03Z</time>
      </trkpt>
      <trkpt lat="44.33293" lon="2.52047">
        <ele>601</ele>
        <time>2011-05-11T17:29:05Z</time>
      </trkpt>
      <trkpt lat="44.33291" lon="2.52044">
        <ele>601.2</ele>
        <time>2011-05-11T17:29:07Z</time>
      </trkpt>
      <trkpt lat="44.33288" lon="2.52041">
        <ele>601.5</ele>
        <time>2011-05-11T17:29:09Z</time>
      </trkpt>
      <trkpt lat="44.33285" lon="2.52039">
        <ele>601.9</ele>
        <time>2011-05-11T17:29:11Z</time>
      </trkpt>
      <trkpt lat="44.33282" lon="2.52036">
        <ele>602.2</ele>
        <time>2011-05-11T17:29:13Z</time>
      </trkpt>
      <trkpt lat="44.33279" lon="2.52034">
        <ele>602.4</ele>
        <time>2011-05-11T17:29:15Z</time>
      </trkpt>
      <trkpt lat="44.33277" lon="2.52031">
        <ele>602.7</ele>
        <time>2011-05-11T17:29:17Z</time>
      </trkpt>
      <trkpt lat="44.33274" lon="2.52028">
        <ele>603</ele>
        <time>2011-05-11T17:29:19Z</time>
      </trkpt>
      <trkpt lat="44.33272" lon="2.52025">
        <ele>603</ele>
        <time>2011-05-11T17:29:21Z</time>
      </trkpt>
      <trkpt lat="44.33269" lon="2.52023">
        <ele>603.2</ele>
        <time>2011-05-11T17:29:23Z</time>
      </trkpt>
      <trkpt lat="44.33267" lon="2.5202">
        <ele>603.5</ele>
        <time>2011-05-11T17:29:25Z</time>
      </trkpt>
      <trkpt lat="44.33264" lon="2.52018">
        <ele>603.7</ele>
        <time>2011-05-11T17:29:27Z</time>
      </trkpt>
      <trkpt lat="44.33261" lon="2.52015">
        <ele>604</ele>
        <time>2011-05-11T17:29:29Z</time>
      </trkpt>
      <trkpt lat="44.33259" lon="2.52013">
        <ele>604.5</ele>
        <time>2011-05-11T17:29:31Z</time>
      </trkpt>
      <trkpt lat="44.33255" lon="2.52009">
        <ele>605</ele>
        <time>2011-05-11T17:29:34Z</time>
      </trkpt>
      <trkpt lat="44.33252" lon="2.52005">
        <ele>605.7</ele>
        <time>2011-05-11T17:29:37Z</time>
      </trkpt>
      <trkpt lat="44.33249" lon="2.52001">
        <ele>606</ele>
        <time>2011-05-11T17:29:40Z</time>
      </trkpt>
      <trkpt lat="44.33246" lon="2.51997">
        <ele>606.2</ele>
        <time>2011-05-11T17:29:43Z</time>
      </trkpt>
      <trkpt lat="44.33243" lon="2.51993">
        <ele>606.5</ele>
        <time>2011-05-11T17:29:46Z</time>
      </trkpt>
      <trkpt lat="44.33241" lon="2.5199">
        <ele>606.9</ele>
        <time>2011-05-11T17:29:48Z</time>
      </trkpt>
      <trkpt lat="44.3324" lon="2.51988">
        <ele>607</ele>
        <time>2011-05-11T17:29:49Z</time>
      </trkpt>
      <trkpt lat="44.33237" lon="2.51983">
        <ele>607.7</ele>
        <time>2011-05-11T17:29:52Z</time>
      </trkpt>
      <trkpt lat="44.33234" lon="2.51979">
        <ele>608.4</ele>
        <time>2011-05-11T17:29:55Z</time>
      </trkpt>
      <trkpt lat="44.33231" lon="2.51974">
        <ele>609.2</ele>
        <time>2011-05-11T17:29:58Z</time>
      </trkpt>
      <trkpt lat="44.33228" lon="2.5197">
        <ele>609.9</ele>
        <time>2011-05-11T17:30:01Z</time>
      </trkpt>
      <trkpt lat="44.33225" lon="2.51965">
        <ele>610.7</ele>
        <time>2011-05-11T17:30:04Z</time>
      </trkpt>
      <trkpt lat="44.33222" lon="2.5196">
        <ele>611.2</ele>
        <time>2011-05-11T17:30:07Z</time>
      </trkpt>
      <trkpt lat="44.3322" lon="2.51955">
        <ele>611.7</ele>
        <time>2011-05-11T17:30:10Z</time>
      </trkpt>
      <trkpt lat="44.33217" lon="2.5195">
        <ele>612.2</ele>
        <time>2011-05-11T17:30:13Z</time>
      </trkpt>
      <trkpt lat="44.33215" lon="2.51945">
        <ele>612.9</ele>
        <time>2011-05-11T17:30:16Z</time>
      </trkpt>
      <trkpt lat="44.33213" lon="2.51942">
        <ele>613.4</ele>
        <time>2011-05-11T17:30:18Z</time>
      </trkpt>
      <trkpt lat="44.33211" lon="2.51939">
        <ele>613.7</ele>
        <time>2011-05-11T17:30:20Z</time>
      </trkpt>
      <trkpt lat="44.33208" lon="2.51934">
        <ele>614.2</ele>
        <time>2011-05-11T17:30:23Z</time>
      </trkpt>
      <trkpt lat="44.33206" lon="2.51929">
        <ele>614.5</ele>
        <time>2011-05-11T17:30:26Z</time>
      </trkpt>
      <trkpt lat="44.33202" lon="2.51925">
        <ele>615.4</ele>
        <time>2011-05-11T17:30:29Z</time>
      </trkpt>
      <trkpt lat="44.332" lon="2.5192">
        <ele>616</ele>
        <time>2011-05-11T17:30:32Z</time>
      </trkpt>
      <trkpt lat="44.33198" lon="2.51916">
        <ele>616.4</ele>
        <time>2011-05-11T17:30:34Z</time>
      </trkpt>
      <trkpt lat="44.33196" lon="2.51913">
        <ele>616.7</ele>
        <time>2011-05-11T17:30:36Z</time>
      </trkpt>
      <trkpt lat="44.33194" lon="2.5191">
        <ele>617.4</ele>
        <time>2011-05-11T17:30:38Z</time>
      </trkpt>
      <trkpt lat="44.33192" lon="2.51906">
        <ele>617.9</ele>
        <time>2011-05-11T17:30:40Z</time>
      </trkpt>
      <trkpt lat="44.3319" lon="2.51902">
        <ele>618.5</ele>
        <time>2011-05-11T17:30:42Z</time>
      </trkpt>
      <trkpt lat="44.33186" lon="2.51899">
        <ele>619.5</ele>
        <time>2011-05-11T17:30:45Z</time>
      </trkpt>
      <trkpt lat="44.33183" lon="2.51898">
        <ele>620</ele>
        <time>2011-05-11T17:30:47Z</time>
      </trkpt>
      <trkpt lat="44.3318" lon="2.51898">
        <ele>620.5</ele>
        <time>2011-05-11T17:30:49Z</time>
      </trkpt>
      <trkpt lat="44.33176" lon="2.51901">
        <ele>620.7</ele>
        <time>2011-05-11T17:30:52Z</time>
      </trkpt>
      <trkpt lat="44.33175" lon="2.51902">
        <ele>621</ele>
        <time>2011-05-11T17:30:53Z</time>
      </trkpt>
      <trkpt lat="44.33171" lon="2.51907">
        <ele>621.5</ele>
        <time>2011-05-11T17:30:58Z</time>
      </trkpt>
      <trkpt lat="44.33168" lon="2.51912">
        <ele>621.7</ele>
        <time>2011-05-11T17:31:01Z</time>
      </trkpt>
      <trkpt lat="44.33167" lon="2.51915">
        <ele>621.7</ele>
        <time>2011-05-11T17:31:03Z</time>
      </trkpt>
      <trkpt lat="44.33165" lon="2.51919">
        <ele>622</ele>
        <time>2011-05-11T17:31:05Z</time>
      </trkpt>
      <trkpt lat="44.33163" lon="2.51924">
        <ele>622.2</ele>
        <time>2011-05-11T17:31:07Z</time>
      </trkpt>
      <trkpt lat="44.33161" lon="2.51929">
        <ele>622.2</ele>
        <time>2011-05-11T17:31:09Z</time>
      </trkpt>
      <trkpt lat="44.33158" lon="2.51933">
        <ele>622</ele>
        <time>2011-05-11T17:31:11Z</time>
      </trkpt>
      <trkpt lat="44.33155" lon="2.51938">
        <ele>624</ele>
        <time>2011-05-11T17:31:28Z</time>
      </trkpt>
      <trkpt lat="44.33154" lon="2.51943">
        <ele>628.5</ele>
        <time>2011-05-11T17:31:46Z</time>
      </trkpt>
      <trkpt lat="44.33151" lon="2.51944">
        <ele>628.2</ele>
        <time>2011-05-11T17:31:48Z</time>
      </trkpt>
      <trkpt lat="44.33148" lon="2.51946">
        <ele>627.9</ele>
        <time>2011-05-11T17:31:50Z</time>
      </trkpt>
      <trkpt lat="44.33145" lon="2.51949">
        <ele>627.4</ele>
        <time>2011-05-11T17:31:53Z</time>
      </trkpt>
      <trkpt lat="44.33144" lon="2.5195">
        <ele>627.2</ele>
        <time>2011-05-11T17:31:54Z</time>
      </trkpt>
      <trkpt lat="44.3314" lon="2.51959">
        <ele>626.4</ele>
        <time>2011-05-11T17:31:58Z</time>
      </trkpt>
      <trkpt lat="44.33138" lon="2.51963">
        <ele>626</ele>
        <time>2011-05-11T17:31:59Z</time>
      </trkpt>
      <trkpt lat="44.33137" lon="2.51966">
        <ele>625.4</ele>
        <time>2011-05-11T17:32:00Z</time>
      </trkpt>
      <trkpt lat="44.33134" lon="2.51971">
        <ele>624.7</ele>
        <time>2011-05-11T17:32:01Z</time>
      </trkpt>
      <trkpt lat="44.33131" lon="2.51975">
        <ele>623.9</ele>
        <time>2011-05-11T17:32:02Z</time>
      </trkpt>
      <trkpt lat="44.33128" lon="2.5198">
        <ele>623</ele>
        <time>2011-05-11T17:32:03Z</time>
      </trkpt>
      <trkpt lat="44.33125" lon="2.51987">
        <ele>622</ele>
        <time>2011-05-11T17:32:04Z</time>
      </trkpt>
      <trkpt lat="44.33122" lon="2.51992">
        <ele>621</ele>
        <time>2011-05-11T17:32:05Z</time>
      </trkpt>
      <trkpt lat="44.33119" lon="2.51998">
        <ele>619.5</ele>
        <time>2011-05-11T17:32:06Z</time>
      </trkpt>
      <trkpt lat="44.33116" lon="2.52005">
        <ele>618.2</ele>
        <time>2011-05-11T17:32:07Z</time>
      </trkpt>
      <trkpt lat="44.33113" lon="2.52011">
        <ele>616.7</ele>
        <time>2011-05-11T17:32:08Z</time>
      </trkpt>
      <trkpt lat="44.33111" lon="2.52016">
        <ele>615.2</ele>
        <time>2011-05-11T17:32:09Z</time>
      </trkpt>
      <trkpt lat="44.33111" lon="2.52022">
        <ele>613.9</ele>
        <time>2011-05-11T17:32:10Z</time>
      </trkpt>
      <trkpt lat="44.33111" lon="2.52028">
        <ele>612.5</ele>
        <time>2011-05-11T17:32:11Z</time>
      </trkpt>
      <trkpt lat="44.33112" lon="2.52035">
        <ele>611.2</ele>
        <time>2011-05-11T17:32:12Z</time>
      </trkpt>
      <trkpt lat="44.33114" lon="2.52041">
        <ele>610</ele>
        <time>2011-05-11T17:32:13Z</time>
      </trkpt>
      <trkpt lat="44.33116" lon="2.52045">
        <ele>609</ele>
        <time>2011-05-11T17:32:14Z</time>
      </trkpt>
      <trkpt lat="44.33118" lon="2.52048">
        <ele>608.2</ele>
        <time>2011-05-11T17:32:15Z</time>
      </trkpt>
      <trkpt lat="44.33118" lon="2.52054">
        <ele>606.9</ele>
        <time>2011-05-11T17:32:17Z</time>
      </trkpt>
      <trkpt lat="44.33117" lon="2.52057">
        <ele>606</ele>
        <time>2011-05-11T17:32:18Z</time>
      </trkpt>
      <trkpt lat="44.33115" lon="2.52059">
        <ele>605.2</ele>
        <time>2011-05-11T17:32:19Z</time>
      </trkpt>
      <trkpt lat="44.33112" lon="2.52061">
        <ele>604.7</ele>
        <time>2011-05-11T17:32:20Z</time>
      </trkpt>
      <trkpt lat="44.33108" lon="2.52062">
        <ele>604.2</ele>
        <time>2011-05-11T17:32:21Z</time>
      </trkpt>
      <trkpt lat="44.33104" lon="2.52063">
        <ele>603.5</ele>
        <time>2011-05-11T17:32:22Z</time>
      </trkpt>
      <trkpt lat="44.33098" lon="2.52065">
        <ele>602.5</ele>
        <time>2011-05-11T17:32:23Z</time>
      </trkpt>
      <trkpt lat="44.33093" lon="2.52067">
        <ele>601.7</ele>
        <time>2011-05-11T17:32:24Z</time>
      </trkpt>
      <trkpt lat="44.33088" lon="2.5207">
        <ele>600.7</ele>
        <time>2011-05-11T17:32:25Z</time>
      </trkpt>
      <trkpt lat="44.33081" lon="2.52074">
        <ele>599.5</ele>
        <time>2011-05-11T17:32:26Z</time>
      </trkpt>
      <trkpt lat="44.33075" lon="2.52078">
        <ele>598.7</ele>
        <time>2011-05-11T17:32:27Z</time>
      </trkpt>
      <trkpt lat="44.33069" lon="2.52083">
        <ele>598.5</ele>
        <time>2011-05-11T17:32:28Z</time>
      </trkpt>
      <trkpt lat="44.33064" lon="2.52087">
        <ele>598.7</ele>
        <time>2011-05-11T17:32:29Z</time>
      </trkpt>
      <trkpt lat="44.33062" lon="2.5209">
        <ele>598.7</ele>
        <time>2011-05-11T17:32:30Z</time>
      </trkpt>
      <trkpt lat="44.3306" lon="2.52093">
        <ele>598.4</ele>
        <time>2011-05-11T17:32:31Z</time>
      </trkpt>
      <trkpt lat="44.33059" lon="2.52097">
        <ele>597.7</ele>
        <time>2011-05-11T17:32:32Z</time>
      </trkpt>
      <trkpt lat="44.33058" lon="2.52101">
        <ele>597.4</ele>
        <time>2011-05-11T17:32:33Z</time>
      </trkpt>
      <trkpt lat="44.33056" lon="2.52105">
        <ele>597</ele>
        <time>2011-05-11T17:32:34Z</time>
      </trkpt>
      <trkpt lat="44.33054" lon="2.52109">
        <ele>596.9</ele>
        <time>2011-05-11T17:32:35Z</time>
      </trkpt>
      <trkpt lat="44.33052" lon="2.52114">
        <ele>596.7</ele>
        <time>2011-05-11T17:32:36Z</time>
      </trkpt>
      <trkpt lat="44.3305" lon="2.52119">
        <ele>596.7</ele>
        <time>2011-05-11T17:32:37Z</time>
      </trkpt>
      <trkpt lat="44.33049" lon="2.52124">
        <ele>596.7</ele>
        <time>2011-05-11T17:32:38Z</time>
      </trkpt>
      <trkpt lat="44.33047" lon="2.52129">
        <ele>596.7</ele>
        <time>2011-05-11T17:32:39Z</time>
      </trkpt>
      <trkpt lat="44.33045" lon="2.52134">
        <ele>596.7</ele>
        <time>2011-05-11T17:32:40Z</time>
      </trkpt>
      <trkpt lat="44.33043" lon="2.52139">
        <ele>596.7</ele>
        <time>2011-05-11T17:32:41Z</time>
      </trkpt>
      <trkpt lat="44.33041" lon="2.52143">
        <ele>596.7</ele>
        <time>2011-05-11T17:32:42Z</time>
      </trkpt>
      <trkpt lat="44.33039" lon="2.52148">
        <ele>596.9</ele>
        <time>2011-05-11T17:32:43Z</time>
      </trkpt>
      <trkpt lat="44.33037" lon="2.52152">
        <ele>596.9</ele>
        <time>2011-05-11T17:32:44Z</time>
      </trkpt>
      <trkpt lat="44.33035" lon="2.52156">
        <ele>596.9</ele>
        <time>2011-05-11T17:32:45Z</time>
      </trkpt>
      <trkpt lat="44.33032" lon="2.52161">
        <ele>596.7</ele>
        <time>2011-05-11T17:32:46Z</time>
      </trkpt>
      <trkpt lat="44.3303" lon="2.52165">
        <ele>596.7</ele>
        <time>2011-05-11T17:32:47Z</time>
      </trkpt>
      <trkpt lat="44.33028" lon="2.52169">
        <ele>596.7</ele>
        <time>2011-05-11T17:32:48Z</time>
      </trkpt>
      <trkpt lat="44.33026" lon="2.52173">
        <ele>596.5</ele>
        <time>2011-05-11T17:32:49Z</time>
      </trkpt>
      <trkpt lat="44.33024" lon="2.52176">
        <ele>596.5</ele>
        <time>2011-05-11T17:32:50Z</time>
      </trkpt>
      <trkpt lat="44.33022" lon="2.5218">
        <ele>596.4</ele>
        <time>2011-05-11T17:32:51Z</time>
      </trkpt>
      <trkpt lat="44.33021" lon="2.52184">
        <ele>596.4</ele>
        <time>2011-05-11T17:32:52Z</time>
      </trkpt>
      <trkpt lat="44.33019" lon="2.52188">
        <ele>596.2</ele>
        <time>2011-05-11T17:32:53Z</time>
      </trkpt>
      <trkpt lat="44.33017" lon="2.52192">
        <ele>596.4</ele>
        <time>2011-05-11T17:32:54Z</time>
      </trkpt>
      <trkpt lat="44.33016" lon="2.52195">
        <ele>596.2</ele>
        <time>2011-05-11T17:32:55Z</time>
      </trkpt>
      <trkpt lat="44.33014" lon="2.522">
        <ele>596.2</ele>
        <time>2011-05-11T17:32:56Z</time>
      </trkpt>
      <trkpt lat="44.33012" lon="2.52204">
        <ele>596.2</ele>
        <time>2011-05-11T17:32:57Z</time>
      </trkpt>
      <trkpt lat="44.33011" lon="2.52209">
        <ele>596.2</ele>
        <time>2011-05-11T17:32:58Z</time>
      </trkpt>
      <trkpt lat="44.33009" lon="2.52213">
        <ele>596.2</ele>
        <time>2011-05-11T17:32:59Z</time>
      </trkpt>
      <trkpt lat="44.33008" lon="2.52218">
        <ele>596.2</ele>
        <time>2011-05-11T17:33:00Z</time>
      </trkpt>
      <trkpt lat="44.33006" lon="2.52223">
        <ele>596.2</ele>
        <time>2011-05-11T17:33:01Z</time>
      </trkpt>
      <trkpt lat="44.33005" lon="2.52228">
        <ele>596.2</ele>
        <time>2011-05-11T17:33:02Z</time>
      </trkpt>
      <trkpt lat="44.33004" lon="2.52233">
        <ele>596.5</ele>
        <time>2011-05-11T17:33:03Z</time>
      </trkpt>
      <trkpt lat="44.33002" lon="2.52238">
        <ele>596.4</ele>
        <time>2011-05-11T17:33:04Z</time>
      </trkpt>
      <trkpt lat="44.33001" lon="2.52242">
        <ele>596.2</ele>
        <time>2011-05-11T17:33:05Z</time>
      </trkpt>
      <trkpt lat="44.32999" lon="2.52246">
        <ele>595.9</ele>
        <time>2011-05-11T17:33:06Z</time>
      </trkpt>
      <trkpt lat="44.32998" lon="2.5225">
        <ele>595.4</ele>
        <time>2011-05-11T17:33:07Z</time>
      </trkpt>
      <trkpt lat="44.32997" lon="2.52253">
        <ele>594.7</ele>
        <time>2011-05-11T17:33:08Z</time>
      </trkpt>
      <trkpt lat="44.32996" lon="2.52257">
        <ele>594.2</ele>
        <time>2011-05-11T17:33:09Z</time>
      </trkpt>
      <trkpt lat="44.32994" lon="2.52261">
        <ele>593.2</ele>
        <time>2011-05-11T17:33:10Z</time>
      </trkpt>
      <trkpt lat="44.32992" lon="2.52266">
        <ele>592.7</ele>
        <time>2011-05-11T17:33:11Z</time>
      </trkpt>
      <trkpt lat="44.32991" lon="2.52272">
        <ele>592.4</ele>
        <time>2011-05-11T17:33:12Z</time>
      </trkpt>
      <trkpt lat="44.3299" lon="2.52278">
        <ele>592.2</ele>
        <time>2011-05-11T17:33:13Z</time>
      </trkpt>
      <trkpt lat="44.32991" lon="2.52285">
        <ele>591.7</ele>
        <time>2011-05-11T17:33:14Z</time>
      </trkpt>
      <trkpt lat="44.32994" lon="2.52292">
        <ele>591.2</ele>
        <time>2011-05-11T17:33:15Z</time>
      </trkpt>
      <trkpt lat="44.32997" lon="2.52299">
        <ele>590.4</ele>
        <time>2011-05-11T17:33:16Z</time>
      </trkpt>
      <trkpt lat="44.33001" lon="2.52306">
        <ele>589.5</ele>
        <time>2011-05-11T17:33:17Z</time>
      </trkpt>
      <trkpt lat="44.33004" lon="2.52314">
        <ele>589</ele>
        <time>2011-05-11T17:33:18Z</time>
      </trkpt>
      <trkpt lat="44.33003" lon="2.52322">
        <ele>588.4</ele>
        <time>2011-05-11T17:33:19Z</time>
      </trkpt>
      <trkpt lat="44.33001" lon="2.52331">
        <ele>587.5</ele>
        <time>2011-05-11T17:33:20Z</time>
      </trkpt>
      <trkpt lat="44.32998" lon="2.52339">
        <ele>587</ele>
        <time>2011-05-11T17:33:21Z</time>
      </trkpt>
      <trkpt lat="44.32994" lon="2.52348">
        <ele>586.4</ele>
        <time>2011-05-11T17:33:22Z</time>
      </trkpt>
      <trkpt lat="44.32992" lon="2.52358">
        <ele>586</ele>
        <time>2011-05-11T17:33:23Z</time>
      </trkpt>
      <trkpt lat="44.32992" lon="2.52369">
        <ele>585.5</ele>
        <time>2011-05-11T17:33:24Z</time>
      </trkpt>
      <trkpt lat="44.32992" lon="2.5238">
        <ele>585</ele>
        <time>2011-05-11T17:33:25Z</time>
      </trkpt>
      <trkpt lat="44.32993" lon="2.52392">
        <ele>584.2</ele>
        <time>2011-05-11T17:33:26Z</time>
      </trkpt>
      <trkpt lat="44.32995" lon="2.52404">
        <ele>583.5</ele>
        <time>2011-05-11T17:33:27Z</time>
      </trkpt>
      <trkpt lat="44.32996" lon="2.52417">
        <ele>582.7</ele>
        <time>2011-05-11T17:33:28Z</time>
      </trkpt>
      <trkpt lat="44.32998" lon="2.5243">
        <ele>582</ele>
        <time>2011-05-11T17:33:29Z</time>
      </trkpt>
      <trkpt lat="44.32999" lon="2.52443">
        <ele>581</ele>
        <time>2011-05-11T17:33:30Z</time>
      </trkpt>
      <trkpt lat="44.33001" lon="2.52457">
        <ele>580.2</ele>
        <time>2011-05-11T17:33:31Z</time>
      </trkpt>
      <trkpt lat="44.33003" lon="2.5247">
        <ele>579.2</ele>
        <time>2011-05-11T17:33:32Z</time>
      </trkpt>
      <trkpt lat="44.33006" lon="2.52482">
        <ele>578.4</ele>
        <time>2011-05-11T17:33:33Z</time>
      </trkpt>
      <trkpt lat="44.3301" lon="2.52493">
        <ele>577.7</ele>
        <time>2011-05-11T17:33:34Z</time>
      </trkpt>
      <trkpt lat="44.33014" lon="2.52501">
        <ele>577.2</ele>
        <time>2011-05-11T17:33:35Z</time>
      </trkpt>
      <trkpt lat="44.33019" lon="2.52508">
        <ele>576.7</ele>
        <time>2011-05-11T17:33:36Z</time>
      </trkpt>
      <trkpt lat="44.33026" lon="2.52514">
        <ele>576.5</ele>
        <time>2011-05-11T17:33:37Z</time>
      </trkpt>
      <trkpt lat="44.33032" lon="2.52516">
        <ele>576.2</ele>
        <time>2011-05-11T17:33:38Z</time>
      </trkpt>
      <trkpt lat="44.33038" lon="2.52519">
        <ele>575.2</ele>
        <time>2011-05-11T17:33:39Z</time>
      </trkpt>
      <trkpt lat="44.33044" lon="2.52522">
        <ele>574.2</ele>
        <time>2011-05-11T17:33:40Z</time>
      </trkpt>
      <trkpt lat="44.3305" lon="2.52524">
        <ele>573</ele>
        <time>2011-05-11T17:33:41Z</time>
      </trkpt>
      <trkpt lat="44.33056" lon="2.52526">
        <ele>571.9</ele>
        <time>2011-05-11T17:33:42Z</time>
      </trkpt>
      <trkpt lat="44.3306" lon="2.52529">
        <ele>570.2</ele>
        <time>2011-05-11T17:33:43Z</time>
      </trkpt>
      <trkpt lat="44.33064" lon="2.52532">
        <ele>568.7</ele>
        <time>2011-05-11T17:33:44Z</time>
      </trkpt>
      <trkpt lat="44.33069" lon="2.52536">
        <ele>567.4</ele>
        <time>2011-05-11T17:33:45Z</time>
      </trkpt>
      <trkpt lat="44.33074" lon="2.52539">
        <ele>565.9</ele>
        <time>2011-05-11T17:33:46Z</time>
      </trkpt>
      <trkpt lat="44.33079" lon="2.52542">
        <ele>564.2</ele>
        <time>2011-05-11T17:33:47Z</time>
      </trkpt>
      <trkpt lat="44.33083" lon="2.52545">
        <ele>563</ele>
        <time>2011-05-11T17:33:48Z</time>
      </trkpt>
      <trkpt lat="44.33088" lon="2.52549">
        <ele>561.5</ele>
        <time>2011-05-11T17:33:49Z</time>
      </trkpt>
      <trkpt lat="44.33091" lon="2.52552">
        <ele>560</ele>
        <time>2011-05-11T17:33:50Z</time>
      </trkpt>
      <trkpt lat="44.33094" lon="2.52555">
        <ele>558.5</ele>
        <time>2011-05-11T17:33:51Z</time>
      </trkpt>
      <trkpt lat="44.33096" lon="2.52558">
        <ele>557.2</ele>
        <time>2011-05-11T17:33:52Z</time>
      </trkpt>
      <trkpt lat="44.33098" lon="2.52562">
        <ele>556</ele>
        <time>2011-05-11T17:33:53Z</time>
      </trkpt>
      <trkpt lat="44.33101" lon="2.52566">
        <ele>554.5</ele>
        <time>2011-05-11T17:33:54Z</time>
      </trkpt>
      <trkpt lat="44.33103" lon="2.5257">
        <ele>553</ele>
        <time>2011-05-11T17:33:55Z</time>
      </trkpt>
      <trkpt lat="44.33104" lon="2.52575">
        <ele>551.5</ele>
        <time>2011-05-11T17:33:56Z</time>
      </trkpt>
      <trkpt lat="44.33105" lon="2.52581">
        <ele>550.2</ele>
        <time>2011-05-11T17:33:57Z</time>
      </trkpt>
      <trkpt lat="44.33105" lon="2.52589">
        <ele>549</ele>
        <time>2011-05-11T17:33:58Z</time>
      </trkpt>
      <trkpt lat="44.33104" lon="2.52597">
        <ele>547.4</ele>
        <time>2011-05-11T17:33:59Z</time>
      </trkpt>
      <trkpt lat="44.33104" lon="2.52605">
        <ele>545.7</ele>
        <time>2011-05-11T17:34:00Z</time>
      </trkpt>
      <trkpt lat="44.33103" lon="2.52612">
        <ele>543.7</ele>
        <time>2011-05-11T17:34:01Z</time>
      </trkpt>
      <trkpt lat="44.33102" lon="2.52619">
        <ele>541.7</ele>
        <time>2011-05-11T17:34:02Z</time>
      </trkpt>
      <trkpt lat="44.33102" lon="2.52626">
        <ele>540.2</ele>
        <time>2011-05-11T17:34:03Z</time>
      </trkpt>
      <trkpt lat="44.33101" lon="2.52633">
        <ele>539.5</ele>
        <time>2011-05-11T17:34:04Z</time>
      </trkpt>
      <trkpt lat="44.33099" lon="2.52638">
        <ele>539</ele>
        <time>2011-05-11T17:34:05Z</time>
      </trkpt>
      <trkpt lat="44.33098" lon="2.52642">
        <ele>538.5</ele>
        <time>2011-05-11T17:34:06Z</time>
      </trkpt>
      <trkpt lat="44.33096" lon="2.52647">
        <ele>537.7</ele>
        <time>2011-05-11T17:34:07Z</time>
      </trkpt>
      <trkpt lat="44.33094" lon="2.52651">
        <ele>537</ele>
        <time>2011-05-11T17:34:08Z</time>
      </trkpt>
      <trkpt lat="44.33093" lon="2.52656">
        <ele>536</ele>
        <time>2011-05-11T17:34:09Z</time>
      </trkpt>
      <trkpt lat="44.33094" lon="2.52663">
        <ele>535</ele>
        <time>2011-05-11T17:34:10Z</time>
      </trkpt>
      <trkpt lat="44.33094" lon="2.52668">
        <ele>533.9</ele>
        <time>2011-05-11T17:34:11Z</time>
      </trkpt>
      <trkpt lat="44.33093" lon="2.52674">
        <ele>532.7</ele>
        <time>2011-05-11T17:34:12Z</time>
      </trkpt>
      <trkpt lat="44.33093" lon="2.5268">
        <ele>531.7</ele>
        <time>2011-05-11T17:34:13Z</time>
      </trkpt>
      <trkpt lat="44.33092" lon="2.52686">
        <ele>530.5</ele>
        <time>2011-05-11T17:34:14Z</time>
      </trkpt>
      <trkpt lat="44.33089" lon="2.52692">
        <ele>530</ele>
        <time>2011-05-11T17:34:15Z</time>
      </trkpt>
      <trkpt lat="44.33087" lon="2.52699">
        <ele>529.7</ele>
        <time>2011-05-11T17:34:16Z</time>
      </trkpt>
      <trkpt lat="44.33085" lon="2.52705">
        <ele>529.5</ele>
        <time>2011-05-11T17:34:17Z</time>
      </trkpt>
      <trkpt lat="44.33082" lon="2.52711">
        <ele>529.7</ele>
        <time>2011-05-11T17:34:18Z</time>
      </trkpt>
      <trkpt lat="44.33078" lon="2.52717">
        <ele>530.4</ele>
        <time>2011-05-11T17:34:19Z</time>
      </trkpt>
      <trkpt lat="44.33076" lon="2.52721">
        <ele>531.5</ele>
        <time>2011-05-11T17:34:20Z</time>
      </trkpt>
      <trkpt lat="44.33076" lon="2.52726">
        <ele>534.4</ele>
        <time>2011-05-11T17:34:23Z</time>
      </trkpt>
      <trkpt lat="44.33076" lon="2.52731">
        <ele>537.2</ele>
        <time>2011-05-11T17:34:28Z</time>
      </trkpt>
      <trkpt lat="44.33078" lon="2.52737">
        <ele>539.2</ele>
        <time>2011-05-11T17:34:33Z</time>
      </trkpt>
      <trkpt lat="44.33078" lon="2.52743">
        <ele>544.2</ele>
        <time>2011-05-11T17:34:40Z</time>
      </trkpt>
      <trkpt lat="44.33079" lon="2.52748">
        <ele>549.9</ele>
        <time>2011-05-11T17:34:49Z</time>
      </trkpt>
      <trkpt lat="44.3308" lon="2.52754">
        <ele>555.2</ele>
        <time>2011-05-11T17:35:28Z</time>
      </trkpt>
      <trkpt lat="44.33079" lon="2.52755">
        <ele>555</ele>
        <time>2011-05-11T17:35:29Z</time>
      </trkpt>
      <trkpt lat="44.33076" lon="2.52758">
        <ele>553.4</ele>
        <time>2011-05-11T17:35:32Z</time>
      </trkpt>
      <trkpt lat="44.33073" lon="2.52759">
        <ele>552.7</ele>
        <time>2011-05-11T17:35:33Z</time>
      </trkpt>
      <trkpt lat="44.33071" lon="2.52761">
        <ele>551.9</ele>
        <time>2011-05-11T17:35:34Z</time>
      </trkpt>
      <trkpt lat="44.33068" lon="2.52763">
        <ele>551</ele>
        <time>2011-05-11T17:35:35Z</time>
      </trkpt>
      <trkpt lat="44.33065" lon="2.52764">
        <ele>550</ele>
        <time>2011-05-11T17:35:36Z</time>
      </trkpt>
      <trkpt lat="44.33063" lon="2.52764">
        <ele>549</ele>
        <time>2011-05-11T17:35:37Z</time>
      </trkpt>
      <trkpt lat="44.3306" lon="2.52766">
        <ele>547.9</ele>
        <time>2011-05-11T17:35:38Z</time>
      </trkpt>
      <trkpt lat="44.33057" lon="2.5277">
        <ele>546.2</ele>
        <time>2011-05-11T17:35:40Z</time>
      </trkpt>
      <trkpt lat="44.33056" lon="2.52776">
        <ele>543.2</ele>
        <time>2011-05-11T17:35:50Z</time>
      </trkpt>
      <trkpt lat="44.33054" lon="2.52782">
        <ele>539</ele>
        <time>2011-05-11T17:36:08Z</time>
      </trkpt>
      <trkpt lat="44.33055" lon="2.52787">
        <ele>542</ele>
        <time>2011-05-11T17:36:37Z</time>
      </trkpt>
      <trkpt lat="44.33055" lon="2.52788">
        <ele>542.4</ele>
        <time>2011-05-11T17:36:38Z</time>
      </trkpt>
      <trkpt lat="44.33055" lon="2.52797">
        <ele>543.7</ele>
        <time>2011-05-11T17:36:43Z</time>
      </trkpt>
      <trkpt lat="44.33056" lon="2.52803">
        <ele>544.2</ele>
        <time>2011-05-11T17:36:45Z</time>
      </trkpt>
      <trkpt lat="44.33054" lon="2.52807">
        <ele>545</ele>
        <time>2011-05-11T17:36:48Z</time>
      </trkpt>
      <trkpt lat="44.33054" lon="2.52813">
        <ele>546.2</ele>
        <time>2011-05-11T17:36:51Z</time>
      </trkpt>
      <trkpt lat="44.33051" lon="2.52817">
        <ele>547.7</ele>
        <time>2011-05-11T17:36:54Z</time>
      </trkpt>
      <trkpt lat="44.33049" lon="2.52822">
        <ele>547.5</ele>
        <time>2011-05-11T17:36:59Z</time>
      </trkpt>
      <trkpt lat="44.33046" lon="2.52826">
        <ele>546.7</ele>
        <time>2011-05-11T17:37:04Z</time>
      </trkpt>
      <trkpt lat="44.33043" lon="2.52828">
        <ele>546</ele>
        <time>2011-05-11T17:37:07Z</time>
      </trkpt>
      <trkpt lat="44.33039" lon="2.52831">
        <ele>545.7</ele>
        <time>2011-05-11T17:37:11Z</time>
      </trkpt>
      <trkpt lat="44.33036" lon="2.52834">
        <ele>546</ele>
        <time>2011-05-11T17:37:16Z</time>
      </trkpt>
      <trkpt lat="44.33033" lon="2.52836">
        <ele>546.2</ele>
        <time>2011-05-11T17:37:19Z</time>
      </trkpt>
      <trkpt lat="44.33029" lon="2.52839">
        <ele>546.2</ele>
        <time>2011-05-11T17:37:23Z</time>
      </trkpt>
      <trkpt lat="44.33025" lon="2.52841">
        <ele>546.7</ele>
        <time>2011-05-11T17:37:27Z</time>
      </trkpt>
      <trkpt lat="44.3302" lon="2.52843">
        <ele>545.7</ele>
        <time>2011-05-11T17:37:32Z</time>
      </trkpt>
      <trkpt lat="44.33017" lon="2.52844">
        <ele>545.2</ele>
        <time>2011-05-11T17:37:35Z</time>
      </trkpt>
      <trkpt lat="44.33013" lon="2.52844">
        <ele>545</ele>
        <time>2011-05-11T17:37:38Z</time>
      </trkpt>
      <trkpt lat="44.33012" lon="2.52844">
        <ele>545</ele>
        <time>2011-05-11T17:37:39Z</time>
      </trkpt>
      <trkpt lat="44.33006" lon="2.52845">
        <ele>545</ele>
        <time>2011-05-11T17:37:44Z</time>
      </trkpt>
      <trkpt lat="44.33002" lon="2.52846">
        <ele>545.2</ele>
        <time>2011-05-11T17:37:47Z</time>
      </trkpt>
      <trkpt lat="44.32997" lon="2.52847">
        <ele>545.5</ele>
        <time>2011-05-11T17:37:50Z</time>
      </trkpt>
      <trkpt lat="44.32994" lon="2.52847">
        <ele>545.7</ele>
        <time>2011-05-11T17:37:52Z</time>
      </trkpt>
      <trkpt lat="44.32991" lon="2.52847">
        <ele>546</ele>
        <time>2011-05-11T17:37:54Z</time>
      </trkpt>
      <trkpt lat="44.32986" lon="2.52848">
        <ele>546.2</ele>
        <time>2011-05-11T17:37:57Z</time>
      </trkpt>
      <trkpt lat="44.32983" lon="2.52849">
        <ele>546.2</ele>
        <time>2011-05-11T17:38:00Z</time>
      </trkpt>
      <trkpt lat="44.32979" lon="2.5285">
        <ele>546</ele>
        <time>2011-05-11T17:38:02Z</time>
      </trkpt>
      <trkpt lat="44.32975" lon="2.52852">
        <ele>546.7</ele>
        <time>2011-05-11T17:38:07Z</time>
      </trkpt>
      <trkpt lat="44.32971" lon="2.52854">
        <ele>548.2</ele>
        <time>2011-05-11T17:38:13Z</time>
      </trkpt>
      <trkpt lat="44.32967" lon="2.52856">
        <ele>551.2</ele>
        <time>2011-05-11T17:38:25Z</time>
      </trkpt>
      <trkpt lat="44.32968" lon="2.52862">
        <ele>551.9</ele>
        <time>2011-05-11T17:39:09Z</time>
      </trkpt>
      <trkpt lat="44.32968" lon="2.52862">
        <ele>552</ele>
        <time>2011-05-11T17:39:10Z</time>
      </trkpt>
      <trkpt lat="44.3296" lon="2.52856">
        <ele>556.5</ele>
        <time>2011-05-11T17:39:29Z</time>
      </trkpt>
      <trkpt lat="44.32956" lon="2.52854">
        <ele>557</ele>
        <time>2011-05-11T17:39:33Z</time>
      </trkpt>
      <trkpt lat="44.32952" lon="2.52852">
        <ele>557.4</ele>
        <time>2011-05-11T17:39:36Z</time>
      </trkpt>
      <trkpt lat="44.32949" lon="2.52851">
        <ele>557.2</ele>
        <time>2011-05-11T17:39:40Z</time>
      </trkpt>
      <trkpt lat="44.32945" lon="2.52849">
        <ele>557.5</ele>
        <time>2011-05-11T17:39:43Z</time>
      </trkpt>
      <trkpt lat="44.32941" lon="2.52847">
        <ele>557.9</ele>
        <time>2011-05-11T17:39:47Z</time>
      </trkpt>
      <trkpt lat="44.32937" lon="2.52844">
        <ele>558.2</ele>
        <time>2011-05-11T17:39:51Z</time>
      </trkpt>
      <trkpt lat="44.32934" lon="2.52841">
        <ele>558.4</ele>
        <time>2011-05-11T17:39:56Z</time>
      </trkpt>
      <trkpt lat="44.3293" lon="2.5284">
        <ele>558.9</ele>
        <time>2011-05-11T17:40:01Z</time>
      </trkpt>
      <trkpt lat="44.32926" lon="2.52837">
        <ele>559</ele>
        <time>2011-05-11T17:40:08Z</time>
      </trkpt>
      <trkpt lat="44.32922" lon="2.52836">
        <ele>559.4</ele>
        <time>2011-05-11T17:40:13Z</time>
      </trkpt>
      <trkpt lat="44.32922" lon="2.52836">
        <ele>559.5</ele>
        <time>2011-05-11T17:40:14Z</time>
      </trkpt>
      <trkpt lat="44.32914" lon="2.52834">
        <ele>562.9</ele>
        <time>2011-05-11T17:40:34Z</time>
      </trkpt>
      <trkpt lat="44.32911" lon="2.52834">
        <ele>562.7</ele>
        <time>2011-05-11T17:40:36Z</time>
      </trkpt>
      <trkpt lat="44.32907" lon="2.52834">
        <ele>562.7</ele>
        <time>2011-05-11T17:40:39Z</time>
      </trkpt>
      <trkpt lat="44.32903" lon="2.52834">
        <ele>562.5</ele>
        <time>2011-05-11T17:40:43Z</time>
      </trkpt>
      <trkpt lat="44.32899" lon="2.52834">
        <ele>562.7</ele>
        <time>2011-05-11T17:40:46Z</time>
      </trkpt>
      <trkpt lat="44.32895" lon="2.52834">
        <ele>562.2</ele>
        <time>2011-05-11T17:40:49Z</time>
      </trkpt>
      <trkpt lat="44.32891" lon="2.52835">
        <ele>562</ele>
        <time>2011-05-11T17:40:52Z</time>
      </trkpt>
      <trkpt lat="44.32887" lon="2.52834">
        <ele>561.7</ele>
        <time>2011-05-11T17:40:55Z</time>
      </trkpt>
      <trkpt lat="44.32883" lon="2.52835">
        <ele>561.5</ele>
        <time>2011-05-11T17:40:58Z</time>
      </trkpt>
      <trkpt lat="44.3288" lon="2.52835">
        <ele>561.7</ele>
        <time>2011-05-11T17:41:01Z</time>
      </trkpt>
      <trkpt lat="44.32876" lon="2.52836">
        <ele>562.2</ele>
        <time>2011-05-11T17:41:04Z</time>
      </trkpt>
      <trkpt lat="44.32871" lon="2.52836">
        <ele>562.9</ele>
        <time>2011-05-11T17:41:07Z</time>
      </trkpt>
      <trkpt lat="44.32867" lon="2.52837">
        <ele>563.5</ele>
        <time>2011-05-11T17:41:10Z</time>
      </trkpt>
      <trkpt lat="44.32863" lon="2.52837">
        <ele>564</ele>
        <time>2011-05-11T17:41:13Z</time>
      </trkpt>
      <trkpt lat="44.32859" lon="2.52839">
        <ele>564.7</ele>
        <time>2011-05-11T17:41:16Z</time>
      </trkpt>
      <trkpt lat="44.32858" lon="2.52839">
        <ele>565</ele>
        <time>2011-05-11T17:41:17Z</time>
      </trkpt>
      <trkpt lat="44.32851" lon="2.52842">
        <ele>567.5</ele>
        <time>2011-05-11T17:41:31Z</time>
      </trkpt>
      <trkpt lat="44.32848" lon="2.52843">
        <ele>568.2</ele>
        <time>2011-05-11T17:41:34Z</time>
      </trkpt>
      <trkpt lat="44.32844" lon="2.52844">
        <ele>568.5</ele>
        <time>2011-05-11T17:41:37Z</time>
      </trkpt>
      <trkpt lat="44.3284" lon="2.52845">
        <ele>569</ele>
        <time>2011-05-11T17:41:40Z</time>
      </trkpt>
      <trkpt lat="44.32836" lon="2.52846">
        <ele>569.7</ele>
        <time>2011-05-11T17:41:43Z</time>
      </trkpt>
      <trkpt lat="44.32833" lon="2.52847">
        <ele>570.5</ele>
        <time>2011-05-11T17:41:46Z</time>
      </trkpt>
      <trkpt lat="44.32829" lon="2.52849">
        <ele>571.7</ele>
        <time>2011-05-11T17:41:50Z</time>
      </trkpt>
      <trkpt lat="44.32825" lon="2.5285">
        <ele>572.7</ele>
        <time>2011-05-11T17:41:54Z</time>
      </trkpt>
      <trkpt lat="44.32821" lon="2.52851">
        <ele>573.2</ele>
        <time>2011-05-11T17:41:57Z</time>
      </trkpt>
      <trkpt lat="44.32817" lon="2.52853">
        <ele>573.4</ele>
        <time>2011-05-11T17:42:00Z</time>
      </trkpt>
      <trkpt lat="44.32814" lon="2.52854">
        <ele>573.5</ele>
        <time>2011-05-11T17:42:02Z</time>
      </trkpt>
      <trkpt lat="44.32811" lon="2.52855">
        <ele>574.5</ele>
        <time>2011-05-11T17:42:05Z</time>
      </trkpt>
      <trkpt lat="44.32807" lon="2.52857">
        <ele>575.2</ele>
        <time>2011-05-11T17:42:08Z</time>
      </trkpt>
      <trkpt lat="44.32804" lon="2.5286">
        <ele>576.2</ele>
        <time>2011-05-11T17:42:12Z</time>
      </trkpt>
      <trkpt lat="44.328" lon="2.52863">
        <ele>579.7</ele>
        <time>2011-05-11T17:42:24Z</time>
      </trkpt>
      <trkpt lat="44.328" lon="2.52863">
        <ele>580</ele>
        <time>2011-05-11T17:42:25Z</time>
      </trkpt>
      <trkpt lat="44.32799" lon="2.52875">
        <ele>592</ele>
        <time>2011-05-11T17:42:56Z</time>
      </trkpt>
      <trkpt lat="44.328" lon="2.52881">
        <ele>598.9</ele>
        <time>2011-05-11T17:43:04Z</time>
      </trkpt>
      <trkpt lat="44.32797" lon="2.52878">
        <ele>597.2</ele>
        <time>2011-05-11T17:43:18Z</time>
      </trkpt>
      <trkpt lat="44.32796" lon="2.52872">
        <ele>590.9</ele>
        <time>2011-05-11T17:43:30Z</time>
      </trkpt>
      <trkpt lat="44.32795" lon="2.52872">
        <ele>590.7</ele>
        <time>2011-05-11T17:43:32Z</time>
      </trkpt>
      <trkpt lat="44.32788" lon="2.52875">
        <ele>594.5</ele>
        <time>2011-05-11T17:43:45Z</time>
      </trkpt>
      <trkpt lat="44.32784" lon="2.52877">
        <ele>593.9</ele>
        <time>2011-05-11T17:43:49Z</time>
      </trkpt>
      <trkpt lat="44.3278" lon="2.5288">
        <ele>592.7</ele>
        <time>2011-05-11T17:43:53Z</time>
      </trkpt>
      <trkpt lat="44.32776" lon="2.52882">
        <ele>592.5</ele>
        <time>2011-05-11T17:43:57Z</time>
      </trkpt>
      <trkpt lat="44.32772" lon="2.52884">
        <ele>592.5</ele>
        <time>2011-05-11T17:44:01Z</time>
      </trkpt>
      <trkpt lat="44.32768" lon="2.52886">
        <ele>593</ele>
        <time>2011-05-11T17:44:04Z</time>
      </trkpt>
      <trkpt lat="44.32765" lon="2.52888">
        <ele>593.7</ele>
        <time>2011-05-11T17:44:07Z</time>
      </trkpt>
      <trkpt lat="44.32762" lon="2.52892">
        <ele>595.2</ele>
        <time>2011-05-11T17:44:11Z</time>
      </trkpt>
      <trkpt lat="44.32758" lon="2.52895">
        <ele>597</ele>
        <time>2011-05-11T17:44:15Z</time>
      </trkpt>
      <trkpt lat="44.32755" lon="2.52898">
        <ele>597.7</ele>
        <time>2011-05-11T17:44:19Z</time>
      </trkpt>
      <trkpt lat="44.32752" lon="2.52902">
        <ele>598.9</ele>
        <time>2011-05-11T17:44:24Z</time>
      </trkpt>
      <trkpt lat="44.32749" lon="2.52906">
        <ele>599.7</ele>
        <time>2011-05-11T17:44:28Z</time>
      </trkpt>
      <trkpt lat="44.32745" lon="2.52908">
        <ele>600.7</ele>
        <time>2011-05-11T17:44:31Z</time>
      </trkpt>
      <trkpt lat="44.32742" lon="2.52912">
        <ele>602</ele>
        <time>2011-05-11T17:44:35Z</time>
      </trkpt>
      <trkpt lat="44.32741" lon="2.52913">
        <ele>602.5</ele>
        <time>2011-05-11T17:44:36Z</time>
      </trkpt>
      <trkpt lat="44.32736" lon="2.52919">
        <ele>604.5</ele>
        <time>2011-05-11T17:44:43Z</time>
      </trkpt>
      <trkpt lat="44.32732" lon="2.52921">
        <ele>605</ele>
        <time>2011-05-11T17:44:47Z</time>
      </trkpt>
      <trkpt lat="44.32729" lon="2.52923">
        <ele>604.9</ele>
        <time>2011-05-11T17:44:51Z</time>
      </trkpt>
      <trkpt lat="44.32724" lon="2.52925">
        <ele>606.2</ele>
        <time>2011-05-11T17:45:00Z</time>
      </trkpt>
      <trkpt lat="44.32723" lon="2.52931">
        <ele>610.5</ele>
        <time>2011-05-11T17:45:19Z</time>
      </trkpt>
      <trkpt lat="44.3272" lon="2.52935">
        <ele>611</ele>
        <time>2011-05-11T17:45:33Z</time>
      </trkpt>
      <trkpt lat="44.32716" lon="2.52936">
        <ele>609.7</ele>
        <time>2011-05-11T17:45:37Z</time>
      </trkpt>
      <trkpt lat="44.32715" lon="2.52936">
        <ele>609.5</ele>
        <time>2011-05-11T17:45:38Z</time>
      </trkpt>
      <trkpt lat="44.32708" lon="2.52939">
        <ele>607.5</ele>
        <time>2011-05-11T17:45:46Z</time>
      </trkpt>
      <trkpt lat="44.32704" lon="2.52941">
        <ele>607.7</ele>
        <time>2011-05-11T17:45:50Z</time>
      </trkpt>
      <trkpt lat="44.327" lon="2.52941">
        <ele>607.5</ele>
        <time>2011-05-11T17:45:53Z</time>
      </trkpt>
      <trkpt lat="44.32695" lon="2.52943">
        <ele>607.2</ele>
        <time>2011-05-11T17:45:56Z</time>
      </trkpt>
      <trkpt lat="44.32692" lon="2.52944">
        <ele>607</ele>
        <time>2011-05-11T17:45:58Z</time>
      </trkpt>
      <trkpt lat="44.32688" lon="2.52944">
        <ele>607</ele>
        <time>2011-05-11T17:46:00Z</time>
      </trkpt>
      <trkpt lat="44.32684" lon="2.52945">
        <ele>606.5</ele>
        <time>2011-05-11T17:46:02Z</time>
      </trkpt>
      <trkpt lat="44.3268" lon="2.52945">
        <ele>606.2</ele>
        <time>2011-05-11T17:46:04Z</time>
      </trkpt>
      <trkpt lat="44.32677" lon="2.52945">
        <ele>606</ele>
        <time>2011-05-11T17:46:06Z</time>
      </trkpt>
      <trkpt lat="44.32674" lon="2.52945">
        <ele>605.7</ele>
        <time>2011-05-11T17:46:08Z</time>
      </trkpt>
      <trkpt lat="44.3267" lon="2.52945">
        <ele>605.2</ele>
        <time>2011-05-11T17:46:10Z</time>
      </trkpt>
      <trkpt lat="44.32667" lon="2.52945">
        <ele>604.7</ele>
        <time>2011-05-11T17:46:12Z</time>
      </trkpt>
      <trkpt lat="44.32664" lon="2.52945">
        <ele>604.7</ele>
        <time>2011-05-11T17:46:14Z</time>
      </trkpt>
      <trkpt lat="44.32661" lon="2.52946">
        <ele>604.7</ele>
        <time>2011-05-11T17:46:16Z</time>
      </trkpt>
      <trkpt lat="44.32656" lon="2.52947">
        <ele>605.2</ele>
        <time>2011-05-11T17:46:19Z</time>
      </trkpt>
      <trkpt lat="44.32652" lon="2.52948">
        <ele>605.2</ele>
        <time>2011-05-11T17:46:22Z</time>
      </trkpt>
      <trkpt lat="44.32649" lon="2.52948">
        <ele>605.2</ele>
        <time>2011-05-11T17:46:24Z</time>
      </trkpt>
      <trkpt lat="44.32645" lon="2.52949">
        <ele>605.2</ele>
        <time>2011-05-11T17:46:27Z</time>
      </trkpt>
      <trkpt lat="44.32642" lon="2.52949">
        <ele>605.4</ele>
        <time>2011-05-11T17:46:29Z</time>
      </trkpt>
      <trkpt lat="44.32639" lon="2.5295">
        <ele>605.5</ele>
        <time>2011-05-11T17:46:31Z</time>
      </trkpt>
      <trkpt lat="44.32635" lon="2.5295">
        <ele>605.5</ele>
        <time>2011-05-11T17:46:34Z</time>
      </trkpt>
      <trkpt lat="44.32631" lon="2.52949">
        <ele>605</ele>
        <time>2011-05-11T17:46:37Z</time>
      </trkpt>
      <trkpt lat="44.32627" lon="2.5295">
        <ele>605.4</ele>
        <time>2011-05-11T17:46:40Z</time>
      </trkpt>
      <trkpt lat="44.32626" lon="2.5295">
        <ele>605.5</ele>
        <time>2011-05-11T17:46:41Z</time>
      </trkpt>
      <trkpt lat="44.32619" lon="2.5295">
        <ele>607.7</ele>
        <time>2011-05-11T17:46:47Z</time>
      </trkpt>
      <trkpt lat="44.32615" lon="2.52951">
        <ele>609.7</ele>
        <time>2011-05-11T17:46:51Z</time>
      </trkpt>
      <trkpt lat="44.32611" lon="2.52951">
        <ele>611</ele>
        <time>2011-05-11T17:46:54Z</time>
      </trkpt>
      <trkpt lat="44.32606" lon="2.52951">
        <ele>612</ele>
        <time>2011-05-11T17:46:57Z</time>
      </trkpt>
      <trkpt lat="44.32603" lon="2.5295">
        <ele>612.9</ele>
        <time>2011-05-11T17:46:59Z</time>
      </trkpt>
      <trkpt lat="44.326" lon="2.52949">
        <ele>613.7</ele>
        <time>2011-05-11T17:47:01Z</time>
      </trkpt>
      <trkpt lat="44.32597" lon="2.52948">
        <ele>614.5</ele>
        <time>2011-05-11T17:47:03Z</time>
      </trkpt>
      <trkpt lat="44.32593" lon="2.52947">
        <ele>615.2</ele>
        <time>2011-05-11T17:47:06Z</time>
      </trkpt>
      <trkpt lat="44.32589" lon="2.52946">
        <ele>615.4</ele>
        <time>2011-05-11T17:47:09Z</time>
      </trkpt>
      <trkpt lat="44.32584" lon="2.52945">
        <ele>615.5</ele>
        <time>2011-05-11T17:47:12Z</time>
      </trkpt>
      <trkpt lat="44.32581" lon="2.52944">
        <ele>615.2</ele>
        <time>2011-05-11T17:47:14Z</time>
      </trkpt>
      <trkpt lat="44.32578" lon="2.52943">
        <ele>615</ele>
        <time>2011-05-11T17:47:16Z</time>
      </trkpt>
      <trkpt lat="44.32574" lon="2.52941">
        <ele>614.7</ele>
        <time>2011-05-11T17:47:19Z</time>
      </trkpt>
      <trkpt lat="44.3257" lon="2.5294">
        <ele>614.5</ele>
        <time>2011-05-11T17:47:22Z</time>
      </trkpt>
      <trkpt lat="44.32566" lon="2.52939">
        <ele>614.5</ele>
        <time>2011-05-11T17:47:25Z</time>
      </trkpt>
      <trkpt lat="44.32563" lon="2.52938">
        <ele>614.4</ele>
        <time>2011-05-11T17:47:28Z</time>
      </trkpt>
      <trkpt lat="44.32559" lon="2.52936">
        <ele>614.7</ele>
        <time>2011-05-11T17:47:31Z</time>
      </trkpt>
      <trkpt lat="44.32556" lon="2.52935">
        <ele>615</ele>
        <time>2011-05-11T17:47:34Z</time>
      </trkpt>
      <trkpt lat="44.32552" lon="2.52933">
        <ele>615.4</ele>
        <time>2011-05-11T17:47:37Z</time>
      </trkpt>
      <trkpt lat="44.32549" lon="2.52932">
        <ele>616.4</ele>
        <time>2011-05-11T17:47:40Z</time>
      </trkpt>
      <trkpt lat="44.32545" lon="2.5293">
        <ele>617.5</ele>
        <time>2011-05-11T17:47:43Z</time>
      </trkpt>
      <trkpt lat="44.32543" lon="2.5293">
        <ele>617.7</ele>
        <time>2011-05-11T17:47:44Z</time>
      </trkpt>
      <trkpt lat="44.32537" lon="2.52926">
        <ele>619.2</ele>
        <time>2011-05-11T17:47:49Z</time>
      </trkpt>
      <trkpt lat="44.32533" lon="2.52924">
        <ele>620</ele>
        <time>2011-05-11T17:47:53Z</time>
      </trkpt>
      <trkpt lat="44.32529" lon="2.52922">
        <ele>620.2</ele>
        <time>2011-05-11T17:47:57Z</time>
      </trkpt>
      <trkpt lat="44.32526" lon="2.5292">
        <ele>620.4</ele>
        <time>2011-05-11T17:48:00Z</time>
      </trkpt>
      <trkpt lat="44.32522" lon="2.52918">
        <ele>622.7</ele>
        <time>2011-05-11T17:48:09Z</time>
      </trkpt>
      <trkpt lat="44.32518" lon="2.52917">
        <ele>628</ele>
        <time>2011-05-11T17:48:21Z</time>
      </trkpt>
      <trkpt lat="44.32514" lon="2.52915">
        <ele>631.2</ele>
        <time>2011-05-11T17:48:32Z</time>
      </trkpt>
      <trkpt lat="44.3251" lon="2.52913">
        <ele>638.7</ele>
        <time>2011-05-11T17:48:52Z</time>
      </trkpt>
      <trkpt lat="44.32509" lon="2.52913">
        <ele>639</ele>
        <time>2011-05-11T17:48:53Z</time>
      </trkpt>
      <trkpt lat="44.32501" lon="2.52915">
        <ele>640.5</ele>
        <time>2011-05-11T17:49:46Z</time>
      </trkpt>
      <trkpt lat="44.32497" lon="2.52915">
        <ele>639</ele>
        <time>2011-05-11T17:49:51Z</time>
      </trkpt>
      <trkpt lat="44.32493" lon="2.52913">
        <ele>638.5</ele>
        <time>2011-05-11T17:49:56Z</time>
      </trkpt>
      <trkpt lat="44.32492" lon="2.52913">
        <ele>638.2</ele>
        <time>2011-05-11T17:49:57Z</time>
      </trkpt>
      <trkpt lat="44.32485" lon="2.5291">
        <ele>636.5</ele>
        <time>2011-05-11T17:50:05Z</time>
      </trkpt>
      <trkpt lat="44.32482" lon="2.52907">
        <ele>636</ele>
        <time>2011-05-11T17:50:09Z</time>
      </trkpt>
      <trkpt lat="44.32478" lon="2.52905">
        <ele>635.4</ele>
        <time>2011-05-11T17:50:14Z</time>
      </trkpt>
      <trkpt lat="44.32474" lon="2.52903">
        <ele>635.2</ele>
        <time>2011-05-11T17:50:19Z</time>
      </trkpt>
      <trkpt lat="44.3247" lon="2.52901">
        <ele>634.9</ele>
        <time>2011-05-11T17:50:24Z</time>
      </trkpt>
      <trkpt lat="44.32467" lon="2.529">
        <ele>634.7</ele>
        <time>2011-05-11T17:50:28Z</time>
      </trkpt>
      <trkpt lat="44.32463" lon="2.52898">
        <ele>635</ele>
        <time>2011-05-11T17:50:32Z</time>
      </trkpt>
      <trkpt lat="44.32459" lon="2.52896">
        <ele>635.2</ele>
        <time>2011-05-11T17:50:36Z</time>
      </trkpt>
      <trkpt lat="44.32455" lon="2.52896">
        <ele>635.9</ele>
        <time>2011-05-11T17:50:41Z</time>
      </trkpt>
      <trkpt lat="44.32451" lon="2.52895">
        <ele>636.9</ele>
        <time>2011-05-11T17:50:46Z</time>
      </trkpt>
      <trkpt lat="44.32446" lon="2.52894">
        <ele>637.7</ele>
        <time>2011-05-11T17:50:50Z</time>
      </trkpt>
      <trkpt lat="44.32442" lon="2.52893">
        <ele>638.4</ele>
        <time>2011-05-11T17:50:54Z</time>
      </trkpt>
      <trkpt lat="44.32438" lon="2.52893">
        <ele>639.2</ele>
        <time>2011-05-11T17:50:58Z</time>
      </trkpt>
      <trkpt lat="44.32437" lon="2.52893">
        <ele>639.5</ele>
        <time>2011-05-11T17:50:59Z</time>
      </trkpt>
      <trkpt lat="44.32431" lon="2.52891">
        <ele>641.2</ele>
        <time>2011-05-11T17:51:05Z</time>
      </trkpt>
      <trkpt lat="44.32427" lon="2.52889">
        <ele>642</ele>
        <time>2011-05-11T17:51:09Z</time>
      </trkpt>
      <trkpt lat="44.32424" lon="2.52886">
        <ele>642.7</ele>
        <time>2011-05-11T17:51:14Z</time>
      </trkpt>
      <trkpt lat="44.32421" lon="2.52882">
        <ele>643.2</ele>
        <time>2011-05-11T17:51:18Z</time>
      </trkpt>
      <trkpt lat="44.32418" lon="2.52877">
        <ele>643.5</ele>
        <time>2011-05-11T17:51:23Z</time>
      </trkpt>
      <trkpt lat="44.32416" lon="2.52873">
        <ele>643.7</ele>
        <time>2011-05-11T17:51:27Z</time>
      </trkpt>
      <trkpt lat="44.32413" lon="2.52869">
        <ele>644.2</ele>
        <time>2011-05-11T17:51:30Z</time>
      </trkpt>
      <trkpt lat="44.3241" lon="2.52866">
        <ele>646</ele>
        <time>2011-05-11T17:51:40Z</time>
      </trkpt>
      <trkpt lat="44.32406" lon="2.52864">
        <ele>649</ele>
        <time>2011-05-11T17:51:58Z</time>
      </trkpt>
      <trkpt lat="44.32406" lon="2.52863">
        <ele>649</ele>
        <time>2011-05-11T17:51:59Z</time>
      </trkpt>
      <trkpt lat="44.32399" lon="2.52857">
        <ele>650.5</ele>
        <time>2011-05-11T17:52:32Z</time>
      </trkpt>
      <trkpt lat="44.32395" lon="2.52856">
        <ele>650.5</ele>
        <time>2011-05-11T17:52:41Z</time>
      </trkpt>
      <trkpt lat="44.32392" lon="2.52854">
        <ele>651</ele>
        <time>2011-05-11T17:52:44Z</time>
      </trkpt>
      <trkpt lat="44.32388" lon="2.52852">
        <ele>651.5</ele>
        <time>2011-05-11T17:52:47Z</time>
      </trkpt>
      <trkpt lat="44.32385" lon="2.5285">
        <ele>652</ele>
        <time>2011-05-11T17:52:50Z</time>
      </trkpt>
      <trkpt lat="44.32381" lon="2.52848">
        <ele>652.7</ele>
        <time>2011-05-11T17:52:53Z</time>
      </trkpt>
      <trkpt lat="44.32378" lon="2.52846">
        <ele>653.2</ele>
        <time>2011-05-11T17:52:56Z</time>
      </trkpt>
      <trkpt lat="44.32374" lon="2.52844">
        <ele>653.7</ele>
        <time>2011-05-11T17:52:59Z</time>
      </trkpt>
      <trkpt lat="44.32373" lon="2.52843">
        <ele>653.9</ele>
        <time>2011-05-11T17:53:00Z</time>
      </trkpt>
      <trkpt lat="44.32367" lon="2.5284">
        <ele>654.5</ele>
        <time>2011-05-11T17:53:04Z</time>
      </trkpt>
      <trkpt lat="44.32364" lon="2.52838">
        <ele>654.5</ele>
        <time>2011-05-11T17:53:06Z</time>
      </trkpt>
      <trkpt lat="44.32361" lon="2.52836">
        <ele>655</ele>
        <time>2011-05-11T17:53:08Z</time>
      </trkpt>
      <trkpt lat="44.32357" lon="2.52834">
        <ele>655.7</ele>
        <time>2011-05-11T17:53:11Z</time>
      </trkpt>
      <trkpt lat="44.32353" lon="2.52831">
        <ele>656</ele>
        <time>2011-05-11T17:53:14Z</time>
      </trkpt>
      <trkpt lat="44.3235" lon="2.52829">
        <ele>656.2</ele>
        <time>2011-05-11T17:53:17Z</time>
      </trkpt>
      <trkpt lat="44.32346" lon="2.52825">
        <ele>656.7</ele>
        <time>2011-05-11T17:53:28Z</time>
      </trkpt>
      <trkpt lat="44.32343" lon="2.52821">
        <ele>656.9</ele>
        <time>2011-05-11T17:53:58Z</time>
      </trkpt>
      <trkpt lat="44.3234" lon="2.52823">
        <ele>656.5</ele>
        <time>2011-05-11T17:54:01Z</time>
      </trkpt>
      <trkpt lat="44.32339" lon="2.52824">
        <ele>656.5</ele>
        <time>2011-05-11T17:54:02Z</time>
      </trkpt>
      <trkpt lat="44.32335" lon="2.5283">
        <ele>656.5</ele>
        <time>2011-05-11T17:54:06Z</time>
      </trkpt>
      <trkpt lat="44.32332" lon="2.52833">
        <ele>656.5</ele>
        <time>2011-05-11T17:54:08Z</time>
      </trkpt>
      <trkpt lat="44.32329" lon="2.52836">
        <ele>656.5</ele>
        <time>2011-05-11T17:54:11Z</time>
      </trkpt>
      <trkpt lat="44.32326" lon="2.52841">
        <ele>656.5</ele>
        <time>2011-05-11T17:54:14Z</time>
      </trkpt>
      <trkpt lat="44.32323" lon="2.52846">
        <ele>656.5</ele>
        <time>2011-05-11T17:54:17Z</time>
      </trkpt>
      <trkpt lat="44.32321" lon="2.5285">
        <ele>656.5</ele>
        <time>2011-05-11T17:54:20Z</time>
      </trkpt>
      <trkpt lat="44.32319" lon="2.52856">
        <ele>656.5</ele>
        <time>2011-05-11T17:54:23Z</time>
      </trkpt>
      <trkpt lat="44.32318" lon="2.5286">
        <ele>656.2</ele>
        <time>2011-05-11T17:54:26Z</time>
      </trkpt>
      <trkpt lat="44.32318" lon="2.52866">
        <ele>653</ele>
        <time>2011-05-11T17:54:29Z</time>
      </trkpt>
      <trkpt lat="44.32317" lon="2.52871">
        <ele>653.2</ele>
        <time>2011-05-11T17:54:31Z</time>
      </trkpt>
      <trkpt lat="44.32316" lon="2.52876">
        <ele>653.4</ele>
        <time>2011-05-11T17:54:33Z</time>
      </trkpt>
      <trkpt lat="44.32315" lon="2.52881">
        <ele>653.5</ele>
        <time>2011-05-11T17:54:35Z</time>
      </trkpt>
      <trkpt lat="44.32313" lon="2.52886">
        <ele>653.5</ele>
        <time>2011-05-11T17:54:37Z</time>
      </trkpt>
      <trkpt lat="44.32312" lon="2.52892">
        <ele>653.5</ele>
        <time>2011-05-11T17:54:39Z</time>
      </trkpt>
      <trkpt lat="44.32312" lon="2.52896">
        <ele>653.5</ele>
        <time>2011-05-11T17:54:40Z</time>
      </trkpt>
      <trkpt lat="44.32311" lon="2.52899">
        <ele>653.4</ele>
        <time>2011-05-11T17:54:41Z</time>
      </trkpt>
      <trkpt lat="44.32311" lon="2.52902">
        <ele>653.4</ele>
        <time>2011-05-11T17:54:42Z</time>
      </trkpt>
      <trkpt lat="44.3231" lon="2.52906">
        <ele>653.2</ele>
        <time>2011-05-11T17:54:43Z</time>
      </trkpt>
      <trkpt lat="44.32309" lon="2.52909">
        <ele>653.2</ele>
        <time>2011-05-11T17:54:44Z</time>
      </trkpt>
      <trkpt lat="44.32309" lon="2.52913">
        <ele>653.2</ele>
        <time>2011-05-11T17:54:45Z</time>
      </trkpt>
      <trkpt lat="44.32308" lon="2.52916">
        <ele>652</ele>
        <time>2011-05-11T17:54:46Z</time>
      </trkpt>
      <trkpt lat="44.32307" lon="2.52919">
        <ele>652</ele>
        <time>2011-05-11T17:54:47Z</time>
      </trkpt>
      <trkpt lat="44.32307" lon="2.52923">
        <ele>652</ele>
        <time>2011-05-11T17:54:48Z</time>
      </trkpt>
      <trkpt lat="44.32306" lon="2.52927">
        <ele>652</ele>
        <time>2011-05-11T17:54:49Z</time>
      </trkpt>
      <trkpt lat="44.32306" lon="2.52931">
        <ele>652</ele>
        <time>2011-05-11T17:54:50Z</time>
      </trkpt>
      <trkpt lat="44.32305" lon="2.52935">
        <ele>651.9</ele>
        <time>2011-05-11T17:54:51Z</time>
      </trkpt>
      <trkpt lat="44.32304" lon="2.52939">
        <ele>651.7</ele>
        <time>2011-05-11T17:54:52Z</time>
      </trkpt>
      <trkpt lat="44.32304" lon="2.52943">
        <ele>651.7</ele>
        <time>2011-05-11T17:54:53Z</time>
      </trkpt>
      <trkpt lat="44.32303" lon="2.52946">
        <ele>651.5</ele>
        <time>2011-05-11T17:54:54Z</time>
      </trkpt>
      <trkpt lat="44.32303" lon="2.5295">
        <ele>651.5</ele>
        <time>2011-05-11T17:54:55Z</time>
      </trkpt>
      <trkpt lat="44.32302" lon="2.52954">
        <ele>651.5</ele>
        <time>2011-05-11T17:54:56Z</time>
      </trkpt>
      <trkpt lat="44.32302" lon="2.52958">
        <ele>651.5</ele>
        <time>2011-05-11T17:54:57Z</time>
      </trkpt>
      <trkpt lat="44.32301" lon="2.52961">
        <ele>651.5</ele>
        <time>2011-05-11T17:54:58Z</time>
      </trkpt>
      <trkpt lat="44.323" lon="2.52965">
        <ele>651.5</ele>
        <time>2011-05-11T17:54:59Z</time>
      </trkpt>
      <trkpt lat="44.32299" lon="2.52969">
        <ele>651.5</ele>
        <time>2011-05-11T17:55:00Z</time>
      </trkpt>
      <trkpt lat="44.32299" lon="2.52972">
        <ele>651.5</ele>
        <time>2011-05-11T17:55:01Z</time>
      </trkpt>
      <trkpt lat="44.32299" lon="2.52976">
        <ele>651.5</ele>
        <time>2011-05-11T17:55:02Z</time>
      </trkpt>
      <trkpt lat="44.32298" lon="2.5298">
        <ele>651.5</ele>
        <time>2011-05-11T17:55:03Z</time>
      </trkpt>
      <trkpt lat="44.32298" lon="2.52984">
        <ele>651.4</ele>
        <time>2011-05-11T17:55:04Z</time>
      </trkpt>
      <trkpt lat="44.32297" lon="2.52988">
        <ele>651.2</ele>
        <time>2011-05-11T17:55:05Z</time>
      </trkpt>
      <trkpt lat="44.32297" lon="2.52992">
        <ele>651.2</ele>
        <time>2011-05-11T17:55:06Z</time>
      </trkpt>
      <trkpt lat="44.32296" lon="2.52996">
        <ele>651</ele>
        <time>2011-05-11T17:55:07Z</time>
      </trkpt>
      <trkpt lat="44.32295" lon="2.53">
        <ele>650.9</ele>
        <time>2011-05-11T17:55:08Z</time>
      </trkpt>
      <trkpt lat="44.32294" lon="2.53005">
        <ele>650.7</ele>
        <time>2011-05-11T17:55:09Z</time>
      </trkpt>
      <trkpt lat="44.32293" lon="2.53009">
        <ele>650.7</ele>
        <time>2011-05-11T17:55:10Z</time>
      </trkpt>
      <trkpt lat="44.32292" lon="2.53013">
        <ele>650.7</ele>
        <time>2011-05-11T17:55:11Z</time>
      </trkpt>
      <trkpt lat="44.32292" lon="2.53018">
        <ele>650.5</ele>
        <time>2011-05-11T17:55:12Z</time>
      </trkpt>
      <trkpt lat="44.32291" lon="2.53022">
        <ele>650.4</ele>
        <time>2011-05-11T17:55:13Z</time>
      </trkpt>
      <trkpt lat="44.3229" lon="2.53027">
        <ele>650.4</ele>
        <time>2011-05-11T17:55:14Z</time>
      </trkpt>
      <trkpt lat="44.32289" lon="2.53031">
        <ele>650.4</ele>
        <time>2011-05-11T17:55:15Z</time>
      </trkpt>
      <trkpt lat="44.32288" lon="2.53035">
        <ele>650.5</ele>
        <time>2011-05-11T17:55:16Z</time>
      </trkpt>
      <trkpt lat="44.32287" lon="2.53038">
        <ele>650.5</ele>
        <time>2011-05-11T17:55:17Z</time>
      </trkpt>
      <trkpt lat="44.32287" lon="2.53042">
        <ele>650.7</ele>
        <time>2011-05-11T17:55:18Z</time>
      </trkpt>
      <trkpt lat="44.32286" lon="2.53045">
        <ele>650.7</ele>
        <time>2011-05-11T17:55:19Z</time>
      </trkpt>
      <trkpt lat="44.32285" lon="2.53049">
        <ele>650.7</ele>
        <time>2011-05-11T17:55:20Z</time>
      </trkpt>
      <trkpt lat="44.32284" lon="2.53052">
        <ele>650.5</ele>
        <time>2011-05-11T17:55:21Z</time>
      </trkpt>
      <trkpt lat="44.32283" lon="2.53055">
        <ele>650.4</ele>
        <time>2011-05-11T17:55:22Z</time>
      </trkpt>
      <trkpt lat="44.32283" lon="2.53058">
        <ele>650.4</ele>
        <time>2011-05-11T17:55:23Z</time>
      </trkpt>
      <trkpt lat="44.32282" lon="2.53061">
        <ele>650.4</ele>
        <time>2011-05-11T17:55:24Z</time>
      </trkpt>
      <trkpt lat="44.32281" lon="2.53064">
        <ele>650.2</ele>
        <time>2011-05-11T17:55:25Z</time>
      </trkpt>
      <trkpt lat="44.3228" lon="2.5307">
        <ele>650</ele>
        <time>2011-05-11T17:55:27Z</time>
      </trkpt>
      <trkpt lat="44.32278" lon="2.53076">
        <ele>650.2</ele>
        <time>2011-05-11T17:55:29Z</time>
      </trkpt>
      <trkpt lat="44.32278" lon="2.53079">
        <ele>650.2</ele>
        <time>2011-05-11T17:55:30Z</time>
      </trkpt>
      <trkpt lat="44.32277" lon="2.53082">
        <ele>650.2</ele>
        <time>2011-05-11T17:55:31Z</time>
      </trkpt>
      <trkpt lat="44.32276" lon="2.53085">
        <ele>650</ele>
        <time>2011-05-11T17:55:32Z</time>
      </trkpt>
      <trkpt lat="44.32275" lon="2.53088">
        <ele>650</ele>
        <time>2011-05-11T17:55:33Z</time>
      </trkpt>
      <trkpt lat="44.32274" lon="2.53091">
        <ele>650</ele>
        <time>2011-05-11T17:55:34Z</time>
      </trkpt>
      <trkpt lat="44.32273" lon="2.53095">
        <ele>650.2</ele>
        <time>2011-05-11T17:55:35Z</time>
      </trkpt>
      <trkpt lat="44.32273" lon="2.53098">
        <ele>650.2</ele>
        <time>2011-05-11T17:55:36Z</time>
      </trkpt>
      <trkpt lat="44.32272" lon="2.53101">
        <ele>650.4</ele>
        <time>2011-05-11T17:55:37Z</time>
      </trkpt>
      <trkpt lat="44.32272" lon="2.53105">
        <ele>650.5</ele>
        <time>2011-05-11T17:55:38Z</time>
      </trkpt>
      <trkpt lat="44.32271" lon="2.53108">
        <ele>650.5</ele>
        <time>2011-05-11T17:55:39Z</time>
      </trkpt>
      <trkpt lat="44.32271" lon="2.53112">
        <ele>650.7</ele>
        <time>2011-05-11T17:55:40Z</time>
      </trkpt>
      <trkpt lat="44.3227" lon="2.53115">
        <ele>650.7</ele>
        <time>2011-05-11T17:55:41Z</time>
      </trkpt>
      <trkpt lat="44.3227" lon="2.53119">
        <ele>650.7</ele>
        <time>2011-05-11T17:55:42Z</time>
      </trkpt>
      <trkpt lat="44.32269" lon="2.53122">
        <ele>650.7</ele>
        <time>2011-05-11T17:55:43Z</time>
      </trkpt>
      <trkpt lat="44.32268" lon="2.53126">
        <ele>650.7</ele>
        <time>2011-05-11T17:55:44Z</time>
      </trkpt>
      <trkpt lat="44.32267" lon="2.53129">
        <ele>650.7</ele>
        <time>2011-05-11T17:55:45Z</time>
      </trkpt>
      <trkpt lat="44.32267" lon="2.53133">
        <ele>650.9</ele>
        <time>2011-05-11T17:55:46Z</time>
      </trkpt>
      <trkpt lat="44.32266" lon="2.53137">
        <ele>650.7</ele>
        <time>2011-05-11T17:55:47Z</time>
      </trkpt>
      <trkpt lat="44.32265" lon="2.53141">
        <ele>650.7</ele>
        <time>2011-05-11T17:55:48Z</time>
      </trkpt>
      <trkpt lat="44.32264" lon="2.53145">
        <ele>650.7</ele>
        <time>2011-05-11T17:55:49Z</time>
      </trkpt>
      <trkpt lat="44.32263" lon="2.53149">
        <ele>650.7</ele>
        <time>2011-05-11T17:55:50Z</time>
      </trkpt>
      <trkpt lat="44.32262" lon="2.53153">
        <ele>650.7</ele>
        <time>2011-05-11T17:55:51Z</time>
      </trkpt>
      <trkpt lat="44.32261" lon="2.53157">
        <ele>650.7</ele>
        <time>2011-05-11T17:55:52Z</time>
      </trkpt>
      <trkpt lat="44.3226" lon="2.53162">
        <ele>650.7</ele>
        <time>2011-05-11T17:55:53Z</time>
      </trkpt>
      <trkpt lat="44.32259" lon="2.53166">
        <ele>650.9</ele>
        <time>2011-05-11T17:55:54Z</time>
      </trkpt>
      <trkpt lat="44.32258" lon="2.5317">
        <ele>650.9</ele>
        <time>2011-05-11T17:55:55Z</time>
      </trkpt>
      <trkpt lat="44.32256" lon="2.53174">
        <ele>651</ele>
        <time>2011-05-11T17:55:56Z</time>
      </trkpt>
      <trkpt lat="44.32255" lon="2.53178">
        <ele>651</ele>
        <time>2011-05-11T17:55:57Z</time>
      </trkpt>
      <trkpt lat="44.32253" lon="2.53181">
        <ele>651</ele>
        <time>2011-05-11T17:55:58Z</time>
      </trkpt>
      <trkpt lat="44.32252" lon="2.53185">
        <ele>651.2</ele>
        <time>2011-05-11T17:55:59Z</time>
      </trkpt>
      <trkpt lat="44.3225" lon="2.53189">
        <ele>651.2</ele>
        <time>2011-05-11T17:56:00Z</time>
      </trkpt>
      <trkpt lat="44.32248" lon="2.53193">
        <ele>651.2</ele>
        <time>2011-05-11T17:56:01Z</time>
      </trkpt>
      <trkpt lat="44.32247" lon="2.53196">
        <ele>651</ele>
        <time>2011-05-11T17:56:02Z</time>
      </trkpt>
      <trkpt lat="44.32245" lon="2.53201">
        <ele>651</ele>
        <time>2011-05-11T17:56:03Z</time>
      </trkpt>
      <trkpt lat="44.32244" lon="2.53204">
        <ele>650.9</ele>
        <time>2011-05-11T17:56:04Z</time>
      </trkpt>
      <trkpt lat="44.32242" lon="2.53208">
        <ele>650.5</ele>
        <time>2011-05-11T17:56:05Z</time>
      </trkpt>
      <trkpt lat="44.3224" lon="2.53212">
        <ele>650.5</ele>
        <time>2011-05-11T17:56:06Z</time>
      </trkpt>
      <trkpt lat="44.32238" lon="2.53216">
        <ele>650.5</ele>
        <time>2011-05-11T17:56:07Z</time>
      </trkpt>
      <trkpt lat="44.32236" lon="2.5322">
        <ele>650.5</ele>
        <time>2011-05-11T17:56:08Z</time>
      </trkpt>
      <trkpt lat="44.32234" lon="2.53224">
        <ele>650.4</ele>
        <time>2011-05-11T17:56:09Z</time>
      </trkpt>
      <trkpt lat="44.32233" lon="2.53228">
        <ele>650.5</ele>
        <time>2011-05-11T17:56:10Z</time>
      </trkpt>
      <trkpt lat="44.32231" lon="2.53233">
        <ele>650.5</ele>
        <time>2011-05-11T17:56:11Z</time>
      </trkpt>
      <trkpt lat="44.32229" lon="2.53237">
        <ele>650.7</ele>
        <time>2011-05-11T17:56:12Z</time>
      </trkpt>
      <trkpt lat="44.32227" lon="2.53242">
        <ele>650.7</ele>
        <time>2011-05-11T17:56:13Z</time>
      </trkpt>
      <trkpt lat="44.32225" lon="2.53246">
        <ele>650.7</ele>
        <time>2011-05-11T17:56:14Z</time>
      </trkpt>
      <trkpt lat="44.32223" lon="2.5325">
        <ele>650.9</ele>
        <time>2011-05-11T17:56:15Z</time>
      </trkpt>
      <trkpt lat="44.32221" lon="2.53254">
        <ele>651</ele>
        <time>2011-05-11T17:56:16Z</time>
      </trkpt>
      <trkpt lat="44.32219" lon="2.53259">
        <ele>651.2</ele>
        <time>2011-05-11T17:56:17Z</time>
      </trkpt>
      <trkpt lat="44.32217" lon="2.53263">
        <ele>651.2</ele>
        <time>2011-05-11T17:56:18Z</time>
      </trkpt>
      <trkpt lat="44.32214" lon="2.53267">
        <ele>651.5</ele>
        <time>2011-05-11T17:56:19Z</time>
      </trkpt>
      <trkpt lat="44.32212" lon="2.5327">
        <ele>651.5</ele>
        <time>2011-05-11T17:56:20Z</time>
      </trkpt>
      <trkpt lat="44.3221" lon="2.53274">
        <ele>651.7</ele>
        <time>2011-05-11T17:56:21Z</time>
      </trkpt>
      <trkpt lat="44.32208" lon="2.53278">
        <ele>651.7</ele>
        <time>2011-05-11T17:56:22Z</time>
      </trkpt>
      <trkpt lat="44.32206" lon="2.53281">
        <ele>652</ele>
        <time>2011-05-11T17:56:23Z</time>
      </trkpt>
      <trkpt lat="44.32204" lon="2.53285">
        <ele>652.2</ele>
        <time>2011-05-11T17:56:24Z</time>
      </trkpt>
      <trkpt lat="44.32201" lon="2.53288">
        <ele>652.4</ele>
        <time>2011-05-11T17:56:25Z</time>
      </trkpt>
      <trkpt lat="44.32199" lon="2.53291">
        <ele>652.5</ele>
        <time>2011-05-11T17:56:26Z</time>
      </trkpt>
      <trkpt lat="44.32197" lon="2.53294">
        <ele>652.5</ele>
        <time>2011-05-11T17:56:27Z</time>
      </trkpt>
      <trkpt lat="44.32195" lon="2.53298">
        <ele>652.5</ele>
        <time>2011-05-11T17:56:28Z</time>
      </trkpt>
      <trkpt lat="44.32193" lon="2.53301">
        <ele>652.7</ele>
        <time>2011-05-11T17:56:29Z</time>
      </trkpt>
      <trkpt lat="44.3219" lon="2.53304">
        <ele>653</ele>
        <time>2011-05-11T17:56:30Z</time>
      </trkpt>
      <trkpt lat="44.32188" lon="2.53307">
        <ele>653</ele>
        <time>2011-05-11T17:56:31Z</time>
      </trkpt>
      <trkpt lat="44.32186" lon="2.5331">
        <ele>653.2</ele>
        <time>2011-05-11T17:56:32Z</time>
      </trkpt>
      <trkpt lat="44.32184" lon="2.53314">
        <ele>653.5</ele>
        <time>2011-05-11T17:56:33Z</time>
      </trkpt>
      <trkpt lat="44.32182" lon="2.53317">
        <ele>653.7</ele>
        <time>2011-05-11T17:56:34Z</time>
      </trkpt>
      <trkpt lat="44.3218" lon="2.5332">
        <ele>654</ele>
        <time>2011-05-11T17:56:35Z</time>
      </trkpt>
      <trkpt lat="44.32178" lon="2.53323">
        <ele>654.2</ele>
        <time>2011-05-11T17:56:36Z</time>
      </trkpt>
      <trkpt lat="44.32176" lon="2.53325">
        <ele>654.5</ele>
        <time>2011-05-11T17:56:37Z</time>
      </trkpt>
      <trkpt lat="44.32174" lon="2.53328">
        <ele>654.7</ele>
        <time>2011-05-11T17:56:38Z</time>
      </trkpt>
      <trkpt lat="44.32172" lon="2.5333">
        <ele>654.7</ele>
        <time>2011-05-11T17:56:39Z</time>
      </trkpt>
      <trkpt lat="44.3217" lon="2.53332">
        <ele>654.7</ele>
        <time>2011-05-11T17:56:40Z</time>
      </trkpt>
      <trkpt lat="44.32168" lon="2.53334">
        <ele>654.7</ele>
        <time>2011-05-11T17:56:41Z</time>
      </trkpt>
      <trkpt lat="44.32165" lon="2.53338">
        <ele>654.7</ele>
        <time>2011-05-11T17:56:43Z</time>
      </trkpt>
      <trkpt lat="44.32162" lon="2.53341">
        <ele>655</ele>
        <time>2011-05-11T17:56:45Z</time>
      </trkpt>
      <trkpt lat="44.32159" lon="2.53344">
        <ele>655.4</ele>
        <time>2011-05-11T17:56:47Z</time>
      </trkpt>
      <trkpt lat="44.32157" lon="2.53346">
        <ele>655.7</ele>
        <time>2011-05-11T17:56:49Z</time>
      </trkpt>
      <trkpt lat="44.32155" lon="2.5335">
        <ele>656.2</ele>
        <time>2011-05-11T17:56:51Z</time>
      </trkpt>
      <trkpt lat="44.32153" lon="2.53353">
        <ele>656.9</ele>
        <time>2011-05-11T17:56:53Z</time>
      </trkpt>
      <trkpt lat="44.3215" lon="2.53358">
        <ele>656.7</ele>
        <time>2011-05-11T17:56:56Z</time>
      </trkpt>
      <trkpt lat="44.32148" lon="2.53361">
        <ele>656.9</ele>
        <time>2011-05-11T17:56:58Z</time>
      </trkpt>
      <trkpt lat="44.32147" lon="2.53365">
        <ele>656.5</ele>
        <time>2011-05-11T17:57:00Z</time>
      </trkpt>
      <trkpt lat="44.32148" lon="2.5337">
        <ele>656.2</ele>
        <time>2011-05-11T17:57:02Z</time>
      </trkpt>
      <trkpt lat="44.3215" lon="2.53373">
        <ele>656.2</ele>
        <time>2011-05-11T17:57:03Z</time>
      </trkpt>
      <trkpt lat="44.32152" lon="2.53376">
        <ele>656.2</ele>
        <time>2011-05-11T17:57:04Z</time>
      </trkpt>
      <trkpt lat="44.32155" lon="2.53379">
        <ele>656</ele>
        <time>2011-05-11T17:57:05Z</time>
      </trkpt>
      <trkpt lat="44.32156" lon="2.53382">
        <ele>656</ele>
        <time>2011-05-11T17:57:06Z</time>
      </trkpt>
      <trkpt lat="44.32158" lon="2.53386">
        <ele>656</ele>
        <time>2011-05-11T17:57:07Z</time>
      </trkpt>
      <trkpt lat="44.32159" lon="2.53389">
        <ele>656</ele>
        <time>2011-05-11T17:57:08Z</time>
      </trkpt>
      <trkpt lat="44.3216" lon="2.53393">
        <ele>655.7</ele>
        <time>2011-05-11T17:57:09Z</time>
      </trkpt>
      <trkpt lat="44.32162" lon="2.53397">
        <ele>655.7</ele>
        <time>2011-05-11T17:57:10Z</time>
      </trkpt>
      <trkpt lat="44.32164" lon="2.53401">
        <ele>655.7</ele>
        <time>2011-05-11T17:57:11Z</time>
      </trkpt>
      <trkpt lat="44.32166" lon="2.53404">
        <ele>655.7</ele>
        <time>2011-05-11T17:57:12Z</time>
      </trkpt>
      <trkpt lat="44.32168" lon="2.53408">
        <ele>655.5</ele>
        <time>2011-05-11T17:57:13Z</time>
      </trkpt>
      <trkpt lat="44.32171" lon="2.53411">
        <ele>655.4</ele>
        <time>2011-05-11T17:57:14Z</time>
      </trkpt>
      <trkpt lat="44.32174" lon="2.53414">
        <ele>655.4</ele>
        <time>2011-05-11T17:57:15Z</time>
      </trkpt>
      <trkpt lat="44.32176" lon="2.53416">
        <ele>655.4</ele>
        <time>2011-05-11T17:57:16Z</time>
      </trkpt>
      <trkpt lat="44.32179" lon="2.53419">
        <ele>655.5</ele>
        <time>2011-05-11T17:57:17Z</time>
      </trkpt>
      <trkpt lat="44.32182" lon="2.53422">
        <ele>655.5</ele>
        <time>2011-05-11T17:57:18Z</time>
      </trkpt>
      <trkpt lat="44.32184" lon="2.53425">
        <ele>655.7</ele>
        <time>2011-05-11T17:57:19Z</time>
      </trkpt>
      <trkpt lat="44.32186" lon="2.53428">
        <ele>655.7</ele>
        <time>2011-05-11T17:57:20Z</time>
      </trkpt>
      <trkpt lat="44.32188" lon="2.5343">
        <ele>655.7</ele>
        <time>2011-05-11T17:57:21Z</time>
      </trkpt>
      <trkpt lat="44.3219" lon="2.53434">
        <ele>655.7</ele>
        <time>2011-05-11T17:57:23Z</time>
      </trkpt>
      <trkpt lat="44.32192" lon="2.53439">
        <ele>655.7</ele>
        <time>2011-05-11T17:57:26Z</time>
      </trkpt>
      <trkpt lat="44.32192" lon="2.53444">
        <ele>655.7</ele>
        <time>2011-05-11T17:57:28Z</time>
      </trkpt>
      <trkpt lat="44.32191" lon="2.53448">
        <ele>655.7</ele>
        <time>2011-05-11T17:57:30Z</time>
      </trkpt>
      <trkpt lat="44.3219" lon="2.53452">
        <ele>655.7</ele>
        <time>2011-05-11T17:57:32Z</time>
      </trkpt>
      <trkpt lat="44.32189" lon="2.53458">
        <ele>655.7</ele>
        <time>2011-05-11T17:57:35Z</time>
      </trkpt>
      <trkpt lat="44.32188" lon="2.53463">
        <ele>655.7</ele>
        <time>2011-05-11T17:57:38Z</time>
      </trkpt>
      <trkpt lat="44.32187" lon="2.53469">
        <ele>656</ele>
        <time>2011-05-11T17:57:43Z</time>
      </trkpt>
      <trkpt lat="44.32191" lon="2.53472">
        <ele>655.7</ele>
        <time>2011-05-11T17:57:47Z</time>
      </trkpt>
      <trkpt lat="44.32195" lon="2.5347">
        <ele>655.2</ele>
        <time>2011-05-11T17:57:49Z</time>
      </trkpt>
      <trkpt lat="44.32197" lon="2.53469">
        <ele>654.7</ele>
        <time>2011-05-11T17:57:50Z</time>
      </trkpt>
      <trkpt lat="44.32201" lon="2.53466">
        <ele>654.2</ele>
        <time>2011-05-11T17:57:52Z</time>
      </trkpt>
      <trkpt lat="44.32203" lon="2.53464">
        <ele>654</ele>
        <time>2011-05-11T17:57:53Z</time>
      </trkpt>
      <trkpt lat="44.32205" lon="2.53463">
        <ele>654</ele>
        <time>2011-05-11T17:57:54Z</time>
      </trkpt>
      <trkpt lat="44.32207" lon="2.53461">
        <ele>653.9</ele>
        <time>2011-05-11T17:57:55Z</time>
      </trkpt>
      <trkpt lat="44.32209" lon="2.53459">
        <ele>653.7</ele>
        <time>2011-05-11T17:57:56Z</time>
      </trkpt>
      <trkpt lat="44.32212" lon="2.53458">
        <ele>653.2</ele>
        <time>2011-05-11T17:57:57Z</time>
      </trkpt>
      <trkpt lat="44.32214" lon="2.53456">
        <ele>653.2</ele>
        <time>2011-05-11T17:57:58Z</time>
      </trkpt>
      <trkpt lat="44.32217" lon="2.53454">
        <ele>653.2</ele>
        <time>2011-05-11T17:57:59Z</time>
      </trkpt>
      <trkpt lat="44.32219" lon="2.53452">
        <ele>653.2</ele>
        <time>2011-05-11T17:58:00Z</time>
      </trkpt>
      <trkpt lat="44.32221" lon="2.5345">
        <ele>653</ele>
        <time>2011-05-11T17:58:01Z</time>
      </trkpt>
      <trkpt lat="44.32223" lon="2.53449">
        <ele>652.9</ele>
        <time>2011-05-11T17:58:02Z</time>
      </trkpt>
      <trkpt lat="44.32226" lon="2.53449">
        <ele>652.7</ele>
        <time>2011-05-11T17:58:03Z</time>
      </trkpt>
      <trkpt lat="44.32228" lon="2.53449">
        <ele>652.5</ele>
        <time>2011-05-11T17:58:04Z</time>
      </trkpt>
      <trkpt lat="44.32231" lon="2.53449">
        <ele>652.4</ele>
        <time>2011-05-11T17:58:05Z</time>
      </trkpt>
      <trkpt lat="44.32234" lon="2.5345">
        <ele>652.2</ele>
        <time>2011-05-11T17:58:06Z</time>
      </trkpt>
      <trkpt lat="44.32237" lon="2.53451">
        <ele>652</ele>
        <time>2011-05-11T17:58:07Z</time>
      </trkpt>
      <trkpt lat="44.32241" lon="2.53452">
        <ele>651.7</ele>
        <time>2011-05-11T17:58:08Z</time>
      </trkpt>
      <trkpt lat="44.32244" lon="2.53453">
        <ele>651.7</ele>
        <time>2011-05-11T17:58:09Z</time>
      </trkpt>
      <trkpt lat="44.32248" lon="2.53453">
        <ele>651.5</ele>
        <time>2011-05-11T17:58:10Z</time>
      </trkpt>
      <trkpt lat="44.32251" lon="2.53454">
        <ele>651.4</ele>
        <time>2011-05-11T17:58:11Z</time>
      </trkpt>
      <trkpt lat="44.32255" lon="2.53455">
        <ele>651.2</ele>
        <time>2011-05-11T17:58:12Z</time>
      </trkpt>
      <trkpt lat="44.32259" lon="2.53456">
        <ele>651</ele>
        <time>2011-05-11T17:58:13Z</time>
      </trkpt>
      <trkpt lat="44.32263" lon="2.53457">
        <ele>650.7</ele>
        <time>2011-05-11T17:58:14Z</time>
      </trkpt>
      <trkpt lat="44.32268" lon="2.53458">
        <ele>650.5</ele>
        <time>2011-05-11T17:58:15Z</time>
      </trkpt>
      <trkpt lat="44.32273" lon="2.53458">
        <ele>650.2</ele>
        <time>2011-05-11T17:58:16Z</time>
      </trkpt>
      <trkpt lat="44.32278" lon="2.53459">
        <ele>650</ele>
        <time>2011-05-11T17:58:17Z</time>
      </trkpt>
      <trkpt lat="44.32283" lon="2.5346">
        <ele>649.7</ele>
        <time>2011-05-11T17:58:18Z</time>
      </trkpt>
      <trkpt lat="44.32288" lon="2.53461">
        <ele>649.4</ele>
        <time>2011-05-11T17:58:19Z</time>
      </trkpt>
      <trkpt lat="44.32294" lon="2.53463">
        <ele>649</ele>
        <time>2011-05-11T17:58:20Z</time>
      </trkpt>
      <trkpt lat="44.323" lon="2.53464">
        <ele>648.5</ele>
        <time>2011-05-11T17:58:21Z</time>
      </trkpt>
      <trkpt lat="44.32307" lon="2.53464">
        <ele>648.2</ele>
        <time>2011-05-11T17:58:22Z</time>
      </trkpt>
      <trkpt lat="44.32313" lon="2.53465">
        <ele>647.9</ele>
        <time>2011-05-11T17:58:23Z</time>
      </trkpt>
      <trkpt lat="44.3232" lon="2.53465">
        <ele>647.5</ele>
        <time>2011-05-11T17:58:24Z</time>
      </trkpt>
      <trkpt lat="44.32326" lon="2.53466">
        <ele>647.2</ele>
        <time>2011-05-11T17:58:25Z</time>
      </trkpt>
      <trkpt lat="44.32333" lon="2.53466">
        <ele>646.7</ele>
        <time>2011-05-11T17:58:26Z</time>
      </trkpt>
      <trkpt lat="44.32339" lon="2.53467">
        <ele>646.5</ele>
        <time>2011-05-11T17:58:27Z</time>
      </trkpt>
      <trkpt lat="44.32346" lon="2.53469">
        <ele>646</ele>
        <time>2011-05-11T17:58:28Z</time>
      </trkpt>
      <trkpt lat="44.32353" lon="2.53472">
        <ele>645.5</ele>
        <time>2011-05-11T17:58:29Z</time>
      </trkpt>
      <trkpt lat="44.3236" lon="2.53474">
        <ele>645</ele>
        <time>2011-05-11T17:58:30Z</time>
      </trkpt>
      <trkpt lat="44.32368" lon="2.53478">
        <ele>644.2</ele>
        <time>2011-05-11T17:58:31Z</time>
      </trkpt>
      <trkpt lat="44.32376" lon="2.53481">
        <ele>643.2</ele>
        <time>2011-05-11T17:58:32Z</time>
      </trkpt>
      <trkpt lat="44.32383" lon="2.53481">
        <ele>642.2</ele>
        <time>2011-05-11T17:58:33Z</time>
      </trkpt>
      <trkpt lat="44.32389" lon="2.53479">
        <ele>640.7</ele>
        <time>2011-05-11T17:58:34Z</time>
      </trkpt>
      <trkpt lat="44.32395" lon="2.53476">
        <ele>638.7</ele>
        <time>2011-05-11T17:58:35Z</time>
      </trkpt>
      <trkpt lat="44.324" lon="2.5347">
        <ele>636.5</ele>
        <time>2011-05-11T17:58:36Z</time>
      </trkpt>
      <trkpt lat="44.32405" lon="2.53464">
        <ele>634.9</ele>
        <time>2011-05-11T17:58:37Z</time>
      </trkpt>
      <trkpt lat="44.32411" lon="2.53457">
        <ele>633.5</ele>
        <time>2011-05-11T17:58:38Z</time>
      </trkpt>
      <trkpt lat="44.32416" lon="2.53451">
        <ele>632</ele>
        <time>2011-05-11T17:58:39Z</time>
      </trkpt>
      <trkpt lat="44.32422" lon="2.53445">
        <ele>630.4</ele>
        <time>2011-05-11T17:58:40Z</time>
      </trkpt>
      <trkpt lat="44.32428" lon="2.53439">
        <ele>628.9</ele>
        <time>2011-05-11T17:58:41Z</time>
      </trkpt>
      <trkpt lat="44.32434" lon="2.53433">
        <ele>627.5</ele>
        <time>2011-05-11T17:58:42Z</time>
      </trkpt>
      <trkpt lat="44.32439" lon="2.53427">
        <ele>626.4</ele>
        <time>2011-05-11T17:58:43Z</time>
      </trkpt>
      <trkpt lat="44.32444" lon="2.53422">
        <ele>625.2</ele>
        <time>2011-05-11T17:58:44Z</time>
      </trkpt>
      <trkpt lat="44.32448" lon="2.53416">
        <ele>624.4</ele>
        <time>2011-05-11T17:58:45Z</time>
      </trkpt>
      <trkpt lat="44.3245" lon="2.5341">
        <ele>623.7</ele>
        <time>2011-05-11T17:58:46Z</time>
      </trkpt>
      <trkpt lat="44.32453" lon="2.53404">
        <ele>623.5</ele>
        <time>2011-05-11T17:58:47Z</time>
      </trkpt>
      <trkpt lat="44.32456" lon="2.53399">
        <ele>623.5</ele>
        <time>2011-05-11T17:58:48Z</time>
      </trkpt>
      <trkpt lat="44.32459" lon="2.53394">
        <ele>623</ele>
        <time>2011-05-11T17:58:49Z</time>
      </trkpt>
      <trkpt lat="44.32463" lon="2.53391">
        <ele>622.5</ele>
        <time>2011-05-11T17:58:50Z</time>
      </trkpt>
      <trkpt lat="44.32467" lon="2.5339">
        <ele>621.9</ele>
        <time>2011-05-11T17:58:51Z</time>
      </trkpt>
      <trkpt lat="44.32473" lon="2.53389">
        <ele>621.5</ele>
        <time>2011-05-11T17:58:52Z</time>
      </trkpt>
      <trkpt lat="44.32478" lon="2.53385">
        <ele>621.7</ele>
        <time>2011-05-11T17:58:53Z</time>
      </trkpt>
      <trkpt lat="44.32483" lon="2.53383">
        <ele>621.9</ele>
        <time>2011-05-11T17:58:54Z</time>
      </trkpt>
      <trkpt lat="44.32486" lon="2.53381">
        <ele>622.2</ele>
        <time>2011-05-11T17:58:55Z</time>
      </trkpt>
      <trkpt lat="44.3249" lon="2.53378">
        <ele>623.2</ele>
        <time>2011-05-11T17:58:59Z</time>
      </trkpt>
      <trkpt lat="44.32492" lon="2.53372">
        <ele>627.9</ele>
        <time>2011-05-11T17:59:35Z</time>
      </trkpt>
      <trkpt lat="44.32492" lon="2.53372">
        <ele>627.7</ele>
        <time>2011-05-11T17:59:36Z</time>
      </trkpt>
      <trkpt lat="44.32492" lon="2.53363">
        <ele>626.2</ele>
        <time>2011-05-11T17:59:52Z</time>
      </trkpt>
      <trkpt lat="44.32492" lon="2.53359">
        <ele>626</ele>
        <time>2011-05-11T17:59:54Z</time>
      </trkpt>
      <trkpt lat="44.32491" lon="2.53353">
        <ele>625.7</ele>
        <time>2011-05-11T17:59:56Z</time>
      </trkpt>
      <trkpt lat="44.3249" lon="2.53347">
        <ele>625.5</ele>
        <time>2011-05-11T17:59:58Z</time>
      </trkpt>
      <trkpt lat="44.32489" lon="2.53342">
        <ele>625.2</ele>
        <time>2011-05-11T18:00:00Z</time>
      </trkpt>
      <trkpt lat="44.32487" lon="2.53336">
        <ele>624.9</ele>
        <time>2011-05-11T18:00:02Z</time>
      </trkpt>
      <trkpt lat="44.32485" lon="2.5333">
        <ele>624.9</ele>
        <time>2011-05-11T18:00:04Z</time>
      </trkpt>
      <trkpt lat="44.32484" lon="2.53328">
        <ele>625</ele>
        <time>2011-05-11T18:00:05Z</time>
      </trkpt>
      <trkpt lat="44.32483" lon="2.53325">
        <ele>625</ele>
        <time>2011-05-11T18:00:06Z</time>
      </trkpt>
      <trkpt lat="44.32481" lon="2.53322">
        <ele>625</ele>
        <time>2011-05-11T18:00:07Z</time>
      </trkpt>
      <trkpt lat="44.3248" lon="2.53319">
        <ele>625</ele>
        <time>2011-05-11T18:00:08Z</time>
      </trkpt>
      <trkpt lat="44.32478" lon="2.53317">
        <ele>625</ele>
        <time>2011-05-11T18:00:09Z</time>
      </trkpt>
      <trkpt lat="44.32477" lon="2.53314">
        <ele>625.2</ele>
        <time>2011-05-11T18:00:10Z</time>
      </trkpt>
      <trkpt lat="44.32475" lon="2.53312">
        <ele>625.2</ele>
        <time>2011-05-11T18:00:11Z</time>
      </trkpt>
      <trkpt lat="44.32473" lon="2.5331">
        <ele>625.4</ele>
        <time>2011-05-11T18:00:12Z</time>
      </trkpt>
      <trkpt lat="44.32471" lon="2.53308">
        <ele>625.5</ele>
        <time>2011-05-11T18:00:13Z</time>
      </trkpt>
      <trkpt lat="44.32469" lon="2.53306">
        <ele>625.5</ele>
        <time>2011-05-11T18:00:14Z</time>
      </trkpt>
      <trkpt lat="44.32467" lon="2.53304">
        <ele>625.5</ele>
        <time>2011-05-11T18:00:15Z</time>
      </trkpt>
      <trkpt lat="44.32465" lon="2.53302">
        <ele>625.7</ele>
        <time>2011-05-11T18:00:16Z</time>
      </trkpt>
      <trkpt lat="44.32463" lon="2.533">
        <ele>625.5</ele>
        <time>2011-05-11T18:00:17Z</time>
      </trkpt>
      <trkpt lat="44.3246" lon="2.53298">
        <ele>625.5</ele>
        <time>2011-05-11T18:00:18Z</time>
      </trkpt>
      <trkpt lat="44.32457" lon="2.53298">
        <ele>625.5</ele>
        <time>2011-05-11T18:00:19Z</time>
      </trkpt>
      <trkpt lat="44.32454" lon="2.53297">
        <ele>625.7</ele>
        <time>2011-05-11T18:00:20Z</time>
      </trkpt>
      <trkpt lat="44.32451" lon="2.53297">
        <ele>625.5</ele>
        <time>2011-05-11T18:00:21Z</time>
      </trkpt>
      <trkpt lat="44.32448" lon="2.53297">
        <ele>625.5</ele>
        <time>2011-05-11T18:00:22Z</time>
      </trkpt>
      <trkpt lat="44.32445" lon="2.53297">
        <ele>625.5</ele>
        <time>2011-05-11T18:00:23Z</time>
      </trkpt>
      <trkpt lat="44.32442" lon="2.53298">
        <ele>625.5</ele>
        <time>2011-05-11T18:00:24Z</time>
      </trkpt>
      <trkpt lat="44.32438" lon="2.53298">
        <ele>625.4</ele>
        <time>2011-05-11T18:00:25Z</time>
      </trkpt>
      <trkpt lat="44.32435" lon="2.53298">
        <ele>625.4</ele>
        <time>2011-05-11T18:00:26Z</time>
      </trkpt>
      <trkpt lat="44.32432" lon="2.53298">
        <ele>625.4</ele>
        <time>2011-05-11T18:00:27Z</time>
      </trkpt>
      <trkpt lat="44.32429" lon="2.53299">
        <ele>625.4</ele>
        <time>2011-05-11T18:00:28Z</time>
      </trkpt>
      <trkpt lat="44.32425" lon="2.533">
        <ele>625.4</ele>
        <time>2011-05-11T18:00:29Z</time>
      </trkpt>
      <trkpt lat="44.32421" lon="2.533">
        <ele>625.2</ele>
        <time>2011-05-11T18:00:31Z</time>
      </trkpt>
      <trkpt lat="44.32417" lon="2.53302">
        <ele>625.2</ele>
        <time>2011-05-11T18:00:33Z</time>
      </trkpt>
      <trkpt lat="44.32413" lon="2.53302">
        <ele>625</ele>
        <time>2011-05-11T18:00:35Z</time>
      </trkpt>
      <trkpt lat="44.32412" lon="2.53297">
        <ele>625.2</ele>
        <time>2011-05-11T18:00:37Z</time>
      </trkpt>
      <trkpt lat="44.32413" lon="2.53296">
        <ele>625</ele>
        <time>2011-05-11T18:00:38Z</time>
      </trkpt>
      <trkpt lat="44.32419" lon="2.53292">
        <ele>624.4</ele>
        <time>2011-05-11T18:00:41Z</time>
      </trkpt>
      <trkpt lat="44.32422" lon="2.5329">
        <ele>623.9</ele>
        <time>2011-05-11T18:00:43Z</time>
      </trkpt>
      <trkpt lat="44.32426" lon="2.53288">
        <ele>623.5</ele>
        <time>2011-05-11T18:00:45Z</time>
      </trkpt>
      <trkpt lat="44.32429" lon="2.53286">
        <ele>623.2</ele>
        <time>2011-05-11T18:00:46Z</time>
      </trkpt>
      <trkpt lat="44.32433" lon="2.53284">
        <ele>622.7</ele>
        <time>2011-05-11T18:00:47Z</time>
      </trkpt>
      <trkpt lat="44.32436" lon="2.53282">
        <ele>622</ele>
        <time>2011-05-11T18:00:48Z</time>
      </trkpt>
      <trkpt lat="44.3244" lon="2.5328">
        <ele>621.2</ele>
        <time>2011-05-11T18:00:49Z</time>
      </trkpt>
      <trkpt lat="44.32445" lon="2.53278">
        <ele>620.2</ele>
        <time>2011-05-11T18:00:50Z</time>
      </trkpt>
      <trkpt lat="44.3245" lon="2.53276">
        <ele>619</ele>
        <time>2011-05-11T18:00:51Z</time>
      </trkpt>
      <trkpt lat="44.32456" lon="2.53274">
        <ele>617.7</ele>
        <time>2011-05-11T18:00:52Z</time>
      </trkpt>
      <trkpt lat="44.32462" lon="2.53272">
        <ele>616.4</ele>
        <time>2011-05-11T18:00:53Z</time>
      </trkpt>
      <trkpt lat="44.32469" lon="2.53269">
        <ele>614.9</ele>
        <time>2011-05-11T18:00:54Z</time>
      </trkpt>
      <trkpt lat="44.32476" lon="2.53266">
        <ele>613.2</ele>
        <time>2011-05-11T18:00:55Z</time>
      </trkpt>
      <trkpt lat="44.32484" lon="2.53263">
        <ele>611.7</ele>
        <time>2011-05-11T18:00:56Z</time>
      </trkpt>
      <trkpt lat="44.32491" lon="2.5326">
        <ele>610.2</ele>
        <time>2011-05-11T18:00:57Z</time>
      </trkpt>
      <trkpt lat="44.32499" lon="2.53259">
        <ele>608.5</ele>
        <time>2011-05-11T18:00:58Z</time>
      </trkpt>
      <trkpt lat="44.32507" lon="2.53256">
        <ele>607</ele>
        <time>2011-05-11T18:00:59Z</time>
      </trkpt>
      <trkpt lat="44.32516" lon="2.53252">
        <ele>606.2</ele>
        <time>2011-05-11T18:01:00Z</time>
      </trkpt>
      <trkpt lat="44.32525" lon="2.53248">
        <ele>605.9</ele>
        <time>2011-05-11T18:01:01Z</time>
      </trkpt>
      <trkpt lat="44.32533" lon="2.53243">
        <ele>605.7</ele>
        <time>2011-05-11T18:01:02Z</time>
      </trkpt>
      <trkpt lat="44.32539" lon="2.53239">
        <ele>605.9</ele>
        <time>2011-05-11T18:01:03Z</time>
      </trkpt>
      <trkpt lat="44.32545" lon="2.53236">
        <ele>606</ele>
        <time>2011-05-11T18:01:04Z</time>
      </trkpt>
      <trkpt lat="44.32549" lon="2.53232">
        <ele>606.2</ele>
        <time>2011-05-11T18:01:05Z</time>
      </trkpt>
      <trkpt lat="44.32554" lon="2.53229">
        <ele>606</ele>
        <time>2011-05-11T18:01:06Z</time>
      </trkpt>
      <trkpt lat="44.32557" lon="2.5323">
        <ele>605.9</ele>
        <time>2011-05-11T18:01:07Z</time>
      </trkpt>
      <trkpt lat="44.32559" lon="2.53232">
        <ele>606</ele>
        <time>2011-05-11T18:01:08Z</time>
      </trkpt>
      <trkpt lat="44.3256" lon="2.53235">
        <ele>606.2</ele>
        <time>2011-05-11T18:01:09Z</time>
      </trkpt>
      <trkpt lat="44.3256" lon="2.53239">
        <ele>606.5</ele>
        <time>2011-05-11T18:01:10Z</time>
      </trkpt>
      <trkpt lat="44.3256" lon="2.53245">
        <ele>607</ele>
        <time>2011-05-11T18:01:12Z</time>
      </trkpt>
      <trkpt lat="44.32559" lon="2.53251">
        <ele>607.2</ele>
        <time>2011-05-11T18:01:14Z</time>
      </trkpt>
      <trkpt lat="44.32559" lon="2.53255">
        <ele>607.5</ele>
        <time>2011-05-11T18:01:16Z</time>
      </trkpt>
      <trkpt lat="44.32561" lon="2.5326">
        <ele>607.9</ele>
        <time>2011-05-11T18:01:19Z</time>
      </trkpt>
      <trkpt lat="44.32563" lon="2.53261">
        <ele>608</ele>
        <time>2011-05-11T18:01:20Z</time>
      </trkpt>
      <trkpt lat="44.32566" lon="2.5326">
        <ele>608.4</ele>
        <time>2011-05-11T18:01:21Z</time>
      </trkpt>
      <trkpt lat="44.3257" lon="2.53259">
        <ele>609.2</ele>
        <time>2011-05-11T18:01:22Z</time>
      </trkpt>
      <trkpt lat="44.32574" lon="2.53258">
        <ele>610.9</ele>
        <time>2011-05-11T18:01:24Z</time>
      </trkpt>
      <trkpt lat="44.32577" lon="2.53258">
        <ele>611.5</ele>
        <time>2011-05-11T18:01:26Z</time>
      </trkpt>
      <trkpt lat="44.3258" lon="2.53257">
        <ele>611.2</ele>
        <time>2011-05-11T18:01:27Z</time>
      </trkpt>
      <trkpt lat="44.32584" lon="2.53256">
        <ele>610.2</ele>
        <time>2011-05-11T18:01:28Z</time>
      </trkpt>
      <trkpt lat="44.3259" lon="2.53255">
        <ele>609.5</ele>
        <time>2011-05-11T18:01:29Z</time>
      </trkpt>
      <trkpt lat="44.32596" lon="2.53254">
        <ele>609</ele>
        <time>2011-05-11T18:01:30Z</time>
      </trkpt>
      <trkpt lat="44.32601" lon="2.53253">
        <ele>608.5</ele>
        <time>2011-05-11T18:01:31Z</time>
      </trkpt>
      <trkpt lat="44.32607" lon="2.53252">
        <ele>608</ele>
        <time>2011-05-11T18:01:32Z</time>
      </trkpt>
      <trkpt lat="44.32612" lon="2.53253">
        <ele>606.9</ele>
        <time>2011-05-11T18:01:33Z</time>
      </trkpt>
      <trkpt lat="44.32617" lon="2.53253">
        <ele>605.5</ele>
        <time>2011-05-11T18:01:34Z</time>
      </trkpt>
      <trkpt lat="44.32622" lon="2.53253">
        <ele>604.2</ele>
        <time>2011-05-11T18:01:35Z</time>
      </trkpt>
      <trkpt lat="44.32627" lon="2.5325">
        <ele>603</ele>
        <time>2011-05-11T18:01:36Z</time>
      </trkpt>
      <trkpt lat="44.32629" lon="2.53246">
        <ele>602</ele>
        <time>2011-05-11T18:01:37Z</time>
      </trkpt>
      <trkpt lat="44.32628" lon="2.5324">
        <ele>601.4</ele>
        <time>2011-05-11T18:01:38Z</time>
      </trkpt>
      <trkpt lat="44.32625" lon="2.53236">
        <ele>601</ele>
        <time>2011-05-11T18:01:39Z</time>
      </trkpt>
      <trkpt lat="44.32621" lon="2.53234">
        <ele>600.2</ele>
        <time>2011-05-11T18:01:41Z</time>
      </trkpt>
      <trkpt lat="44.32618" lon="2.53234">
        <ele>600</ele>
        <time>2011-05-11T18:01:43Z</time>
      </trkpt>
      <trkpt lat="44.32615" lon="2.53234">
        <ele>600</ele>
        <time>2011-05-11T18:01:45Z</time>
      </trkpt>
      <trkpt lat="44.3261" lon="2.53234">
        <ele>600.4</ele>
        <time>2011-05-11T18:01:48Z</time>
      </trkpt>
      <trkpt lat="44.32607" lon="2.53236">
        <ele>601.2</ele>
        <time>2011-05-11T18:01:51Z</time>
      </trkpt>
      <trkpt lat="44.32604" lon="2.53235">
        <ele>601.7</ele>
        <time>2011-05-11T18:01:53Z</time>
      </trkpt>
      <trkpt lat="44.32601" lon="2.53235">
        <ele>601.9</ele>
        <time>2011-05-11T18:01:55Z</time>
      </trkpt>
      <trkpt lat="44.32597" lon="2.53237">
        <ele>602.5</ele>
        <time>2011-05-11T18:01:58Z</time>
      </trkpt>
      <trkpt lat="44.32593" lon="2.53237">
        <ele>603</ele>
        <time>2011-05-11T18:02:00Z</time>
      </trkpt>
      <trkpt lat="44.32589" lon="2.53238">
        <ele>603.5</ele>
        <time>2011-05-11T18:02:02Z</time>
      </trkpt>
      <trkpt lat="44.32586" lon="2.53239">
        <ele>604.2</ele>
        <time>2011-05-11T18:02:04Z</time>
      </trkpt>
      <trkpt lat="44.32582" lon="2.53241">
        <ele>605</ele>
        <time>2011-05-11T18:02:06Z</time>
      </trkpt>
      <trkpt lat="44.32578" lon="2.53243">
        <ele>605.7</ele>
        <time>2011-05-11T18:02:08Z</time>
      </trkpt>
      <trkpt lat="44.32575" lon="2.53245">
        <ele>606.2</ele>
        <time>2011-05-11T18:02:10Z</time>
      </trkpt>
      <trkpt lat="44.32571" lon="2.53247">
        <ele>606.7</ele>
        <time>2011-05-11T18:02:12Z</time>
      </trkpt>
      <trkpt lat="44.32568" lon="2.5325">
        <ele>607.2</ele>
        <time>2011-05-11T18:02:14Z</time>
      </trkpt>
      <trkpt lat="44.32566" lon="2.53254">
        <ele>607.5</ele>
        <time>2011-05-11T18:02:16Z</time>
      </trkpt>
      <trkpt lat="44.32565" lon="2.53259">
        <ele>607.7</ele>
        <time>2011-05-11T18:02:18Z</time>
      </trkpt>
      <trkpt lat="44.32565" lon="2.53265">
        <ele>608</ele>
        <time>2011-05-11T18:02:21Z</time>
      </trkpt>
      <trkpt lat="44.32565" lon="2.5327">
        <ele>608</ele>
        <time>2011-05-11T18:02:24Z</time>
      </trkpt>
      <trkpt lat="44.32564" lon="2.53275">
        <ele>608.2</ele>
        <time>2011-05-11T18:02:27Z</time>
      </trkpt>
      <trkpt lat="44.32561" lon="2.53279">
        <ele>608.2</ele>
        <time>2011-05-11T18:02:29Z</time>
      </trkpt>
      <trkpt lat="44.32564" lon="2.53276">
        <ele>610.4</ele>
        <time>2011-05-11T18:02:53Z</time>
      </trkpt>
      <trkpt lat="44.32567" lon="2.53275">
        <ele>610.2</ele>
        <time>2011-05-11T18:02:54Z</time>
      </trkpt>
      <trkpt lat="44.3257" lon="2.53275">
        <ele>610.2</ele>
        <time>2011-05-11T18:02:55Z</time>
      </trkpt>
      <trkpt lat="44.32572" lon="2.53274">
        <ele>609.9</ele>
        <time>2011-05-11T18:02:56Z</time>
      </trkpt>
      <trkpt lat="44.32575" lon="2.53274">
        <ele>609.5</ele>
        <time>2011-05-11T18:02:57Z</time>
      </trkpt>
      <trkpt lat="44.32579" lon="2.53275">
        <ele>609.2</ele>
        <time>2011-05-11T18:02:58Z</time>
      </trkpt>
      <trkpt lat="44.32583" lon="2.53277">
        <ele>608.7</ele>
        <time>2011-05-11T18:02:59Z</time>
      </trkpt>
      <trkpt lat="44.32587" lon="2.5328">
        <ele>608.4</ele>
        <time>2011-05-11T18:03:00Z</time>
      </trkpt>
      <trkpt lat="44.32591" lon="2.53284">
        <ele>607.9</ele>
        <time>2011-05-11T18:03:01Z</time>
      </trkpt>
      <trkpt lat="44.32595" lon="2.53288">
        <ele>607.5</ele>
        <time>2011-05-11T18:03:02Z</time>
      </trkpt>
      <trkpt lat="44.32599" lon="2.5329">
        <ele>607.2</ele>
        <time>2011-05-11T18:03:03Z</time>
      </trkpt>
      <trkpt lat="44.32603" lon="2.53292">
        <ele>606.7</ele>
        <time>2011-05-11T18:03:04Z</time>
      </trkpt>
      <trkpt lat="44.32607" lon="2.53293">
        <ele>606.5</ele>
        <time>2011-05-11T18:03:05Z</time>
      </trkpt>
      <trkpt lat="44.32611" lon="2.53294">
        <ele>606.2</ele>
        <time>2011-05-11T18:03:06Z</time>
      </trkpt>
      <trkpt lat="44.32614" lon="2.53295">
        <ele>606</ele>
        <time>2011-05-11T18:03:07Z</time>
      </trkpt>
      <trkpt lat="44.32618" lon="2.53297">
        <ele>606</ele>
        <time>2011-05-11T18:03:08Z</time>
      </trkpt>
      <trkpt lat="44.32621" lon="2.53298">
        <ele>606</ele>
        <time>2011-05-11T18:03:09Z</time>
      </trkpt>
      <trkpt lat="44.32624" lon="2.53298">
        <ele>606</ele>
        <time>2011-05-11T18:03:10Z</time>
      </trkpt>
      <trkpt lat="44.32629" lon="2.53297">
        <ele>606.5</ele>
        <time>2011-05-11T18:03:21Z</time>
      </trkpt>
      <trkpt lat="44.32632" lon="2.53301">
        <ele>606.9</ele>
        <time>2011-05-11T18:03:59Z</time>
      </trkpt>
      <trkpt lat="44.32632" lon="2.53302">
        <ele>606.7</ele>
        <time>2011-05-11T18:04:00Z</time>
      </trkpt>
      <trkpt lat="44.32634" lon="2.5329">
        <ele>614.2</ele>
        <time>2011-05-11T18:05:03Z</time>
      </trkpt>
      <trkpt lat="44.32634" lon="2.53288">
        <ele>614</ele>
        <time>2011-05-11T18:05:04Z</time>
      </trkpt>
      <trkpt lat="44.32636" lon="2.53279">
        <ele>612.4</ele>
        <time>2011-05-11T18:05:10Z</time>
      </trkpt>
      <trkpt lat="44.3264" lon="2.53276">
        <ele>611.9</ele>
        <time>2011-05-11T18:05:14Z</time>
      </trkpt>
      <trkpt lat="44.32643" lon="2.53273">
        <ele>611.4</ele>
        <time>2011-05-11T18:05:18Z</time>
      </trkpt>
      <trkpt lat="44.32646" lon="2.53268">
        <ele>612</ele>
        <time>2011-05-11T18:05:31Z</time>
      </trkpt>
      <trkpt lat="44.32645" lon="2.53263">
        <ele>615.7</ele>
        <time>2011-05-11T18:05:44Z</time>
      </trkpt>
      <trkpt lat="44.32643" lon="2.53261">
        <ele>615</ele>
        <time>2011-05-11T18:05:46Z</time>
      </trkpt>
      <trkpt lat="44.3264" lon="2.53257">
        <ele>613.7</ele>
        <time>2011-05-11T18:05:48Z</time>
      </trkpt>
      <trkpt lat="44.32641" lon="2.53251">
        <ele>612.2</ele>
        <time>2011-05-11T18:05:51Z</time>
      </trkpt>
      <trkpt lat="44.32642" lon="2.53245">
        <ele>610.7</ele>
        <time>2011-05-11T18:06:00Z</time>
      </trkpt>
      <trkpt lat="44.32643" lon="2.5324">
        <ele>609.4</ele>
        <time>2011-05-11T18:06:03Z</time>
      </trkpt>
      <trkpt lat="44.32643" lon="2.53234">
        <ele>607.7</ele>
        <time>2011-05-11T18:06:06Z</time>
      </trkpt>
      <trkpt lat="44.32644" lon="2.53231">
        <ele>606.7</ele>
        <time>2011-05-11T18:06:07Z</time>
      </trkpt>
      <trkpt lat="44.32647" lon="2.53223">
        <ele>603.9</ele>
        <time>2011-05-11T18:06:34Z</time>
      </trkpt>
      <trkpt lat="44.3265" lon="2.53221">
        <ele>602.4</ele>
        <time>2011-05-11T18:06:47Z</time>
      </trkpt>
      <trkpt lat="44.32652" lon="2.53221">
        <ele>601.9</ele>
        <time>2011-05-11T18:06:48Z</time>
      </trkpt>
      <trkpt lat="44.32655" lon="2.53221">
        <ele>601.4</ele>
        <time>2011-05-11T18:06:49Z</time>
      </trkpt>
      <trkpt lat="44.32659" lon="2.53222">
        <ele>600.7</ele>
        <time>2011-05-11T18:06:50Z</time>
      </trkpt>
      <trkpt lat="44.32663" lon="2.53223">
        <ele>600.2</ele>
        <time>2011-05-11T18:06:51Z</time>
      </trkpt>
      <trkpt lat="44.32667" lon="2.53223">
        <ele>599.5</ele>
        <time>2011-05-11T18:06:52Z</time>
      </trkpt>
      <trkpt lat="44.3267" lon="2.53223">
        <ele>598.5</ele>
        <time>2011-05-11T18:06:53Z</time>
      </trkpt>
      <trkpt lat="44.32674" lon="2.5322">
        <ele>597.5</ele>
        <time>2011-05-11T18:06:55Z</time>
      </trkpt>
      <trkpt lat="44.32677" lon="2.53216">
        <ele>598.4</ele>
        <time>2011-05-11T18:07:07Z</time>
      </trkpt>
      <trkpt lat="44.32677" lon="2.53216">
        <ele>598.4</ele>
        <time>2011-05-11T18:07:08Z</time>
      </trkpt>
      <trkpt lat="44.32678" lon="2.53208">
        <ele>597.2</ele>
        <time>2011-05-11T18:07:17Z</time>
      </trkpt>
      <trkpt lat="44.32676" lon="2.53204">
        <ele>596.7</ele>
        <time>2011-05-11T18:07:19Z</time>
      </trkpt>
      <trkpt lat="44.32674" lon="2.53199">
        <ele>596.2</ele>
        <time>2011-05-11T18:07:21Z</time>
      </trkpt>
      <trkpt lat="44.32673" lon="2.53195">
        <ele>596</ele>
        <time>2011-05-11T18:07:22Z</time>
      </trkpt>
      <trkpt lat="44.32671" lon="2.53192">
        <ele>595.9</ele>
        <time>2011-05-11T18:07:23Z</time>
      </trkpt>
      <trkpt lat="44.3267" lon="2.53187">
        <ele>596</ele>
        <time>2011-05-11T18:07:24Z</time>
      </trkpt>
      <trkpt lat="44.32668" lon="2.53183">
        <ele>596.2</ele>
        <time>2011-05-11T18:07:25Z</time>
      </trkpt>
      <trkpt lat="44.32666" lon="2.53179">
        <ele>596.7</ele>
        <time>2011-05-11T18:07:26Z</time>
      </trkpt>
      <trkpt lat="44.32664" lon="2.53174">
        <ele>596.9</ele>
        <time>2011-05-11T18:07:27Z</time>
      </trkpt>
      <trkpt lat="44.32663" lon="2.5317">
        <ele>596.7</ele>
        <time>2011-05-11T18:07:28Z</time>
      </trkpt>
      <trkpt lat="44.32661" lon="2.53166">
        <ele>596.5</ele>
        <time>2011-05-11T18:07:29Z</time>
      </trkpt>
      <trkpt lat="44.32659" lon="2.53161">
        <ele>596</ele>
        <time>2011-05-11T18:07:30Z</time>
      </trkpt>
      <trkpt lat="44.32659" lon="2.53155">
        <ele>595.5</ele>
        <time>2011-05-11T18:07:31Z</time>
      </trkpt>
      <trkpt lat="44.32661" lon="2.5315">
        <ele>594.7</ele>
        <time>2011-05-11T18:07:32Z</time>
      </trkpt>
      <trkpt lat="44.32666" lon="2.53149">
        <ele>593.7</ele>
        <time>2011-05-11T18:07:33Z</time>
      </trkpt>
      <trkpt lat="44.3267" lon="2.5315">
        <ele>592.9</ele>
        <time>2011-05-11T18:07:34Z</time>
      </trkpt>
      <trkpt lat="44.32674" lon="2.53152">
        <ele>591.7</ele>
        <time>2011-05-11T18:07:35Z</time>
      </trkpt>
      <trkpt lat="44.3268" lon="2.53155">
        <ele>590.2</ele>
        <time>2011-05-11T18:07:36Z</time>
      </trkpt>
      <trkpt lat="44.32685" lon="2.53156">
        <ele>588.2</ele>
        <time>2011-05-11T18:07:37Z</time>
      </trkpt>
      <trkpt lat="44.3269" lon="2.53158">
        <ele>586</ele>
        <time>2011-05-11T18:07:38Z</time>
      </trkpt>
      <trkpt lat="44.32695" lon="2.5316">
        <ele>583.5</ele>
        <time>2011-05-11T18:07:39Z</time>
      </trkpt>
      <trkpt lat="44.327" lon="2.53164">
        <ele>581.2</ele>
        <time>2011-05-11T18:07:40Z</time>
      </trkpt>
      <trkpt lat="44.32704" lon="2.53166">
        <ele>579</ele>
        <time>2011-05-11T18:07:41Z</time>
      </trkpt>
      <trkpt lat="44.32708" lon="2.53163">
        <ele>572.7</ele>
        <time>2011-05-11T18:07:44Z</time>
      </trkpt>
      <trkpt lat="44.32711" lon="2.5316">
        <ele>570</ele>
        <time>2011-05-11T18:07:50Z</time>
      </trkpt>
      <trkpt lat="44.32714" lon="2.53156">
        <ele>576.7</ele>
        <time>2011-05-11T18:08:01Z</time>
      </trkpt>
      <trkpt lat="44.32711" lon="2.53151">
        <ele>578</ele>
        <time>2011-05-11T18:08:04Z</time>
      </trkpt>
      <trkpt lat="44.32709" lon="2.53147">
        <ele>578.5</ele>
        <time>2011-05-11T18:08:07Z</time>
      </trkpt>
      <trkpt lat="44.32706" lon="2.53142">
        <ele>578.7</ele>
        <time>2011-05-11T18:08:09Z</time>
      </trkpt>
      <trkpt lat="44.32704" lon="2.53139">
        <ele>578.9</ele>
        <time>2011-05-11T18:08:10Z</time>
      </trkpt>
      <trkpt lat="44.32702" lon="2.53135">
        <ele>579</ele>
        <time>2011-05-11T18:08:11Z</time>
      </trkpt>
      <trkpt lat="44.32699" lon="2.5313">
        <ele>579</ele>
        <time>2011-05-11T18:08:12Z</time>
      </trkpt>
      <trkpt lat="44.32697" lon="2.53125">
        <ele>579</ele>
        <time>2011-05-11T18:08:13Z</time>
      </trkpt>
      <trkpt lat="44.32694" lon="2.5312">
        <ele>578.9</ele>
        <time>2011-05-11T18:08:14Z</time>
      </trkpt>
      <trkpt lat="44.32692" lon="2.53113">
        <ele>578.5</ele>
        <time>2011-05-11T18:08:15Z</time>
      </trkpt>
      <trkpt lat="44.32691" lon="2.53105">
        <ele>578.2</ele>
        <time>2011-05-11T18:08:16Z</time>
      </trkpt>
      <trkpt lat="44.32687" lon="2.53097">
        <ele>577.9</ele>
        <time>2011-05-11T18:08:17Z</time>
      </trkpt>
      <trkpt lat="44.32683" lon="2.53088">
        <ele>577.4</ele>
        <time>2011-05-11T18:08:18Z</time>
      </trkpt>
      <trkpt lat="44.3268" lon="2.5308">
        <ele>577.2</ele>
        <time>2011-05-11T18:08:19Z</time>
      </trkpt>
      <trkpt lat="44.32679" lon="2.53075">
        <ele>577</ele>
        <time>2011-05-11T18:08:20Z</time>
      </trkpt>
      <trkpt lat="44.32678" lon="2.5307">
        <ele>576.7</ele>
        <time>2011-05-11T18:08:22Z</time>
      </trkpt>
      <trkpt lat="44.32676" lon="2.53065">
        <ele>579.4</ele>
        <time>2011-05-11T18:08:26Z</time>
      </trkpt>
      <trkpt lat="44.32675" lon="2.53059">
        <ele>583.5</ele>
        <time>2011-05-11T18:08:30Z</time>
      </trkpt>
      <trkpt lat="44.32674" lon="2.53053">
        <ele>588</ele>
        <time>2011-05-11T18:08:36Z</time>
      </trkpt>
      <trkpt lat="44.32677" lon="2.53048">
        <ele>590.9</ele>
        <time>2011-05-11T18:08:43Z</time>
      </trkpt>
      <trkpt lat="44.32681" lon="2.53047">
        <ele>591</ele>
        <time>2011-05-11T18:08:48Z</time>
      </trkpt>
      <trkpt lat="44.32684" lon="2.53046">
        <ele>591.9</ele>
        <time>2011-05-11T18:08:51Z</time>
      </trkpt>
      <trkpt lat="44.32689" lon="2.53045">
        <ele>592.5</ele>
        <time>2011-05-11T18:08:54Z</time>
      </trkpt>
      <trkpt lat="44.32692" lon="2.53046">
        <ele>592.5</ele>
        <time>2011-05-11T18:08:56Z</time>
      </trkpt>
      <trkpt lat="44.32696" lon="2.53045">
        <ele>591.5</ele>
        <time>2011-05-11T18:08:58Z</time>
      </trkpt>
      <trkpt lat="44.32699" lon="2.53044">
        <ele>590.9</ele>
        <time>2011-05-11T18:08:59Z</time>
      </trkpt>
      <trkpt lat="44.32701" lon="2.53043">
        <ele>590</ele>
        <time>2011-05-11T18:09:00Z</time>
      </trkpt>
      <trkpt lat="44.32704" lon="2.53042">
        <ele>589</ele>
        <time>2011-05-11T18:09:01Z</time>
      </trkpt>
      <trkpt lat="44.32711" lon="2.5304">
        <ele>588</ele>
        <time>2011-05-11T18:09:02Z</time>
      </trkpt>
      <trkpt lat="44.32717" lon="2.53035">
        <ele>586.9</ele>
        <time>2011-05-11T18:09:03Z</time>
      </trkpt>
      <trkpt lat="44.32723" lon="2.5303">
        <ele>585.2</ele>
        <time>2011-05-11T18:09:04Z</time>
      </trkpt>
      <trkpt lat="44.32728" lon="2.53025">
        <ele>582.7</ele>
        <time>2011-05-11T18:09:05Z</time>
      </trkpt>
      <trkpt lat="44.32732" lon="2.53021">
        <ele>580.4</ele>
        <time>2011-05-11T18:09:06Z</time>
      </trkpt>
      <trkpt lat="44.32737" lon="2.53016">
        <ele>577.7</ele>
        <time>2011-05-11T18:09:07Z</time>
      </trkpt>
      <trkpt lat="44.32742" lon="2.53011">
        <ele>574.7</ele>
        <time>2011-05-11T18:09:08Z</time>
      </trkpt>
      <trkpt lat="44.32746" lon="2.53005">
        <ele>571.7</ele>
        <time>2011-05-11T18:09:09Z</time>
      </trkpt>
      <trkpt lat="44.3275" lon="2.53001">
        <ele>568.5</ele>
        <time>2011-05-11T18:09:10Z</time>
      </trkpt>
      <trkpt lat="44.32757" lon="2.52995">
        <ele>564.5</ele>
        <time>2011-05-11T18:09:11Z</time>
      </trkpt>
      <trkpt lat="44.32766" lon="2.5299">
        <ele>561</ele>
        <time>2011-05-11T18:09:12Z</time>
      </trkpt>
      <trkpt lat="44.32774" lon="2.52984">
        <ele>558.4</ele>
        <time>2011-05-11T18:09:13Z</time>
      </trkpt>
      <trkpt lat="44.32782" lon="2.52976">
        <ele>555.2</ele>
        <time>2011-05-11T18:09:14Z</time>
      </trkpt>
      <trkpt lat="44.32789" lon="2.52967">
        <ele>552</ele>
        <time>2011-05-11T18:09:15Z</time>
      </trkpt>
      <trkpt lat="44.32794" lon="2.52959">
        <ele>548.9</ele>
        <time>2011-05-11T18:09:16Z</time>
      </trkpt>
      <trkpt lat="44.32798" lon="2.52951">
        <ele>545.4</ele>
        <time>2011-05-11T18:09:17Z</time>
      </trkpt>
      <trkpt lat="44.32803" lon="2.52943">
        <ele>542.7</ele>
        <time>2011-05-11T18:09:18Z</time>
      </trkpt>
      <trkpt lat="44.32809" lon="2.52936">
        <ele>540.9</ele>
        <time>2011-05-11T18:09:19Z</time>
      </trkpt>
      <trkpt lat="44.32814" lon="2.52929">
        <ele>539.4</ele>
        <time>2011-05-11T18:09:20Z</time>
      </trkpt>
      <trkpt lat="44.32821" lon="2.52923">
        <ele>537.5</ele>
        <time>2011-05-11T18:09:21Z</time>
      </trkpt>
      <trkpt lat="44.32828" lon="2.52918">
        <ele>536</ele>
        <time>2011-05-11T18:09:22Z</time>
      </trkpt>
      <trkpt lat="44.32835" lon="2.52914">
        <ele>534.4</ele>
        <time>2011-05-11T18:09:23Z</time>
      </trkpt>
      <trkpt lat="44.32844" lon="2.5291">
        <ele>533.2</ele>
        <time>2011-05-11T18:09:24Z</time>
      </trkpt>
      <trkpt lat="44.32852" lon="2.52907">
        <ele>532.5</ele>
        <time>2011-05-11T18:09:25Z</time>
      </trkpt>
      <trkpt lat="44.32858" lon="2.52903">
        <ele>531.7</ele>
        <time>2011-05-11T18:09:26Z</time>
      </trkpt>
      <trkpt lat="44.32865" lon="2.529">
        <ele>530.5</ele>
        <time>2011-05-11T18:09:27Z</time>
      </trkpt>
      <trkpt lat="44.3287" lon="2.52898">
        <ele>529.7</ele>
        <time>2011-05-11T18:09:28Z</time>
      </trkpt>
      <trkpt lat="44.32873" lon="2.52896">
        <ele>529.2</ele>
        <time>2011-05-11T18:09:29Z</time>
      </trkpt>
      <trkpt lat="44.32876" lon="2.52894">
        <ele>529.5</ele>
        <time>2011-05-11T18:09:30Z</time>
      </trkpt>
      <trkpt lat="44.32879" lon="2.52893">
        <ele>529.7</ele>
        <time>2011-05-11T18:09:31Z</time>
      </trkpt>
      <trkpt lat="44.32882" lon="2.52892">
        <ele>529.9</ele>
        <time>2011-05-11T18:09:32Z</time>
      </trkpt>
      <trkpt lat="44.32885" lon="2.5289">
        <ele>530</ele>
        <time>2011-05-11T18:09:33Z</time>
      </trkpt>
      <trkpt lat="44.32889" lon="2.52889">
        <ele>530.4</ele>
        <time>2011-05-11T18:09:34Z</time>
      </trkpt>
      <trkpt lat="44.32892" lon="2.52888">
        <ele>530.5</ele>
        <time>2011-05-11T18:09:35Z</time>
      </trkpt>
      <trkpt lat="44.32897" lon="2.52887">
        <ele>530.5</ele>
        <time>2011-05-11T18:09:36Z</time>
      </trkpt>
      <trkpt lat="44.329" lon="2.52887">
        <ele>530.5</ele>
        <time>2011-05-11T18:09:37Z</time>
      </trkpt>
      <trkpt lat="44.32904" lon="2.52886">
        <ele>530.4</ele>
        <time>2011-05-11T18:09:38Z</time>
      </trkpt>
      <trkpt lat="44.32909" lon="2.52884">
        <ele>530.4</ele>
        <time>2011-05-11T18:09:39Z</time>
      </trkpt>
      <trkpt lat="44.32913" lon="2.52882">
        <ele>530.2</ele>
        <time>2011-05-11T18:09:40Z</time>
      </trkpt>
      <trkpt lat="44.32917" lon="2.52879">
        <ele>530.2</ele>
        <time>2011-05-11T18:09:41Z</time>
      </trkpt>
      <trkpt lat="44.32921" lon="2.52876">
        <ele>530.5</ele>
        <time>2011-05-11T18:09:42Z</time>
      </trkpt>
      <trkpt lat="44.32925" lon="2.52873">
        <ele>530.7</ele>
        <time>2011-05-11T18:09:43Z</time>
      </trkpt>
      <trkpt lat="44.32928" lon="2.52871">
        <ele>531</ele>
        <time>2011-05-11T18:09:44Z</time>
      </trkpt>
      <trkpt lat="44.32932" lon="2.5287">
        <ele>531.2</ele>
        <time>2011-05-11T18:09:45Z</time>
      </trkpt>
      <trkpt lat="44.32935" lon="2.52868">
        <ele>531.2</ele>
        <time>2011-05-11T18:09:46Z</time>
      </trkpt>
      <trkpt lat="44.32939" lon="2.52865">
        <ele>531</ele>
        <time>2011-05-11T18:09:47Z</time>
      </trkpt>
      <trkpt lat="44.32942" lon="2.52865">
        <ele>530.7</ele>
        <time>2011-05-11T18:09:48Z</time>
      </trkpt>
      <trkpt lat="44.32946" lon="2.52864">
        <ele>530.2</ele>
        <time>2011-05-11T18:09:49Z</time>
      </trkpt>
      <trkpt lat="44.3295" lon="2.52864">
        <ele>529.4</ele>
        <time>2011-05-11T18:09:50Z</time>
      </trkpt>
      <trkpt lat="44.32954" lon="2.52864">
        <ele>528.4</ele>
        <time>2011-05-11T18:09:51Z</time>
      </trkpt>
      <trkpt lat="44.3296" lon="2.52864">
        <ele>527.5</ele>
        <time>2011-05-11T18:09:52Z</time>
      </trkpt>
      <trkpt lat="44.32966" lon="2.52864">
        <ele>526.5</ele>
        <time>2011-05-11T18:09:53Z</time>
      </trkpt>
      <trkpt lat="44.32973" lon="2.52864">
        <ele>525.5</ele>
        <time>2011-05-11T18:09:54Z</time>
      </trkpt>
      <trkpt lat="44.32981" lon="2.52862">
        <ele>524.5</ele>
        <time>2011-05-11T18:09:55Z</time>
      </trkpt>
      <trkpt lat="44.32988" lon="2.5286">
        <ele>523.7</ele>
        <time>2011-05-11T18:09:56Z</time>
      </trkpt>
      <trkpt lat="44.32994" lon="2.52858">
        <ele>523.2</ele>
        <time>2011-05-11T18:09:57Z</time>
      </trkpt>
      <trkpt lat="44.32999" lon="2.52856">
        <ele>522.7</ele>
        <time>2011-05-11T18:09:58Z</time>
      </trkpt>
      <trkpt lat="44.33004" lon="2.52855">
        <ele>522.2</ele>
        <time>2011-05-11T18:09:59Z</time>
      </trkpt>
      <trkpt lat="44.33009" lon="2.52853">
        <ele>521.9</ele>
        <time>2011-05-11T18:10:00Z</time>
      </trkpt>
      <trkpt lat="44.33013" lon="2.52847">
        <ele>521.2</ele>
        <time>2011-05-11T18:10:01Z</time>
      </trkpt>
      <trkpt lat="44.33016" lon="2.52842">
        <ele>520.2</ele>
        <time>2011-05-11T18:10:02Z</time>
      </trkpt>
      <trkpt lat="44.33019" lon="2.52837">
        <ele>518.9</ele>
        <time>2011-05-11T18:10:03Z</time>
      </trkpt>
      <trkpt lat="44.33022" lon="2.52833">
        <ele>517.9</ele>
        <time>2011-05-11T18:10:04Z</time>
      </trkpt>
      <trkpt lat="44.33025" lon="2.52831">
        <ele>517</ele>
        <time>2011-05-11T18:10:05Z</time>
      </trkpt>
      <trkpt lat="44.3303" lon="2.52828">
        <ele>516.9</ele>
        <time>2011-05-11T18:10:06Z</time>
      </trkpt>
      <trkpt lat="44.33033" lon="2.52827">
        <ele>516.7</ele>
        <time>2011-05-11T18:10:07Z</time>
      </trkpt>
      <trkpt lat="44.33036" lon="2.52825">
        <ele>517.2</ele>
        <time>2011-05-11T18:10:08Z</time>
      </trkpt>
      <trkpt lat="44.33038" lon="2.52823">
        <ele>517.5</ele>
        <time>2011-05-11T18:10:09Z</time>
      </trkpt>
      <trkpt lat="44.3304" lon="2.52821">
        <ele>518</ele>
        <time>2011-05-11T18:10:10Z</time>
      </trkpt>
      <trkpt lat="44.33042" lon="2.52819">
        <ele>518.2</ele>
        <time>2011-05-11T18:10:11Z</time>
      </trkpt>
      <trkpt lat="44.33045" lon="2.52817">
        <ele>518</ele>
        <time>2011-05-11T18:10:12Z</time>
      </trkpt>
      <trkpt lat="44.33047" lon="2.52815">
        <ele>518</ele>
        <time>2011-05-11T18:10:13Z</time>
      </trkpt>
      <trkpt lat="44.33048" lon="2.52813">
        <ele>517.9</ele>
        <time>2011-05-11T18:10:14Z</time>
      </trkpt>
      <trkpt lat="44.3305" lon="2.52811">
        <ele>517.7</ele>
        <time>2011-05-11T18:10:15Z</time>
      </trkpt>
      <trkpt lat="44.33052" lon="2.52809">
        <ele>517.5</ele>
        <time>2011-05-11T18:10:16Z</time>
      </trkpt>
      <trkpt lat="44.33054" lon="2.52806">
        <ele>517</ele>
        <time>2011-05-11T18:10:17Z</time>
      </trkpt>
      <trkpt lat="44.33055" lon="2.52802">
        <ele>516.5</ele>
        <time>2011-05-11T18:10:18Z</time>
      </trkpt>
      <trkpt lat="44.33057" lon="2.52799">
        <ele>515.7</ele>
        <time>2011-05-11T18:10:19Z</time>
      </trkpt>
      <trkpt lat="44.33059" lon="2.52797">
        <ele>514.9</ele>
        <time>2011-05-11T18:10:20Z</time>
      </trkpt>
      <trkpt lat="44.33061" lon="2.52795">
        <ele>514.2</ele>
        <time>2011-05-11T18:10:21Z</time>
      </trkpt>
      <trkpt lat="44.33064" lon="2.52791">
        <ele>513.5</ele>
        <time>2011-05-11T18:10:23Z</time>
      </trkpt>
      <trkpt lat="44.33068" lon="2.52788">
        <ele>513.9</ele>
        <time>2011-05-11T18:10:25Z</time>
      </trkpt>
      <trkpt lat="44.33071" lon="2.52785">
        <ele>514.5</ele>
        <time>2011-05-11T18:10:27Z</time>
      </trkpt>
      <trkpt lat="44.33075" lon="2.52782">
        <ele>515.2</ele>
        <time>2011-05-11T18:10:29Z</time>
      </trkpt>
      <trkpt lat="44.33077" lon="2.52778">
        <ele>515.5</ele>
        <time>2011-05-11T18:10:31Z</time>
      </trkpt>
      <trkpt lat="44.33079" lon="2.52773">
        <ele>515.5</ele>
        <time>2011-05-11T18:10:33Z</time>
      </trkpt>
      <trkpt lat="44.33082" lon="2.52768">
        <ele>515.5</ele>
        <time>2011-05-11T18:10:35Z</time>
      </trkpt>
      <trkpt lat="44.33085" lon="2.52765">
        <ele>515.9</ele>
        <time>2011-05-11T18:10:37Z</time>
      </trkpt>
      <trkpt lat="44.33088" lon="2.5276">
        <ele>517.2</ele>
        <time>2011-05-11T18:10:40Z</time>
      </trkpt>
      <trkpt lat="44.33091" lon="2.52756">
        <ele>518.7</ele>
        <time>2011-05-11T18:10:43Z</time>
      </trkpt>
      <trkpt lat="44.33094" lon="2.52751">
        <ele>521.7</ele>
        <time>2011-05-11T18:10:47Z</time>
      </trkpt>
      <trkpt lat="44.33098" lon="2.52749">
        <ele>524</ele>
        <time>2011-05-11T18:10:51Z</time>
      </trkpt>
      <trkpt lat="44.33101" lon="2.52752">
        <ele>525.2</ele>
        <time>2011-05-11T18:10:58Z</time>
      </trkpt>
      <trkpt lat="44.33105" lon="2.52753">
        <ele>523.7</ele>
        <time>2011-05-11T18:11:02Z</time>
      </trkpt>
      <trkpt lat="44.33108" lon="2.52751">
        <ele>523.5</ele>
        <time>2011-05-11T18:11:04Z</time>
      </trkpt>
      <trkpt lat="44.33111" lon="2.52748">
        <ele>524</ele>
        <time>2011-05-11T18:11:06Z</time>
      </trkpt>
      <trkpt lat="44.33113" lon="2.52747">
        <ele>524.2</ele>
        <time>2011-05-11T18:11:07Z</time>
      </trkpt>
      <trkpt lat="44.33115" lon="2.52746">
        <ele>524.2</ele>
        <time>2011-05-11T18:11:08Z</time>
      </trkpt>
      <trkpt lat="44.33118" lon="2.52744">
        <ele>524.5</ele>
        <time>2011-05-11T18:11:09Z</time>
      </trkpt>
      <trkpt lat="44.33121" lon="2.52742">
        <ele>524.7</ele>
        <time>2011-05-11T18:11:10Z</time>
      </trkpt>
      <trkpt lat="44.33124" lon="2.52741">
        <ele>524.9</ele>
        <time>2011-05-11T18:11:11Z</time>
      </trkpt>
      <trkpt lat="44.33129" lon="2.52741">
        <ele>525</ele>
        <time>2011-05-11T18:11:12Z</time>
      </trkpt>
      <trkpt lat="44.33134" lon="2.52741">
        <ele>525.2</ele>
        <time>2011-05-11T18:11:13Z</time>
      </trkpt>
      <trkpt lat="44.33141" lon="2.52742">
        <ele>525.2</ele>
        <time>2011-05-11T18:11:14Z</time>
      </trkpt>
      <trkpt lat="44.33148" lon="2.52745">
        <ele>524.9</ele>
        <time>2011-05-11T18:11:15Z</time>
      </trkpt>
      <trkpt lat="44.33155" lon="2.52749">
        <ele>524.4</ele>
        <time>2011-05-11T18:11:16Z</time>
      </trkpt>
      <trkpt lat="44.33162" lon="2.52753">
        <ele>523.9</ele>
        <time>2011-05-11T18:11:17Z</time>
      </trkpt>
      <trkpt lat="44.33168" lon="2.52757">
        <ele>523.2</ele>
        <time>2011-05-11T18:11:18Z</time>
      </trkpt>
      <trkpt lat="44.33171" lon="2.52761">
        <ele>522.5</ele>
        <time>2011-05-11T18:11:19Z</time>
      </trkpt>
      <trkpt lat="44.33174" lon="2.52766">
        <ele>521.9</ele>
        <time>2011-05-11T18:11:20Z</time>
      </trkpt>
      <trkpt lat="44.33176" lon="2.5277">
        <ele>520.5</ele>
        <time>2011-05-11T18:11:22Z</time>
      </trkpt>
      <trkpt lat="44.3318" lon="2.52773">
        <ele>520</ele>
        <time>2011-05-11T18:11:25Z</time>
      </trkpt>
      <trkpt lat="44.33183" lon="2.52776">
        <ele>519</ele>
        <time>2011-05-11T18:11:28Z</time>
      </trkpt>
      <trkpt lat="44.33186" lon="2.52779">
        <ele>518.7</ele>
        <time>2011-05-11T18:11:32Z</time>
      </trkpt>
      <trkpt lat="44.33189" lon="2.52784">
        <ele>518.7</ele>
        <time>2011-05-11T18:11:35Z</time>
      </trkpt>
      <trkpt lat="44.3319" lon="2.52788">
        <ele>517.7</ele>
        <time>2011-05-11T18:11:39Z</time>
      </trkpt>
      <trkpt lat="44.3319" lon="2.52795">
        <ele>516.2</ele>
        <time>2011-05-11T18:11:44Z</time>
      </trkpt>
      <trkpt lat="44.33191" lon="2.52799">
        <ele>515.4</ele>
        <time>2011-05-11T18:11:47Z</time>
      </trkpt>
      <trkpt lat="44.33192" lon="2.52805">
        <ele>515</ele>
        <time>2011-05-11T18:11:50Z</time>
      </trkpt>
      <trkpt lat="44.33192" lon="2.5281">
        <ele>514.5</ele>
        <time>2011-05-11T18:11:53Z</time>
      </trkpt>
      <trkpt lat="44.33191" lon="2.52816">
        <ele>514.5</ele>
        <time>2011-05-11T18:11:56Z</time>
      </trkpt>
      <trkpt lat="44.33191" lon="2.52822">
        <ele>515.2</ele>
        <time>2011-05-11T18:11:59Z</time>
      </trkpt>
      <trkpt lat="44.33193" lon="2.52826">
        <ele>516.4</ele>
        <time>2011-05-11T18:12:02Z</time>
      </trkpt>
      <trkpt lat="44.33196" lon="2.52828">
        <ele>517.9</ele>
        <time>2011-05-11T18:12:06Z</time>
      </trkpt>
      <trkpt lat="44.332" lon="2.52826">
        <ele>519.7</ele>
        <time>2011-05-11T18:12:10Z</time>
      </trkpt>
      <trkpt lat="44.33203" lon="2.52823">
        <ele>522.7</ele>
        <time>2011-05-11T18:12:15Z</time>
      </trkpt>
      <trkpt lat="44.33204" lon="2.52822">
        <ele>523.4</ele>
        <time>2011-05-11T18:12:16Z</time>
      </trkpt>
      <trkpt lat="44.3321" lon="2.52817">
        <ele>526.5</ele>
        <time>2011-05-11T18:12:22Z</time>
      </trkpt>
      <trkpt lat="44.33213" lon="2.52814">
        <ele>527.4</ele>
        <time>2011-05-11T18:12:25Z</time>
      </trkpt>
      <trkpt lat="44.33217" lon="2.52811">
        <ele>528</ele>
        <time>2011-05-11T18:12:28Z</time>
      </trkpt>
      <trkpt lat="44.3322" lon="2.52809">
        <ele>528.5</ele>
        <time>2011-05-11T18:12:30Z</time>
      </trkpt>
      <trkpt lat="44.33222" lon="2.52807">
        <ele>529.2</ele>
        <time>2011-05-11T18:12:32Z</time>
      </trkpt>
      <trkpt lat="44.33226" lon="2.52804">
        <ele>530.5</ele>
        <time>2011-05-11T18:12:35Z</time>
      </trkpt>
      <trkpt lat="44.3323" lon="2.52801">
        <ele>531.7</ele>
        <time>2011-05-11T18:12:39Z</time>
      </trkpt>
      <trkpt lat="44.33233" lon="2.52798">
        <ele>532.5</ele>
        <time>2011-05-11T18:12:42Z</time>
      </trkpt>
      <trkpt lat="44.33236" lon="2.52796">
        <ele>533.5</ele>
        <time>2011-05-11T18:12:45Z</time>
      </trkpt>
      <trkpt lat="44.33239" lon="2.52793">
        <ele>534.7</ele>
        <time>2011-05-11T18:12:49Z</time>
      </trkpt>
      <trkpt lat="44.33243" lon="2.52789">
        <ele>535.2</ele>
        <time>2011-05-11T18:12:53Z</time>
      </trkpt>
      <trkpt lat="44.33246" lon="2.52788">
        <ele>535.5</ele>
        <time>2011-05-11T18:12:56Z</time>
      </trkpt>
      <trkpt lat="44.3325" lon="2.52785">
        <ele>535.7</ele>
        <time>2011-05-11T18:12:59Z</time>
      </trkpt>
      <trkpt lat="44.33254" lon="2.52783">
        <ele>536.4</ele>
        <time>2011-05-11T18:13:03Z</time>
      </trkpt>
      <trkpt lat="44.33257" lon="2.52781">
        <ele>536.7</ele>
        <time>2011-05-11T18:13:06Z</time>
      </trkpt>
      <trkpt lat="44.33261" lon="2.52779">
        <ele>537</ele>
        <time>2011-05-11T18:13:09Z</time>
      </trkpt>
      <trkpt lat="44.33264" lon="2.52776">
        <ele>537.2</ele>
        <time>2011-05-11T18:13:12Z</time>
      </trkpt>
      <trkpt lat="44.33267" lon="2.52773">
        <ele>537.5</ele>
        <time>2011-05-11T18:13:15Z</time>
      </trkpt>
      <trkpt lat="44.33271" lon="2.5277">
        <ele>537.7</ele>
        <time>2011-05-11T18:13:19Z</time>
      </trkpt>
      <trkpt lat="44.33272" lon="2.52769">
        <ele>537.7</ele>
        <time>2011-05-11T18:13:20Z</time>
      </trkpt>
      <trkpt lat="44.33277" lon="2.52765">
        <ele>538.2</ele>
        <time>2011-05-11T18:13:25Z</time>
      </trkpt>
      <trkpt lat="44.3328" lon="2.52763">
        <ele>538.7</ele>
        <time>2011-05-11T18:13:28Z</time>
      </trkpt>
      <trkpt lat="44.33283" lon="2.5276">
        <ele>538.9</ele>
        <time>2011-05-11T18:13:31Z</time>
      </trkpt>
      <trkpt lat="44.33287" lon="2.52758">
        <ele>539</ele>
        <time>2011-05-11T18:13:34Z</time>
      </trkpt>
      <trkpt lat="44.3329" lon="2.52756">
        <ele>539.5</ele>
        <time>2011-05-11T18:13:37Z</time>
      </trkpt>
      <trkpt lat="44.33294" lon="2.52753">
        <ele>540</ele>
        <time>2011-05-11T18:13:40Z</time>
      </trkpt>
      <trkpt lat="44.33297" lon="2.52751">
        <ele>540.7</ele>
        <time>2011-05-11T18:13:43Z</time>
      </trkpt>
      <trkpt lat="44.33299" lon="2.52748">
        <ele>541.2</ele>
        <time>2011-05-11T18:13:46Z</time>
      </trkpt>
      <trkpt lat="44.33303" lon="2.52745">
        <ele>541.7</ele>
        <time>2011-05-11T18:13:50Z</time>
      </trkpt>
      <trkpt lat="44.33306" lon="2.52741">
        <ele>541.9</ele>
        <time>2011-05-11T18:13:53Z</time>
      </trkpt>
      <trkpt lat="44.33309" lon="2.52738">
        <ele>541.9</ele>
        <time>2011-05-11T18:13:56Z</time>
      </trkpt>
      <trkpt lat="44.33312" lon="2.52735">
        <ele>541.9</ele>
        <time>2011-05-11T18:13:59Z</time>
      </trkpt>
      <trkpt lat="44.33315" lon="2.52733">
        <ele>541.5</ele>
        <time>2011-05-11T18:14:02Z</time>
      </trkpt>
      <trkpt lat="44.33319" lon="2.5273">
        <ele>541.7</ele>
        <time>2011-05-11T18:14:06Z</time>
      </trkpt>
      <trkpt lat="44.33322" lon="2.52728">
        <ele>542.5</ele>
        <time>2011-05-11T18:14:10Z</time>
      </trkpt>
      <trkpt lat="44.33325" lon="2.52725">
        <ele>543.4</ele>
        <time>2011-05-11T18:14:13Z</time>
      </trkpt>
      <trkpt lat="44.33329" lon="2.52723">
        <ele>544.7</ele>
        <time>2011-05-11T18:14:17Z</time>
      </trkpt>
      <trkpt lat="44.33333" lon="2.5272">
        <ele>546</ele>
        <time>2011-05-11T18:14:21Z</time>
      </trkpt>
      <trkpt lat="44.33334" lon="2.5272">
        <ele>546.2</ele>
        <time>2011-05-11T18:14:22Z</time>
      </trkpt>
      <trkpt lat="44.33341" lon="2.52716">
        <ele>547.5</ele>
        <time>2011-05-11T18:14:29Z</time>
      </trkpt>
      <trkpt lat="44.33344" lon="2.52715">
        <ele>547.9</ele>
        <time>2011-05-11T18:14:32Z</time>
      </trkpt>
      <trkpt lat="44.33347" lon="2.52713">
        <ele>548.2</ele>
        <time>2011-05-11T18:14:35Z</time>
      </trkpt>
      <trkpt lat="44.33351" lon="2.52711">
        <ele>548.5</ele>
        <time>2011-05-11T18:14:39Z</time>
      </trkpt>
      <trkpt lat="44.33355" lon="2.5271">
        <ele>549</ele>
        <time>2011-05-11T18:14:43Z</time>
      </trkpt>
      <trkpt lat="44.3336" lon="2.52708">
        <ele>549</ele>
        <time>2011-05-11T18:14:47Z</time>
      </trkpt>
      <trkpt lat="44.33363" lon="2.52706">
        <ele>549.4</ele>
        <time>2011-05-11T18:14:50Z</time>
      </trkpt>
      <trkpt lat="44.33367" lon="2.52705">
        <ele>549.7</ele>
        <time>2011-05-11T18:14:53Z</time>
      </trkpt>
      <trkpt lat="44.33371" lon="2.52704">
        <ele>550.5</ele>
        <time>2011-05-11T18:14:56Z</time>
      </trkpt>
      <trkpt lat="44.33375" lon="2.52704">
        <ele>551.9</ele>
        <time>2011-05-11T18:15:00Z</time>
      </trkpt>
      <trkpt lat="44.33378" lon="2.52704">
        <ele>553</ele>
        <time>2011-05-11T18:15:05Z</time>
      </trkpt>
      <trkpt lat="44.33382" lon="2.52703">
        <ele>554.2</ele>
        <time>2011-05-11T18:15:10Z</time>
      </trkpt>
      <trkpt lat="44.33386" lon="2.52702">
        <ele>555.2</ele>
        <time>2011-05-11T18:15:15Z</time>
      </trkpt>
      <trkpt lat="44.3339" lon="2.52702">
        <ele>555.7</ele>
        <time>2011-05-11T18:15:19Z</time>
      </trkpt>
      <trkpt lat="44.33394" lon="2.52703">
        <ele>556.2</ele>
        <time>2011-05-11T18:15:23Z</time>
      </trkpt>
      <trkpt lat="44.33395" lon="2.52703">
        <ele>556.5</ele>
        <time>2011-05-11T18:15:24Z</time>
      </trkpt>
      <trkpt lat="44.33401" lon="2.52704">
        <ele>557.5</ele>
        <time>2011-05-11T18:15:30Z</time>
      </trkpt>
      <trkpt lat="44.33405" lon="2.52704">
        <ele>557.7</ele>
        <time>2011-05-11T18:15:33Z</time>
      </trkpt>
      <trkpt lat="44.33408" lon="2.52705">
        <ele>558.2</ele>
        <time>2011-05-11T18:15:36Z</time>
      </trkpt>
      <trkpt lat="44.33413" lon="2.52705">
        <ele>558.2</ele>
        <time>2011-05-11T18:15:40Z</time>
      </trkpt>
      <trkpt lat="44.33416" lon="2.52706">
        <ele>558.2</ele>
        <time>2011-05-11T18:15:43Z</time>
      </trkpt>
      <trkpt lat="44.3342" lon="2.52707">
        <ele>558.4</ele>
        <time>2011-05-11T18:15:46Z</time>
      </trkpt>
      <trkpt lat="44.33423" lon="2.52708">
        <ele>558.7</ele>
        <time>2011-05-11T18:15:48Z</time>
      </trkpt>
      <trkpt lat="44.33426" lon="2.52709">
        <ele>559</ele>
        <time>2011-05-11T18:15:50Z</time>
      </trkpt>
      <trkpt lat="44.33429" lon="2.5271">
        <ele>559.4</ele>
        <time>2011-05-11T18:15:52Z</time>
      </trkpt>
      <trkpt lat="44.33433" lon="2.52712">
        <ele>560</ele>
        <time>2011-05-11T18:15:55Z</time>
      </trkpt>
      <trkpt lat="44.33437" lon="2.52715">
        <ele>560.5</ele>
        <time>2011-05-11T18:15:58Z</time>
      </trkpt>
      <trkpt lat="44.3344" lon="2.52716">
        <ele>560.7</ele>
        <time>2011-05-11T18:16:00Z</time>
      </trkpt>
      <trkpt lat="44.33444" lon="2.52719">
        <ele>561.4</ele>
        <time>2011-05-11T18:16:03Z</time>
      </trkpt>
      <trkpt lat="44.33447" lon="2.52722">
        <ele>562</ele>
        <time>2011-05-11T18:16:06Z</time>
      </trkpt>
      <trkpt lat="44.3345" lon="2.52725">
        <ele>562.5</ele>
        <time>2011-05-11T18:16:09Z</time>
      </trkpt>
      <trkpt lat="44.33453" lon="2.52729">
        <ele>563.2</ele>
        <time>2011-05-11T18:16:12Z</time>
      </trkpt>
      <trkpt lat="44.33456" lon="2.52734">
        <ele>563.9</ele>
        <time>2011-05-11T18:16:15Z</time>
      </trkpt>
      <trkpt lat="44.33458" lon="2.52739">
        <ele>564.9</ele>
        <time>2011-05-11T18:16:18Z</time>
      </trkpt>
      <trkpt lat="44.33461" lon="2.52744">
        <ele>565.7</ele>
        <time>2011-05-11T18:16:21Z</time>
      </trkpt>
      <trkpt lat="44.33462" lon="2.5275">
        <ele>566.5</ele>
        <time>2011-05-11T18:16:24Z</time>
      </trkpt>
      <trkpt lat="44.33462" lon="2.52752">
        <ele>566.7</ele>
        <time>2011-05-11T18:16:25Z</time>
      </trkpt>
      <trkpt lat="44.33464" lon="2.52761">
        <ele>567.9</ele>
        <time>2011-05-11T18:16:30Z</time>
      </trkpt>
      <trkpt lat="44.33464" lon="2.52766">
        <ele>568.4</ele>
        <time>2011-05-11T18:16:33Z</time>
      </trkpt>
      <trkpt lat="44.33464" lon="2.52771">
        <ele>568.4</ele>
        <time>2011-05-11T18:16:36Z</time>
      </trkpt>
      <trkpt lat="44.33463" lon="2.52777">
        <ele>568.5</ele>
        <time>2011-05-11T18:16:40Z</time>
      </trkpt>
      <trkpt lat="44.33462" lon="2.52782">
        <ele>568.9</ele>
        <time>2011-05-11T18:16:43Z</time>
      </trkpt>
      <trkpt lat="44.33461" lon="2.52786">
        <ele>569.2</ele>
        <time>2011-05-11T18:16:46Z</time>
      </trkpt>
      <trkpt lat="44.33459" lon="2.52791">
        <ele>569.2</ele>
        <time>2011-05-11T18:16:49Z</time>
      </trkpt>
      <trkpt lat="44.33457" lon="2.52795">
        <ele>569</ele>
        <time>2011-05-11T18:16:52Z</time>
      </trkpt>
      <trkpt lat="44.33455" lon="2.52799">
        <ele>569</ele>
        <time>2011-05-11T18:16:55Z</time>
      </trkpt>
      <trkpt lat="44.33454" lon="2.52803">
        <ele>569.4</ele>
        <time>2011-05-11T18:16:58Z</time>
      </trkpt>
      <trkpt lat="44.33452" lon="2.52808">
        <ele>569.9</ele>
        <time>2011-05-11T18:17:01Z</time>
      </trkpt>
      <trkpt lat="44.3345" lon="2.52812">
        <ele>570.5</ele>
        <time>2011-05-11T18:17:04Z</time>
      </trkpt>
      <trkpt lat="44.33448" lon="2.52817">
        <ele>571</ele>
        <time>2011-05-11T18:17:08Z</time>
      </trkpt>
      <trkpt lat="44.33446" lon="2.52821">
        <ele>571.5</ele>
        <time>2011-05-11T18:17:11Z</time>
      </trkpt>
      <trkpt lat="44.33445" lon="2.52826">
        <ele>572.2</ele>
        <time>2011-05-11T18:17:14Z</time>
      </trkpt>
      <trkpt lat="44.33443" lon="2.5283">
        <ele>572.9</ele>
        <time>2011-05-11T18:17:17Z</time>
      </trkpt>
      <trkpt lat="44.33441" lon="2.52835">
        <ele>573.5</ele>
        <time>2011-05-11T18:17:20Z</time>
      </trkpt>
      <trkpt lat="44.33439" lon="2.5284">
        <ele>574</ele>
        <time>2011-05-11T18:17:23Z</time>
      </trkpt>
      <trkpt lat="44.33437" lon="2.52845">
        <ele>574.5</ele>
        <time>2011-05-11T18:17:26Z</time>
      </trkpt>
      <trkpt lat="44.33437" lon="2.52847">
        <ele>574.5</ele>
        <time>2011-05-11T18:17:27Z</time>
      </trkpt>
      <trkpt lat="44.33433" lon="2.52854">
        <ele>574.7</ele>
        <time>2011-05-11T18:17:32Z</time>
      </trkpt>
      <trkpt lat="44.33432" lon="2.52859">
        <ele>574.4</ele>
        <time>2011-05-11T18:17:35Z</time>
      </trkpt>
      <trkpt lat="44.3343" lon="2.52863">
        <ele>574.2</ele>
        <time>2011-05-11T18:17:38Z</time>
      </trkpt>
      <trkpt lat="44.33428" lon="2.52868">
        <ele>574</ele>
        <time>2011-05-11T18:17:41Z</time>
      </trkpt>
      <trkpt lat="44.33425" lon="2.52873">
        <ele>573.7</ele>
        <time>2011-05-11T18:17:45Z</time>
      </trkpt>
      <trkpt lat="44.33422" lon="2.52876">
        <ele>574</ele>
        <time>2011-05-11T18:17:48Z</time>
      </trkpt>
      <trkpt lat="44.3342" lon="2.5288">
        <ele>574.7</ele>
        <time>2011-05-11T18:17:51Z</time>
      </trkpt>
      <trkpt lat="44.33417" lon="2.52884">
        <ele>575</ele>
        <time>2011-05-11T18:17:54Z</time>
      </trkpt>
      <trkpt lat="44.33414" lon="2.52888">
        <ele>575.5</ele>
        <time>2011-05-11T18:17:57Z</time>
      </trkpt>
      <trkpt lat="44.33412" lon="2.52893">
        <ele>575.9</ele>
        <time>2011-05-11T18:18:00Z</time>
      </trkpt>
      <trkpt lat="44.33409" lon="2.52897">
        <ele>576.4</ele>
        <time>2011-05-11T18:18:03Z</time>
      </trkpt>
      <trkpt lat="44.33407" lon="2.52901">
        <ele>576.7</ele>
        <time>2011-05-11T18:18:06Z</time>
      </trkpt>
      <trkpt lat="44.33404" lon="2.52905">
        <ele>577.4</ele>
        <time>2011-05-11T18:18:09Z</time>
      </trkpt>
      <trkpt lat="44.33401" lon="2.52909">
        <ele>578.2</ele>
        <time>2011-05-11T18:18:12Z</time>
      </trkpt>
      <trkpt lat="44.33397" lon="2.52912">
        <ele>578.9</ele>
        <time>2011-05-11T18:18:15Z</time>
      </trkpt>
      <trkpt lat="44.33394" lon="2.52916">
        <ele>579.4</ele>
        <time>2011-05-11T18:18:18Z</time>
      </trkpt>
      <trkpt lat="44.3339" lon="2.52919">
        <ele>580</ele>
        <time>2011-05-11T18:18:21Z</time>
      </trkpt>
      <trkpt lat="44.33387" lon="2.52922">
        <ele>580.4</ele>
        <time>2011-05-11T18:18:23Z</time>
      </trkpt>
      <trkpt lat="44.33385" lon="2.52924">
        <ele>580.5</ele>
        <time>2011-05-11T18:18:25Z</time>
      </trkpt>
      <trkpt lat="44.33382" lon="2.52927">
        <ele>580.9</ele>
        <time>2011-05-11T18:18:27Z</time>
      </trkpt>
      <trkpt lat="44.33381" lon="2.52928">
        <ele>581</ele>
        <time>2011-05-11T18:18:28Z</time>
      </trkpt>
      <trkpt lat="44.33376" lon="2.52931">
        <ele>581.5</ele>
        <time>2011-05-11T18:18:31Z</time>
      </trkpt>
      <trkpt lat="44.33374" lon="2.52933">
        <ele>581.9</ele>
        <time>2011-05-11T18:18:33Z</time>
      </trkpt>
      <trkpt lat="44.33371" lon="2.52936">
        <ele>581.9</ele>
        <time>2011-05-11T18:18:35Z</time>
      </trkpt>
      <trkpt lat="44.33368" lon="2.52938">
        <ele>582</ele>
        <time>2011-05-11T18:18:37Z</time>
      </trkpt>
      <trkpt lat="44.33365" lon="2.5294">
        <ele>582</ele>
        <time>2011-05-11T18:18:39Z</time>
      </trkpt>
      <trkpt lat="44.33362" lon="2.52943">
        <ele>582.2</ele>
        <time>2011-05-11T18:18:41Z</time>
      </trkpt>
      <trkpt lat="44.3336" lon="2.52945">
        <ele>582.4</ele>
        <time>2011-05-11T18:18:43Z</time>
      </trkpt>
      <trkpt lat="44.33357" lon="2.52948">
        <ele>582.5</ele>
        <time>2011-05-11T18:18:45Z</time>
      </trkpt>
      <trkpt lat="44.33355" lon="2.5295">
        <ele>582.7</ele>
        <time>2011-05-11T18:18:47Z</time>
      </trkpt>
      <trkpt lat="44.33352" lon="2.52952">
        <ele>583.2</ele>
        <time>2011-05-11T18:18:49Z</time>
      </trkpt>
      <trkpt lat="44.33349" lon="2.52955">
        <ele>583.5</ele>
        <time>2011-05-11T18:18:51Z</time>
      </trkpt>
      <trkpt lat="44.33347" lon="2.52958">
        <ele>583.7</ele>
        <time>2011-05-11T18:18:53Z</time>
      </trkpt>
      <trkpt lat="44.33344" lon="2.52961">
        <ele>583.7</ele>
        <time>2011-05-11T18:18:55Z</time>
      </trkpt>
      <trkpt lat="44.33342" lon="2.52963">
        <ele>584</ele>
        <time>2011-05-11T18:18:57Z</time>
      </trkpt>
      <trkpt lat="44.33339" lon="2.52966">
        <ele>584.4</ele>
        <time>2011-05-11T18:18:59Z</time>
      </trkpt>
      <trkpt lat="44.33336" lon="2.52969">
        <ele>584.7</ele>
        <time>2011-05-11T18:19:01Z</time>
      </trkpt>
      <trkpt lat="44.33334" lon="2.52971">
        <ele>585.2</ele>
        <time>2011-05-11T18:19:03Z</time>
      </trkpt>
      <trkpt lat="44.33331" lon="2.52973">
        <ele>585.5</ele>
        <time>2011-05-11T18:19:05Z</time>
      </trkpt>
      <trkpt lat="44.33328" lon="2.52976">
        <ele>585.5</ele>
        <time>2011-05-11T18:19:07Z</time>
      </trkpt>
      <trkpt lat="44.33325" lon="2.52978">
        <ele>585.2</ele>
        <time>2011-05-11T18:19:09Z</time>
      </trkpt>
      <trkpt lat="44.33323" lon="2.52981">
        <ele>585.2</ele>
        <time>2011-05-11T18:19:11Z</time>
      </trkpt>
      <trkpt lat="44.3332" lon="2.52983">
        <ele>585.5</ele>
        <time>2011-05-11T18:19:13Z</time>
      </trkpt>
      <trkpt lat="44.33316" lon="2.52985">
        <ele>585.5</ele>
        <time>2011-05-11T18:19:16Z</time>
      </trkpt>
      <trkpt lat="44.33313" lon="2.52988">
        <ele>585.4</ele>
        <time>2011-05-11T18:19:19Z</time>
      </trkpt>
      <trkpt lat="44.3331" lon="2.52991">
        <ele>585.5</ele>
        <time>2011-05-11T18:19:21Z</time>
      </trkpt>
      <trkpt lat="44.33306" lon="2.52994">
        <ele>585.7</ele>
        <time>2011-05-11T18:19:24Z</time>
      </trkpt>
      <trkpt lat="44.33303" lon="2.52996">
        <ele>586.2</ele>
        <time>2011-05-11T18:19:26Z</time>
      </trkpt>
      <trkpt lat="44.333" lon="2.52998">
        <ele>586.2</ele>
        <time>2011-05-11T18:19:28Z</time>
      </trkpt>
      <trkpt lat="44.33299" lon="2.53">
        <ele>586.4</ele>
        <time>2011-05-11T18:19:29Z</time>
      </trkpt>
      <trkpt lat="44.33294" lon="2.53002">
        <ele>586.2</ele>
        <time>2011-05-11T18:19:32Z</time>
      </trkpt>
      <trkpt lat="44.33291" lon="2.53005">
        <ele>586.2</ele>
        <time>2011-05-11T18:19:34Z</time>
      </trkpt>
      <trkpt lat="44.33288" lon="2.53007">
        <ele>586.5</ele>
        <time>2011-05-11T18:19:36Z</time>
      </trkpt>
      <trkpt lat="44.33284" lon="2.5301">
        <ele>586.7</ele>
        <time>2011-05-11T18:19:38Z</time>
      </trkpt>
      <trkpt lat="44.33282" lon="2.53013">
        <ele>586.5</ele>
        <time>2011-05-11T18:19:40Z</time>
      </trkpt>
      <trkpt lat="44.33279" lon="2.53016">
        <ele>586.7</ele>
        <time>2011-05-11T18:19:42Z</time>
      </trkpt>
      <trkpt lat="44.33276" lon="2.53019">
        <ele>586.7</ele>
        <time>2011-05-11T18:19:44Z</time>
      </trkpt>
      <trkpt lat="44.33274" lon="2.53023">
        <ele>586.7</ele>
        <time>2011-05-11T18:19:46Z</time>
      </trkpt>
      <trkpt lat="44.33271" lon="2.53026">
        <ele>586.9</ele>
        <time>2011-05-11T18:19:48Z</time>
      </trkpt>
      <trkpt lat="44.33268" lon="2.53029">
        <ele>587.2</ele>
        <time>2011-05-11T18:19:50Z</time>
      </trkpt>
      <trkpt lat="44.33266" lon="2.53033">
        <ele>587.7</ele>
        <time>2011-05-11T18:19:52Z</time>
      </trkpt>
      <trkpt lat="44.33263" lon="2.53036">
        <ele>588.2</ele>
        <time>2011-05-11T18:19:54Z</time>
      </trkpt>
      <trkpt lat="44.3326" lon="2.5304">
        <ele>588.2</ele>
        <time>2011-05-11T18:19:56Z</time>
      </trkpt>
      <trkpt lat="44.33258" lon="2.53044">
        <ele>588.5</ele>
        <time>2011-05-11T18:19:58Z</time>
      </trkpt>
      <trkpt lat="44.33255" lon="2.53048">
        <ele>588.7</ele>
        <time>2011-05-11T18:20:00Z</time>
      </trkpt>
      <trkpt lat="44.33253" lon="2.53051">
        <ele>589</ele>
        <time>2011-05-11T18:20:02Z</time>
      </trkpt>
      <trkpt lat="44.3325" lon="2.53055">
        <ele>589.2</ele>
        <time>2011-05-11T18:20:04Z</time>
      </trkpt>
      <trkpt lat="44.33248" lon="2.53059">
        <ele>589.7</ele>
        <time>2011-05-11T18:20:06Z</time>
      </trkpt>
      <trkpt lat="44.33245" lon="2.53063">
        <ele>590</ele>
        <time>2011-05-11T18:20:08Z</time>
      </trkpt>
      <trkpt lat="44.33243" lon="2.53067">
        <ele>590.5</ele>
        <time>2011-05-11T18:20:10Z</time>
      </trkpt>
      <trkpt lat="44.33241" lon="2.53071">
        <ele>590.9</ele>
        <time>2011-05-11T18:20:12Z</time>
      </trkpt>
      <trkpt lat="44.33239" lon="2.53075">
        <ele>591.4</ele>
        <time>2011-05-11T18:20:14Z</time>
      </trkpt>
      <trkpt lat="44.33237" lon="2.53079">
        <ele>592</ele>
        <time>2011-05-11T18:20:16Z</time>
      </trkpt>
      <trkpt lat="44.33235" lon="2.53083">
        <ele>593</ele>
        <time>2011-05-11T18:20:18Z</time>
      </trkpt>
      <trkpt lat="44.33233" lon="2.53088">
        <ele>594</ele>
        <time>2011-05-11T18:20:20Z</time>
      </trkpt>
      <trkpt lat="44.33231" lon="2.53092">
        <ele>594.7</ele>
        <time>2011-05-11T18:20:22Z</time>
      </trkpt>
      <trkpt lat="44.33229" lon="2.53096">
        <ele>595.4</ele>
        <time>2011-05-11T18:20:24Z</time>
      </trkpt>
      <trkpt lat="44.33227" lon="2.53101">
        <ele>595.9</ele>
        <time>2011-05-11T18:20:26Z</time>
      </trkpt>
      <trkpt lat="44.33225" lon="2.53105">
        <ele>596.2</ele>
        <time>2011-05-11T18:20:28Z</time>
      </trkpt>
      <trkpt lat="44.33223" lon="2.53109">
        <ele>596.7</ele>
        <time>2011-05-11T18:20:30Z</time>
      </trkpt>
      <trkpt lat="44.33222" lon="2.53111">
        <ele>597</ele>
        <time>2011-05-11T18:20:31Z</time>
      </trkpt>
      <trkpt lat="44.33219" lon="2.53117">
        <ele>597.7</ele>
        <time>2011-05-11T18:20:34Z</time>
      </trkpt>
      <trkpt lat="44.33216" lon="2.53122">
        <ele>598.2</ele>
        <time>2011-05-11T18:20:36Z</time>
      </trkpt>
      <trkpt lat="44.33214" lon="2.53126">
        <ele>599</ele>
        <time>2011-05-11T18:20:38Z</time>
      </trkpt>
      <trkpt lat="44.33212" lon="2.5313">
        <ele>599.5</ele>
        <time>2011-05-11T18:20:40Z</time>
      </trkpt>
      <trkpt lat="44.3321" lon="2.53134">
        <ele>599.7</ele>
        <time>2011-05-11T18:20:42Z</time>
      </trkpt>
      <trkpt lat="44.33208" lon="2.53138">
        <ele>599.5</ele>
        <time>2011-05-11T18:20:44Z</time>
      </trkpt>
      <trkpt lat="44.33205" lon="2.53142">
        <ele>599.5</ele>
        <time>2011-05-11T18:20:46Z</time>
      </trkpt>
      <trkpt lat="44.33203" lon="2.53147">
        <ele>599.5</ele>
        <time>2011-05-11T18:20:48Z</time>
      </trkpt>
      <trkpt lat="44.33201" lon="2.53151">
        <ele>600</ele>
        <time>2011-05-11T18:20:50Z</time>
      </trkpt>
      <trkpt lat="44.33199" lon="2.53156">
        <ele>600.7</ele>
        <time>2011-05-11T18:20:52Z</time>
      </trkpt>
      <trkpt lat="44.33196" lon="2.53161">
        <ele>601.2</ele>
        <time>2011-05-11T18:20:54Z</time>
      </trkpt>
      <trkpt lat="44.33195" lon="2.53166">
        <ele>601.5</ele>
        <time>2011-05-11T18:20:56Z</time>
      </trkpt>
      <trkpt lat="44.33193" lon="2.53171">
        <ele>601.9</ele>
        <time>2011-05-11T18:20:58Z</time>
      </trkpt>
      <trkpt lat="44.33191" lon="2.53175">
        <ele>602.4</ele>
        <time>2011-05-11T18:21:00Z</time>
      </trkpt>
      <trkpt lat="44.3319" lon="2.5318">
        <ele>602.9</ele>
        <time>2011-05-11T18:21:02Z</time>
      </trkpt>
      <trkpt lat="44.33188" lon="2.53185">
        <ele>603.2</ele>
        <time>2011-05-11T18:21:04Z</time>
      </trkpt>
      <trkpt lat="44.33187" lon="2.53189">
        <ele>603.7</ele>
        <time>2011-05-11T18:21:06Z</time>
      </trkpt>
      <trkpt lat="44.33186" lon="2.53193">
        <ele>604.2</ele>
        <time>2011-05-11T18:21:08Z</time>
      </trkpt>
      <trkpt lat="44.33184" lon="2.53199">
        <ele>604.7</ele>
        <time>2011-05-11T18:21:10Z</time>
      </trkpt>
      <trkpt lat="44.33183" lon="2.53203">
        <ele>605.2</ele>
        <time>2011-05-11T18:21:12Z</time>
      </trkpt>
      <trkpt lat="44.33182" lon="2.53209">
        <ele>605.7</ele>
        <time>2011-05-11T18:21:14Z</time>
      </trkpt>
      <trkpt lat="44.33181" lon="2.53214">
        <ele>606.2</ele>
        <time>2011-05-11T18:21:16Z</time>
      </trkpt>
      <trkpt lat="44.3318" lon="2.53219">
        <ele>606.7</ele>
        <time>2011-05-11T18:21:18Z</time>
      </trkpt>
      <trkpt lat="44.33179" lon="2.53224">
        <ele>607</ele>
        <time>2011-05-11T18:21:20Z</time>
      </trkpt>
      <trkpt lat="44.33178" lon="2.53229">
        <ele>607</ele>
        <time>2011-05-11T18:21:22Z</time>
      </trkpt>
      <trkpt lat="44.33177" lon="2.53234">
        <ele>607.4</ele>
        <time>2011-05-11T18:21:24Z</time>
      </trkpt>
      <trkpt lat="44.33176" lon="2.53239">
        <ele>607.7</ele>
        <time>2011-05-11T18:21:26Z</time>
      </trkpt>
      <trkpt lat="44.33175" lon="2.53243">
        <ele>608</ele>
        <time>2011-05-11T18:21:28Z</time>
      </trkpt>
      <trkpt lat="44.33174" lon="2.53248">
        <ele>608.5</ele>
        <time>2011-05-11T18:21:30Z</time>
      </trkpt>
      <trkpt lat="44.33174" lon="2.53253">
        <ele>608.9</ele>
        <time>2011-05-11T18:21:32Z</time>
      </trkpt>
      <trkpt lat="44.33173" lon="2.53255">
        <ele>609</ele>
        <time>2011-05-11T18:21:33Z</time>
      </trkpt>
      <trkpt lat="44.33172" lon="2.53262">
        <ele>610</ele>
        <time>2011-05-11T18:21:36Z</time>
      </trkpt>
      <trkpt lat="44.33171" lon="2.53267">
        <ele>610.7</ele>
        <time>2011-05-11T18:21:38Z</time>
      </trkpt>
      <trkpt lat="44.33169" lon="2.53271">
        <ele>611.7</ele>
        <time>2011-05-11T18:21:40Z</time>
      </trkpt>
      <trkpt lat="44.33169" lon="2.53276">
        <ele>612.5</ele>
        <time>2011-05-11T18:21:42Z</time>
      </trkpt>
      <trkpt lat="44.33168" lon="2.5328">
        <ele>613.5</ele>
        <time>2011-05-11T18:21:44Z</time>
      </trkpt>
      <trkpt lat="44.33168" lon="2.53284">
        <ele>614.5</ele>
        <time>2011-05-11T18:21:46Z</time>
      </trkpt>
      <trkpt lat="44.33167" lon="2.53289">
        <ele>615.7</ele>
        <time>2011-05-11T18:21:48Z</time>
      </trkpt>
      <trkpt lat="44.33166" lon="2.53293">
        <ele>616.9</ele>
        <time>2011-05-11T18:21:50Z</time>
      </trkpt>
      <trkpt lat="44.33166" lon="2.53298">
        <ele>618</ele>
        <time>2011-05-11T18:21:52Z</time>
      </trkpt>
      <trkpt lat="44.33165" lon="2.53302">
        <ele>619.2</ele>
        <time>2011-05-11T18:21:54Z</time>
      </trkpt>
      <trkpt lat="44.33164" lon="2.53307">
        <ele>620.2</ele>
        <time>2011-05-11T18:21:56Z</time>
      </trkpt>
      <trkpt lat="44.33163" lon="2.53311">
        <ele>621</ele>
        <time>2011-05-11T18:21:58Z</time>
      </trkpt>
      <trkpt lat="44.33162" lon="2.53316">
        <ele>622.2</ele>
        <time>2011-05-11T18:22:00Z</time>
      </trkpt>
      <trkpt lat="44.33161" lon="2.53321">
        <ele>623</ele>
        <time>2011-05-11T18:22:02Z</time>
      </trkpt>
      <trkpt lat="44.3316" lon="2.53326">
        <ele>623.7</ele>
        <time>2011-05-11T18:22:04Z</time>
      </trkpt>
      <trkpt lat="44.33159" lon="2.53331">
        <ele>624</ele>
        <time>2011-05-11T18:22:06Z</time>
      </trkpt>
      <trkpt lat="44.33159" lon="2.53336">
        <ele>624.4</ele>
        <time>2011-05-11T18:22:08Z</time>
      </trkpt>
      <trkpt lat="44.33158" lon="2.53341">
        <ele>624.4</ele>
        <time>2011-05-11T18:22:10Z</time>
      </trkpt>
      <trkpt lat="44.33157" lon="2.53345">
        <ele>624.2</ele>
        <time>2011-05-11T18:22:12Z</time>
      </trkpt>
      <trkpt lat="44.33157" lon="2.5335">
        <ele>624.5</ele>
        <time>2011-05-11T18:22:14Z</time>
      </trkpt>
      <trkpt lat="44.33158" lon="2.53355">
        <ele>624.5</ele>
        <time>2011-05-11T18:22:16Z</time>
      </trkpt>
      <trkpt lat="44.33158" lon="2.5336">
        <ele>624.7</ele>
        <time>2011-05-11T18:22:18Z</time>
      </trkpt>
      <trkpt lat="44.33158" lon="2.53365">
        <ele>625</ele>
        <time>2011-05-11T18:22:20Z</time>
      </trkpt>
      <trkpt lat="44.33159" lon="2.5337">
        <ele>625</ele>
        <time>2011-05-11T18:22:22Z</time>
      </trkpt>
      <trkpt lat="44.33159" lon="2.53375">
        <ele>625.4</ele>
        <time>2011-05-11T18:22:24Z</time>
      </trkpt>
      <trkpt lat="44.3316" lon="2.5338">
        <ele>625.9</ele>
        <time>2011-05-11T18:22:26Z</time>
      </trkpt>
      <trkpt lat="44.33161" lon="2.53385">
        <ele>626.4</ele>
        <time>2011-05-11T18:22:28Z</time>
      </trkpt>
      <trkpt lat="44.33161" lon="2.5339">
        <ele>626.9</ele>
        <time>2011-05-11T18:22:30Z</time>
      </trkpt>
      <trkpt lat="44.33162" lon="2.53396">
        <ele>627.4</ele>
        <time>2011-05-11T18:22:32Z</time>
      </trkpt>
      <trkpt lat="44.33163" lon="2.534">
        <ele>627.9</ele>
        <time>2011-05-11T18:22:34Z</time>
      </trkpt>
      <trkpt lat="44.33163" lon="2.53402">
        <ele>628.2</ele>
        <time>2011-05-11T18:22:35Z</time>
      </trkpt>
      <trkpt lat="44.33164" lon="2.53409">
        <ele>628.7</ele>
        <time>2011-05-11T18:22:38Z</time>
      </trkpt>
      <trkpt lat="44.33165" lon="2.53413">
        <ele>629.2</ele>
        <time>2011-05-11T18:22:40Z</time>
      </trkpt>
      <trkpt lat="44.33166" lon="2.53418">
        <ele>629.5</ele>
        <time>2011-05-11T18:22:42Z</time>
      </trkpt>
      <trkpt lat="44.33167" lon="2.53424">
        <ele>630</ele>
        <time>2011-05-11T18:22:44Z</time>
      </trkpt>
      <trkpt lat="44.33168" lon="2.53429">
        <ele>630.5</ele>
        <time>2011-05-11T18:22:46Z</time>
      </trkpt>
      <trkpt lat="44.3317" lon="2.53434">
        <ele>631</ele>
        <time>2011-05-11T18:22:48Z</time>
      </trkpt>
      <trkpt lat="44.33172" lon="2.53439">
        <ele>631.2</ele>
        <time>2011-05-11T18:22:50Z</time>
      </trkpt>
      <trkpt lat="44.33174" lon="2.53444">
        <ele>631.5</ele>
        <time>2011-05-11T18:22:52Z</time>
      </trkpt>
      <trkpt lat="44.33177" lon="2.53449">
        <ele>632</ele>
        <time>2011-05-11T18:22:54Z</time>
      </trkpt>
      <trkpt lat="44.33178" lon="2.53451">
        <ele>632.4</ele>
        <time>2011-05-11T18:22:55Z</time>
      </trkpt>
      <trkpt lat="44.33181" lon="2.53456">
        <ele>632.9</ele>
        <time>2011-05-11T18:22:57Z</time>
      </trkpt>
      <trkpt lat="44.33183" lon="2.53459">
        <ele>633.2</ele>
        <time>2011-05-11T18:22:59Z</time>
      </trkpt>
      <trkpt lat="44.33186" lon="2.53462">
        <ele>633.5</ele>
        <time>2011-05-11T18:23:01Z</time>
      </trkpt>
      <trkpt lat="44.33188" lon="2.53466">
        <ele>633.7</ele>
        <time>2011-05-11T18:23:03Z</time>
      </trkpt>
      <trkpt lat="44.33191" lon="2.53469">
        <ele>633.7</ele>
        <time>2011-05-11T18:23:05Z</time>
      </trkpt>
      <trkpt lat="44.33193" lon="2.53471">
        <ele>633.9</ele>
        <time>2011-05-11T18:23:07Z</time>
      </trkpt>
      <trkpt lat="44.33196" lon="2.53475">
        <ele>634</ele>
        <time>2011-05-11T18:23:09Z</time>
      </trkpt>
      <trkpt lat="44.33199" lon="2.53479">
        <ele>634</ele>
        <time>2011-05-11T18:23:11Z</time>
      </trkpt>
      <trkpt lat="44.33201" lon="2.53482">
        <ele>634</ele>
        <time>2011-05-11T18:23:13Z</time>
      </trkpt>
      <trkpt lat="44.33204" lon="2.53486">
        <ele>634</ele>
        <time>2011-05-11T18:23:15Z</time>
      </trkpt>
      <trkpt lat="44.33206" lon="2.5349">
        <ele>633.9</ele>
        <time>2011-05-11T18:23:16Z</time>
      </trkpt>
      <trkpt lat="44.33208" lon="2.53493">
        <ele>633.7</ele>
        <time>2011-05-11T18:23:17Z</time>
      </trkpt>
      <trkpt lat="44.33211" lon="2.53495">
        <ele>633.7</ele>
        <time>2011-05-11T18:23:18Z</time>
      </trkpt>
      <trkpt lat="44.33213" lon="2.53499">
        <ele>633.5</ele>
        <time>2011-05-11T18:23:19Z</time>
      </trkpt>
      <trkpt lat="44.33215" lon="2.53502">
        <ele>633.5</ele>
        <time>2011-05-11T18:23:20Z</time>
      </trkpt>
      <trkpt lat="44.33217" lon="2.53505">
        <ele>633.5</ele>
        <time>2011-05-11T18:23:21Z</time>
      </trkpt>
      <trkpt lat="44.3322" lon="2.53508">
        <ele>633.4</ele>
        <time>2011-05-11T18:23:22Z</time>
      </trkpt>
      <trkpt lat="44.33222" lon="2.53512">
        <ele>633.2</ele>
        <time>2011-05-11T18:23:23Z</time>
      </trkpt>
      <trkpt lat="44.33224" lon="2.53515">
        <ele>633.2</ele>
        <time>2011-05-11T18:23:24Z</time>
      </trkpt>
      <trkpt lat="44.33226" lon="2.53519">
        <ele>633.2</ele>
        <time>2011-05-11T18:23:25Z</time>
      </trkpt>
      <trkpt lat="44.33228" lon="2.53522">
        <ele>633.2</ele>
        <time>2011-05-11T18:23:26Z</time>
      </trkpt>
      <trkpt lat="44.33231" lon="2.53525">
        <ele>633</ele>
        <time>2011-05-11T18:23:27Z</time>
      </trkpt>
      <trkpt lat="44.33234" lon="2.53528">
        <ele>633</ele>
        <time>2011-05-11T18:23:28Z</time>
      </trkpt>
      <trkpt lat="44.33236" lon="2.53533">
        <ele>632.7</ele>
        <time>2011-05-11T18:23:29Z</time>
      </trkpt>
      <trkpt lat="44.33238" lon="2.53537">
        <ele>632.7</ele>
        <time>2011-05-11T18:23:30Z</time>
      </trkpt>
      <trkpt lat="44.3324" lon="2.53541">
        <ele>632.5</ele>
        <time>2011-05-11T18:23:31Z</time>
      </trkpt>
      <trkpt lat="44.33243" lon="2.53545">
        <ele>632.4</ele>
        <time>2011-05-11T18:23:32Z</time>
      </trkpt>
      <trkpt lat="44.33245" lon="2.5355">
        <ele>632.2</ele>
        <time>2011-05-11T18:23:33Z</time>
      </trkpt>
      <trkpt lat="44.33248" lon="2.53554">
        <ele>632</ele>
        <time>2011-05-11T18:23:34Z</time>
      </trkpt>
      <trkpt lat="44.33251" lon="2.53559">
        <ele>631.7</ele>
        <time>2011-05-11T18:23:35Z</time>
      </trkpt>
      <trkpt lat="44.33254" lon="2.53565">
        <ele>631.5</ele>
        <time>2011-05-11T18:23:36Z</time>
      </trkpt>
      <trkpt lat="44.33257" lon="2.5357">
        <ele>631.2</ele>
        <time>2011-05-11T18:23:37Z</time>
      </trkpt>
      <trkpt lat="44.33259" lon="2.53576">
        <ele>630.9</ele>
        <time>2011-05-11T18:23:38Z</time>
      </trkpt>
      <trkpt lat="44.33262" lon="2.53582">
        <ele>630.5</ele>
        <time>2011-05-11T18:23:39Z</time>
      </trkpt>
      <trkpt lat="44.33266" lon="2.53588">
        <ele>630.2</ele>
        <time>2011-05-11T18:23:40Z</time>
      </trkpt>
      <trkpt lat="44.33268" lon="2.53595">
        <ele>630</ele>
        <time>2011-05-11T18:23:41Z</time>
      </trkpt>
      <trkpt lat="44.33271" lon="2.53601">
        <ele>629.7</ele>
        <time>2011-05-11T18:23:42Z</time>
      </trkpt>
      <trkpt lat="44.33274" lon="2.53608">
        <ele>629.5</ele>
        <time>2011-05-11T18:23:43Z</time>
      </trkpt>
      <trkpt lat="44.33277" lon="2.53615">
        <ele>629.4</ele>
        <time>2011-05-11T18:23:44Z</time>
      </trkpt>
      <trkpt lat="44.33279" lon="2.53622">
        <ele>629.2</ele>
        <time>2011-05-11T18:23:45Z</time>
      </trkpt>
      <trkpt lat="44.33282" lon="2.53628">
        <ele>629</ele>
        <time>2011-05-11T18:23:46Z</time>
      </trkpt>
      <trkpt lat="44.33285" lon="2.53635">
        <ele>629</ele>
        <time>2011-05-11T18:23:47Z</time>
      </trkpt>
      <trkpt lat="44.33287" lon="2.53642">
        <ele>628.9</ele>
        <time>2011-05-11T18:23:48Z</time>
      </trkpt>
      <trkpt lat="44.33289" lon="2.53649">
        <ele>628.7</ele>
        <time>2011-05-11T18:23:49Z</time>
      </trkpt>
      <trkpt lat="44.33292" lon="2.53655">
        <ele>628.5</ele>
        <time>2011-05-11T18:23:50Z</time>
      </trkpt>
      <trkpt lat="44.33295" lon="2.53662">
        <ele>628.4</ele>
        <time>2011-05-11T18:23:51Z</time>
      </trkpt>
      <trkpt lat="44.33298" lon="2.53669">
        <ele>628</ele>
        <time>2011-05-11T18:23:52Z</time>
      </trkpt>
      <trkpt lat="44.33301" lon="2.53676">
        <ele>627.9</ele>
        <time>2011-05-11T18:23:53Z</time>
      </trkpt>
      <trkpt lat="44.33305" lon="2.53683">
        <ele>627.5</ele>
        <time>2011-05-11T18:23:54Z</time>
      </trkpt>
      <trkpt lat="44.33308" lon="2.5369">
        <ele>627.2</ele>
        <time>2011-05-11T18:23:55Z</time>
      </trkpt>
      <trkpt lat="44.33312" lon="2.53697">
        <ele>627</ele>
        <time>2011-05-11T18:23:56Z</time>
      </trkpt>
      <trkpt lat="44.33315" lon="2.53705">
        <ele>626.7</ele>
        <time>2011-05-11T18:23:57Z</time>
      </trkpt>
      <trkpt lat="44.33318" lon="2.53712">
        <ele>626.5</ele>
        <time>2011-05-11T18:23:58Z</time>
      </trkpt>
      <trkpt lat="44.33321" lon="2.5372">
        <ele>626.2</ele>
        <time>2011-05-11T18:23:59Z</time>
      </trkpt>
      <trkpt lat="44.33323" lon="2.53728">
        <ele>626</ele>
        <time>2011-05-11T18:24:00Z</time>
      </trkpt>
      <trkpt lat="44.33325" lon="2.53737">
        <ele>626</ele>
        <time>2011-05-11T18:24:01Z</time>
      </trkpt>
      <trkpt lat="44.33326" lon="2.53745">
        <ele>625.7</ele>
        <time>2011-05-11T18:24:02Z</time>
      </trkpt>
      <trkpt lat="44.33327" lon="2.53753">
        <ele>625.7</ele>
        <time>2011-05-11T18:24:03Z</time>
      </trkpt>
      <trkpt lat="44.33329" lon="2.53761">
        <ele>625.5</ele>
        <time>2011-05-11T18:24:04Z</time>
      </trkpt>
      <trkpt lat="44.33332" lon="2.53768">
        <ele>625.2</ele>
        <time>2011-05-11T18:24:05Z</time>
      </trkpt>
      <trkpt lat="44.33334" lon="2.53775">
        <ele>625</ele>
        <time>2011-05-11T18:24:06Z</time>
      </trkpt>
      <trkpt lat="44.33337" lon="2.53782">
        <ele>624.7</ele>
        <time>2011-05-11T18:24:07Z</time>
      </trkpt>
      <trkpt lat="44.3334" lon="2.53789">
        <ele>624.5</ele>
        <time>2011-05-11T18:24:08Z</time>
      </trkpt>
      <trkpt lat="44.33343" lon="2.53796">
        <ele>624.4</ele>
        <time>2011-05-11T18:24:09Z</time>
      </trkpt>
      <trkpt lat="44.33346" lon="2.53803">
        <ele>624.2</ele>
        <time>2011-05-11T18:24:10Z</time>
      </trkpt>
      <trkpt lat="44.33349" lon="2.5381">
        <ele>624</ele>
        <time>2011-05-11T18:24:11Z</time>
      </trkpt>
      <trkpt lat="44.33352" lon="2.53817">
        <ele>623.7</ele>
        <time>2011-05-11T18:24:12Z</time>
      </trkpt>
      <trkpt lat="44.33355" lon="2.53825">
        <ele>623.5</ele>
        <time>2011-05-11T18:24:13Z</time>
      </trkpt>
      <trkpt lat="44.33358" lon="2.53832">
        <ele>623.4</ele>
        <time>2011-05-11T18:24:14Z</time>
      </trkpt>
      <trkpt lat="44.33361" lon="2.53839">
        <ele>623.2</ele>
        <time>2011-05-11T18:24:15Z</time>
      </trkpt>
      <trkpt lat="44.33364" lon="2.53845">
        <ele>623</ele>
        <time>2011-05-11T18:24:16Z</time>
      </trkpt>
      <trkpt lat="44.33367" lon="2.53852">
        <ele>622.9</ele>
        <time>2011-05-11T18:24:17Z</time>
      </trkpt>
      <trkpt lat="44.3337" lon="2.53859">
        <ele>622.7</ele>
        <time>2011-05-11T18:24:18Z</time>
      </trkpt>
      <trkpt lat="44.33373" lon="2.53867">
        <ele>622.5</ele>
        <time>2011-05-11T18:24:19Z</time>
      </trkpt>
      <trkpt lat="44.33376" lon="2.53874">
        <ele>622.5</ele>
        <time>2011-05-11T18:24:20Z</time>
      </trkpt>
      <trkpt lat="44.33378" lon="2.53881">
        <ele>622.4</ele>
        <time>2011-05-11T18:24:21Z</time>
      </trkpt>
      <trkpt lat="44.33381" lon="2.53887">
        <ele>622.2</ele>
        <time>2011-05-11T18:24:22Z</time>
      </trkpt>
      <trkpt lat="44.33383" lon="2.53894">
        <ele>622.2</ele>
        <time>2011-05-11T18:24:23Z</time>
      </trkpt>
      <trkpt lat="44.33385" lon="2.53901">
        <ele>622.2</ele>
        <time>2011-05-11T18:24:24Z</time>
      </trkpt>
      <trkpt lat="44.33387" lon="2.53907">
        <ele>622</ele>
        <time>2011-05-11T18:24:25Z</time>
      </trkpt>
      <trkpt lat="44.33389" lon="2.53913">
        <ele>622</ele>
        <time>2011-05-11T18:24:26Z</time>
      </trkpt>
      <trkpt lat="44.33391" lon="2.53919">
        <ele>621.7</ele>
        <time>2011-05-11T18:24:27Z</time>
      </trkpt>
      <trkpt lat="44.33394" lon="2.53924">
        <ele>621.5</ele>
        <time>2011-05-11T18:24:28Z</time>
      </trkpt>
      <trkpt lat="44.33396" lon="2.5393">
        <ele>621.2</ele>
        <time>2011-05-11T18:24:29Z</time>
      </trkpt>
      <trkpt lat="44.33398" lon="2.53936">
        <ele>621</ele>
        <time>2011-05-11T18:24:30Z</time>
      </trkpt>
      <trkpt lat="44.334" lon="2.53942">
        <ele>620.7</ele>
        <time>2011-05-11T18:24:31Z</time>
      </trkpt>
      <trkpt lat="44.33402" lon="2.53949">
        <ele>620.5</ele>
        <time>2011-05-11T18:24:32Z</time>
      </trkpt>
      <trkpt lat="44.33403" lon="2.53956">
        <ele>620</ele>
        <time>2011-05-11T18:24:33Z</time>
      </trkpt>
      <trkpt lat="44.33404" lon="2.53963">
        <ele>619.7</ele>
        <time>2011-05-11T18:24:34Z</time>
      </trkpt>
      <trkpt lat="44.33405" lon="2.5397">
        <ele>619.2</ele>
        <time>2011-05-11T18:24:35Z</time>
      </trkpt>
      <trkpt lat="44.33406" lon="2.53978">
        <ele>618.7</ele>
        <time>2011-05-11T18:24:36Z</time>
      </trkpt>
      <trkpt lat="44.33408" lon="2.53985">
        <ele>618.2</ele>
        <time>2011-05-11T18:24:37Z</time>
      </trkpt>
      <trkpt lat="44.3341" lon="2.53992">
        <ele>617.9</ele>
        <time>2011-05-11T18:24:38Z</time>
      </trkpt>
      <trkpt lat="44.33412" lon="2.54">
        <ele>617.5</ele>
        <time>2011-05-11T18:24:39Z</time>
      </trkpt>
      <trkpt lat="44.33413" lon="2.54008">
        <ele>616.7</ele>
        <time>2011-05-11T18:24:40Z</time>
      </trkpt>
      <trkpt lat="44.33414" lon="2.54017">
        <ele>616.4</ele>
        <time>2011-05-11T18:24:41Z</time>
      </trkpt>
      <trkpt lat="44.33414" lon="2.54026">
        <ele>615.9</ele>
        <time>2011-05-11T18:24:42Z</time>
      </trkpt>
      <trkpt lat="44.33414" lon="2.54036">
        <ele>615.5</ele>
        <time>2011-05-11T18:24:43Z</time>
      </trkpt>
      <trkpt lat="44.33413" lon="2.54045">
        <ele>615.2</ele>
        <time>2011-05-11T18:24:44Z</time>
      </trkpt>
      <trkpt lat="44.33412" lon="2.54053">
        <ele>614.9</ele>
        <time>2011-05-11T18:24:45Z</time>
      </trkpt>
      <trkpt lat="44.3341" lon="2.54059">
        <ele>614.7</ele>
        <time>2011-05-11T18:24:46Z</time>
      </trkpt>
      <trkpt lat="44.33409" lon="2.54063">
        <ele>614.2</ele>
        <time>2011-05-11T18:24:47Z</time>
      </trkpt>
      <trkpt lat="44.33408" lon="2.54066">
        <ele>614</ele>
        <time>2011-05-11T18:24:48Z</time>
      </trkpt>
      <trkpt lat="44.33407" lon="2.5407">
        <ele>613.5</ele>
        <time>2011-05-11T18:24:49Z</time>
      </trkpt>
      <trkpt lat="44.33406" lon="2.54073">
        <ele>613</ele>
        <time>2011-05-11T18:24:50Z</time>
      </trkpt>
      <trkpt lat="44.33404" lon="2.54077">
        <ele>612.5</ele>
        <time>2011-05-11T18:24:51Z</time>
      </trkpt>
      <trkpt lat="44.33403" lon="2.5408">
        <ele>612.2</ele>
        <time>2011-05-11T18:24:52Z</time>
      </trkpt>
      <trkpt lat="44.33403" lon="2.54086">
        <ele>611.4</ele>
        <time>2011-05-11T18:24:54Z</time>
      </trkpt>
      <trkpt lat="44.33402" lon="2.54089">
        <ele>611</ele>
        <time>2011-05-11T18:24:55Z</time>
      </trkpt>
      <trkpt lat="44.33402" lon="2.54093">
        <ele>610.7</ele>
        <time>2011-05-11T18:24:56Z</time>
      </trkpt>
      <trkpt lat="44.33402" lon="2.54097">
        <ele>610</ele>
        <time>2011-05-11T18:24:57Z</time>
      </trkpt>
      <trkpt lat="44.33402" lon="2.54101">
        <ele>609.5</ele>
        <time>2011-05-11T18:24:58Z</time>
      </trkpt>
      <trkpt lat="44.33402" lon="2.54106">
        <ele>608.9</ele>
        <time>2011-05-11T18:24:59Z</time>
      </trkpt>
      <trkpt lat="44.33401" lon="2.54112">
        <ele>608.4</ele>
        <time>2011-05-11T18:25:00Z</time>
      </trkpt>
      <trkpt lat="44.33401" lon="2.54118">
        <ele>608.2</ele>
        <time>2011-05-11T18:25:01Z</time>
      </trkpt>
      <trkpt lat="44.334" lon="2.54125">
        <ele>607.9</ele>
        <time>2011-05-11T18:25:02Z</time>
      </trkpt>
      <trkpt lat="44.334" lon="2.54132">
        <ele>607.5</ele>
        <time>2011-05-11T18:25:03Z</time>
      </trkpt>
      <trkpt lat="44.334" lon="2.54139">
        <ele>607.4</ele>
        <time>2011-05-11T18:25:04Z</time>
      </trkpt>
      <trkpt lat="44.334" lon="2.54146">
        <ele>607</ele>
        <time>2011-05-11T18:25:05Z</time>
      </trkpt>
      <trkpt lat="44.334" lon="2.54153">
        <ele>607.2</ele>
        <time>2011-05-11T18:25:06Z</time>
      </trkpt>
      <trkpt lat="44.334" lon="2.5416">
        <ele>607.2</ele>
        <time>2011-05-11T18:25:07Z</time>
      </trkpt>
      <trkpt lat="44.33399" lon="2.54167">
        <ele>607.2</ele>
        <time>2011-05-11T18:25:08Z</time>
      </trkpt>
      <trkpt lat="44.33399" lon="2.54174">
        <ele>607</ele>
        <time>2011-05-11T18:25:09Z</time>
      </trkpt>
      <trkpt lat="44.33399" lon="2.5418">
        <ele>607</ele>
        <time>2011-05-11T18:25:10Z</time>
      </trkpt>
      <trkpt lat="44.33398" lon="2.54187">
        <ele>607</ele>
        <time>2011-05-11T18:25:11Z</time>
      </trkpt>
      <trkpt lat="44.33397" lon="2.54194">
        <ele>607.2</ele>
        <time>2011-05-11T18:25:12Z</time>
      </trkpt>
      <trkpt lat="44.33396" lon="2.542">
        <ele>607.2</ele>
        <time>2011-05-11T18:25:13Z</time>
      </trkpt>
      <trkpt lat="44.33395" lon="2.54207">
        <ele>607.4</ele>
        <time>2011-05-11T18:25:14Z</time>
      </trkpt>
      <trkpt lat="44.33393" lon="2.54214">
        <ele>607.7</ele>
        <time>2011-05-11T18:25:15Z</time>
      </trkpt>
      <trkpt lat="44.33392" lon="2.5422">
        <ele>608</ele>
        <time>2011-05-11T18:25:16Z</time>
      </trkpt>
      <trkpt lat="44.33391" lon="2.54227">
        <ele>608</ele>
        <time>2011-05-11T18:25:17Z</time>
      </trkpt>
      <trkpt lat="44.33391" lon="2.54234">
        <ele>607.7</ele>
        <time>2011-05-11T18:25:18Z</time>
      </trkpt>
      <trkpt lat="44.3339" lon="2.54241">
        <ele>607.7</ele>
        <time>2011-05-11T18:25:19Z</time>
      </trkpt>
      <trkpt lat="44.3339" lon="2.54247">
        <ele>607.7</ele>
        <time>2011-05-11T18:25:20Z</time>
      </trkpt>
      <trkpt lat="44.3339" lon="2.54254">
        <ele>607.7</ele>
        <time>2011-05-11T18:25:21Z</time>
      </trkpt>
      <trkpt lat="44.3339" lon="2.5426">
        <ele>607.7</ele>
        <time>2011-05-11T18:25:22Z</time>
      </trkpt>
      <trkpt lat="44.33391" lon="2.54266">
        <ele>607.4</ele>
        <time>2011-05-11T18:25:23Z</time>
      </trkpt>
      <trkpt lat="44.33391" lon="2.54273">
        <ele>607.2</ele>
        <time>2011-05-11T18:25:24Z</time>
      </trkpt>
      <trkpt lat="44.3339" lon="2.54279">
        <ele>607.4</ele>
        <time>2011-05-11T18:25:25Z</time>
      </trkpt>
      <trkpt lat="44.3339" lon="2.54286">
        <ele>607.5</ele>
        <time>2011-05-11T18:25:26Z</time>
      </trkpt>
      <trkpt lat="44.33389" lon="2.54292">
        <ele>607.7</ele>
        <time>2011-05-11T18:25:27Z</time>
      </trkpt>
      <trkpt lat="44.33389" lon="2.54298">
        <ele>607.7</ele>
        <time>2011-05-11T18:25:28Z</time>
      </trkpt>
      <trkpt lat="44.33388" lon="2.54305">
        <ele>607.7</ele>
        <time>2011-05-11T18:25:29Z</time>
      </trkpt>
      <trkpt lat="44.33387" lon="2.54311">
        <ele>607.7</ele>
        <time>2011-05-11T18:25:30Z</time>
      </trkpt>
      <trkpt lat="44.33387" lon="2.54317">
        <ele>607.4</ele>
        <time>2011-05-11T18:25:31Z</time>
      </trkpt>
      <trkpt lat="44.33387" lon="2.54324">
        <ele>607</ele>
        <time>2011-05-11T18:25:32Z</time>
      </trkpt>
      <trkpt lat="44.33386" lon="2.54329">
        <ele>606.9</ele>
        <time>2011-05-11T18:25:33Z</time>
      </trkpt>
      <trkpt lat="44.33387" lon="2.54336">
        <ele>606.9</ele>
        <time>2011-05-11T18:25:34Z</time>
      </trkpt>
      <trkpt lat="44.33388" lon="2.54342">
        <ele>606.7</ele>
        <time>2011-05-11T18:25:35Z</time>
      </trkpt>
      <trkpt lat="44.33389" lon="2.54347">
        <ele>606.7</ele>
        <time>2011-05-11T18:25:36Z</time>
      </trkpt>
      <trkpt lat="44.3339" lon="2.54353">
        <ele>606.5</ele>
        <time>2011-05-11T18:25:37Z</time>
      </trkpt>
      <trkpt lat="44.33392" lon="2.54359">
        <ele>606.2</ele>
        <time>2011-05-11T18:25:38Z</time>
      </trkpt>
      <trkpt lat="44.33393" lon="2.54364">
        <ele>606.4</ele>
        <time>2011-05-11T18:25:39Z</time>
      </trkpt>
      <trkpt lat="44.33395" lon="2.54369">
        <ele>606.5</ele>
        <time>2011-05-11T18:25:40Z</time>
      </trkpt>
      <trkpt lat="44.33398" lon="2.54374">
        <ele>606.7</ele>
        <time>2011-05-11T18:25:41Z</time>
      </trkpt>
      <trkpt lat="44.334" lon="2.54379">
        <ele>607</ele>
        <time>2011-05-11T18:25:42Z</time>
      </trkpt>
      <trkpt lat="44.33403" lon="2.54384">
        <ele>607.2</ele>
        <time>2011-05-11T18:25:43Z</time>
      </trkpt>
      <trkpt lat="44.33405" lon="2.54389">
        <ele>607.7</ele>
        <time>2011-05-11T18:25:44Z</time>
      </trkpt>
      <trkpt lat="44.33408" lon="2.54394">
        <ele>608</ele>
        <time>2011-05-11T18:25:45Z</time>
      </trkpt>
      <trkpt lat="44.3341" lon="2.544">
        <ele>608.5</ele>
        <time>2011-05-11T18:25:46Z</time>
      </trkpt>
      <trkpt lat="44.33412" lon="2.54405">
        <ele>608.9</ele>
        <time>2011-05-11T18:25:47Z</time>
      </trkpt>
      <trkpt lat="44.33415" lon="2.5441">
        <ele>609.5</ele>
        <time>2011-05-11T18:25:48Z</time>
      </trkpt>
      <trkpt lat="44.33417" lon="2.54415">
        <ele>610</ele>
        <time>2011-05-11T18:25:49Z</time>
      </trkpt>
      <trkpt lat="44.3342" lon="2.5442">
        <ele>610.5</ele>
        <time>2011-05-11T18:25:50Z</time>
      </trkpt>
      <trkpt lat="44.33422" lon="2.54425">
        <ele>611</ele>
        <time>2011-05-11T18:25:51Z</time>
      </trkpt>
      <trkpt lat="44.33424" lon="2.5443">
        <ele>611.5</ele>
        <time>2011-05-11T18:25:52Z</time>
      </trkpt>
      <trkpt lat="44.33427" lon="2.54435">
        <ele>611.9</ele>
        <time>2011-05-11T18:25:53Z</time>
      </trkpt>
      <trkpt lat="44.33429" lon="2.5444">
        <ele>612.2</ele>
        <time>2011-05-11T18:25:54Z</time>
      </trkpt>
      <trkpt lat="44.33431" lon="2.54445">
        <ele>612.4</ele>
        <time>2011-05-11T18:25:55Z</time>
      </trkpt>
      <trkpt lat="44.33432" lon="2.54451">
        <ele>612.5</ele>
        <time>2011-05-11T18:25:56Z</time>
      </trkpt>
      <trkpt lat="44.33434" lon="2.54456">
        <ele>612.7</ele>
        <time>2011-05-11T18:25:57Z</time>
      </trkpt>
      <trkpt lat="44.33435" lon="2.54461">
        <ele>613</ele>
        <time>2011-05-11T18:25:58Z</time>
      </trkpt>
      <trkpt lat="44.33436" lon="2.54466">
        <ele>613.4</ele>
        <time>2011-05-11T18:25:59Z</time>
      </trkpt>
      <trkpt lat="44.33437" lon="2.54471">
        <ele>613.9</ele>
        <time>2011-05-11T18:26:00Z</time>
      </trkpt>
      <trkpt lat="44.33439" lon="2.54476">
        <ele>614.2</ele>
        <time>2011-05-11T18:26:01Z</time>
      </trkpt>
      <trkpt lat="44.3344" lon="2.5448">
        <ele>614.7</ele>
        <time>2011-05-11T18:26:02Z</time>
      </trkpt>
      <trkpt lat="44.3344" lon="2.54484">
        <ele>615</ele>
        <time>2011-05-11T18:26:03Z</time>
      </trkpt>
      <trkpt lat="44.33441" lon="2.54487">
        <ele>615.5</ele>
        <time>2011-05-11T18:26:04Z</time>
      </trkpt>
      <trkpt lat="44.33442" lon="2.54491">
        <ele>615.7</ele>
        <time>2011-05-11T18:26:05Z</time>
      </trkpt>
      <trkpt lat="44.33443" lon="2.54495">
        <ele>616</ele>
        <time>2011-05-11T18:26:06Z</time>
      </trkpt>
      <trkpt lat="44.33445" lon="2.54499">
        <ele>616</ele>
        <time>2011-05-11T18:26:07Z</time>
      </trkpt>
      <trkpt lat="44.33446" lon="2.54503">
        <ele>616.2</ele>
        <time>2011-05-11T18:26:08Z</time>
      </trkpt>
      <trkpt lat="44.33447" lon="2.54507">
        <ele>616.2</ele>
        <time>2011-05-11T18:26:09Z</time>
      </trkpt>
      <trkpt lat="44.33448" lon="2.54511">
        <ele>616.2</ele>
        <time>2011-05-11T18:26:10Z</time>
      </trkpt>
      <trkpt lat="44.33449" lon="2.54514">
        <ele>616</ele>
        <time>2011-05-11T18:26:11Z</time>
      </trkpt>
      <trkpt lat="44.3345" lon="2.54518">
        <ele>616</ele>
        <time>2011-05-11T18:26:12Z</time>
      </trkpt>
      <trkpt lat="44.33451" lon="2.54522">
        <ele>616</ele>
        <time>2011-05-11T18:26:13Z</time>
      </trkpt>
      <trkpt lat="44.33452" lon="2.54525">
        <ele>615.9</ele>
        <time>2011-05-11T18:26:14Z</time>
      </trkpt>
      <trkpt lat="44.33452" lon="2.54529">
        <ele>615.7</ele>
        <time>2011-05-11T18:26:15Z</time>
      </trkpt>
      <trkpt lat="44.33453" lon="2.54532">
        <ele>615.5</ele>
        <time>2011-05-11T18:26:16Z</time>
      </trkpt>
      <trkpt lat="44.33453" lon="2.54536">
        <ele>615.2</ele>
        <time>2011-05-11T18:26:17Z</time>
      </trkpt>
      <trkpt lat="44.33453" lon="2.54539">
        <ele>615.2</ele>
        <time>2011-05-11T18:26:18Z</time>
      </trkpt>
      <trkpt lat="44.33454" lon="2.54543">
        <ele>615.2</ele>
        <time>2011-05-11T18:26:19Z</time>
      </trkpt>
      <trkpt lat="44.33453" lon="2.54547">
        <ele>615</ele>
        <time>2011-05-11T18:26:20Z</time>
      </trkpt>
      <trkpt lat="44.33453" lon="2.54551">
        <ele>614.9</ele>
        <time>2011-05-11T18:26:21Z</time>
      </trkpt>
      <trkpt lat="44.33453" lon="2.54555">
        <ele>615</ele>
        <time>2011-05-11T18:26:22Z</time>
      </trkpt>
      <trkpt lat="44.33453" lon="2.54559">
        <ele>615.2</ele>
        <time>2011-05-11T18:26:23Z</time>
      </trkpt>
      <trkpt lat="44.33453" lon="2.54563">
        <ele>615.4</ele>
        <time>2011-05-11T18:26:24Z</time>
      </trkpt>
      <trkpt lat="44.33453" lon="2.54568">
        <ele>615.5</ele>
        <time>2011-05-11T18:26:25Z</time>
      </trkpt>
      <trkpt lat="44.33452" lon="2.54572">
        <ele>615.7</ele>
        <time>2011-05-11T18:26:26Z</time>
      </trkpt>
      <trkpt lat="44.33452" lon="2.54577">
        <ele>615.9</ele>
        <time>2011-05-11T18:26:27Z</time>
      </trkpt>
      <trkpt lat="44.33452" lon="2.54581">
        <ele>616</ele>
        <time>2011-05-11T18:26:28Z</time>
      </trkpt>
      <trkpt lat="44.33452" lon="2.54586">
        <ele>616</ele>
        <time>2011-05-11T18:26:29Z</time>
      </trkpt>
      <trkpt lat="44.33451" lon="2.5459">
        <ele>616</ele>
        <time>2011-05-11T18:26:30Z</time>
      </trkpt>
      <trkpt lat="44.33451" lon="2.54595">
        <ele>616</ele>
        <time>2011-05-11T18:26:31Z</time>
      </trkpt>
      <trkpt lat="44.3345" lon="2.546">
        <ele>616.2</ele>
        <time>2011-05-11T18:26:32Z</time>
      </trkpt>
      <trkpt lat="44.3345" lon="2.54605">
        <ele>616.2</ele>
        <time>2011-05-11T18:26:33Z</time>
      </trkpt>
      <trkpt lat="44.33449" lon="2.5461">
        <ele>616.2</ele>
        <time>2011-05-11T18:26:34Z</time>
      </trkpt>
      <trkpt lat="44.33448" lon="2.54615">
        <ele>616.4</ele>
        <time>2011-05-11T18:26:35Z</time>
      </trkpt>
      <trkpt lat="44.33447" lon="2.5462">
        <ele>616.5</ele>
        <time>2011-05-11T18:26:36Z</time>
      </trkpt>
      <trkpt lat="44.33447" lon="2.54625">
        <ele>616.9</ele>
        <time>2011-05-11T18:26:37Z</time>
      </trkpt>
      <trkpt lat="44.33446" lon="2.5463">
        <ele>617</ele>
        <time>2011-05-11T18:26:38Z</time>
      </trkpt>
      <trkpt lat="44.33445" lon="2.54635">
        <ele>617.2</ele>
        <time>2011-05-11T18:26:39Z</time>
      </trkpt>
      <trkpt lat="44.33445" lon="2.5464">
        <ele>617.4</ele>
        <time>2011-05-11T18:26:40Z</time>
      </trkpt>
      <trkpt lat="44.33444" lon="2.54645">
        <ele>617.5</ele>
        <time>2011-05-11T18:26:41Z</time>
      </trkpt>
      <trkpt lat="44.33443" lon="2.5465">
        <ele>617.5</ele>
        <time>2011-05-11T18:26:42Z</time>
      </trkpt>
      <trkpt lat="44.33443" lon="2.54655">
        <ele>617.5</ele>
        <time>2011-05-11T18:26:43Z</time>
      </trkpt>
      <trkpt lat="44.33443" lon="2.54659">
        <ele>617.5</ele>
        <time>2011-05-11T18:26:44Z</time>
      </trkpt>
      <trkpt lat="44.33443" lon="2.54664">
        <ele>617.5</ele>
        <time>2011-05-11T18:26:45Z</time>
      </trkpt>
      <trkpt lat="44.33443" lon="2.54669">
        <ele>617.5</ele>
        <time>2011-05-11T18:26:46Z</time>
      </trkpt>
      <trkpt lat="44.33443" lon="2.54674">
        <ele>617.7</ele>
        <time>2011-05-11T18:26:47Z</time>
      </trkpt>
      <trkpt lat="44.33444" lon="2.54679">
        <ele>617.7</ele>
        <time>2011-05-11T18:26:48Z</time>
      </trkpt>
      <trkpt lat="44.33444" lon="2.54684">
        <ele>617.9</ele>
        <time>2011-05-11T18:26:49Z</time>
      </trkpt>
      <trkpt lat="44.33445" lon="2.54688">
        <ele>618.2</ele>
        <time>2011-05-11T18:26:50Z</time>
      </trkpt>
      <trkpt lat="44.33446" lon="2.54692">
        <ele>618.9</ele>
        <time>2011-05-11T18:26:51Z</time>
      </trkpt>
      <trkpt lat="44.33447" lon="2.54696">
        <ele>619.2</ele>
        <time>2011-05-11T18:26:52Z</time>
      </trkpt>
      <trkpt lat="44.33448" lon="2.54701">
        <ele>619.7</ele>
        <time>2011-05-11T18:26:53Z</time>
      </trkpt>
      <trkpt lat="44.33449" lon="2.54706">
        <ele>619.9</ele>
        <time>2011-05-11T18:26:54Z</time>
      </trkpt>
      <trkpt lat="44.33451" lon="2.54713">
        <ele>619.7</ele>
        <time>2011-05-11T18:26:55Z</time>
      </trkpt>
      <trkpt lat="44.33454" lon="2.5472">
        <ele>619.2</ele>
        <time>2011-05-11T18:26:56Z</time>
      </trkpt>
      <trkpt lat="44.33456" lon="2.54728">
        <ele>618.5</ele>
        <time>2011-05-11T18:26:57Z</time>
      </trkpt>
      <trkpt lat="44.33459" lon="2.54737">
        <ele>618</ele>
        <time>2011-05-11T18:26:58Z</time>
      </trkpt>
      <trkpt lat="44.33462" lon="2.54746">
        <ele>617.7</ele>
        <time>2011-05-11T18:26:59Z</time>
      </trkpt>
      <trkpt lat="44.33465" lon="2.54755">
        <ele>617.7</ele>
        <time>2011-05-11T18:27:00Z</time>
      </trkpt>
      <trkpt lat="44.33468" lon="2.54764">
        <ele>617.7</ele>
        <time>2011-05-11T18:27:01Z</time>
      </trkpt>
      <trkpt lat="44.33472" lon="2.54772">
        <ele>617.7</ele>
        <time>2011-05-11T18:27:02Z</time>
      </trkpt>
      <trkpt lat="44.33475" lon="2.54781">
        <ele>617.5</ele>
        <time>2011-05-11T18:27:03Z</time>
      </trkpt>
      <trkpt lat="44.33478" lon="2.5479">
        <ele>617.5</ele>
        <time>2011-05-11T18:27:04Z</time>
      </trkpt>
      <trkpt lat="44.33481" lon="2.54798">
        <ele>617.2</ele>
        <time>2011-05-11T18:27:05Z</time>
      </trkpt>
      <trkpt lat="44.33483" lon="2.54807">
        <ele>617</ele>
        <time>2011-05-11T18:27:06Z</time>
      </trkpt>
      <trkpt lat="44.33486" lon="2.54814">
        <ele>617</ele>
        <time>2011-05-11T18:27:07Z</time>
      </trkpt>
      <trkpt lat="44.33488" lon="2.54821">
        <ele>616.7</ele>
        <time>2011-05-11T18:27:08Z</time>
      </trkpt>
      <trkpt lat="44.3349" lon="2.54828">
        <ele>616.4</ele>
        <time>2011-05-11T18:27:09Z</time>
      </trkpt>
      <trkpt lat="44.33493" lon="2.54835">
        <ele>616.2</ele>
        <time>2011-05-11T18:27:10Z</time>
      </trkpt>
      <trkpt lat="44.33495" lon="2.54843">
        <ele>615.9</ele>
        <time>2011-05-11T18:27:11Z</time>
      </trkpt>
      <trkpt lat="44.33498" lon="2.54849">
        <ele>615.2</ele>
        <time>2011-05-11T18:27:12Z</time>
      </trkpt>
      <trkpt lat="44.335" lon="2.54856">
        <ele>614.5</ele>
        <time>2011-05-11T18:27:13Z</time>
      </trkpt>
      <trkpt lat="44.33503" lon="2.54862">
        <ele>613.7</ele>
        <time>2011-05-11T18:27:14Z</time>
      </trkpt>
      <trkpt lat="44.33506" lon="2.54867">
        <ele>613.2</ele>
        <time>2011-05-11T18:27:15Z</time>
      </trkpt>
      <trkpt lat="44.33508" lon="2.54872">
        <ele>613</ele>
        <time>2011-05-11T18:27:16Z</time>
      </trkpt>
      <trkpt lat="44.33511" lon="2.54878">
        <ele>613.2</ele>
        <time>2011-05-11T18:27:17Z</time>
      </trkpt>
      <trkpt lat="44.33514" lon="2.54884">
        <ele>613.2</ele>
        <time>2011-05-11T18:27:18Z</time>
      </trkpt>
      <trkpt lat="44.33517" lon="2.54889">
        <ele>613.4</ele>
        <time>2011-05-11T18:27:19Z</time>
      </trkpt>
      <trkpt lat="44.3352" lon="2.54894">
        <ele>613.5</ele>
        <time>2011-05-11T18:27:20Z</time>
      </trkpt>
      <trkpt lat="44.33522" lon="2.549">
        <ele>613.5</ele>
        <time>2011-05-11T18:27:21Z</time>
      </trkpt>
      <trkpt lat="44.33525" lon="2.54905">
        <ele>613.7</ele>
        <time>2011-05-11T18:27:22Z</time>
      </trkpt>
      <trkpt lat="44.33528" lon="2.54911">
        <ele>614</ele>
        <time>2011-05-11T18:27:23Z</time>
      </trkpt>
      <trkpt lat="44.3353" lon="2.54916">
        <ele>614.2</ele>
        <time>2011-05-11T18:27:24Z</time>
      </trkpt>
      <trkpt lat="44.33532" lon="2.54921">
        <ele>614.5</ele>
        <time>2011-05-11T18:27:25Z</time>
      </trkpt>
      <trkpt lat="44.33534" lon="2.54925">
        <ele>615</ele>
        <time>2011-05-11T18:27:26Z</time>
      </trkpt>
      <trkpt lat="44.33536" lon="2.5493">
        <ele>615.2</ele>
        <time>2011-05-11T18:27:27Z</time>
      </trkpt>
      <trkpt lat="44.33538" lon="2.54935">
        <ele>615.5</ele>
        <time>2011-05-11T18:27:28Z</time>
      </trkpt>
      <trkpt lat="44.3354" lon="2.5494">
        <ele>616</ele>
        <time>2011-05-11T18:27:29Z</time>
      </trkpt>
      <trkpt lat="44.33542" lon="2.54945">
        <ele>616.2</ele>
        <time>2011-05-11T18:27:30Z</time>
      </trkpt>
      <trkpt lat="44.33544" lon="2.5495">
        <ele>616.2</ele>
        <time>2011-05-11T18:27:31Z</time>
      </trkpt>
      <trkpt lat="44.33547" lon="2.54955">
        <ele>616.4</ele>
        <time>2011-05-11T18:27:32Z</time>
      </trkpt>
      <trkpt lat="44.33549" lon="2.5496">
        <ele>616.5</ele>
        <time>2011-05-11T18:27:33Z</time>
      </trkpt>
      <trkpt lat="44.33551" lon="2.54965">
        <ele>616.5</ele>
        <time>2011-05-11T18:27:34Z</time>
      </trkpt>
      <trkpt lat="44.33554" lon="2.5497">
        <ele>616.7</ele>
        <time>2011-05-11T18:27:35Z</time>
      </trkpt>
      <trkpt lat="44.33556" lon="2.54975">
        <ele>616.9</ele>
        <time>2011-05-11T18:27:36Z</time>
      </trkpt>
      <trkpt lat="44.33558" lon="2.54979">
        <ele>617</ele>
        <time>2011-05-11T18:27:37Z</time>
      </trkpt>
      <trkpt lat="44.33561" lon="2.54983">
        <ele>617</ele>
        <time>2011-05-11T18:27:38Z</time>
      </trkpt>
      <trkpt lat="44.33564" lon="2.54987">
        <ele>617.2</ele>
        <time>2011-05-11T18:27:39Z</time>
      </trkpt>
      <trkpt lat="44.33567" lon="2.54991">
        <ele>617.2</ele>
        <time>2011-05-11T18:27:40Z</time>
      </trkpt>
      <trkpt lat="44.3357" lon="2.54994">
        <ele>617.5</ele>
        <time>2011-05-11T18:27:41Z</time>
      </trkpt>
      <trkpt lat="44.33573" lon="2.54997">
        <ele>617.5</ele>
        <time>2011-05-11T18:27:42Z</time>
      </trkpt>
      <trkpt lat="44.33576" lon="2.55">
        <ele>617.5</ele>
        <time>2011-05-11T18:27:43Z</time>
      </trkpt>
      <trkpt lat="44.33578" lon="2.55003">
        <ele>617.5</ele>
        <time>2011-05-11T18:27:44Z</time>
      </trkpt>
      <trkpt lat="44.33581" lon="2.55007">
        <ele>617.5</ele>
        <time>2011-05-11T18:27:45Z</time>
      </trkpt>
      <trkpt lat="44.33584" lon="2.5501">
        <ele>617.5</ele>
        <time>2011-05-11T18:27:46Z</time>
      </trkpt>
      <trkpt lat="44.33587" lon="2.55014">
        <ele>617.7</ele>
        <time>2011-05-11T18:27:47Z</time>
      </trkpt>
      <trkpt lat="44.33589" lon="2.55017">
        <ele>617.5</ele>
        <time>2011-05-11T18:27:48Z</time>
      </trkpt>
      <trkpt lat="44.33591" lon="2.5502">
        <ele>617.7</ele>
        <time>2011-05-11T18:27:49Z</time>
      </trkpt>
      <trkpt lat="44.33593" lon="2.55023">
        <ele>617.5</ele>
        <time>2011-05-11T18:27:50Z</time>
      </trkpt>
      <trkpt lat="44.33595" lon="2.55027">
        <ele>617.4</ele>
        <time>2011-05-11T18:27:51Z</time>
      </trkpt>
      <trkpt lat="44.33596" lon="2.5503">
        <ele>617.2</ele>
        <time>2011-05-11T18:27:52Z</time>
      </trkpt>
      <trkpt lat="44.33598" lon="2.55033">
        <ele>617</ele>
        <time>2011-05-11T18:27:53Z</time>
      </trkpt>
      <trkpt lat="44.336" lon="2.55036">
        <ele>616.9</ele>
        <time>2011-05-11T18:27:54Z</time>
      </trkpt>
      <trkpt lat="44.33602" lon="2.55039">
        <ele>616.9</ele>
        <time>2011-05-11T18:27:55Z</time>
      </trkpt>
      <trkpt lat="44.33604" lon="2.55042">
        <ele>616.9</ele>
        <time>2011-05-11T18:27:56Z</time>
      </trkpt>
      <trkpt lat="44.33606" lon="2.55045">
        <ele>616.7</ele>
        <time>2011-05-11T18:27:57Z</time>
      </trkpt>
      <trkpt lat="44.33607" lon="2.55048">
        <ele>616.7</ele>
        <time>2011-05-11T18:27:58Z</time>
      </trkpt>
      <trkpt lat="44.33609" lon="2.55052">
        <ele>616.5</ele>
        <time>2011-05-11T18:27:59Z</time>
      </trkpt>
      <trkpt lat="44.33611" lon="2.55055">
        <ele>616.5</ele>
        <time>2011-05-11T18:28:00Z</time>
      </trkpt>
      <trkpt lat="44.33613" lon="2.55058">
        <ele>616.5</ele>
        <time>2011-05-11T18:28:01Z</time>
      </trkpt>
      <trkpt lat="44.33614" lon="2.55062">
        <ele>616.5</ele>
        <time>2011-05-11T18:28:02Z</time>
      </trkpt>
      <trkpt lat="44.33616" lon="2.55066">
        <ele>616.7</ele>
        <time>2011-05-11T18:28:03Z</time>
      </trkpt>
      <trkpt lat="44.33617" lon="2.5507">
        <ele>616.7</ele>
        <time>2011-05-11T18:28:04Z</time>
      </trkpt>
      <trkpt lat="44.33619" lon="2.55073">
        <ele>616.7</ele>
        <time>2011-05-11T18:28:05Z</time>
      </trkpt>
      <trkpt lat="44.3362" lon="2.55077">
        <ele>616.7</ele>
        <time>2011-05-11T18:28:06Z</time>
      </trkpt>
      <trkpt lat="44.33622" lon="2.55081">
        <ele>616.7</ele>
        <time>2011-05-11T18:28:07Z</time>
      </trkpt>
      <trkpt lat="44.33624" lon="2.55086">
        <ele>616.5</ele>
        <time>2011-05-11T18:28:08Z</time>
      </trkpt>
      <trkpt lat="44.33626" lon="2.55091">
        <ele>616.5</ele>
        <time>2011-05-11T18:28:09Z</time>
      </trkpt>
      <trkpt lat="44.33628" lon="2.55096">
        <ele>616.2</ele>
        <time>2011-05-11T18:28:10Z</time>
      </trkpt>
      <trkpt lat="44.33631" lon="2.55101">
        <ele>616</ele>
        <time>2011-05-11T18:28:11Z</time>
      </trkpt>
      <trkpt lat="44.33633" lon="2.55106">
        <ele>615.7</ele>
        <time>2011-05-11T18:28:12Z</time>
      </trkpt>
      <trkpt lat="44.33636" lon="2.55112">
        <ele>615</ele>
        <time>2011-05-11T18:28:13Z</time>
      </trkpt>
      <trkpt lat="44.33638" lon="2.55118">
        <ele>614.9</ele>
        <time>2011-05-11T18:28:14Z</time>
      </trkpt>
      <trkpt lat="44.3364" lon="2.55124">
        <ele>614.5</ele>
        <time>2011-05-11T18:28:15Z</time>
      </trkpt>
      <trkpt lat="44.33643" lon="2.5513">
        <ele>613.7</ele>
        <time>2011-05-11T18:28:16Z</time>
      </trkpt>
      <trkpt lat="44.33645" lon="2.55136">
        <ele>612.5</ele>
        <time>2011-05-11T18:28:17Z</time>
      </trkpt>
      <trkpt lat="44.33648" lon="2.55143">
        <ele>611.4</ele>
        <time>2011-05-11T18:28:18Z</time>
      </trkpt>
      <trkpt lat="44.3365" lon="2.5515">
        <ele>610.5</ele>
        <time>2011-05-11T18:28:19Z</time>
      </trkpt>
      <trkpt lat="44.33654" lon="2.55155">
        <ele>610.4</ele>
        <time>2011-05-11T18:28:20Z</time>
      </trkpt>
      <trkpt lat="44.33658" lon="2.5516">
        <ele>609.7</ele>
        <time>2011-05-11T18:28:21Z</time>
      </trkpt>
      <trkpt lat="44.33661" lon="2.55165">
        <ele>609.2</ele>
        <time>2011-05-11T18:28:22Z</time>
      </trkpt>
      <trkpt lat="44.33661" lon="2.5517">
        <ele>608.7</ele>
        <time>2011-05-11T18:28:23Z</time>
      </trkpt>
      <trkpt lat="44.33662" lon="2.55177">
        <ele>607.9</ele>
        <time>2011-05-11T18:28:24Z</time>
      </trkpt>
      <trkpt lat="44.33664" lon="2.55182">
        <ele>607</ele>
        <time>2011-05-11T18:28:25Z</time>
      </trkpt>
      <trkpt lat="44.33667" lon="2.55187">
        <ele>606.7</ele>
        <time>2011-05-11T18:28:26Z</time>
      </trkpt>
      <trkpt lat="44.3367" lon="2.5519">
        <ele>606.5</ele>
        <time>2011-05-11T18:28:27Z</time>
      </trkpt>
      <trkpt lat="44.33672" lon="2.55194">
        <ele>606.2</ele>
        <time>2011-05-11T18:28:28Z</time>
      </trkpt>
      <trkpt lat="44.33674" lon="2.55198">
        <ele>606.2</ele>
        <time>2011-05-11T18:28:29Z</time>
      </trkpt>
      <trkpt lat="44.33676" lon="2.55202">
        <ele>606</ele>
        <time>2011-05-11T18:28:30Z</time>
      </trkpt>
      <trkpt lat="44.33678" lon="2.55206">
        <ele>606</ele>
        <time>2011-05-11T18:28:31Z</time>
      </trkpt>
      <trkpt lat="44.3368" lon="2.55211">
        <ele>605.9</ele>
        <time>2011-05-11T18:28:32Z</time>
      </trkpt>
      <trkpt lat="44.33683" lon="2.55216">
        <ele>605.5</ele>
        <time>2011-05-11T18:28:33Z</time>
      </trkpt>
      <trkpt lat="44.33685" lon="2.5522">
        <ele>605.4</ele>
        <time>2011-05-11T18:28:34Z</time>
      </trkpt>
      <trkpt lat="44.33688" lon="2.55224">
        <ele>605.2</ele>
        <time>2011-05-11T18:28:35Z</time>
      </trkpt>
      <trkpt lat="44.3369" lon="2.55228">
        <ele>605</ele>
        <time>2011-05-11T18:28:36Z</time>
      </trkpt>
      <trkpt lat="44.33693" lon="2.55232">
        <ele>605</ele>
        <time>2011-05-11T18:28:37Z</time>
      </trkpt>
      <trkpt lat="44.33696" lon="2.55236">
        <ele>605</ele>
        <time>2011-05-11T18:28:38Z</time>
      </trkpt>
      <trkpt lat="44.33697" lon="2.5524">
        <ele>604.7</ele>
        <time>2011-05-11T18:28:39Z</time>
      </trkpt>
      <trkpt lat="44.33697" lon="2.55243">
        <ele>604.5</ele>
        <time>2011-05-11T18:28:40Z</time>
      </trkpt>
      <trkpt lat="44.33698" lon="2.55247">
        <ele>604</ele>
        <time>2011-05-11T18:28:41Z</time>
      </trkpt>
      <trkpt lat="44.33698" lon="2.55252">
        <ele>604</ele>
        <time>2011-05-11T18:28:42Z</time>
      </trkpt>
      <trkpt lat="44.33698" lon="2.55257">
        <ele>604</ele>
        <time>2011-05-11T18:28:43Z</time>
      </trkpt>
      <trkpt lat="44.337" lon="2.55261">
        <ele>604</ele>
        <time>2011-05-11T18:28:44Z</time>
      </trkpt>
      <trkpt lat="44.33703" lon="2.55264">
        <ele>604</ele>
        <time>2011-05-11T18:28:45Z</time>
      </trkpt>
      <trkpt lat="44.33706" lon="2.55266">
        <ele>604</ele>
        <time>2011-05-11T18:28:46Z</time>
      </trkpt>
      <trkpt lat="44.33709" lon="2.55268">
        <ele>603.9</ele>
        <time>2011-05-11T18:28:47Z</time>
      </trkpt>
      <trkpt lat="44.33712" lon="2.55272">
        <ele>603.7</ele>
        <time>2011-05-11T18:28:48Z</time>
      </trkpt>
      <trkpt lat="44.33715" lon="2.55276">
        <ele>603.5</ele>
        <time>2011-05-11T18:28:49Z</time>
      </trkpt>
      <trkpt lat="44.33717" lon="2.55279">
        <ele>603.4</ele>
        <time>2011-05-11T18:28:50Z</time>
      </trkpt>
      <trkpt lat="44.33719" lon="2.55283">
        <ele>603.2</ele>
        <time>2011-05-11T18:28:51Z</time>
      </trkpt>
      <trkpt lat="44.3372" lon="2.55287">
        <ele>603</ele>
        <time>2011-05-11T18:28:52Z</time>
      </trkpt>
      <trkpt lat="44.33721" lon="2.55292">
        <ele>603</ele>
        <time>2011-05-11T18:28:53Z</time>
      </trkpt>
      <trkpt lat="44.33721" lon="2.55298">
        <ele>602.9</ele>
        <time>2011-05-11T18:28:54Z</time>
      </trkpt>
      <trkpt lat="44.3372" lon="2.55304">
        <ele>602.9</ele>
        <time>2011-05-11T18:28:55Z</time>
      </trkpt>
      <trkpt lat="44.33718" lon="2.55309">
        <ele>602.7</ele>
        <time>2011-05-11T18:28:56Z</time>
      </trkpt>
      <trkpt lat="44.33716" lon="2.55315">
        <ele>602.5</ele>
        <time>2011-05-11T18:28:57Z</time>
      </trkpt>
      <trkpt lat="44.33714" lon="2.55321">
        <ele>602.2</ele>
        <time>2011-05-11T18:28:58Z</time>
      </trkpt>
      <trkpt lat="44.33712" lon="2.55327">
        <ele>602</ele>
        <time>2011-05-11T18:28:59Z</time>
      </trkpt>
      <trkpt lat="44.33711" lon="2.55333">
        <ele>601.7</ele>
        <time>2011-05-11T18:29:00Z</time>
      </trkpt>
      <trkpt lat="44.3371" lon="2.55338">
        <ele>601.4</ele>
        <time>2011-05-11T18:29:01Z</time>
      </trkpt>
      <trkpt lat="44.3371" lon="2.55343">
        <ele>601</ele>
        <time>2011-05-11T18:29:02Z</time>
      </trkpt>
      <trkpt lat="44.33711" lon="2.55347">
        <ele>600.7</ele>
        <time>2011-05-11T18:29:03Z</time>
      </trkpt>
      <trkpt lat="44.33712" lon="2.55353">
        <ele>600.4</ele>
        <time>2011-05-11T18:29:05Z</time>
      </trkpt>
      <trkpt lat="44.3371" lon="2.55357">
        <ele>599.9</ele>
        <time>2011-05-11T18:29:08Z</time>
      </trkpt>
      <trkpt lat="44.33713" lon="2.55354">
        <ele>600.2</ele>
        <time>2011-05-11T18:29:16Z</time>
      </trkpt>
      <trkpt lat="44.33716" lon="2.55352">
        <ele>600.2</ele>
        <time>2011-05-11T18:29:17Z</time>
      </trkpt>
      <trkpt lat="44.33718" lon="2.5535">
        <ele>600.2</ele>
        <time>2011-05-11T18:29:18Z</time>
      </trkpt>
      <trkpt lat="44.3372" lon="2.55347">
        <ele>600.2</ele>
        <time>2011-05-11T18:29:19Z</time>
      </trkpt>
      <trkpt lat="44.33723" lon="2.55345">
        <ele>600.2</ele>
        <time>2011-05-11T18:29:20Z</time>
      </trkpt>
      <trkpt lat="44.33726" lon="2.55344">
        <ele>600.2</ele>
        <time>2011-05-11T18:29:21Z</time>
      </trkpt>
      <trkpt lat="44.33729" lon="2.55344">
        <ele>600.2</ele>
        <time>2011-05-11T18:29:22Z</time>
      </trkpt>
      <trkpt lat="44.33732" lon="2.55346">
        <ele>600.2</ele>
        <time>2011-05-11T18:29:23Z</time>
      </trkpt>
      <trkpt lat="44.33735" lon="2.55347">
        <ele>600.5</ele>
        <time>2011-05-11T18:29:24Z</time>
      </trkpt>
      <trkpt lat="44.33739" lon="2.55349">
        <ele>600.7</ele>
        <time>2011-05-11T18:29:25Z</time>
      </trkpt>
      <trkpt lat="44.33742" lon="2.55351">
        <ele>600.9</ele>
        <time>2011-05-11T18:29:26Z</time>
      </trkpt>
      <trkpt lat="44.33746" lon="2.55353">
        <ele>601.2</ele>
        <time>2011-05-11T18:29:27Z</time>
      </trkpt>
      <trkpt lat="44.33749" lon="2.55355">
        <ele>601.5</ele>
        <time>2011-05-11T18:29:28Z</time>
      </trkpt>
      <trkpt lat="44.33752" lon="2.55357">
        <ele>601.7</ele>
        <time>2011-05-11T18:29:29Z</time>
      </trkpt>
      <trkpt lat="44.33756" lon="2.55359">
        <ele>602</ele>
        <time>2011-05-11T18:29:30Z</time>
      </trkpt>
      <trkpt lat="44.33759" lon="2.55362">
        <ele>602.2</ele>
        <time>2011-05-11T18:29:31Z</time>
      </trkpt>
      <trkpt lat="44.33763" lon="2.55365">
        <ele>602.4</ele>
        <time>2011-05-11T18:29:32Z</time>
      </trkpt>
      <trkpt lat="44.33767" lon="2.55367">
        <ele>602.5</ele>
        <time>2011-05-11T18:29:33Z</time>
      </trkpt>
      <trkpt lat="44.3377" lon="2.55371">
        <ele>602.7</ele>
        <time>2011-05-11T18:29:34Z</time>
      </trkpt>
      <trkpt lat="44.33773" lon="2.55374">
        <ele>602.9</ele>
        <time>2011-05-11T18:29:35Z</time>
      </trkpt>
      <trkpt lat="44.33775" lon="2.55379">
        <ele>603</ele>
        <time>2011-05-11T18:29:36Z</time>
      </trkpt>
      <trkpt lat="44.33777" lon="2.55383">
        <ele>603</ele>
        <time>2011-05-11T18:29:37Z</time>
      </trkpt>
      <trkpt lat="44.33779" lon="2.55388">
        <ele>603.2</ele>
        <time>2011-05-11T18:29:38Z</time>
      </trkpt>
      <trkpt lat="44.33781" lon="2.55393">
        <ele>603.2</ele>
        <time>2011-05-11T18:29:39Z</time>
      </trkpt>
      <trkpt lat="44.33783" lon="2.55397">
        <ele>603.2</ele>
        <time>2011-05-11T18:29:40Z</time>
      </trkpt>
      <trkpt lat="44.33786" lon="2.55401">
        <ele>603.2</ele>
        <time>2011-05-11T18:29:41Z</time>
      </trkpt>
      <trkpt lat="44.33789" lon="2.55404">
        <ele>603.5</ele>
        <time>2011-05-11T18:29:42Z</time>
      </trkpt>
      <trkpt lat="44.33792" lon="2.55406">
        <ele>603.7</ele>
        <time>2011-05-11T18:29:43Z</time>
      </trkpt>
      <trkpt lat="44.33796" lon="2.55409">
        <ele>603.9</ele>
        <time>2011-05-11T18:29:44Z</time>
      </trkpt>
      <trkpt lat="44.33799" lon="2.55415">
        <ele>603.7</ele>
        <time>2011-05-11T18:29:45Z</time>
      </trkpt>
      <trkpt lat="44.338" lon="2.55422">
        <ele>603.7</ele>
        <time>2011-05-11T18:29:46Z</time>
      </trkpt>
      <trkpt lat="44.33801" lon="2.55429">
        <ele>603.7</ele>
        <time>2011-05-11T18:29:47Z</time>
      </trkpt>
      <trkpt lat="44.33803" lon="2.55436">
        <ele>603.7</ele>
        <time>2011-05-11T18:29:48Z</time>
      </trkpt>
      <trkpt lat="44.33804" lon="2.55443">
        <ele>603.7</ele>
        <time>2011-05-11T18:29:49Z</time>
      </trkpt>
      <trkpt lat="44.33805" lon="2.55449">
        <ele>603.7</ele>
        <time>2011-05-11T18:29:50Z</time>
      </trkpt>
      <trkpt lat="44.33805" lon="2.55456">
        <ele>603.9</ele>
        <time>2011-05-11T18:29:51Z</time>
      </trkpt>
      <trkpt lat="44.33806" lon="2.55462">
        <ele>603.9</ele>
        <time>2011-05-11T18:29:52Z</time>
      </trkpt>
      <trkpt lat="44.33806" lon="2.55468">
        <ele>604</ele>
        <time>2011-05-11T18:29:53Z</time>
      </trkpt>
      <trkpt lat="44.33807" lon="2.55474">
        <ele>604</ele>
        <time>2011-05-11T18:29:54Z</time>
      </trkpt>
      <trkpt lat="44.33809" lon="2.5548">
        <ele>604</ele>
        <time>2011-05-11T18:29:55Z</time>
      </trkpt>
      <trkpt lat="44.33811" lon="2.55484">
        <ele>604.2</ele>
        <time>2011-05-11T18:29:56Z</time>
      </trkpt>
      <trkpt lat="44.33814" lon="2.55489">
        <ele>604.2</ele>
        <time>2011-05-11T18:29:57Z</time>
      </trkpt>
      <trkpt lat="44.33818" lon="2.55492">
        <ele>604.4</ele>
        <time>2011-05-11T18:29:58Z</time>
      </trkpt>
      <trkpt lat="44.33821" lon="2.55496">
        <ele>604.5</ele>
        <time>2011-05-11T18:29:59Z</time>
      </trkpt>
      <trkpt lat="44.33823" lon="2.555">
        <ele>604.5</ele>
        <time>2011-05-11T18:30:00Z</time>
      </trkpt>
      <trkpt lat="44.33826" lon="2.55504">
        <ele>604.7</ele>
        <time>2011-05-11T18:30:01Z</time>
      </trkpt>
      <trkpt lat="44.33828" lon="2.55508">
        <ele>604.7</ele>
        <time>2011-05-11T18:30:02Z</time>
      </trkpt>
      <trkpt lat="44.33829" lon="2.55513">
        <ele>604.7</ele>
        <time>2011-05-11T18:30:03Z</time>
      </trkpt>
      <trkpt lat="44.33831" lon="2.55518">
        <ele>604.5</ele>
        <time>2011-05-11T18:30:04Z</time>
      </trkpt>
      <trkpt lat="44.33833" lon="2.55523">
        <ele>604.7</ele>
        <time>2011-05-11T18:30:05Z</time>
      </trkpt>
      <trkpt lat="44.33834" lon="2.55528">
        <ele>604.7</ele>
        <time>2011-05-11T18:30:06Z</time>
      </trkpt>
      <trkpt lat="44.33836" lon="2.55532">
        <ele>604.7</ele>
        <time>2011-05-11T18:30:07Z</time>
      </trkpt>
      <trkpt lat="44.33838" lon="2.55537">
        <ele>604.9</ele>
        <time>2011-05-11T18:30:08Z</time>
      </trkpt>
      <trkpt lat="44.3384" lon="2.55542">
        <ele>605</ele>
        <time>2011-05-11T18:30:09Z</time>
      </trkpt>
      <trkpt lat="44.33841" lon="2.55547">
        <ele>605.2</ele>
        <time>2011-05-11T18:30:10Z</time>
      </trkpt>
      <trkpt lat="44.33842" lon="2.55551">
        <ele>605.4</ele>
        <time>2011-05-11T18:30:11Z</time>
      </trkpt>
      <trkpt lat="44.33844" lon="2.55556">
        <ele>605.5</ele>
        <time>2011-05-11T18:30:12Z</time>
      </trkpt>
      <trkpt lat="44.33845" lon="2.55561">
        <ele>605.7</ele>
        <time>2011-05-11T18:30:13Z</time>
      </trkpt>
      <trkpt lat="44.33847" lon="2.55565">
        <ele>606</ele>
        <time>2011-05-11T18:30:14Z</time>
      </trkpt>
      <trkpt lat="44.33849" lon="2.5557">
        <ele>606.2</ele>
        <time>2011-05-11T18:30:15Z</time>
      </trkpt>
      <trkpt lat="44.3385" lon="2.55574">
        <ele>606.4</ele>
        <time>2011-05-11T18:30:16Z</time>
      </trkpt>
      <trkpt lat="44.33852" lon="2.55579">
        <ele>606.5</ele>
        <time>2011-05-11T18:30:17Z</time>
      </trkpt>
      <trkpt lat="44.33853" lon="2.55584">
        <ele>606.7</ele>
        <time>2011-05-11T18:30:18Z</time>
      </trkpt>
      <trkpt lat="44.33855" lon="2.55589">
        <ele>607</ele>
        <time>2011-05-11T18:30:19Z</time>
      </trkpt>
      <trkpt lat="44.33856" lon="2.55594">
        <ele>607.2</ele>
        <time>2011-05-11T18:30:20Z</time>
      </trkpt>
      <trkpt lat="44.33858" lon="2.55599">
        <ele>607.5</ele>
        <time>2011-05-11T18:30:21Z</time>
      </trkpt>
      <trkpt lat="44.3386" lon="2.55605">
        <ele>607.7</ele>
        <time>2011-05-11T18:30:22Z</time>
      </trkpt>
      <trkpt lat="44.33862" lon="2.5561">
        <ele>607.9</ele>
        <time>2011-05-11T18:30:23Z</time>
      </trkpt>
      <trkpt lat="44.33863" lon="2.55615">
        <ele>608</ele>
        <time>2011-05-11T18:30:24Z</time>
      </trkpt>
      <trkpt lat="44.33865" lon="2.5562">
        <ele>608.2</ele>
        <time>2011-05-11T18:30:25Z</time>
      </trkpt>
      <trkpt lat="44.33867" lon="2.55626">
        <ele>608.5</ele>
        <time>2011-05-11T18:30:26Z</time>
      </trkpt>
      <trkpt lat="44.33868" lon="2.55631">
        <ele>608.7</ele>
        <time>2011-05-11T18:30:27Z</time>
      </trkpt>
      <trkpt lat="44.3387" lon="2.55636">
        <ele>608.9</ele>
        <time>2011-05-11T18:30:28Z</time>
      </trkpt>
      <trkpt lat="44.33872" lon="2.55641">
        <ele>609</ele>
        <time>2011-05-11T18:30:29Z</time>
      </trkpt>
      <trkpt lat="44.33874" lon="2.55646">
        <ele>609.2</ele>
        <time>2011-05-11T18:30:30Z</time>
      </trkpt>
      <trkpt lat="44.33875" lon="2.55651">
        <ele>609.5</ele>
        <time>2011-05-11T18:30:31Z</time>
      </trkpt>
      <trkpt lat="44.33877" lon="2.55656">
        <ele>609.7</ele>
        <time>2011-05-11T18:30:32Z</time>
      </trkpt>
      <trkpt lat="44.33879" lon="2.55662">
        <ele>610</ele>
        <time>2011-05-11T18:30:33Z</time>
      </trkpt>
      <trkpt lat="44.3388" lon="2.55667">
        <ele>610.2</ele>
        <time>2011-05-11T18:30:34Z</time>
      </trkpt>
      <trkpt lat="44.33882" lon="2.55672">
        <ele>610.5</ele>
        <time>2011-05-11T18:30:35Z</time>
      </trkpt>
      <trkpt lat="44.33884" lon="2.55677">
        <ele>610.7</ele>
        <time>2011-05-11T18:30:36Z</time>
      </trkpt>
      <trkpt lat="44.33885" lon="2.55682">
        <ele>610.9</ele>
        <time>2011-05-11T18:30:37Z</time>
      </trkpt>
      <trkpt lat="44.33887" lon="2.55687">
        <ele>611</ele>
        <time>2011-05-11T18:30:38Z</time>
      </trkpt>
      <trkpt lat="44.33888" lon="2.55693">
        <ele>611.4</ele>
        <time>2011-05-11T18:30:39Z</time>
      </trkpt>
      <trkpt lat="44.3389" lon="2.55698">
        <ele>611.5</ele>
        <time>2011-05-11T18:30:40Z</time>
      </trkpt>
      <trkpt lat="44.33891" lon="2.55703">
        <ele>611.7</ele>
        <time>2011-05-11T18:30:41Z</time>
      </trkpt>
      <trkpt lat="44.33893" lon="2.55708">
        <ele>612</ele>
        <time>2011-05-11T18:30:42Z</time>
      </trkpt>
      <trkpt lat="44.33894" lon="2.55713">
        <ele>612.2</ele>
        <time>2011-05-11T18:30:43Z</time>
      </trkpt>
      <trkpt lat="44.33896" lon="2.55719">
        <ele>612.4</ele>
        <time>2011-05-11T18:30:44Z</time>
      </trkpt>
      <trkpt lat="44.33898" lon="2.55724">
        <ele>612.5</ele>
        <time>2011-05-11T18:30:45Z</time>
      </trkpt>
      <trkpt lat="44.33899" lon="2.55729">
        <ele>612.7</ele>
        <time>2011-05-11T18:30:46Z</time>
      </trkpt>
      <trkpt lat="44.33901" lon="2.55735">
        <ele>613</ele>
        <time>2011-05-11T18:30:47Z</time>
      </trkpt>
      <trkpt lat="44.33902" lon="2.5574">
        <ele>613.2</ele>
        <time>2011-05-11T18:30:48Z</time>
      </trkpt>
      <trkpt lat="44.33904" lon="2.55746">
        <ele>613.5</ele>
        <time>2011-05-11T18:30:49Z</time>
      </trkpt>
      <trkpt lat="44.33905" lon="2.55751">
        <ele>613.7</ele>
        <time>2011-05-11T18:30:50Z</time>
      </trkpt>
      <trkpt lat="44.33907" lon="2.55757">
        <ele>613.9</ele>
        <time>2011-05-11T18:30:51Z</time>
      </trkpt>
      <trkpt lat="44.33909" lon="2.55762">
        <ele>614</ele>
        <time>2011-05-11T18:30:52Z</time>
      </trkpt>
      <trkpt lat="44.33911" lon="2.55767">
        <ele>614.2</ele>
        <time>2011-05-11T18:30:53Z</time>
      </trkpt>
      <trkpt lat="44.33912" lon="2.55772">
        <ele>614.5</ele>
        <time>2011-05-11T18:30:54Z</time>
      </trkpt>
      <trkpt lat="44.33914" lon="2.55778">
        <ele>614.7</ele>
        <time>2011-05-11T18:30:55Z</time>
      </trkpt>
      <trkpt lat="44.33916" lon="2.55782">
        <ele>614.7</ele>
        <time>2011-05-11T18:30:56Z</time>
      </trkpt>
      <trkpt lat="44.33919" lon="2.55787">
        <ele>614.9</ele>
        <time>2011-05-11T18:30:57Z</time>
      </trkpt>
      <trkpt lat="44.33921" lon="2.55792">
        <ele>615</ele>
        <time>2011-05-11T18:30:58Z</time>
      </trkpt>
      <trkpt lat="44.33923" lon="2.55796">
        <ele>615.2</ele>
        <time>2011-05-11T18:30:59Z</time>
      </trkpt>
      <trkpt lat="44.33926" lon="2.558">
        <ele>615.2</ele>
        <time>2011-05-11T18:31:00Z</time>
      </trkpt>
      <trkpt lat="44.33929" lon="2.55803">
        <ele>615.2</ele>
        <time>2011-05-11T18:31:01Z</time>
      </trkpt>
      <trkpt lat="44.33931" lon="2.55807">
        <ele>615.2</ele>
        <time>2011-05-11T18:31:02Z</time>
      </trkpt>
      <trkpt lat="44.33934" lon="2.5581">
        <ele>615.2</ele>
        <time>2011-05-11T18:31:03Z</time>
      </trkpt>
      <trkpt lat="44.33937" lon="2.55814">
        <ele>615.2</ele>
        <time>2011-05-11T18:31:04Z</time>
      </trkpt>
      <trkpt lat="44.33939" lon="2.55818">
        <ele>615.2</ele>
        <time>2011-05-11T18:31:05Z</time>
      </trkpt>
      <trkpt lat="44.33942" lon="2.55822">
        <ele>615.2</ele>
        <time>2011-05-11T18:31:06Z</time>
      </trkpt>
      <trkpt lat="44.33944" lon="2.55826">
        <ele>615.2</ele>
        <time>2011-05-11T18:31:07Z</time>
      </trkpt>
      <trkpt lat="44.33947" lon="2.55829">
        <ele>615.2</ele>
        <time>2011-05-11T18:31:08Z</time>
      </trkpt>
      <trkpt lat="44.33949" lon="2.55832">
        <ele>615.2</ele>
        <time>2011-05-11T18:31:09Z</time>
      </trkpt>
      <trkpt lat="44.33952" lon="2.55836">
        <ele>615</ele>
        <time>2011-05-11T18:31:10Z</time>
      </trkpt>
      <trkpt lat="44.33955" lon="2.55839">
        <ele>614.9</ele>
        <time>2011-05-11T18:31:11Z</time>
      </trkpt>
      <trkpt lat="44.33957" lon="2.55842">
        <ele>614.7</ele>
        <time>2011-05-11T18:31:12Z</time>
      </trkpt>
      <trkpt lat="44.3396" lon="2.55846">
        <ele>614.5</ele>
        <time>2011-05-11T18:31:13Z</time>
      </trkpt>
      <trkpt lat="44.33963" lon="2.55849">
        <ele>614.4</ele>
        <time>2011-05-11T18:31:14Z</time>
      </trkpt>
      <trkpt lat="44.33965" lon="2.55853">
        <ele>614.2</ele>
        <time>2011-05-11T18:31:15Z</time>
      </trkpt>
      <trkpt lat="44.33968" lon="2.55858">
        <ele>614</ele>
        <time>2011-05-11T18:31:16Z</time>
      </trkpt>
      <trkpt lat="44.33971" lon="2.55863">
        <ele>613.7</ele>
        <time>2011-05-11T18:31:17Z</time>
      </trkpt>
      <trkpt lat="44.33973" lon="2.55868">
        <ele>613.5</ele>
        <time>2011-05-11T18:31:18Z</time>
      </trkpt>
      <trkpt lat="44.33976" lon="2.55873">
        <ele>613.2</ele>
        <time>2011-05-11T18:31:19Z</time>
      </trkpt>
      <trkpt lat="44.33979" lon="2.55879">
        <ele>612.9</ele>
        <time>2011-05-11T18:31:20Z</time>
      </trkpt>
      <trkpt lat="44.33981" lon="2.55884">
        <ele>612.5</ele>
        <time>2011-05-11T18:31:21Z</time>
      </trkpt>
      <trkpt lat="44.33984" lon="2.55891">
        <ele>612.2</ele>
        <time>2011-05-11T18:31:22Z</time>
      </trkpt>
      <trkpt lat="44.33987" lon="2.55897">
        <ele>611.7</ele>
        <time>2011-05-11T18:31:23Z</time>
      </trkpt>
      <trkpt lat="44.33989" lon="2.55904">
        <ele>611.2</ele>
        <time>2011-05-11T18:31:24Z</time>
      </trkpt>
      <trkpt lat="44.33992" lon="2.55911">
        <ele>610.7</ele>
        <time>2011-05-11T18:31:25Z</time>
      </trkpt>
      <trkpt lat="44.33996" lon="2.55918">
        <ele>610</ele>
        <time>2011-05-11T18:31:26Z</time>
      </trkpt>
      <trkpt lat="44.34" lon="2.55926">
        <ele>609.4</ele>
        <time>2011-05-11T18:31:27Z</time>
      </trkpt>
      <trkpt lat="44.34003" lon="2.55935">
        <ele>608.7</ele>
        <time>2011-05-11T18:31:28Z</time>
      </trkpt>
      <trkpt lat="44.34006" lon="2.55944">
        <ele>608.2</ele>
        <time>2011-05-11T18:31:29Z</time>
      </trkpt>
      <trkpt lat="44.34009" lon="2.55954">
        <ele>607.5</ele>
        <time>2011-05-11T18:31:30Z</time>
      </trkpt>
      <trkpt lat="44.34012" lon="2.55965">
        <ele>606.9</ele>
        <time>2011-05-11T18:31:31Z</time>
      </trkpt>
      <trkpt lat="44.34015" lon="2.55975">
        <ele>606</ele>
        <time>2011-05-11T18:31:32Z</time>
      </trkpt>
      <trkpt lat="44.34018" lon="2.55987">
        <ele>605</ele>
        <time>2011-05-11T18:31:33Z</time>
      </trkpt>
      <trkpt lat="44.34021" lon="2.55998">
        <ele>604.2</ele>
        <time>2011-05-11T18:31:34Z</time>
      </trkpt>
      <trkpt lat="44.34025" lon="2.56011">
        <ele>602.9</ele>
        <time>2011-05-11T18:31:35Z</time>
      </trkpt>
      <trkpt lat="44.3403" lon="2.56024">
        <ele>601.2</ele>
        <time>2011-05-11T18:31:36Z</time>
      </trkpt>
      <trkpt lat="44.34035" lon="2.56036">
        <ele>599.7</ele>
        <time>2011-05-11T18:31:37Z</time>
      </trkpt>
      <trkpt lat="44.3404" lon="2.56047">
        <ele>598.4</ele>
        <time>2011-05-11T18:31:38Z</time>
      </trkpt>
      <trkpt lat="44.34045" lon="2.56058">
        <ele>596.7</ele>
        <time>2011-05-11T18:31:39Z</time>
      </trkpt>
      <trkpt lat="44.34048" lon="2.56071">
        <ele>595.2</ele>
        <time>2011-05-11T18:31:40Z</time>
      </trkpt>
      <trkpt lat="44.34052" lon="2.56082">
        <ele>594.2</ele>
        <time>2011-05-11T18:31:41Z</time>
      </trkpt>
      <trkpt lat="44.34057" lon="2.56093">
        <ele>593.5</ele>
        <time>2011-05-11T18:31:42Z</time>
      </trkpt>
      <trkpt lat="44.34062" lon="2.56103">
        <ele>592.7</ele>
        <time>2011-05-11T18:31:43Z</time>
      </trkpt>
      <trkpt lat="44.34067" lon="2.5611">
        <ele>592.4</ele>
        <time>2011-05-11T18:31:44Z</time>
      </trkpt>
      <trkpt lat="44.34072" lon="2.56115">
        <ele>592</ele>
        <time>2011-05-11T18:31:45Z</time>
      </trkpt>
      <trkpt lat="44.34075" lon="2.56119">
        <ele>591.5</ele>
        <time>2011-05-11T18:31:46Z</time>
      </trkpt>
      <trkpt lat="44.34073" lon="2.56124">
        <ele>590.5</ele>
        <time>2011-05-11T18:31:48Z</time>
      </trkpt>
      <trkpt lat="44.3407" lon="2.56126">
        <ele>589.7</ele>
        <time>2011-05-11T18:31:49Z</time>
      </trkpt>
      <trkpt lat="44.34067" lon="2.56128">
        <ele>588.9</ele>
        <time>2011-05-11T18:31:50Z</time>
      </trkpt>
      <trkpt lat="44.34062" lon="2.56131">
        <ele>588</ele>
        <time>2011-05-11T18:31:51Z</time>
      </trkpt>
      <trkpt lat="44.34057" lon="2.56132">
        <ele>586.7</ele>
        <time>2011-05-11T18:31:52Z</time>
      </trkpt>
      <trkpt lat="44.34052" lon="2.56132">
        <ele>585.5</ele>
        <time>2011-05-11T18:31:53Z</time>
      </trkpt>
      <trkpt lat="44.34051" lon="2.56138">
        <ele>582.5</ele>
        <time>2011-05-11T18:32:03Z</time>
      </trkpt>
      <trkpt lat="44.34054" lon="2.5614">
        <ele>581</ele>
        <time>2011-05-11T18:32:06Z</time>
      </trkpt>
      <trkpt lat="44.34058" lon="2.56141">
        <ele>579.5</ele>
        <time>2011-05-11T18:32:08Z</time>
      </trkpt>
      <trkpt lat="44.34062" lon="2.56144">
        <ele>578.2</ele>
        <time>2011-05-11T18:32:10Z</time>
      </trkpt>
      <trkpt lat="44.34065" lon="2.56147">
        <ele>577.5</ele>
        <time>2011-05-11T18:32:11Z</time>
      </trkpt>
      <trkpt lat="44.34068" lon="2.56147">
        <ele>577.2</ele>
        <time>2011-05-11T18:32:12Z</time>
      </trkpt>
      <trkpt lat="44.34071" lon="2.56146">
        <ele>577</ele>
        <time>2011-05-11T18:32:13Z</time>
      </trkpt>
      <trkpt lat="44.34075" lon="2.56144">
        <ele>577</ele>
        <time>2011-05-11T18:32:14Z</time>
      </trkpt>
      <trkpt lat="44.3408" lon="2.56142">
        <ele>577.4</ele>
        <time>2011-05-11T18:32:15Z</time>
      </trkpt>
      <trkpt lat="44.34084" lon="2.56141">
        <ele>577.9</ele>
        <time>2011-05-11T18:32:16Z</time>
      </trkpt>
      <trkpt lat="44.34088" lon="2.56139">
        <ele>578.5</ele>
        <time>2011-05-11T18:32:17Z</time>
      </trkpt>
      <trkpt lat="44.34091" lon="2.56138">
        <ele>579</ele>
        <time>2011-05-11T18:32:18Z</time>
      </trkpt>
      <trkpt lat="44.34095" lon="2.56136">
        <ele>579.5</ele>
        <time>2011-05-11T18:32:19Z</time>
      </trkpt>
      <trkpt lat="44.34098" lon="2.56135">
        <ele>579.7</ele>
        <time>2011-05-11T18:32:20Z</time>
      </trkpt>
      <trkpt lat="44.34102" lon="2.56134">
        <ele>580</ele>
        <time>2011-05-11T18:32:21Z</time>
      </trkpt>
      <trkpt lat="44.34105" lon="2.56132">
        <ele>580.2</ele>
        <time>2011-05-11T18:32:22Z</time>
      </trkpt>
      <trkpt lat="44.34109" lon="2.56131">
        <ele>580.5</ele>
        <time>2011-05-11T18:32:23Z</time>
      </trkpt>
      <trkpt lat="44.34112" lon="2.56131">
        <ele>580.5</ele>
        <time>2011-05-11T18:32:24Z</time>
      </trkpt>
      <trkpt lat="44.34115" lon="2.56132">
        <ele>580.7</ele>
        <time>2011-05-11T18:32:25Z</time>
      </trkpt>
      <trkpt lat="44.34117" lon="2.56134">
        <ele>580.5</ele>
        <time>2011-05-11T18:32:26Z</time>
      </trkpt>
      <trkpt lat="44.3412" lon="2.56137">
        <ele>579.9</ele>
        <time>2011-05-11T18:32:27Z</time>
      </trkpt>
      <trkpt lat="44.34124" lon="2.56141">
        <ele>579</ele>
        <time>2011-05-11T18:32:28Z</time>
      </trkpt>
      <trkpt lat="44.34127" lon="2.56146">
        <ele>578.2</ele>
        <time>2011-05-11T18:32:29Z</time>
      </trkpt>
      <trkpt lat="44.34132" lon="2.5615">
        <ele>577.5</ele>
        <time>2011-05-11T18:32:30Z</time>
      </trkpt>
      <trkpt lat="44.34136" lon="2.56154">
        <ele>577</ele>
        <time>2011-05-11T18:32:31Z</time>
      </trkpt>
      <trkpt lat="44.34141" lon="2.56159">
        <ele>576.5</ele>
        <time>2011-05-11T18:32:32Z</time>
      </trkpt>
      <trkpt lat="44.34146" lon="2.56163">
        <ele>576.2</ele>
        <time>2011-05-11T18:32:33Z</time>
      </trkpt>
      <trkpt lat="44.34151" lon="2.56168">
        <ele>575.2</ele>
        <time>2011-05-11T18:32:34Z</time>
      </trkpt>
      <trkpt lat="44.34157" lon="2.56171">
        <ele>574.7</ele>
        <time>2011-05-11T18:32:35Z</time>
      </trkpt>
      <trkpt lat="44.34162" lon="2.56171">
        <ele>574.2</ele>
        <time>2011-05-11T18:32:36Z</time>
      </trkpt>
      <trkpt lat="44.34167" lon="2.56168">
        <ele>573.9</ele>
        <time>2011-05-11T18:32:37Z</time>
      </trkpt>
      <trkpt lat="44.34173" lon="2.56164">
        <ele>573.5</ele>
        <time>2011-05-11T18:32:38Z</time>
      </trkpt>
      <trkpt lat="44.34178" lon="2.5616">
        <ele>573</ele>
        <time>2011-05-11T18:32:39Z</time>
      </trkpt>
      <trkpt lat="44.34182" lon="2.56155">
        <ele>572.5</ele>
        <time>2011-05-11T18:32:40Z</time>
      </trkpt>
      <trkpt lat="44.34187" lon="2.5615">
        <ele>572.2</ele>
        <time>2011-05-11T18:32:41Z</time>
      </trkpt>
      <trkpt lat="44.34192" lon="2.56144">
        <ele>571.5</ele>
        <time>2011-05-11T18:32:42Z</time>
      </trkpt>
      <trkpt lat="44.34197" lon="2.5614">
        <ele>570.5</ele>
        <time>2011-05-11T18:32:43Z</time>
      </trkpt>
      <trkpt lat="44.34201" lon="2.56138">
        <ele>569.2</ele>
        <time>2011-05-11T18:32:44Z</time>
      </trkpt>
      <trkpt lat="44.34205" lon="2.5614">
        <ele>567.7</ele>
        <time>2011-05-11T18:32:45Z</time>
      </trkpt>
      <trkpt lat="44.34209" lon="2.56144">
        <ele>566.4</ele>
        <time>2011-05-11T18:32:46Z</time>
      </trkpt>
      <trkpt lat="44.34213" lon="2.56148">
        <ele>565.5</ele>
        <time>2011-05-11T18:32:47Z</time>
      </trkpt>
      <trkpt lat="44.34215" lon="2.56152">
        <ele>564.7</ele>
        <time>2011-05-11T18:32:48Z</time>
      </trkpt>
      <trkpt lat="44.34217" lon="2.56155">
        <ele>564.2</ele>
        <time>2011-05-11T18:32:49Z</time>
      </trkpt>
      <trkpt lat="44.34221" lon="2.56155">
        <ele>564</ele>
        <time>2011-05-11T18:32:50Z</time>
      </trkpt>
      <trkpt lat="44.34225" lon="2.56151">
        <ele>563.9</ele>
        <time>2011-05-11T18:32:51Z</time>
      </trkpt>
      <trkpt lat="44.34228" lon="2.56147">
        <ele>563.7</ele>
        <time>2011-05-11T18:32:52Z</time>
      </trkpt>
      <trkpt lat="44.34232" lon="2.56143">
        <ele>563.5</ele>
        <time>2011-05-11T18:32:53Z</time>
      </trkpt>
      <trkpt lat="44.34235" lon="2.56138">
        <ele>563.2</ele>
        <time>2011-05-11T18:32:54Z</time>
      </trkpt>
      <trkpt lat="44.34238" lon="2.56132">
        <ele>562.9</ele>
        <time>2011-05-11T18:32:55Z</time>
      </trkpt>
      <trkpt lat="44.34241" lon="2.56126">
        <ele>562.4</ele>
        <time>2011-05-11T18:32:56Z</time>
      </trkpt>
      <trkpt lat="44.34244" lon="2.56119">
        <ele>561.7</ele>
        <time>2011-05-11T18:32:57Z</time>
      </trkpt>
      <trkpt lat="44.34248" lon="2.56113">
        <ele>561.2</ele>
        <time>2011-05-11T18:32:58Z</time>
      </trkpt>
      <trkpt lat="44.34253" lon="2.56108">
        <ele>560.7</ele>
        <time>2011-05-11T18:32:59Z</time>
      </trkpt>
      <trkpt lat="44.34258" lon="2.56103">
        <ele>560.5</ele>
        <time>2011-05-11T18:33:00Z</time>
      </trkpt>
      <trkpt lat="44.34263" lon="2.56098">
        <ele>560.5</ele>
        <time>2011-05-11T18:33:01Z</time>
      </trkpt>
      <trkpt lat="44.34267" lon="2.56092">
        <ele>560.5</ele>
        <time>2011-05-11T18:33:02Z</time>
      </trkpt>
      <trkpt lat="44.34272" lon="2.56086">
        <ele>560.9</ele>
        <time>2011-05-11T18:33:03Z</time>
      </trkpt>
      <trkpt lat="44.34275" lon="2.56082">
        <ele>561.4</ele>
        <time>2011-05-11T18:33:04Z</time>
      </trkpt>
      <trkpt lat="44.34279" lon="2.56077">
        <ele>561.7</ele>
        <time>2011-05-11T18:33:05Z</time>
      </trkpt>
      <trkpt lat="44.34282" lon="2.56073">
        <ele>562</ele>
        <time>2011-05-11T18:33:06Z</time>
      </trkpt>
      <trkpt lat="44.34286" lon="2.56069">
        <ele>562.5</ele>
        <time>2011-05-11T18:33:07Z</time>
      </trkpt>
      <trkpt lat="44.3429" lon="2.56065">
        <ele>562.9</ele>
        <time>2011-05-11T18:33:08Z</time>
      </trkpt>
      <trkpt lat="44.34294" lon="2.56061">
        <ele>563.2</ele>
        <time>2011-05-11T18:33:09Z</time>
      </trkpt>
      <trkpt lat="44.34297" lon="2.56058">
        <ele>563.7</ele>
        <time>2011-05-11T18:33:10Z</time>
      </trkpt>
      <trkpt lat="44.343" lon="2.56055">
        <ele>564</ele>
        <time>2011-05-11T18:33:11Z</time>
      </trkpt>
      <trkpt lat="44.34304" lon="2.56052">
        <ele>564.5</ele>
        <time>2011-05-11T18:33:12Z</time>
      </trkpt>
      <trkpt lat="44.34307" lon="2.5605">
        <ele>564.9</ele>
        <time>2011-05-11T18:33:13Z</time>
      </trkpt>
      <trkpt lat="44.3431" lon="2.56047">
        <ele>565.2</ele>
        <time>2011-05-11T18:33:14Z</time>
      </trkpt>
      <trkpt lat="44.34313" lon="2.56045">
        <ele>565.5</ele>
        <time>2011-05-11T18:33:15Z</time>
      </trkpt>
      <trkpt lat="44.34316" lon="2.56043">
        <ele>566</ele>
        <time>2011-05-11T18:33:16Z</time>
      </trkpt>
      <trkpt lat="44.3432" lon="2.5604">
        <ele>566.5</ele>
        <time>2011-05-11T18:33:17Z</time>
      </trkpt>
      <trkpt lat="44.34323" lon="2.56037">
        <ele>566.9</ele>
        <time>2011-05-11T18:33:18Z</time>
      </trkpt>
      <trkpt lat="44.34326" lon="2.56035">
        <ele>567.4</ele>
        <time>2011-05-11T18:33:19Z</time>
      </trkpt>
      <trkpt lat="44.3433" lon="2.56034">
        <ele>567.7</ele>
        <time>2011-05-11T18:33:20Z</time>
      </trkpt>
      <trkpt lat="44.34333" lon="2.56031">
        <ele>568</ele>
        <time>2011-05-11T18:33:21Z</time>
      </trkpt>
      <trkpt lat="44.34336" lon="2.5603">
        <ele>568.5</ele>
        <time>2011-05-11T18:33:22Z</time>
      </trkpt>
      <trkpt lat="44.3434" lon="2.56028">
        <ele>569</ele>
        <time>2011-05-11T18:33:23Z</time>
      </trkpt>
      <trkpt lat="44.34343" lon="2.56027">
        <ele>569.4</ele>
        <time>2011-05-11T18:33:24Z</time>
      </trkpt>
      <trkpt lat="44.34347" lon="2.56026">
        <ele>569.5</ele>
        <time>2011-05-11T18:33:25Z</time>
      </trkpt>
      <trkpt lat="44.3435" lon="2.56026">
        <ele>569.9</ele>
        <time>2011-05-11T18:33:26Z</time>
      </trkpt>
      <trkpt lat="44.34353" lon="2.56025">
        <ele>570.2</ele>
        <time>2011-05-11T18:33:27Z</time>
      </trkpt>
      <trkpt lat="44.34355" lon="2.56024">
        <ele>570.4</ele>
        <time>2011-05-11T18:33:28Z</time>
      </trkpt>
      <trkpt lat="44.34358" lon="2.56025">
        <ele>570.4</ele>
        <time>2011-05-11T18:33:29Z</time>
      </trkpt>
      <trkpt lat="44.34361" lon="2.56026">
        <ele>570.2</ele>
        <time>2011-05-11T18:33:30Z</time>
      </trkpt>
      <trkpt lat="44.34365" lon="2.56029">
        <ele>569.7</ele>
        <time>2011-05-11T18:33:31Z</time>
      </trkpt>
      <trkpt lat="44.3437" lon="2.56033">
        <ele>569</ele>
        <time>2011-05-11T18:33:32Z</time>
      </trkpt>
      <trkpt lat="44.34375" lon="2.56036">
        <ele>568.2</ele>
        <time>2011-05-11T18:33:33Z</time>
      </trkpt>
      <trkpt lat="44.34383" lon="2.56038">
        <ele>567</ele>
        <time>2011-05-11T18:33:34Z</time>
      </trkpt>
      <trkpt lat="44.34391" lon="2.56039">
        <ele>565.5</ele>
        <time>2011-05-11T18:33:35Z</time>
      </trkpt>
      <trkpt lat="44.344" lon="2.5604">
        <ele>564</ele>
        <time>2011-05-11T18:33:36Z</time>
      </trkpt>
      <trkpt lat="44.3441" lon="2.5604">
        <ele>562.5</ele>
        <time>2011-05-11T18:33:37Z</time>
      </trkpt>
      <trkpt lat="44.3442" lon="2.56041">
        <ele>560.9</ele>
        <time>2011-05-11T18:33:38Z</time>
      </trkpt>
      <trkpt lat="44.34431" lon="2.56042">
        <ele>559</ele>
        <time>2011-05-11T18:33:39Z</time>
      </trkpt>
      <trkpt lat="44.34443" lon="2.56043">
        <ele>557.4</ele>
        <time>2011-05-11T18:33:40Z</time>
      </trkpt>
      <trkpt lat="44.34455" lon="2.56046">
        <ele>555.7</ele>
        <time>2011-05-11T18:33:41Z</time>
      </trkpt>
      <trkpt lat="44.34467" lon="2.56051">
        <ele>554</ele>
        <time>2011-05-11T18:33:42Z</time>
      </trkpt>
      <trkpt lat="44.34479" lon="2.56057">
        <ele>552.4</ele>
        <time>2011-05-11T18:33:43Z</time>
      </trkpt>
      <trkpt lat="44.34489" lon="2.56066">
        <ele>550.5</ele>
        <time>2011-05-11T18:33:44Z</time>
      </trkpt>
      <trkpt lat="44.34498" lon="2.56076">
        <ele>548.5</ele>
        <time>2011-05-11T18:33:45Z</time>
      </trkpt>
      <trkpt lat="44.34507" lon="2.56088">
        <ele>546.7</ele>
        <time>2011-05-11T18:33:46Z</time>
      </trkpt>
      <trkpt lat="44.34516" lon="2.56099">
        <ele>545</ele>
        <time>2011-05-11T18:33:47Z</time>
      </trkpt>
      <trkpt lat="44.34524" lon="2.56108">
        <ele>543.2</ele>
        <time>2011-05-11T18:33:48Z</time>
      </trkpt>
      <trkpt lat="44.34534" lon="2.56114">
        <ele>541.5</ele>
        <time>2011-05-11T18:33:49Z</time>
      </trkpt>
      <trkpt lat="44.34545" lon="2.56118">
        <ele>540</ele>
        <time>2011-05-11T18:33:50Z</time>
      </trkpt>
      <trkpt lat="44.34555" lon="2.56119">
        <ele>538.7</ele>
        <time>2011-05-11T18:33:51Z</time>
      </trkpt>
      <trkpt lat="44.34564" lon="2.56117">
        <ele>537.5</ele>
        <time>2011-05-11T18:33:52Z</time>
      </trkpt>
      <trkpt lat="44.34571" lon="2.56111">
        <ele>536.5</ele>
        <time>2011-05-11T18:33:53Z</time>
      </trkpt>
      <trkpt lat="44.34578" lon="2.56103">
        <ele>535.7</ele>
        <time>2011-05-11T18:33:54Z</time>
      </trkpt>
      <trkpt lat="44.34583" lon="2.56093">
        <ele>535.2</ele>
        <time>2011-05-11T18:33:55Z</time>
      </trkpt>
      <trkpt lat="44.34589" lon="2.56084">
        <ele>534.7</ele>
        <time>2011-05-11T18:33:56Z</time>
      </trkpt>
      <trkpt lat="44.34595" lon="2.56075">
        <ele>534.2</ele>
        <time>2011-05-11T18:33:57Z</time>
      </trkpt>
      <trkpt lat="44.346" lon="2.56066">
        <ele>533.5</ele>
        <time>2011-05-11T18:33:58Z</time>
      </trkpt>
      <trkpt lat="44.34605" lon="2.56057">
        <ele>533</ele>
        <time>2011-05-11T18:33:59Z</time>
      </trkpt>
      <trkpt lat="44.34611" lon="2.56048">
        <ele>532.7</ele>
        <time>2011-05-11T18:34:00Z</time>
      </trkpt>
      <trkpt lat="44.34616" lon="2.56039">
        <ele>532.2</ele>
        <time>2011-05-11T18:34:01Z</time>
      </trkpt>
      <trkpt lat="44.34621" lon="2.56032">
        <ele>531.5</ele>
        <time>2011-05-11T18:34:02Z</time>
      </trkpt>
      <trkpt lat="44.34627" lon="2.56025">
        <ele>531</ele>
        <time>2011-05-11T18:34:03Z</time>
      </trkpt>
      <trkpt lat="44.34634" lon="2.56018">
        <ele>530.7</ele>
        <time>2011-05-11T18:34:04Z</time>
      </trkpt>
      <trkpt lat="44.34642" lon="2.56014">
        <ele>529.5</ele>
        <time>2011-05-11T18:34:05Z</time>
      </trkpt>
      <trkpt lat="44.34652" lon="2.56013">
        <ele>528</ele>
        <time>2011-05-11T18:34:06Z</time>
      </trkpt>
      <trkpt lat="44.34661" lon="2.56012">
        <ele>526.9</ele>
        <time>2011-05-11T18:34:07Z</time>
      </trkpt>
      <trkpt lat="44.3467" lon="2.5601">
        <ele>525.7</ele>
        <time>2011-05-11T18:34:08Z</time>
      </trkpt>
      <trkpt lat="44.34677" lon="2.56002">
        <ele>524.4</ele>
        <time>2011-05-11T18:34:09Z</time>
      </trkpt>
      <trkpt lat="44.34684" lon="2.55992">
        <ele>523</ele>
        <time>2011-05-11T18:34:10Z</time>
      </trkpt>
      <trkpt lat="44.34691" lon="2.55981">
        <ele>521.5</ele>
        <time>2011-05-11T18:34:11Z</time>
      </trkpt>
      <trkpt lat="44.34698" lon="2.5597">
        <ele>520</ele>
        <time>2011-05-11T18:34:12Z</time>
      </trkpt>
      <trkpt lat="44.34705" lon="2.55959">
        <ele>518.7</ele>
        <time>2011-05-11T18:34:13Z</time>
      </trkpt>
      <trkpt lat="44.34709" lon="2.55946">
        <ele>517.5</ele>
        <time>2011-05-11T18:34:14Z</time>
      </trkpt>
      <trkpt lat="44.34711" lon="2.55933">
        <ele>516.7</ele>
        <time>2011-05-11T18:34:15Z</time>
      </trkpt>
      <trkpt lat="44.34713" lon="2.5592">
        <ele>516.2</ele>
        <time>2011-05-11T18:34:16Z</time>
      </trkpt>
      <trkpt lat="44.34714" lon="2.55907">
        <ele>516.2</ele>
        <time>2011-05-11T18:34:17Z</time>
      </trkpt>
      <trkpt lat="44.34716" lon="2.55897">
        <ele>516.7</ele>
        <time>2011-05-11T18:34:18Z</time>
      </trkpt>
      <trkpt lat="44.34717" lon="2.55888">
        <ele>517.2</ele>
        <time>2011-05-11T18:34:19Z</time>
      </trkpt>
      <trkpt lat="44.34717" lon="2.55879">
        <ele>517.7</ele>
        <time>2011-05-11T18:34:20Z</time>
      </trkpt>
      <trkpt lat="44.34717" lon="2.5587">
        <ele>518.2</ele>
        <time>2011-05-11T18:34:21Z</time>
      </trkpt>
      <trkpt lat="44.34717" lon="2.55861">
        <ele>518.7</ele>
        <time>2011-05-11T18:34:22Z</time>
      </trkpt>
      <trkpt lat="44.34717" lon="2.55852">
        <ele>519.4</ele>
        <time>2011-05-11T18:34:23Z</time>
      </trkpt>
      <trkpt lat="44.34717" lon="2.55844">
        <ele>520.2</ele>
        <time>2011-05-11T18:34:24Z</time>
      </trkpt>
      <trkpt lat="44.34718" lon="2.55837">
        <ele>521.2</ele>
        <time>2011-05-11T18:34:25Z</time>
      </trkpt>
      <trkpt lat="44.34718" lon="2.5583">
        <ele>522.2</ele>
        <time>2011-05-11T18:34:26Z</time>
      </trkpt>
      <trkpt lat="44.34718" lon="2.55825">
        <ele>523.5</ele>
        <time>2011-05-11T18:34:27Z</time>
      </trkpt>
      <trkpt lat="44.34718" lon="2.55821">
        <ele>524.7</ele>
        <time>2011-05-11T18:34:28Z</time>
      </trkpt>
      <trkpt lat="44.34717" lon="2.55816">
        <ele>525.7</ele>
        <time>2011-05-11T18:34:29Z</time>
      </trkpt>
      <trkpt lat="44.34717" lon="2.55812">
        <ele>526.7</ele>
        <time>2011-05-11T18:34:30Z</time>
      </trkpt>
      <trkpt lat="44.34717" lon="2.55808">
        <ele>527.5</ele>
        <time>2011-05-11T18:34:31Z</time>
      </trkpt>
      <trkpt lat="44.34717" lon="2.55804">
        <ele>528.2</ele>
        <time>2011-05-11T18:34:32Z</time>
      </trkpt>
      <trkpt lat="44.34718" lon="2.558">
        <ele>528.7</ele>
        <time>2011-05-11T18:34:33Z</time>
      </trkpt>
      <trkpt lat="44.34718" lon="2.55796">
        <ele>529.4</ele>
        <time>2011-05-11T18:34:34Z</time>
      </trkpt>
      <trkpt lat="44.34719" lon="2.55793">
        <ele>529.7</ele>
        <time>2011-05-11T18:34:35Z</time>
      </trkpt>
      <trkpt lat="44.3472" lon="2.55787">
        <ele>530.2</ele>
        <time>2011-05-11T18:34:37Z</time>
      </trkpt>
      <trkpt lat="44.34721" lon="2.55782">
        <ele>530.5</ele>
        <time>2011-05-11T18:34:39Z</time>
      </trkpt>
      <trkpt lat="44.34722" lon="2.55777">
        <ele>530.4</ele>
        <time>2011-05-11T18:34:41Z</time>
      </trkpt>
      <trkpt lat="44.34723" lon="2.55771">
        <ele>530.4</ele>
        <time>2011-05-11T18:34:44Z</time>
      </trkpt>
      <trkpt lat="44.34724" lon="2.55765">
        <ele>530.7</ele>
        <time>2011-05-11T18:34:49Z</time>
      </trkpt>
      <trkpt lat="44.34724" lon="2.55765">
        <ele>530.7</ele>
        <time>2011-05-11T18:34:50Z</time>
      </trkpt>
      <trkpt lat="44.34727" lon="2.55755">
        <ele>529.9</ele>
        <time>2011-05-11T18:34:57Z</time>
      </trkpt>
      <trkpt lat="44.34729" lon="2.55751">
        <ele>528.7</ele>
        <time>2011-05-11T18:34:59Z</time>
      </trkpt>
      <trkpt lat="44.3473" lon="2.55749">
        <ele>528.2</ele>
        <time>2011-05-11T18:35:00Z</time>
      </trkpt>
      <trkpt lat="44.34732" lon="2.55746">
        <ele>527.4</ele>
        <time>2011-05-11T18:35:01Z</time>
      </trkpt>
      <trkpt lat="44.34733" lon="2.55743">
        <ele>526.5</ele>
        <time>2011-05-11T18:35:02Z</time>
      </trkpt>
      <trkpt lat="44.34735" lon="2.55739">
        <ele>525.7</ele>
        <time>2011-05-11T18:35:03Z</time>
      </trkpt>
      <trkpt lat="44.34736" lon="2.55736">
        <ele>525.2</ele>
        <time>2011-05-11T18:35:04Z</time>
      </trkpt>
      <trkpt lat="44.34737" lon="2.55732">
        <ele>525</ele>
        <time>2011-05-11T18:35:05Z</time>
      </trkpt>
      <trkpt lat="44.34739" lon="2.55727">
        <ele>525.2</ele>
        <time>2011-05-11T18:35:06Z</time>
      </trkpt>
      <trkpt lat="44.34743" lon="2.55722">
        <ele>525</ele>
        <time>2011-05-11T18:35:07Z</time>
      </trkpt>
      <trkpt lat="44.34747" lon="2.55716">
        <ele>524.2</ele>
        <time>2011-05-11T18:35:08Z</time>
      </trkpt>
      <trkpt lat="44.34751" lon="2.55711">
        <ele>523</ele>
        <time>2011-05-11T18:35:09Z</time>
      </trkpt>
      <trkpt lat="44.34755" lon="2.55705">
        <ele>521.5</ele>
        <time>2011-05-11T18:35:10Z</time>
      </trkpt>
      <trkpt lat="44.34759" lon="2.55699">
        <ele>520.2</ele>
        <time>2011-05-11T18:35:11Z</time>
      </trkpt>
      <trkpt lat="44.34763" lon="2.55692">
        <ele>518.9</ele>
        <time>2011-05-11T18:35:12Z</time>
      </trkpt>
      <trkpt lat="44.34768" lon="2.55685">
        <ele>517.5</ele>
        <time>2011-05-11T18:35:13Z</time>
      </trkpt>
      <trkpt lat="44.34775" lon="2.55678">
        <ele>516.7</ele>
        <time>2011-05-11T18:35:14Z</time>
      </trkpt>
      <trkpt lat="44.34781" lon="2.5567">
        <ele>516</ele>
        <time>2011-05-11T18:35:15Z</time>
      </trkpt>
      <trkpt lat="44.34788" lon="2.55663">
        <ele>515.2</ele>
        <time>2011-05-11T18:35:16Z</time>
      </trkpt>
      <trkpt lat="44.34794" lon="2.55655">
        <ele>514.9</ele>
        <time>2011-05-11T18:35:17Z</time>
      </trkpt>
      <trkpt lat="44.348" lon="2.55648">
        <ele>514.5</ele>
        <time>2011-05-11T18:35:18Z</time>
      </trkpt>
      <trkpt lat="44.34806" lon="2.55641">
        <ele>514.4</ele>
        <time>2011-05-11T18:35:19Z</time>
      </trkpt>
      <trkpt lat="44.34811" lon="2.55635">
        <ele>514.9</ele>
        <time>2011-05-11T18:35:20Z</time>
      </trkpt>
      <trkpt lat="44.34816" lon="2.5563">
        <ele>515.5</ele>
        <time>2011-05-11T18:35:21Z</time>
      </trkpt>
      <trkpt lat="44.34821" lon="2.55624">
        <ele>515.7</ele>
        <time>2011-05-11T18:35:22Z</time>
      </trkpt>
      <trkpt lat="44.34825" lon="2.55619">
        <ele>515.7</ele>
        <time>2011-05-11T18:35:23Z</time>
      </trkpt>
      <trkpt lat="44.3483" lon="2.55614">
        <ele>515.7</ele>
        <time>2011-05-11T18:35:24Z</time>
      </trkpt>
      <trkpt lat="44.34834" lon="2.55609">
        <ele>515.7</ele>
        <time>2011-05-11T18:35:25Z</time>
      </trkpt>
      <trkpt lat="44.34837" lon="2.55604">
        <ele>516.2</ele>
        <time>2011-05-11T18:35:26Z</time>
      </trkpt>
      <trkpt lat="44.34841" lon="2.55599">
        <ele>516.2</ele>
        <time>2011-05-11T18:35:27Z</time>
      </trkpt>
      <trkpt lat="44.34844" lon="2.55595">
        <ele>516</ele>
        <time>2011-05-11T18:35:28Z</time>
      </trkpt>
      <trkpt lat="44.34848" lon="2.55591">
        <ele>516</ele>
        <time>2011-05-11T18:35:29Z</time>
      </trkpt>
      <trkpt lat="44.34851" lon="2.55586">
        <ele>516</ele>
        <time>2011-05-11T18:35:30Z</time>
      </trkpt>
      <trkpt lat="44.34855" lon="2.55581">
        <ele>516.2</ele>
        <time>2011-05-11T18:35:31Z</time>
      </trkpt>
      <trkpt lat="44.34858" lon="2.55576">
        <ele>516.7</ele>
        <time>2011-05-11T18:35:32Z</time>
      </trkpt>
      <trkpt lat="44.34861" lon="2.55572">
        <ele>517.2</ele>
        <time>2011-05-11T18:35:33Z</time>
      </trkpt>
      <trkpt lat="44.34865" lon="2.55567">
        <ele>517.4</ele>
        <time>2011-05-11T18:35:34Z</time>
      </trkpt>
      <trkpt lat="44.34868" lon="2.55564">
        <ele>517.5</ele>
        <time>2011-05-11T18:35:35Z</time>
      </trkpt>
      <trkpt lat="44.34872" lon="2.5556">
        <ele>517.7</ele>
        <time>2011-05-11T18:35:36Z</time>
      </trkpt>
      <trkpt lat="44.34876" lon="2.55556">
        <ele>517.9</ele>
        <time>2011-05-11T18:35:37Z</time>
      </trkpt>
      <trkpt lat="44.34881" lon="2.55554">
        <ele>517.9</ele>
        <time>2011-05-11T18:35:38Z</time>
      </trkpt>
      <trkpt lat="44.34884" lon="2.5555">
        <ele>517.5</ele>
        <time>2011-05-11T18:35:39Z</time>
      </trkpt>
      <trkpt lat="44.34887" lon="2.55546">
        <ele>517</ele>
        <time>2011-05-11T18:35:40Z</time>
      </trkpt>
      <trkpt lat="44.3489" lon="2.55541">
        <ele>516.4</ele>
        <time>2011-05-11T18:35:41Z</time>
      </trkpt>
      <trkpt lat="44.34893" lon="2.55537">
        <ele>515.9</ele>
        <time>2011-05-11T18:35:42Z</time>
      </trkpt>
      <trkpt lat="44.34896" lon="2.55531">
        <ele>515.7</ele>
        <time>2011-05-11T18:35:43Z</time>
      </trkpt>
      <trkpt lat="44.349" lon="2.55527">
        <ele>515.7</ele>
        <time>2011-05-11T18:35:44Z</time>
      </trkpt>
      <trkpt lat="44.34904" lon="2.55522">
        <ele>516</ele>
        <time>2011-05-11T18:35:45Z</time>
      </trkpt>
      <trkpt lat="44.34908" lon="2.55517">
        <ele>516.5</ele>
        <time>2011-05-11T18:35:46Z</time>
      </trkpt>
      <trkpt lat="44.34913" lon="2.55513">
        <ele>516.7</ele>
        <time>2011-05-11T18:35:47Z</time>
      </trkpt>
      <trkpt lat="44.34919" lon="2.55509">
        <ele>516.7</ele>
        <time>2011-05-11T18:35:48Z</time>
      </trkpt>
      <trkpt lat="44.34924" lon="2.55506">
        <ele>516.7</ele>
        <time>2011-05-11T18:35:49Z</time>
      </trkpt>
      <trkpt lat="44.3493" lon="2.55503">
        <ele>516.7</ele>
        <time>2011-05-11T18:35:50Z</time>
      </trkpt>
      <trkpt lat="44.34937" lon="2.555">
        <ele>516.5</ele>
        <time>2011-05-11T18:35:51Z</time>
      </trkpt>
      <trkpt lat="44.34944" lon="2.55497">
        <ele>516</ele>
        <time>2011-05-11T18:35:52Z</time>
      </trkpt>
      <trkpt lat="44.3495" lon="2.55494">
        <ele>515.9</ele>
        <time>2011-05-11T18:35:53Z</time>
      </trkpt>
      <trkpt lat="44.34957" lon="2.5549">
        <ele>515.9</ele>
        <time>2011-05-11T18:35:54Z</time>
      </trkpt>
      <trkpt lat="44.34963" lon="2.55485">
        <ele>515.9</ele>
        <time>2011-05-11T18:35:55Z</time>
      </trkpt>
      <trkpt lat="44.34968" lon="2.55481">
        <ele>516</ele>
        <time>2011-05-11T18:35:56Z</time>
      </trkpt>
      <trkpt lat="44.34974" lon="2.55476">
        <ele>516</ele>
        <time>2011-05-11T18:35:57Z</time>
      </trkpt>
      <trkpt lat="44.34979" lon="2.55471">
        <ele>516.4</ele>
        <time>2011-05-11T18:35:58Z</time>
      </trkpt>
      <trkpt lat="44.34984" lon="2.55466">
        <ele>516.5</ele>
        <time>2011-05-11T18:35:59Z</time>
      </trkpt>
      <trkpt lat="44.34988" lon="2.55462">
        <ele>516.7</ele>
        <time>2011-05-11T18:36:00Z</time>
      </trkpt>
      <trkpt lat="44.34993" lon="2.55456">
        <ele>516.5</ele>
        <time>2011-05-11T18:36:01Z</time>
      </trkpt>
      <trkpt lat="44.34997" lon="2.55451">
        <ele>516.5</ele>
        <time>2011-05-11T18:36:02Z</time>
      </trkpt>
      <trkpt lat="44.35001" lon="2.55446">
        <ele>516.5</ele>
        <time>2011-05-11T18:36:03Z</time>
      </trkpt>
      <trkpt lat="44.35005" lon="2.55442">
        <ele>516.9</ele>
        <time>2011-05-11T18:36:04Z</time>
      </trkpt>
      <trkpt lat="44.35007" lon="2.55439">
        <ele>517.2</ele>
        <time>2011-05-11T18:36:05Z</time>
      </trkpt>
      <trkpt lat="44.35011" lon="2.55438">
        <ele>518.5</ele>
        <time>2011-05-11T18:36:08Z</time>
      </trkpt>
      <trkpt lat="44.35015" lon="2.55434">
        <ele>521</ele>
        <time>2011-05-11T18:36:17Z</time>
      </trkpt>
      <trkpt lat="44.35019" lon="2.55431">
        <ele>521.7</ele>
        <time>2011-05-11T18:36:21Z</time>
      </trkpt>
      <trkpt lat="44.35021" lon="2.55428">
        <ele>521.5</ele>
        <time>2011-05-11T18:36:23Z</time>
      </trkpt>
      <trkpt lat="44.35024" lon="2.55427">
        <ele>521.2</ele>
        <time>2011-05-11T18:36:24Z</time>
      </trkpt>
      <trkpt lat="44.35026" lon="2.55425">
        <ele>521</ele>
        <time>2011-05-11T18:36:25Z</time>
      </trkpt>
      <trkpt lat="44.35029" lon="2.55424">
        <ele>520.7</ele>
        <time>2011-05-11T18:36:26Z</time>
      </trkpt>
      <trkpt lat="44.35031" lon="2.55422">
        <ele>520.4</ele>
        <time>2011-05-11T18:36:27Z</time>
      </trkpt>
      <trkpt lat="44.35035" lon="2.55421">
        <ele>519.9</ele>
        <time>2011-05-11T18:36:28Z</time>
      </trkpt>
      <trkpt lat="44.35039" lon="2.55419">
        <ele>519.4</ele>
        <time>2011-05-11T18:36:29Z</time>
      </trkpt>
      <trkpt lat="44.35044" lon="2.55416">
        <ele>518.9</ele>
        <time>2011-05-11T18:36:30Z</time>
      </trkpt>
      <trkpt lat="44.35049" lon="2.55413">
        <ele>518.4</ele>
        <time>2011-05-11T18:36:31Z</time>
      </trkpt>
      <trkpt lat="44.35054" lon="2.55411">
        <ele>517.9</ele>
        <time>2011-05-11T18:36:32Z</time>
      </trkpt>
      <trkpt lat="44.3506" lon="2.55408">
        <ele>517.5</ele>
        <time>2011-05-11T18:36:33Z</time>
      </trkpt>
      <trkpt lat="44.35066" lon="2.55405">
        <ele>517.2</ele>
        <time>2011-05-11T18:36:34Z</time>
      </trkpt>
      <trkpt lat="44.35071" lon="2.55404">
        <ele>517</ele>
        <time>2011-05-11T18:36:35Z</time>
      </trkpt>
      <trkpt lat="44.35077" lon="2.55402">
        <ele>516.7</ele>
        <time>2011-05-11T18:36:36Z</time>
      </trkpt>
      <trkpt lat="44.35082" lon="2.554">
        <ele>516.5</ele>
        <time>2011-05-11T18:36:37Z</time>
      </trkpt>
      <trkpt lat="44.35086" lon="2.55399">
        <ele>516.5</ele>
        <time>2011-05-11T18:36:38Z</time>
      </trkpt>
      <trkpt lat="44.35091" lon="2.55398">
        <ele>516.5</ele>
        <time>2011-05-11T18:36:39Z</time>
      </trkpt>
      <trkpt lat="44.35095" lon="2.55397">
        <ele>516.7</ele>
        <time>2011-05-11T18:36:40Z</time>
      </trkpt>
      <trkpt lat="44.35099" lon="2.55396">
        <ele>516.5</ele>
        <time>2011-05-11T18:36:41Z</time>
      </trkpt>
      <trkpt lat="44.35103" lon="2.55395">
        <ele>516.5</ele>
        <time>2011-05-11T18:36:42Z</time>
      </trkpt>
      <trkpt lat="44.35107" lon="2.55394">
        <ele>516.5</ele>
        <time>2011-05-11T18:36:43Z</time>
      </trkpt>
      <trkpt lat="44.3511" lon="2.55392">
        <ele>516.5</ele>
        <time>2011-05-11T18:36:44Z</time>
      </trkpt>
      <trkpt lat="44.35114" lon="2.5539">
        <ele>516.2</ele>
        <time>2011-05-11T18:36:45Z</time>
      </trkpt>
      <trkpt lat="44.35117" lon="2.55386">
        <ele>515.7</ele>
        <time>2011-05-11T18:36:46Z</time>
      </trkpt>
      <trkpt lat="44.3512" lon="2.55383">
        <ele>515</ele>
        <time>2011-05-11T18:36:47Z</time>
      </trkpt>
      <trkpt lat="44.35123" lon="2.55378">
        <ele>514.7</ele>
        <time>2011-05-11T18:36:48Z</time>
      </trkpt>
      <trkpt lat="44.35127" lon="2.55374">
        <ele>514.2</ele>
        <time>2011-05-11T18:36:49Z</time>
      </trkpt>
      <trkpt lat="44.3513" lon="2.5537">
        <ele>514.2</ele>
        <time>2011-05-11T18:36:50Z</time>
      </trkpt>
      <trkpt lat="44.35133" lon="2.55368">
        <ele>514.2</ele>
        <time>2011-05-11T18:36:51Z</time>
      </trkpt>
      <trkpt lat="44.35136" lon="2.55365">
        <ele>514.4</ele>
        <time>2011-05-11T18:36:52Z</time>
      </trkpt>
      <trkpt lat="44.35139" lon="2.55363">
        <ele>514.5</ele>
        <time>2011-05-11T18:36:53Z</time>
      </trkpt>
      <trkpt lat="44.35142" lon="2.55362">
        <ele>514.4</ele>
        <time>2011-05-11T18:36:54Z</time>
      </trkpt>
      <trkpt lat="44.35144" lon="2.55361">
        <ele>514.2</ele>
        <time>2011-05-11T18:36:55Z</time>
      </trkpt>
      <trkpt lat="44.35148" lon="2.55362">
        <ele>514</ele>
        <time>2011-05-11T18:36:56Z</time>
      </trkpt>
      <trkpt lat="44.3515" lon="2.55363">
        <ele>514.2</ele>
        <time>2011-05-11T18:36:57Z</time>
      </trkpt>
      <trkpt lat="44.35152" lon="2.55365">
        <ele>514.4</ele>
        <time>2011-05-11T18:36:58Z</time>
      </trkpt>
      <trkpt lat="44.35155" lon="2.55367">
        <ele>514.7</ele>
        <time>2011-05-11T18:36:59Z</time>
      </trkpt>
      <trkpt lat="44.35157" lon="2.55369">
        <ele>515</ele>
        <time>2011-05-11T18:37:00Z</time>
      </trkpt>
      <trkpt lat="44.35159" lon="2.55371">
        <ele>515.2</ele>
        <time>2011-05-11T18:37:01Z</time>
      </trkpt>
      <trkpt lat="44.35162" lon="2.55373">
        <ele>515.5</ele>
        <time>2011-05-11T18:37:02Z</time>
      </trkpt>
      <trkpt lat="44.35164" lon="2.55374">
        <ele>515.5</ele>
        <time>2011-05-11T18:37:03Z</time>
      </trkpt>
      <trkpt lat="44.35165" lon="2.55376">
        <ele>515.5</ele>
        <time>2011-05-11T18:37:04Z</time>
      </trkpt>
      <trkpt lat="44.35169" lon="2.5538">
        <ele>515.7</ele>
        <time>2011-05-11T18:37:06Z</time>
      </trkpt>
      <trkpt lat="44.35173" lon="2.55382">
        <ele>517.7</ele>
        <time>2011-05-11T18:37:19Z</time>
      </trkpt>
      <trkpt lat="44.35176" lon="2.5538">
        <ele>518.2</ele>
        <time>2011-05-11T18:37:38Z</time>
      </trkpt>
      <trkpt lat="44.35179" lon="2.55378">
        <ele>518.2</ele>
        <time>2011-05-11T18:37:40Z</time>
      </trkpt>
      <trkpt lat="44.35183" lon="2.55376">
        <ele>518.4</ele>
        <time>2011-05-11T18:37:42Z</time>
      </trkpt>
      <trkpt lat="44.35186" lon="2.55376">
        <ele>518.4</ele>
        <time>2011-05-11T18:37:43Z</time>
      </trkpt>
      <trkpt lat="44.35189" lon="2.55376">
        <ele>518.5</ele>
        <time>2011-05-11T18:37:44Z</time>
      </trkpt>
      <trkpt lat="44.35193" lon="2.55375">
        <ele>518.5</ele>
        <time>2011-05-11T18:37:45Z</time>
      </trkpt>
      <trkpt lat="44.35196" lon="2.55373">
        <ele>518.5</ele>
        <time>2011-05-11T18:37:46Z</time>
      </trkpt>
      <trkpt lat="44.352" lon="2.55372">
        <ele>518.5</ele>
        <time>2011-05-11T18:37:47Z</time>
      </trkpt>
      <trkpt lat="44.35203" lon="2.5537">
        <ele>518.5</ele>
        <time>2011-05-11T18:37:48Z</time>
      </trkpt>
      <trkpt lat="44.35206" lon="2.55368">
        <ele>518.5</ele>
        <time>2011-05-11T18:37:49Z</time>
      </trkpt>
      <trkpt lat="44.35209" lon="2.55367">
        <ele>518.5</ele>
        <time>2011-05-11T18:37:50Z</time>
      </trkpt>
      <trkpt lat="44.35213" lon="2.55366">
        <ele>518.7</ele>
        <time>2011-05-11T18:37:51Z</time>
      </trkpt>
      <trkpt lat="44.35216" lon="2.55366">
        <ele>518.7</ele>
        <time>2011-05-11T18:37:52Z</time>
      </trkpt>
      <trkpt lat="44.35219" lon="2.55365">
        <ele>518.9</ele>
        <time>2011-05-11T18:37:53Z</time>
      </trkpt>
      <trkpt lat="44.35222" lon="2.55364">
        <ele>519</ele>
        <time>2011-05-11T18:37:54Z</time>
      </trkpt>
      <trkpt lat="44.35225" lon="2.55364">
        <ele>519.2</ele>
        <time>2011-05-11T18:37:55Z</time>
      </trkpt>
      <trkpt lat="44.35229" lon="2.55364">
        <ele>519.2</ele>
        <time>2011-05-11T18:37:56Z</time>
      </trkpt>
      <trkpt lat="44.35232" lon="2.55364">
        <ele>519.5</ele>
        <time>2011-05-11T18:37:57Z</time>
      </trkpt>
      <trkpt lat="44.35235" lon="2.55364">
        <ele>519.7</ele>
        <time>2011-05-11T18:37:58Z</time>
      </trkpt>
      <trkpt lat="44.35238" lon="2.55365">
        <ele>519.7</ele>
        <time>2011-05-11T18:37:59Z</time>
      </trkpt>
      <trkpt lat="44.35241" lon="2.55365">
        <ele>520</ele>
        <time>2011-05-11T18:38:00Z</time>
      </trkpt>
      <trkpt lat="44.35244" lon="2.55365">
        <ele>520</ele>
        <time>2011-05-11T18:38:01Z</time>
      </trkpt>
      <trkpt lat="44.35247" lon="2.55366">
        <ele>520.2</ele>
        <time>2011-05-11T18:38:02Z</time>
      </trkpt>
      <trkpt lat="44.3525" lon="2.55366">
        <ele>520.4</ele>
        <time>2011-05-11T18:38:03Z</time>
      </trkpt>
      <trkpt lat="44.35253" lon="2.55367">
        <ele>520.5</ele>
        <time>2011-05-11T18:38:04Z</time>
      </trkpt>
      <trkpt lat="44.35256" lon="2.55367">
        <ele>520.7</ele>
        <time>2011-05-11T18:38:05Z</time>
      </trkpt>
      <trkpt lat="44.35259" lon="2.55368">
        <ele>520.9</ele>
        <time>2011-05-11T18:38:06Z</time>
      </trkpt>
      <trkpt lat="44.35263" lon="2.55369">
        <ele>521</ele>
        <time>2011-05-11T18:38:07Z</time>
      </trkpt>
      <trkpt lat="44.35266" lon="2.55369">
        <ele>521.2</ele>
        <time>2011-05-11T18:38:08Z</time>
      </trkpt>
      <trkpt lat="44.35269" lon="2.5537">
        <ele>521.2</ele>
        <time>2011-05-11T18:38:09Z</time>
      </trkpt>
      <trkpt lat="44.35272" lon="2.5537">
        <ele>521.4</ele>
        <time>2011-05-11T18:38:10Z</time>
      </trkpt>
      <trkpt lat="44.35275" lon="2.5537">
        <ele>521.5</ele>
        <time>2011-05-11T18:38:11Z</time>
      </trkpt>
      <trkpt lat="44.35278" lon="2.5537">
        <ele>521.5</ele>
        <time>2011-05-11T18:38:12Z</time>
      </trkpt>
      <trkpt lat="44.35281" lon="2.55371">
        <ele>521.7</ele>
        <time>2011-05-11T18:38:13Z</time>
      </trkpt>
      <trkpt lat="44.35284" lon="2.55371">
        <ele>521.7</ele>
        <time>2011-05-11T18:38:14Z</time>
      </trkpt>
      <trkpt lat="44.35288" lon="2.55371">
        <ele>521.9</ele>
        <time>2011-05-11T18:38:15Z</time>
      </trkpt>
      <trkpt lat="44.35291" lon="2.55371">
        <ele>521.9</ele>
        <time>2011-05-11T18:38:16Z</time>
      </trkpt>
      <trkpt lat="44.35294" lon="2.55372">
        <ele>522</ele>
        <time>2011-05-11T18:38:17Z</time>
      </trkpt>
      <trkpt lat="44.35297" lon="2.55372">
        <ele>522</ele>
        <time>2011-05-11T18:38:18Z</time>
      </trkpt>
      <trkpt lat="44.353" lon="2.55372">
        <ele>522</ele>
        <time>2011-05-11T18:38:19Z</time>
      </trkpt>
      <trkpt lat="44.35303" lon="2.55373">
        <ele>522.2</ele>
        <time>2011-05-11T18:38:20Z</time>
      </trkpt>
      <trkpt lat="44.35306" lon="2.55373">
        <ele>522.2</ele>
        <time>2011-05-11T18:38:21Z</time>
      </trkpt>
      <trkpt lat="44.3531" lon="2.55373">
        <ele>522.2</ele>
        <time>2011-05-11T18:38:22Z</time>
      </trkpt>
      <trkpt lat="44.35313" lon="2.55373">
        <ele>522.4</ele>
        <time>2011-05-11T18:38:23Z</time>
      </trkpt>
      <trkpt lat="44.35316" lon="2.55374">
        <ele>522.5</ele>
        <time>2011-05-11T18:38:24Z</time>
      </trkpt>
      <trkpt lat="44.35319" lon="2.55374">
        <ele>522.5</ele>
        <time>2011-05-11T18:38:25Z</time>
      </trkpt>
      <trkpt lat="44.35322" lon="2.55374">
        <ele>522.7</ele>
        <time>2011-05-11T18:38:26Z</time>
      </trkpt>
      <trkpt lat="44.35325" lon="2.55374">
        <ele>522.9</ele>
        <time>2011-05-11T18:38:27Z</time>
      </trkpt>
      <trkpt lat="44.35328" lon="2.55374">
        <ele>523</ele>
        <time>2011-05-11T18:38:28Z</time>
      </trkpt>
      <trkpt lat="44.35331" lon="2.55374">
        <ele>523</ele>
        <time>2011-05-11T18:38:29Z</time>
      </trkpt>
      <trkpt lat="44.35333" lon="2.55374">
        <ele>523.2</ele>
        <time>2011-05-11T18:38:30Z</time>
      </trkpt>
      <trkpt lat="44.35336" lon="2.55374">
        <ele>523.2</ele>
        <time>2011-05-11T18:38:31Z</time>
      </trkpt>
      <trkpt lat="44.35339" lon="2.55374">
        <ele>523.4</ele>
        <time>2011-05-11T18:38:32Z</time>
      </trkpt>
      <trkpt lat="44.35341" lon="2.55375">
        <ele>523.5</ele>
        <time>2011-05-11T18:38:33Z</time>
      </trkpt>
      <trkpt lat="44.35344" lon="2.55375">
        <ele>523.7</ele>
        <time>2011-05-11T18:38:34Z</time>
      </trkpt>
      <trkpt lat="44.35347" lon="2.55376">
        <ele>523.9</ele>
        <time>2011-05-11T18:38:35Z</time>
      </trkpt>
      <trkpt lat="44.3535" lon="2.55377">
        <ele>524.2</ele>
        <time>2011-05-11T18:38:36Z</time>
      </trkpt>
      <trkpt lat="44.35353" lon="2.55379">
        <ele>524.5</ele>
        <time>2011-05-11T18:38:37Z</time>
      </trkpt>
      <trkpt lat="44.35355" lon="2.55381">
        <ele>524.7</ele>
        <time>2011-05-11T18:38:38Z</time>
      </trkpt>
      <trkpt lat="44.35357" lon="2.55384">
        <ele>525</ele>
        <time>2011-05-11T18:38:39Z</time>
      </trkpt>
      <trkpt lat="44.35358" lon="2.55387">
        <ele>525.2</ele>
        <time>2011-05-11T18:38:40Z</time>
      </trkpt>
      <trkpt lat="44.35359" lon="2.5539">
        <ele>525.5</ele>
        <time>2011-05-11T18:38:41Z</time>
      </trkpt>
      <trkpt lat="44.3536" lon="2.55396">
        <ele>525.9</ele>
        <time>2011-05-11T18:38:43Z</time>
      </trkpt>
      <trkpt lat="44.3536" lon="2.55401">
        <ele>526.2</ele>
        <time>2011-05-11T18:38:45Z</time>
      </trkpt>
      <trkpt lat="44.35359" lon="2.55406">
        <ele>526.7</ele>
        <time>2011-05-11T18:38:47Z</time>
      </trkpt>
      <trkpt lat="44.35358" lon="2.55411">
        <ele>527.2</ele>
        <time>2011-05-11T18:38:49Z</time>
      </trkpt>
      <trkpt lat="44.35356" lon="2.55415">
        <ele>527.5</ele>
        <time>2011-05-11T18:38:51Z</time>
      </trkpt>
      <trkpt lat="44.35355" lon="2.55419">
        <ele>527.7</ele>
        <time>2011-05-11T18:38:53Z</time>
      </trkpt>
      <trkpt lat="44.35354" lon="2.55421">
        <ele>527.7</ele>
        <time>2011-05-11T18:38:54Z</time>
      </trkpt>
      <trkpt lat="44.3535" lon="2.55426">
        <ele>527.7</ele>
        <time>2011-05-11T18:38:57Z</time>
      </trkpt>
      <trkpt lat="44.35347" lon="2.55429">
        <ele>527.7</ele>
        <time>2011-05-11T18:38:59Z</time>
      </trkpt>
      <trkpt lat="44.35344" lon="2.5543">
        <ele>527.7</ele>
        <time>2011-05-11T18:39:01Z</time>
      </trkpt>
      <trkpt lat="44.3534" lon="2.55432">
        <ele>528</ele>
        <time>2011-05-11T18:39:03Z</time>
      </trkpt>
      <trkpt lat="44.35337" lon="2.55435">
        <ele>528.2</ele>
        <time>2011-05-11T18:39:06Z</time>
      </trkpt>
      <trkpt lat="44.35335" lon="2.55438">
        <ele>528</ele>
        <time>2011-05-11T18:39:08Z</time>
      </trkpt>
      <trkpt lat="44.35332" lon="2.55442">
        <ele>528</ele>
        <time>2011-05-11T18:39:10Z</time>
      </trkpt>
      <trkpt lat="44.3533" lon="2.55445">
        <ele>527.5</ele>
        <time>2011-05-11T18:39:12Z</time>
      </trkpt>
      <trkpt lat="44.35327" lon="2.55448">
        <ele>527.4</ele>
        <time>2011-05-11T18:39:14Z</time>
      </trkpt>
      <trkpt lat="44.35324" lon="2.55451">
        <ele>527.2</ele>
        <time>2011-05-11T18:39:16Z</time>
      </trkpt>
      <trkpt lat="44.35322" lon="2.55454">
        <ele>527</ele>
        <time>2011-05-11T18:39:18Z</time>
      </trkpt>
      <trkpt lat="44.35319" lon="2.55457">
        <ele>527</ele>
        <time>2011-05-11T18:39:20Z</time>
      </trkpt>
      <trkpt lat="44.35317" lon="2.5546">
        <ele>527</ele>
        <time>2011-05-11T18:39:22Z</time>
      </trkpt>
      <trkpt lat="44.35314" lon="2.55464">
        <ele>527.4</ele>
        <time>2011-05-11T18:39:24Z</time>
      </trkpt>
      <trkpt lat="44.35312" lon="2.55468">
        <ele>527.7</ele>
        <time>2011-05-11T18:39:26Z</time>
      </trkpt>
      <trkpt lat="44.3531" lon="2.55473">
        <ele>528</ele>
        <time>2011-05-11T18:39:28Z</time>
      </trkpt>
      <trkpt lat="44.35309" lon="2.55478">
        <ele>528.2</ele>
        <time>2011-05-11T18:39:30Z</time>
      </trkpt>
      <trkpt lat="44.35308" lon="2.55482">
        <ele>528.5</ele>
        <time>2011-05-11T18:39:32Z</time>
      </trkpt>
      <trkpt lat="44.35307" lon="2.55487">
        <ele>528.9</ele>
        <time>2011-05-11T18:39:34Z</time>
      </trkpt>
      <trkpt lat="44.35307" lon="2.55492">
        <ele>529</ele>
        <time>2011-05-11T18:39:36Z</time>
      </trkpt>
      <trkpt lat="44.35306" lon="2.55497">
        <ele>529.5</ele>
        <time>2011-05-11T18:39:38Z</time>
      </trkpt>
      <trkpt lat="44.35307" lon="2.55503">
        <ele>530</ele>
        <time>2011-05-11T18:39:40Z</time>
      </trkpt>
      <trkpt lat="44.35307" lon="2.55508">
        <ele>530.9</ele>
        <time>2011-05-11T18:39:42Z</time>
      </trkpt>
      <trkpt lat="44.35309" lon="2.55513">
        <ele>531.5</ele>
        <time>2011-05-11T18:39:44Z</time>
      </trkpt>
      <trkpt lat="44.3531" lon="2.55518">
        <ele>532.2</ele>
        <time>2011-05-11T18:39:46Z</time>
      </trkpt>
      <trkpt lat="44.35312" lon="2.55523">
        <ele>532.9</ele>
        <time>2011-05-11T18:39:48Z</time>
      </trkpt>
      <trkpt lat="44.35314" lon="2.55527">
        <ele>533.5</ele>
        <time>2011-05-11T18:39:50Z</time>
      </trkpt>
      <trkpt lat="44.35316" lon="2.55531">
        <ele>533.9</ele>
        <time>2011-05-11T18:39:52Z</time>
      </trkpt>
      <trkpt lat="44.35318" lon="2.55534">
        <ele>534.2</ele>
        <time>2011-05-11T18:39:54Z</time>
      </trkpt>
      <trkpt lat="44.3532" lon="2.55536">
        <ele>534.5</ele>
        <time>2011-05-11T18:39:55Z</time>
      </trkpt>
      <trkpt lat="44.35325" lon="2.55539">
        <ele>535</ele>
        <time>2011-05-11T18:39:58Z</time>
      </trkpt>
      <trkpt lat="44.35328" lon="2.55541">
        <ele>535.2</ele>
        <time>2011-05-11T18:40:00Z</time>
      </trkpt>
      <trkpt lat="44.35331" lon="2.55543">
        <ele>535.5</ele>
        <time>2011-05-11T18:40:02Z</time>
      </trkpt>
      <trkpt lat="44.35334" lon="2.55543">
        <ele>535.9</ele>
        <time>2011-05-11T18:40:04Z</time>
      </trkpt>
      <trkpt lat="44.35337" lon="2.55545">
        <ele>536.2</ele>
        <time>2011-05-11T18:40:06Z</time>
      </trkpt>
      <trkpt lat="44.3534" lon="2.55546">
        <ele>536.5</ele>
        <time>2011-05-11T18:40:08Z</time>
      </trkpt>
      <trkpt lat="44.35343" lon="2.55547">
        <ele>537</ele>
        <time>2011-05-11T18:40:10Z</time>
      </trkpt>
      <trkpt lat="44.35346" lon="2.55547">
        <ele>537.5</ele>
        <time>2011-05-11T18:40:12Z</time>
      </trkpt>
      <trkpt lat="44.35349" lon="2.55546">
        <ele>538</ele>
        <time>2011-05-11T18:40:14Z</time>
      </trkpt>
      <trkpt lat="44.35353" lon="2.55545">
        <ele>538.5</ele>
        <time>2011-05-11T18:40:16Z</time>
      </trkpt>
      <trkpt lat="44.35356" lon="2.55546">
        <ele>539</ele>
        <time>2011-05-11T18:40:18Z</time>
      </trkpt>
      <trkpt lat="44.3536" lon="2.55546">
        <ele>539.7</ele>
        <time>2011-05-11T18:40:21Z</time>
      </trkpt>
      <trkpt lat="44.35364" lon="2.55546">
        <ele>540.2</ele>
        <time>2011-05-11T18:40:24Z</time>
      </trkpt>
      <trkpt lat="44.35368" lon="2.55546">
        <ele>540.7</ele>
        <time>2011-05-11T18:40:26Z</time>
      </trkpt>
      <trkpt lat="44.35371" lon="2.55546">
        <ele>541.2</ele>
        <time>2011-05-11T18:40:28Z</time>
      </trkpt>
      <trkpt lat="44.35374" lon="2.55545">
        <ele>541.9</ele>
        <time>2011-05-11T18:40:30Z</time>
      </trkpt>
      <trkpt lat="44.35377" lon="2.55546">
        <ele>542.5</ele>
        <time>2011-05-11T18:40:32Z</time>
      </trkpt>
      <trkpt lat="44.3538" lon="2.55547">
        <ele>543.2</ele>
        <time>2011-05-11T18:40:34Z</time>
      </trkpt>
      <trkpt lat="44.35383" lon="2.55547">
        <ele>543.9</ele>
        <time>2011-05-11T18:40:36Z</time>
      </trkpt>
      <trkpt lat="44.35386" lon="2.55547">
        <ele>544.5</ele>
        <time>2011-05-11T18:40:38Z</time>
      </trkpt>
      <trkpt lat="44.3539" lon="2.55547">
        <ele>545.2</ele>
        <time>2011-05-11T18:40:40Z</time>
      </trkpt>
      <trkpt lat="44.35393" lon="2.55547">
        <ele>545.7</ele>
        <time>2011-05-11T18:40:42Z</time>
      </trkpt>
      <trkpt lat="44.35396" lon="2.55547">
        <ele>546.5</ele>
        <time>2011-05-11T18:40:44Z</time>
      </trkpt>
      <trkpt lat="44.35399" lon="2.55546">
        <ele>547.2</ele>
        <time>2011-05-11T18:40:46Z</time>
      </trkpt>
      <trkpt lat="44.35403" lon="2.55545">
        <ele>547.7</ele>
        <time>2011-05-11T18:40:48Z</time>
      </trkpt>
      <trkpt lat="44.35406" lon="2.55545">
        <ele>548.4</ele>
        <time>2011-05-11T18:40:50Z</time>
      </trkpt>
      <trkpt lat="44.3541" lon="2.55544">
        <ele>549.2</ele>
        <time>2011-05-11T18:40:52Z</time>
      </trkpt>
      <trkpt lat="44.35414" lon="2.55542">
        <ele>549.9</ele>
        <time>2011-05-11T18:40:54Z</time>
      </trkpt>
      <trkpt lat="44.35418" lon="2.55541">
        <ele>550.5</ele>
        <time>2011-05-11T18:40:56Z</time>
      </trkpt>
      <trkpt lat="44.3542" lon="2.55541">
        <ele>551</ele>
        <time>2011-05-11T18:40:57Z</time>
      </trkpt>
      <trkpt lat="44.35426" lon="2.55539">
        <ele>552</ele>
        <time>2011-05-11T18:41:00Z</time>
      </trkpt>
      <trkpt lat="44.3543" lon="2.55537">
        <ele>552.7</ele>
        <time>2011-05-11T18:41:02Z</time>
      </trkpt>
      <trkpt lat="44.35434" lon="2.55536">
        <ele>553.5</ele>
        <time>2011-05-11T18:41:04Z</time>
      </trkpt>
      <trkpt lat="44.35438" lon="2.55535">
        <ele>554.2</ele>
        <time>2011-05-11T18:41:06Z</time>
      </trkpt>
      <trkpt lat="44.35442" lon="2.55534">
        <ele>554.9</ele>
        <time>2011-05-11T18:41:08Z</time>
      </trkpt>
      <trkpt lat="44.35446" lon="2.55533">
        <ele>555.5</ele>
        <time>2011-05-11T18:41:10Z</time>
      </trkpt>
      <trkpt lat="44.3545" lon="2.55532">
        <ele>556.2</ele>
        <time>2011-05-11T18:41:12Z</time>
      </trkpt>
      <trkpt lat="44.35454" lon="2.55531">
        <ele>556.9</ele>
        <time>2011-05-11T18:41:14Z</time>
      </trkpt>
      <trkpt lat="44.35458" lon="2.55531">
        <ele>557.5</ele>
        <time>2011-05-11T18:41:16Z</time>
      </trkpt>
      <trkpt lat="44.35462" lon="2.55531">
        <ele>558.2</ele>
        <time>2011-05-11T18:41:18Z</time>
      </trkpt>
      <trkpt lat="44.35466" lon="2.5553">
        <ele>558.7</ele>
        <time>2011-05-11T18:41:20Z</time>
      </trkpt>
      <trkpt lat="44.35469" lon="2.5553">
        <ele>559</ele>
        <time>2011-05-11T18:41:22Z</time>
      </trkpt>
      <trkpt lat="44.35473" lon="2.55531">
        <ele>559.2</ele>
        <time>2011-05-11T18:41:24Z</time>
      </trkpt>
      <trkpt lat="44.35477" lon="2.55531">
        <ele>560</ele>
        <time>2011-05-11T18:41:26Z</time>
      </trkpt>
      <trkpt lat="44.35481" lon="2.55531">
        <ele>560.5</ele>
        <time>2011-05-11T18:41:28Z</time>
      </trkpt>
      <trkpt lat="44.35484" lon="2.55532">
        <ele>561.4</ele>
        <time>2011-05-11T18:41:30Z</time>
      </trkpt>
      <trkpt lat="44.35488" lon="2.55533">
        <ele>562</ele>
        <time>2011-05-11T18:41:32Z</time>
      </trkpt>
      <trkpt lat="44.35492" lon="2.55534">
        <ele>562.7</ele>
        <time>2011-05-11T18:41:34Z</time>
      </trkpt>
      <trkpt lat="44.35496" lon="2.55536">
        <ele>563.4</ele>
        <time>2011-05-11T18:41:36Z</time>
      </trkpt>
      <trkpt lat="44.355" lon="2.55537">
        <ele>564</ele>
        <time>2011-05-11T18:41:38Z</time>
      </trkpt>
      <trkpt lat="44.35504" lon="2.55539">
        <ele>564.9</ele>
        <time>2011-05-11T18:41:40Z</time>
      </trkpt>
      <trkpt lat="44.35508" lon="2.55541">
        <ele>565.5</ele>
        <time>2011-05-11T18:41:42Z</time>
      </trkpt>
      <trkpt lat="44.35511" lon="2.55544">
        <ele>566.4</ele>
        <time>2011-05-11T18:41:44Z</time>
      </trkpt>
      <trkpt lat="44.35515" lon="2.55546">
        <ele>567</ele>
        <time>2011-05-11T18:41:46Z</time>
      </trkpt>
      <trkpt lat="44.35519" lon="2.55548">
        <ele>567.5</ele>
        <time>2011-05-11T18:41:48Z</time>
      </trkpt>
      <trkpt lat="44.35523" lon="2.55551">
        <ele>568.2</ele>
        <time>2011-05-11T18:41:50Z</time>
      </trkpt>
      <trkpt lat="44.35526" lon="2.55554">
        <ele>568.5</ele>
        <time>2011-05-11T18:41:52Z</time>
      </trkpt>
      <trkpt lat="44.3553" lon="2.55556">
        <ele>569</ele>
        <time>2011-05-11T18:41:54Z</time>
      </trkpt>
      <trkpt lat="44.35533" lon="2.55559">
        <ele>569.2</ele>
        <time>2011-05-11T18:41:56Z</time>
      </trkpt>
      <trkpt lat="44.35537" lon="2.55562">
        <ele>569.7</ele>
        <time>2011-05-11T18:41:58Z</time>
      </trkpt>
      <trkpt lat="44.35538" lon="2.55564">
        <ele>569.9</ele>
        <time>2011-05-11T18:41:59Z</time>
      </trkpt>
      <trkpt lat="44.35542" lon="2.55569">
        <ele>570.4</ele>
        <time>2011-05-11T18:42:02Z</time>
      </trkpt>
      <trkpt lat="44.35544" lon="2.55574">
        <ele>570.5</ele>
        <time>2011-05-11T18:42:04Z</time>
      </trkpt>
      <trkpt lat="44.35546" lon="2.55576">
        <ele>570.7</ele>
        <time>2011-05-11T18:42:05Z</time>
      </trkpt>
      <trkpt lat="44.35547" lon="2.55579">
        <ele>570.9</ele>
        <time>2011-05-11T18:42:06Z</time>
      </trkpt>
      <trkpt lat="44.35549" lon="2.55582">
        <ele>571</ele>
        <time>2011-05-11T18:42:07Z</time>
      </trkpt>
      <trkpt lat="44.3555" lon="2.55584">
        <ele>571.2</ele>
        <time>2011-05-11T18:42:08Z</time>
      </trkpt>
      <trkpt lat="44.35552" lon="2.55586">
        <ele>571.5</ele>
        <time>2011-05-11T18:42:09Z</time>
      </trkpt>
      <trkpt lat="44.35554" lon="2.55588">
        <ele>571.7</ele>
        <time>2011-05-11T18:42:10Z</time>
      </trkpt>
      <trkpt lat="44.35559" lon="2.55588">
        <ele>572.2</ele>
        <time>2011-05-11T18:42:12Z</time>
      </trkpt>
      <trkpt lat="44.35563" lon="2.55587">
        <ele>572.7</ele>
        <time>2011-05-11T18:42:14Z</time>
      </trkpt>
      <trkpt lat="44.35567" lon="2.55588">
        <ele>573.2</ele>
        <time>2011-05-11T18:42:16Z</time>
      </trkpt>
      <trkpt lat="44.35571" lon="2.55591">
        <ele>573.5</ele>
        <time>2011-05-11T18:42:18Z</time>
      </trkpt>
      <trkpt lat="44.35574" lon="2.55595">
        <ele>573.7</ele>
        <time>2011-05-11T18:42:20Z</time>
      </trkpt>
      <trkpt lat="44.35577" lon="2.55599">
        <ele>574</ele>
        <time>2011-05-11T18:42:22Z</time>
      </trkpt>
      <trkpt lat="44.35581" lon="2.55602">
        <ele>574.5</ele>
        <time>2011-05-11T18:42:24Z</time>
      </trkpt>
      <trkpt lat="44.35582" lon="2.55604">
        <ele>574.7</ele>
        <time>2011-05-11T18:42:25Z</time>
      </trkpt>
      <trkpt lat="44.35584" lon="2.55606">
        <ele>574.7</ele>
        <time>2011-05-11T18:42:26Z</time>
      </trkpt>
      <trkpt lat="44.35586" lon="2.55607">
        <ele>575</ele>
        <time>2011-05-11T18:42:27Z</time>
      </trkpt>
      <trkpt lat="44.35588" lon="2.55609">
        <ele>575.2</ele>
        <time>2011-05-11T18:42:28Z</time>
      </trkpt>
      <trkpt lat="44.3559" lon="2.55611">
        <ele>575.4</ele>
        <time>2011-05-11T18:42:29Z</time>
      </trkpt>
      <trkpt lat="44.35594" lon="2.55614">
        <ele>575.5</ele>
        <time>2011-05-11T18:42:31Z</time>
      </trkpt>
      <trkpt lat="44.35597" lon="2.55616">
        <ele>575.9</ele>
        <time>2011-05-11T18:42:33Z</time>
      </trkpt>
      <trkpt lat="44.35601" lon="2.55619">
        <ele>576.2</ele>
        <time>2011-05-11T18:42:35Z</time>
      </trkpt>
      <trkpt lat="44.35604" lon="2.55622">
        <ele>576.5</ele>
        <time>2011-05-11T18:42:37Z</time>
      </trkpt>
      <trkpt lat="44.35608" lon="2.55625">
        <ele>576.7</ele>
        <time>2011-05-11T18:42:39Z</time>
      </trkpt>
      <trkpt lat="44.35611" lon="2.55627">
        <ele>576.7</ele>
        <time>2011-05-11T18:42:41Z</time>
      </trkpt>
      <trkpt lat="44.35613" lon="2.5563">
        <ele>576.7</ele>
        <time>2011-05-11T18:42:43Z</time>
      </trkpt>
      <trkpt lat="44.35616" lon="2.55632">
        <ele>576.9</ele>
        <time>2011-05-11T18:42:45Z</time>
      </trkpt>
      <trkpt lat="44.3562" lon="2.55635">
        <ele>577</ele>
        <time>2011-05-11T18:42:47Z</time>
      </trkpt>
      <trkpt lat="44.35623" lon="2.55638">
        <ele>577</ele>
        <time>2011-05-11T18:42:49Z</time>
      </trkpt>
      <trkpt lat="44.35627" lon="2.5564">
        <ele>577</ele>
        <time>2011-05-11T18:42:51Z</time>
      </trkpt>
      <trkpt lat="44.35631" lon="2.55643">
        <ele>577</ele>
        <time>2011-05-11T18:42:53Z</time>
      </trkpt>
      <trkpt lat="44.35634" lon="2.55645">
        <ele>577</ele>
        <time>2011-05-11T18:42:55Z</time>
      </trkpt>
      <trkpt lat="44.35637" lon="2.55647">
        <ele>577</ele>
        <time>2011-05-11T18:42:57Z</time>
      </trkpt>
      <trkpt lat="44.35641" lon="2.55648">
        <ele>576.7</ele>
        <time>2011-05-11T18:42:59Z</time>
      </trkpt>
      <trkpt lat="44.35642" lon="2.55648">
        <ele>576.7</ele>
        <time>2011-05-11T18:43:00Z</time>
      </trkpt>
      <trkpt lat="44.35647" lon="2.55653">
        <ele>576.4</ele>
        <time>2011-05-11T18:43:03Z</time>
      </trkpt>
      <trkpt lat="44.35651" lon="2.55655">
        <ele>576.2</ele>
        <time>2011-05-11T18:43:05Z</time>
      </trkpt>
      <trkpt lat="44.35653" lon="2.55656">
        <ele>576</ele>
        <time>2011-05-11T18:43:06Z</time>
      </trkpt>
      <trkpt lat="44.35656" lon="2.55657">
        <ele>575.9</ele>
        <time>2011-05-11T18:43:07Z</time>
      </trkpt>
      <trkpt lat="44.35658" lon="2.55658">
        <ele>575.7</ele>
        <time>2011-05-11T18:43:08Z</time>
      </trkpt>
      <trkpt lat="44.35661" lon="2.55658">
        <ele>575.7</ele>
        <time>2011-05-11T18:43:09Z</time>
      </trkpt>
      <trkpt lat="44.35664" lon="2.55659">
        <ele>575.5</ele>
        <time>2011-05-11T18:43:10Z</time>
      </trkpt>
      <trkpt lat="44.35666" lon="2.5566">
        <ele>575.5</ele>
        <time>2011-05-11T18:43:11Z</time>
      </trkpt>
      <trkpt lat="44.35668" lon="2.55661">
        <ele>575.2</ele>
        <time>2011-05-11T18:43:12Z</time>
      </trkpt>
      <trkpt lat="44.35671" lon="2.55663">
        <ele>575</ele>
        <time>2011-05-11T18:43:13Z</time>
      </trkpt>
      <trkpt lat="44.35673" lon="2.55665">
        <ele>574.9</ele>
        <time>2011-05-11T18:43:14Z</time>
      </trkpt>
      <trkpt lat="44.35675" lon="2.55668">
        <ele>574.5</ele>
        <time>2011-05-11T18:43:15Z</time>
      </trkpt>
      <trkpt lat="44.35678" lon="2.55673">
        <ele>573.9</ele>
        <time>2011-05-11T18:43:16Z</time>
      </trkpt>
      <trkpt lat="44.3568" lon="2.55679">
        <ele>573.4</ele>
        <time>2011-05-11T18:43:17Z</time>
      </trkpt>
      <trkpt lat="44.35682" lon="2.55684">
        <ele>573</ele>
        <time>2011-05-11T18:43:18Z</time>
      </trkpt>
      <trkpt lat="44.35687" lon="2.55685">
        <ele>570.9</ele>
        <time>2011-05-11T18:44:29Z</time>
      </trkpt>
      <trkpt lat="44.35687" lon="2.55686">
        <ele>571</ele>
        <time>2011-05-11T18:44:30Z</time>
      </trkpt>
      <trkpt lat="44.35695" lon="2.55685">
        <ele>571</ele>
        <time>2011-05-11T18:45:07Z</time>
      </trkpt>
      <trkpt lat="44.35699" lon="2.55687">
        <ele>571</ele>
        <time>2011-05-11T18:45:10Z</time>
      </trkpt>
      <trkpt lat="44.35703" lon="2.55689">
        <ele>571.2</ele>
        <time>2011-05-11T18:45:13Z</time>
      </trkpt>
      <trkpt lat="44.35707" lon="2.55688">
        <ele>571.4</ele>
        <time>2011-05-11T18:45:16Z</time>
      </trkpt>
      <trkpt lat="44.35711" lon="2.55688">
        <ele>571.7</ele>
        <time>2011-05-11T18:45:19Z</time>
      </trkpt>
      <trkpt lat="44.35713" lon="2.55683">
        <ele>572</ele>
        <time>2011-05-11T18:45:22Z</time>
      </trkpt>
      <trkpt lat="44.35715" lon="2.55679">
        <ele>572.2</ele>
        <time>2011-05-11T18:45:24Z</time>
      </trkpt>
      <trkpt lat="44.35717" lon="2.55675">
        <ele>572</ele>
        <time>2011-05-11T18:45:26Z</time>
      </trkpt>
      <trkpt lat="44.3572" lon="2.55672">
        <ele>571.9</ele>
        <time>2011-05-11T18:45:28Z</time>
      </trkpt>
      <trkpt lat="44.35723" lon="2.5567">
        <ele>571.7</ele>
        <time>2011-05-11T18:45:30Z</time>
      </trkpt>
      <trkpt lat="44.35724" lon="2.55668">
        <ele>571.5</ele>
        <time>2011-05-11T18:45:31Z</time>
      </trkpt>
      <trkpt lat="44.35728" lon="2.55661">
        <ele>570.7</ele>
        <time>2011-05-11T18:45:34Z</time>
      </trkpt>
      <trkpt lat="44.35729" lon="2.55656">
        <ele>570.9</ele>
        <time>2011-05-11T18:45:36Z</time>
      </trkpt>
      <trkpt lat="44.3573" lon="2.55651">
        <ele>570.9</ele>
        <time>2011-05-11T18:45:38Z</time>
      </trkpt>
      <trkpt lat="44.35729" lon="2.55647">
        <ele>571</ele>
        <time>2011-05-11T18:45:40Z</time>
      </trkpt>
      <trkpt lat="44.35727" lon="2.55642">
        <ele>570.7</ele>
        <time>2011-05-11T18:45:44Z</time>
      </trkpt>
      <trkpt lat="44.35724" lon="2.55643">
        <ele>570.5</ele>
        <time>2011-05-11T18:45:47Z</time>
      </trkpt>
      <trkpt lat="44.3572" lon="2.55644">
        <ele>570.7</ele>
        <time>2011-05-11T18:45:50Z</time>
      </trkpt>
      <trkpt lat="44.35716" lon="2.55645">
        <ele>571.2</ele>
        <time>2011-05-11T18:45:54Z</time>
      </trkpt>
      <trkpt lat="44.35714" lon="2.5565">
        <ele>572</ele>
        <time>2011-05-11T18:46:09Z</time>
      </trkpt>
      <trkpt lat="44.35761" lon="2.55622">
        <ele>607</ele>
        <time>2011-05-11T18:47:13Z</time>
      </trkpt>
      <trkpt lat="44.35741" lon="2.55634">
        <ele>598</ele>
        <time>2011-05-11T18:47:15Z</time>
      </trkpt>
    </trkseg>
  </trk>
</gpx>